<?xml version="1.0" encoding="UTF-8" standalone="no" ?>
<gpx xmlns="http://www.topografix.com/GPX/1/1" xmlns:xsi="http://www.w3.org/2001/XMLSchema-instance" xsi:schemaLocation="http://www.topografix.com/GPX/1/1 http://www.topografix.com/GPX/1/1/gpx.xsd" version="1.1" creator="VisuGPX - https://www.visugpx.com">
  <metadata>
    <name>2016-01-14 Walk from Denicé</name>
    <desc><![CDATA[2016-01-14 Walk from Denicé]]></desc>
  </metadata>
  <wpt lat="46.00387" lon="4.64425">
    <ele>306.1</ele>
    <name><![CDATA[2016-01-14 09:37 (Start)]]></name>
  </wpt>
  <wpt lat="46.00389" lon="4.64426">
    <ele>312</ele>
    <name><![CDATA[2016-01-14 09:37 (End)]]></name>
    <desc><![CDATA[Created by Google My Tracks on Android  Name: 2016-01-14 09:37 Activity type: walking Description: - Total distance: 21.75 km (13.5 mi) Total time: 6:07:03 Moving time: 5:25:20 Average speed: 3.55 km/h (2.2 mi/h) Average moving speed: 4.01 km/h (2.5 mi/h) Max speed: 5.40 km/h (3.4 mi/h) Average pace: 16:53 min/km (27:10 min/mi) Average moving pace: 14:58 min/km (24:05 min/mi) Fastest pace: 11:06 min/km (17:52 min/mi) Max elevation: 496 m (1626 ft) Min elevation: 235 m (771 ft) Elevation gain: 761 m (2497 ft) Max grade: 24 % Min grade: -15 % Recorded: 14/01/2016 09:37]]></desc>
  </wpt>
  <trk>
    <name><![CDATA[2016-01-14 09:37]]></name>
    <trkseg>
      <trkpt lat="46.00387" lon="4.64425">
        <ele>306.117767334</ele>
        <time>2016-01-14T08:37:46.266Z</time>
      </trkpt>
      <trkpt lat="46.00393" lon="4.64425">
        <ele>308.034057617</ele>
        <time>2016-01-14T08:42:50.501Z</time>
      </trkpt>
      <trkpt lat="46.00396" lon="4.64427">
        <ele>308.032562256</ele>
        <time>2016-01-14T08:42:51.466Z</time>
      </trkpt>
      <trkpt lat="46.00388" lon="4.64433">
        <ele>307.722808838</ele>
        <time>2016-01-14T08:43:07.487Z</time>
      </trkpt>
      <trkpt lat="46.00387" lon="4.64434">
        <ele>307.77355957</ele>
        <time>2016-01-14T08:43:08.471Z</time>
      </trkpt>
      <trkpt lat="46.00381" lon="4.64441">
        <ele>307.886199951</ele>
        <time>2016-01-14T08:43:14.498Z</time>
      </trkpt>
      <trkpt lat="46.0038" lon="4.64442">
        <ele>307.861297607</ele>
        <time>2016-01-14T08:43:15.47Z</time>
      </trkpt>
      <trkpt lat="46.00374" lon="4.64452">
        <ele>307.554718018</ele>
        <time>2016-01-14T08:43:23.492Z</time>
      </trkpt>
      <trkpt lat="46.00373" lon="4.64452">
        <ele>307.564300537</ele>
        <time>2016-01-14T08:43:24.492Z</time>
      </trkpt>
      <trkpt lat="46.00367" lon="4.64461">
        <ele>307.278808594</ele>
        <time>2016-01-14T08:43:32.494Z</time>
      </trkpt>
      <trkpt lat="46.00366" lon="4.64462">
        <ele>307.18157959</ele>
        <time>2016-01-14T08:43:33.493Z</time>
      </trkpt>
      <trkpt lat="46.00359" lon="4.64469">
        <ele>306.824798584</ele>
        <time>2016-01-14T08:43:43.526Z</time>
      </trkpt>
      <trkpt lat="46.00358" lon="4.6447">
        <ele>306.782806396</ele>
        <time>2016-01-14T08:43:44.478Z</time>
      </trkpt>
      <trkpt lat="46.00351" lon="4.64478">
        <ele>306.468261719</ele>
        <time>2016-01-14T08:43:50.484Z</time>
      </trkpt>
      <trkpt lat="46.0035" lon="4.64479">
        <ele>306.427978516</ele>
        <time>2016-01-14T08:43:51.477Z</time>
      </trkpt>
      <trkpt lat="46.00343" lon="4.64486">
        <ele>306.18548584</ele>
        <time>2016-01-14T08:43:58.512Z</time>
      </trkpt>
      <trkpt lat="46.00342" lon="4.64487">
        <ele>306.148925781</ele>
        <time>2016-01-14T08:43:59.476Z</time>
      </trkpt>
      <trkpt lat="46.00336" lon="4.64495">
        <ele>305.844390869</ele>
        <time>2016-01-14T08:44:07.487Z</time>
      </trkpt>
      <trkpt lat="46.00335" lon="4.64497">
        <ele>305.770599365</ele>
        <time>2016-01-14T08:44:08.475Z</time>
      </trkpt>
      <trkpt lat="46.00329" lon="4.64506">
        <ele>305.338317871</ele>
        <time>2016-01-14T08:44:15.491Z</time>
      </trkpt>
      <trkpt lat="46.00328" lon="4.64507">
        <ele>305.237731934</ele>
        <time>2016-01-14T08:44:16.471Z</time>
      </trkpt>
      <trkpt lat="46.00322" lon="4.64515">
        <ele>305.12512207</ele>
        <time>2016-01-14T08:44:23.505Z</time>
      </trkpt>
      <trkpt lat="46.00321" lon="4.64517">
        <ele>305.166534424</ele>
        <time>2016-01-14T08:44:24.478Z</time>
      </trkpt>
      <trkpt lat="46.00315" lon="4.64525">
        <ele>305.926757812</ele>
        <time>2016-01-14T08:44:31.503Z</time>
      </trkpt>
      <trkpt lat="46.00314" lon="4.64526">
        <ele>306.115936279</ele>
        <time>2016-01-14T08:44:32.476Z</time>
      </trkpt>
      <trkpt lat="46.00308" lon="4.64535">
        <ele>307.16897583</ele>
        <time>2016-01-14T08:44:39.492Z</time>
      </trkpt>
      <trkpt lat="46.00307" lon="4.64537">
        <ele>307.301300049</ele>
        <time>2016-01-14T08:44:40.518Z</time>
      </trkpt>
      <trkpt lat="46.00301" lon="4.64546">
        <ele>307.625213623</ele>
        <time>2016-01-14T08:44:47.518Z</time>
      </trkpt>
      <trkpt lat="46.00301" lon="4.64547">
        <ele>307.679840088</ele>
        <time>2016-01-14T08:44:48.47Z</time>
      </trkpt>
      <trkpt lat="46.00295" lon="4.64555">
        <ele>308.39553833</ele>
        <time>2016-01-14T08:44:56.49Z</time>
      </trkpt>
      <trkpt lat="46.00294" lon="4.64556">
        <ele>308.452850342</ele>
        <time>2016-01-14T08:44:57.477Z</time>
      </trkpt>
      <trkpt lat="46.00288" lon="4.64564">
        <ele>309.497283936</ele>
        <time>2016-01-14T08:45:07.522Z</time>
      </trkpt>
      <trkpt lat="46.00288" lon="4.64565">
        <ele>309.613739014</ele>
        <time>2016-01-14T08:45:08.471Z</time>
      </trkpt>
      <trkpt lat="46.00283" lon="4.64574">
        <ele>310.07800293</ele>
        <time>2016-01-14T08:45:15.495Z</time>
      </trkpt>
      <trkpt lat="46.00282" lon="4.64575">
        <ele>310.202392578</ele>
        <time>2016-01-14T08:45:16.476Z</time>
      </trkpt>
      <trkpt lat="46.00274" lon="4.64582">
        <ele>311.60345459</ele>
        <time>2016-01-14T08:45:26.492Z</time>
      </trkpt>
      <trkpt lat="46.00274" lon="4.64583">
        <ele>311.661590576</ele>
        <time>2016-01-14T08:45:27.468Z</time>
      </trkpt>
      <trkpt lat="46.00266" lon="4.64586">
        <ele>312.96395874</ele>
        <time>2016-01-14T08:45:38.478Z</time>
      </trkpt>
      <trkpt lat="46.00265" lon="4.64586">
        <ele>313.104248047</ele>
        <time>2016-01-14T08:45:39.457Z</time>
      </trkpt>
      <trkpt lat="46.00257" lon="4.64587">
        <ele>314.882385254</ele>
        <time>2016-01-14T08:45:49.481Z</time>
      </trkpt>
      <trkpt lat="46.00255" lon="4.64587">
        <ele>315.051483154</ele>
        <time>2016-01-14T08:45:50.455Z</time>
      </trkpt>
      <trkpt lat="46.00247" lon="4.64587">
        <ele>315.712738037</ele>
        <time>2016-01-14T08:45:55.48Z</time>
      </trkpt>
      <trkpt lat="46.00246" lon="4.64587">
        <ele>315.795776367</ele>
        <time>2016-01-14T08:45:56.464Z</time>
      </trkpt>
      <trkpt lat="46.00237" lon="4.64587">
        <ele>316.566589355</ele>
        <time>2016-01-14T08:46:02.484Z</time>
      </trkpt>
      <trkpt lat="46.00236" lon="4.64587">
        <ele>316.752685547</ele>
        <time>2016-01-14T08:46:03.465Z</time>
      </trkpt>
      <trkpt lat="46.00227" lon="4.64585">
        <ele>318.121459961</ele>
        <time>2016-01-14T08:46:09.482Z</time>
      </trkpt>
      <trkpt lat="46.00226" lon="4.64584">
        <ele>318.308563232</ele>
        <time>2016-01-14T08:46:10.47Z</time>
      </trkpt>
      <trkpt lat="46.00218" lon="4.64581">
        <ele>319.39553833</ele>
        <time>2016-01-14T08:46:20.491Z</time>
      </trkpt>
      <trkpt lat="46.00217" lon="4.6458">
        <ele>319.503601074</ele>
        <time>2016-01-14T08:46:21.464Z</time>
      </trkpt>
      <trkpt lat="46.00208" lon="4.64581">
        <ele>320.775726318</ele>
        <time>2016-01-14T08:46:29.527Z</time>
      </trkpt>
      <trkpt lat="46.00207" lon="4.64581">
        <ele>320.990631104</ele>
        <time>2016-01-14T08:46:30.471Z</time>
      </trkpt>
      <trkpt lat="46.00199" lon="4.64582">
        <ele>321.841552734</ele>
        <time>2016-01-14T08:46:35.492Z</time>
      </trkpt>
      <trkpt lat="46.00198" lon="4.64584">
        <ele>321.990447998</ele>
        <time>2016-01-14T08:46:36.466Z</time>
      </trkpt>
      <trkpt lat="46.00189" lon="4.64585">
        <ele>322.926971436</ele>
        <time>2016-01-14T08:46:43.492Z</time>
      </trkpt>
      <trkpt lat="46.00188" lon="4.64585">
        <ele>323.075561523</ele>
        <time>2016-01-14T08:46:44.444Z</time>
      </trkpt>
      <trkpt lat="46.00179" lon="4.64585">
        <ele>323.339080811</ele>
        <time>2016-01-14T08:46:54.491Z</time>
      </trkpt>
      <trkpt lat="46.00178" lon="4.64585">
        <ele>323.348022461</ele>
        <time>2016-01-14T08:46:55.489Z</time>
      </trkpt>
      <trkpt lat="46.00169" lon="4.64584">
        <ele>323.40725708</ele>
        <time>2016-01-14T08:47:03.5Z</time>
      </trkpt>
      <trkpt lat="46.00168" lon="4.64584">
        <ele>323.429870605</ele>
        <time>2016-01-14T08:47:04.475Z</time>
      </trkpt>
      <trkpt lat="46.0016" lon="4.64584">
        <ele>323.52331543</ele>
        <time>2016-01-14T08:47:09.486Z</time>
      </trkpt>
      <trkpt lat="46.00159" lon="4.64584">
        <ele>323.623565674</ele>
        <time>2016-01-14T08:47:10.475Z</time>
      </trkpt>
      <trkpt lat="46.00151" lon="4.64584">
        <ele>323.901611328</ele>
        <time>2016-01-14T08:47:16.491Z</time>
      </trkpt>
      <trkpt lat="46.00149" lon="4.64584">
        <ele>323.872467041</ele>
        <time>2016-01-14T08:47:17.494Z</time>
      </trkpt>
      <trkpt lat="46.00141" lon="4.64579">
        <ele>323.863983154</ele>
        <time>2016-01-14T08:47:25.491Z</time>
      </trkpt>
      <trkpt lat="46.0014" lon="4.64578">
        <ele>323.859863281</ele>
        <time>2016-01-14T08:47:26.487Z</time>
      </trkpt>
      <trkpt lat="46.00133" lon="4.64571">
        <ele>323.793426514</ele>
        <time>2016-01-14T08:47:33.49Z</time>
      </trkpt>
      <trkpt lat="46.00132" lon="4.6457">
        <ele>323.857788086</ele>
        <time>2016-01-14T08:47:34.464Z</time>
      </trkpt>
      <trkpt lat="46.00124" lon="4.64564">
        <ele>324.404754639</ele>
        <time>2016-01-14T08:47:42.479Z</time>
      </trkpt>
      <trkpt lat="46.00123" lon="4.64564">
        <ele>324.482269287</ele>
        <time>2016-01-14T08:47:43.449Z</time>
      </trkpt>
      <trkpt lat="46.00115" lon="4.64561">
        <ele>325.242218018</ele>
        <time>2016-01-14T08:47:49.494Z</time>
      </trkpt>
      <trkpt lat="46.00113" lon="4.64561">
        <ele>325.378631592</ele>
        <time>2016-01-14T08:47:50.476Z</time>
      </trkpt>
      <trkpt lat="46.00105" lon="4.64558">
        <ele>326.668792725</ele>
        <time>2016-01-14T08:47:56.487Z</time>
      </trkpt>
      <trkpt lat="46.00103" lon="4.64558">
        <ele>326.866088867</ele>
        <time>2016-01-14T08:47:57.475Z</time>
      </trkpt>
      <trkpt lat="46.00098" lon="4.64549">
        <ele>327.547363281</ele>
        <time>2016-01-14T08:48:03.498Z</time>
      </trkpt>
      <trkpt lat="46.00097" lon="4.64547">
        <ele>327.629760742</ele>
        <time>2016-01-14T08:48:04.486Z</time>
      </trkpt>
      <trkpt lat="46.00089" lon="4.64542">
        <ele>327.918243408</ele>
        <time>2016-01-14T08:48:12.491Z</time>
      </trkpt>
      <trkpt lat="46.00088" lon="4.64542">
        <ele>327.965698242</ele>
        <time>2016-01-14T08:48:13.486Z</time>
      </trkpt>
      <trkpt lat="46.00081" lon="4.64537">
        <ele>328.294250488</ele>
        <time>2016-01-14T08:48:19.595Z</time>
      </trkpt>
      <trkpt lat="46.0008" lon="4.64536">
        <ele>328.333465576</ele>
        <time>2016-01-14T08:48:20.487Z</time>
      </trkpt>
      <trkpt lat="46.00072" lon="4.64531">
        <ele>328.722686768</ele>
        <time>2016-01-14T08:48:26.486Z</time>
      </trkpt>
      <trkpt lat="46.00071" lon="4.64531">
        <ele>328.839538574</ele>
        <time>2016-01-14T08:48:27.477Z</time>
      </trkpt>
      <trkpt lat="46.00063" lon="4.64527">
        <ele>329.23815918</ele>
        <time>2016-01-14T08:48:33.476Z</time>
      </trkpt>
      <trkpt lat="46.00061" lon="4.64526">
        <ele>329.32208252</ele>
        <time>2016-01-14T08:48:34.477Z</time>
      </trkpt>
      <trkpt lat="46.00054" lon="4.64521">
        <ele>329.993286133</ele>
        <time>2016-01-14T08:48:40.556Z</time>
      </trkpt>
      <trkpt lat="46.00052" lon="4.64521">
        <ele>330.057739258</ele>
        <time>2016-01-14T08:48:41.483Z</time>
      </trkpt>
      <trkpt lat="46.00045" lon="4.64519">
        <ele>330.21105957</ele>
        <time>2016-01-14T08:48:47.506Z</time>
      </trkpt>
      <trkpt lat="46.00044" lon="4.64519">
        <ele>330.21673584</ele>
        <time>2016-01-14T08:48:48.47Z</time>
      </trkpt>
      <trkpt lat="46.00035" lon="4.64517">
        <ele>329.837005615</ele>
        <time>2016-01-14T08:48:55.485Z</time>
      </trkpt>
      <trkpt lat="46.00034" lon="4.64517">
        <ele>329.783569336</ele>
        <time>2016-01-14T08:48:56.482Z</time>
      </trkpt>
      <trkpt lat="46.00025" lon="4.64513">
        <ele>329.965240479</ele>
        <time>2016-01-14T08:49:03.491Z</time>
      </trkpt>
      <trkpt lat="46.00024" lon="4.64513">
        <ele>329.969818115</ele>
        <time>2016-01-14T08:49:04.475Z</time>
      </trkpt>
      <trkpt lat="46.00015" lon="4.64511">
        <ele>330.620788574</ele>
        <time>2016-01-14T08:49:10.568Z</time>
      </trkpt>
      <trkpt lat="46.00014" lon="4.64512">
        <ele>330.72354126</ele>
        <time>2016-01-14T08:49:11.476Z</time>
      </trkpt>
      <trkpt lat="46.00006" lon="4.64514">
        <ele>330.641387939</ele>
        <time>2016-01-14T08:49:20.487Z</time>
      </trkpt>
      <trkpt lat="46.00005" lon="4.64515">
        <ele>330.572601318</ele>
        <time>2016-01-14T08:49:21.477Z</time>
      </trkpt>
      <trkpt lat="45.99996" lon="4.64515">
        <ele>330.277191162</ele>
        <time>2016-01-14T08:49:31.476Z</time>
      </trkpt>
      <trkpt lat="45.99994" lon="4.64516">
        <ele>330.344238281</ele>
        <time>2016-01-14T08:49:32.467Z</time>
      </trkpt>
      <trkpt lat="45.99987" lon="4.64522">
        <ele>330.425567627</ele>
        <time>2016-01-14T08:49:41.476Z</time>
      </trkpt>
      <trkpt lat="45.99986" lon="4.64521">
        <ele>330.419464111</ele>
        <time>2016-01-14T08:49:42.464Z</time>
      </trkpt>
      <trkpt lat="45.99978" lon="4.64525">
        <ele>330.547698975</ele>
        <time>2016-01-14T08:49:49.476Z</time>
      </trkpt>
      <trkpt lat="45.99977" lon="4.64525">
        <ele>330.613189697</ele>
        <time>2016-01-14T08:49:50.455Z</time>
      </trkpt>
      <trkpt lat="45.99969" lon="4.64529">
        <ele>331.233276367</ele>
        <time>2016-01-14T08:49:57.479Z</time>
      </trkpt>
      <trkpt lat="45.99967" lon="4.64529">
        <ele>331.318817139</ele>
        <time>2016-01-14T08:49:58.463Z</time>
      </trkpt>
      <trkpt lat="45.99959" lon="4.6453">
        <ele>332.631500244</ele>
        <time>2016-01-14T08:50:05.477Z</time>
      </trkpt>
      <trkpt lat="45.99958" lon="4.6453">
        <ele>332.772186279</ele>
        <time>2016-01-14T08:50:06.465Z</time>
      </trkpt>
      <trkpt lat="45.9995" lon="4.64533">
        <ele>333.413665771</ele>
        <time>2016-01-14T08:50:15.48Z</time>
      </trkpt>
      <trkpt lat="45.99949" lon="4.64533">
        <ele>333.459838867</ele>
        <time>2016-01-14T08:50:16.464Z</time>
      </trkpt>
      <trkpt lat="45.9994" lon="4.64535">
        <ele>333.580200195</ele>
        <time>2016-01-14T08:50:24.476Z</time>
      </trkpt>
      <trkpt lat="45.99939" lon="4.64535">
        <ele>333.5625</ele>
        <time>2016-01-14T08:50:25.464Z</time>
      </trkpt>
      <trkpt lat="45.99931" lon="4.64537">
        <ele>333.635681152</ele>
        <time>2016-01-14T08:50:31.501Z</time>
      </trkpt>
      <trkpt lat="45.9993" lon="4.64537">
        <ele>333.669219971</ele>
        <time>2016-01-14T08:50:32.456Z</time>
      </trkpt>
      <trkpt lat="45.99921" lon="4.64539">
        <ele>334.079742432</ele>
        <time>2016-01-14T08:50:40.497Z</time>
      </trkpt>
      <trkpt lat="45.9992" lon="4.64539">
        <ele>334.128234863</ele>
        <time>2016-01-14T08:50:41.474Z</time>
      </trkpt>
      <trkpt lat="45.99912" lon="4.6454">
        <ele>334.676849365</ele>
        <time>2016-01-14T08:50:48.486Z</time>
      </trkpt>
      <trkpt lat="45.9991" lon="4.6454">
        <ele>334.767730713</ele>
        <time>2016-01-14T08:50:49.475Z</time>
      </trkpt>
      <trkpt lat="45.99902" lon="4.64542">
        <ele>335.110046387</ele>
        <time>2016-01-14T08:50:56.475Z</time>
      </trkpt>
      <trkpt lat="45.99901" lon="4.64542">
        <ele>335.184661865</ele>
        <time>2016-01-14T08:50:57.465Z</time>
      </trkpt>
      <trkpt lat="45.99893" lon="4.64544">
        <ele>335.593963623</ele>
        <time>2016-01-14T08:51:04.503Z</time>
      </trkpt>
      <trkpt lat="45.99892" lon="4.64544">
        <ele>335.692596436</ele>
        <time>2016-01-14T08:51:05.458Z</time>
      </trkpt>
      <trkpt lat="45.99884" lon="4.64547">
        <ele>336.639251709</ele>
        <time>2016-01-14T08:51:12.497Z</time>
      </trkpt>
      <trkpt lat="45.99882" lon="4.64547">
        <ele>336.806060791</ele>
        <time>2016-01-14T08:51:13.48Z</time>
      </trkpt>
      <trkpt lat="45.99874" lon="4.64542">
        <ele>337.578674316</ele>
        <time>2016-01-14T08:51:30.488Z</time>
      </trkpt>
      <trkpt lat="45.99874" lon="4.64541">
        <ele>337.58190918</ele>
        <time>2016-01-14T08:51:31.464Z</time>
      </trkpt>
      <trkpt lat="45.99877" lon="4.64528">
        <ele>338.020690918</ele>
        <time>2016-01-14T08:52:47.491Z</time>
      </trkpt>
      <trkpt lat="45.99877" lon="4.64528">
        <ele>338.023406982</ele>
        <time>2016-01-14T08:52:48.466Z</time>
      </trkpt>
      <trkpt lat="45.99874" lon="4.64516">
        <ele>338.584533691</ele>
        <time>2016-01-14T08:53:14.489Z</time>
      </trkpt>
      <trkpt lat="45.99875" lon="4.64514">
        <ele>338.630554199</ele>
        <time>2016-01-14T08:53:15.462Z</time>
      </trkpt>
      <trkpt lat="45.99875" lon="4.64502">
        <ele>338.729492188</ele>
        <time>2016-01-14T08:53:22.487Z</time>
      </trkpt>
      <trkpt lat="45.99875" lon="4.645">
        <ele>338.752410889</ele>
        <time>2016-01-14T08:53:23.468Z</time>
      </trkpt>
      <trkpt lat="45.99876" lon="4.64487">
        <ele>338.764678955</ele>
        <time>2016-01-14T08:53:29.491Z</time>
      </trkpt>
      <trkpt lat="45.99876" lon="4.64486">
        <ele>338.770385742</ele>
        <time>2016-01-14T08:53:30.474Z</time>
      </trkpt>
      <trkpt lat="45.99878" lon="4.64475">
        <ele>338.925354004</ele>
        <time>2016-01-14T08:53:37.502Z</time>
      </trkpt>
      <trkpt lat="45.99879" lon="4.64473">
        <ele>338.88168335</ele>
        <time>2016-01-14T08:53:38.469Z</time>
      </trkpt>
      <trkpt lat="45.99881" lon="4.64462">
        <ele>338.966796875</ele>
        <time>2016-01-14T08:53:45.488Z</time>
      </trkpt>
      <trkpt lat="45.99881" lon="4.6446">
        <ele>339.000946045</ele>
        <time>2016-01-14T08:53:46.452Z</time>
      </trkpt>
      <trkpt lat="45.99883" lon="4.6445">
        <ele>339.033752441</ele>
        <time>2016-01-14T08:53:51.494Z</time>
      </trkpt>
      <trkpt lat="45.99883" lon="4.64447">
        <ele>339.028411865</ele>
        <time>2016-01-14T08:53:52.466Z</time>
      </trkpt>
      <trkpt lat="45.99885" lon="4.64436">
        <ele>338.931915283</ele>
        <time>2016-01-14T08:53:57.494Z</time>
      </trkpt>
      <trkpt lat="45.99885" lon="4.64434">
        <ele>338.871826172</ele>
        <time>2016-01-14T08:53:58.477Z</time>
      </trkpt>
      <trkpt lat="45.99886" lon="4.64422">
        <ele>338.691162109</ele>
        <time>2016-01-14T08:54:06.501Z</time>
      </trkpt>
      <trkpt lat="45.99887" lon="4.6442">
        <ele>338.700256348</ele>
        <time>2016-01-14T08:54:07.472Z</time>
      </trkpt>
      <trkpt lat="45.9989" lon="4.6441">
        <ele>338.777374268</ele>
        <time>2016-01-14T08:54:14.493Z</time>
      </trkpt>
      <trkpt lat="45.99891" lon="4.64407">
        <ele>338.801574707</ele>
        <time>2016-01-14T08:54:15.48Z</time>
      </trkpt>
      <trkpt lat="45.99898" lon="4.644">
        <ele>338.732971191</ele>
        <time>2016-01-14T08:54:21.49Z</time>
      </trkpt>
      <trkpt lat="45.99899" lon="4.64399">
        <ele>338.717254639</ele>
        <time>2016-01-14T08:54:22.474Z</time>
      </trkpt>
      <trkpt lat="45.99904" lon="4.64389">
        <ele>338.53024292</ele>
        <time>2016-01-14T08:54:28.488Z</time>
      </trkpt>
      <trkpt lat="45.99904" lon="4.64388">
        <ele>338.502441406</ele>
        <time>2016-01-14T08:54:29.477Z</time>
      </trkpt>
      <trkpt lat="45.99907" lon="4.64378">
        <ele>338.275665283</ele>
        <time>2016-01-14T08:54:36.474Z</time>
      </trkpt>
      <trkpt lat="45.99908" lon="4.64376">
        <ele>338.263214111</ele>
        <time>2016-01-14T08:54:37.461Z</time>
      </trkpt>
      <trkpt lat="45.99913" lon="4.64366">
        <ele>338.647338867</ele>
        <time>2016-01-14T08:54:45.469Z</time>
      </trkpt>
      <trkpt lat="45.99914" lon="4.64364">
        <ele>338.724609375</ele>
        <time>2016-01-14T08:54:46.434Z</time>
      </trkpt>
      <trkpt lat="45.99918" lon="4.64354">
        <ele>339.124816895</ele>
        <time>2016-01-14T08:54:52.479Z</time>
      </trkpt>
      <trkpt lat="45.99919" lon="4.64352">
        <ele>339.16418457</ele>
        <time>2016-01-14T08:54:53.477Z</time>
      </trkpt>
      <trkpt lat="45.99921" lon="4.64341">
        <ele>339.595214844</ele>
        <time>2016-01-14T08:55:00.508Z</time>
      </trkpt>
      <trkpt lat="45.99922" lon="4.64339">
        <ele>339.656524658</ele>
        <time>2016-01-14T08:55:01.452Z</time>
      </trkpt>
      <trkpt lat="45.99926" lon="4.6433">
        <ele>339.947814941</ele>
        <time>2016-01-14T08:55:06.465Z</time>
      </trkpt>
      <trkpt lat="45.99927" lon="4.64328">
        <ele>339.997772217</ele>
        <time>2016-01-14T08:55:07.451Z</time>
      </trkpt>
      <trkpt lat="45.9993" lon="4.64317">
        <ele>340.131164551</ele>
        <time>2016-01-14T08:55:14.479Z</time>
      </trkpt>
      <trkpt lat="45.99931" lon="4.64315">
        <ele>340.132598877</ele>
        <time>2016-01-14T08:55:15.435Z</time>
      </trkpt>
      <trkpt lat="45.99934" lon="4.64304">
        <ele>339.984832764</ele>
        <time>2016-01-14T08:55:20.513Z</time>
      </trkpt>
      <trkpt lat="45.99935" lon="4.64302">
        <ele>339.960754395</ele>
        <time>2016-01-14T08:55:21.472Z</time>
      </trkpt>
      <trkpt lat="45.9994" lon="4.64293">
        <ele>339.844787598</ele>
        <time>2016-01-14T08:55:27.522Z</time>
      </trkpt>
      <trkpt lat="45.9994" lon="4.64291">
        <ele>339.820220947</ele>
        <time>2016-01-14T08:55:28.456Z</time>
      </trkpt>
      <trkpt lat="45.99945" lon="4.64281">
        <ele>339.675842285</ele>
        <time>2016-01-14T08:55:33.469Z</time>
      </trkpt>
      <trkpt lat="45.99945" lon="4.6428">
        <ele>339.663543701</ele>
        <time>2016-01-14T08:55:34.456Z</time>
      </trkpt>
      <trkpt lat="45.9995" lon="4.6427">
        <ele>339.571502686</ele>
        <time>2016-01-14T08:55:40.468Z</time>
      </trkpt>
      <trkpt lat="45.99951" lon="4.64268">
        <ele>339.591156006</ele>
        <time>2016-01-14T08:55:41.457Z</time>
      </trkpt>
      <trkpt lat="45.99956" lon="4.64258">
        <ele>339.670227051</ele>
        <time>2016-01-14T08:55:48.473Z</time>
      </trkpt>
      <trkpt lat="45.99957" lon="4.64256">
        <ele>339.667572021</ele>
        <time>2016-01-14T08:55:49.456Z</time>
      </trkpt>
      <trkpt lat="45.99962" lon="4.64247">
        <ele>339.748199463</ele>
        <time>2016-01-14T08:55:54.522Z</time>
      </trkpt>
      <trkpt lat="45.99963" lon="4.64246">
        <ele>339.777099609</ele>
        <time>2016-01-14T08:55:55.453Z</time>
      </trkpt>
      <trkpt lat="45.99968" lon="4.64236">
        <ele>340.031066895</ele>
        <time>2016-01-14T08:56:02.474Z</time>
      </trkpt>
      <trkpt lat="45.99969" lon="4.64234">
        <ele>340.08114624</ele>
        <time>2016-01-14T08:56:03.467Z</time>
      </trkpt>
      <trkpt lat="45.99971" lon="4.64222">
        <ele>340.314453125</ele>
        <time>2016-01-14T08:56:09.463Z</time>
      </trkpt>
      <trkpt lat="45.99972" lon="4.64221">
        <ele>340.319580078</ele>
        <time>2016-01-14T08:56:10.438Z</time>
      </trkpt>
      <trkpt lat="45.99976" lon="4.6421">
        <ele>340.408172607</ele>
        <time>2016-01-14T08:56:17.47Z</time>
      </trkpt>
      <trkpt lat="45.99976" lon="4.64209">
        <ele>340.420959473</ele>
        <time>2016-01-14T08:56:18.458Z</time>
      </trkpt>
      <trkpt lat="45.99979" lon="4.64197">
        <ele>340.610565186</ele>
        <time>2016-01-14T08:56:26.482Z</time>
      </trkpt>
      <trkpt lat="45.99979" lon="4.64196">
        <ele>340.636230469</ele>
        <time>2016-01-14T08:56:27.469Z</time>
      </trkpt>
      <trkpt lat="45.99982" lon="4.64185">
        <ele>340.802032471</ele>
        <time>2016-01-14T08:56:33.48Z</time>
      </trkpt>
      <trkpt lat="45.99982" lon="4.64183">
        <ele>340.834442139</ele>
        <time>2016-01-14T08:56:34.467Z</time>
      </trkpt>
      <trkpt lat="45.99985" lon="4.64172">
        <ele>341.062255859</ele>
        <time>2016-01-14T08:56:41.482Z</time>
      </trkpt>
      <trkpt lat="45.99985" lon="4.6417">
        <ele>341.123840332</ele>
        <time>2016-01-14T08:56:42.458Z</time>
      </trkpt>
      <trkpt lat="45.99987" lon="4.64158">
        <ele>341.264526367</ele>
        <time>2016-01-14T08:56:49.494Z</time>
      </trkpt>
      <trkpt lat="45.99988" lon="4.64157">
        <ele>341.263702393</ele>
        <time>2016-01-14T08:56:50.462Z</time>
      </trkpt>
      <trkpt lat="45.99991" lon="4.64147">
        <ele>341.364746094</ele>
        <time>2016-01-14T08:56:56.521Z</time>
      </trkpt>
      <trkpt lat="45.99992" lon="4.64145">
        <ele>341.389190674</ele>
        <time>2016-01-14T08:56:57.445Z</time>
      </trkpt>
      <trkpt lat="45.99996" lon="4.64134">
        <ele>341.618896484</ele>
        <time>2016-01-14T08:57:04.49Z</time>
      </trkpt>
      <trkpt lat="45.99996" lon="4.64133">
        <ele>341.657287598</ele>
        <time>2016-01-14T08:57:05.473Z</time>
      </trkpt>
      <trkpt lat="46.00001" lon="4.64122">
        <ele>341.893981934</ele>
        <time>2016-01-14T08:57:12.487Z</time>
      </trkpt>
      <trkpt lat="46.00001" lon="4.6412">
        <ele>341.908599854</ele>
        <time>2016-01-14T08:57:13.458Z</time>
      </trkpt>
      <trkpt lat="46.00004" lon="4.64109">
        <ele>341.916259766</ele>
        <time>2016-01-14T08:57:20.48Z</time>
      </trkpt>
      <trkpt lat="46.00004" lon="4.64107">
        <ele>341.924224854</ele>
        <time>2016-01-14T08:57:21.465Z</time>
      </trkpt>
      <trkpt lat="46.00008" lon="4.64097">
        <ele>341.90057373</ele>
        <time>2016-01-14T08:57:28.499Z</time>
      </trkpt>
      <trkpt lat="46.00008" lon="4.64095">
        <ele>341.882446289</ele>
        <time>2016-01-14T08:57:29.459Z</time>
      </trkpt>
      <trkpt lat="46.00013" lon="4.64084">
        <ele>341.971099854</ele>
        <time>2016-01-14T08:57:35.489Z</time>
      </trkpt>
      <trkpt lat="46.00013" lon="4.64083">
        <ele>341.993041992</ele>
        <time>2016-01-14T08:57:36.463Z</time>
      </trkpt>
      <trkpt lat="46.00018" lon="4.64074">
        <ele>342.176635742</ele>
        <time>2016-01-14T08:57:42.535Z</time>
      </trkpt>
      <trkpt lat="46.00019" lon="4.64072">
        <ele>342.21005249</ele>
        <time>2016-01-14T08:57:43.461Z</time>
      </trkpt>
      <trkpt lat="46.00022" lon="4.6406">
        <ele>342.278625488</ele>
        <time>2016-01-14T08:57:50.486Z</time>
      </trkpt>
      <trkpt lat="46.00022" lon="4.64058">
        <ele>342.24319458</ele>
        <time>2016-01-14T08:57:51.476Z</time>
      </trkpt>
      <trkpt lat="46.00024" lon="4.64047">
        <ele>341.949188232</ele>
        <time>2016-01-14T08:57:58.485Z</time>
      </trkpt>
      <trkpt lat="46.00024" lon="4.64045">
        <ele>341.903259277</ele>
        <time>2016-01-14T08:57:59.461Z</time>
      </trkpt>
      <trkpt lat="46.00027" lon="4.64034">
        <ele>341.468109131</ele>
        <time>2016-01-14T08:58:06.481Z</time>
      </trkpt>
      <trkpt lat="46.00027" lon="4.64032">
        <ele>341.392333984</ele>
        <time>2016-01-14T08:58:07.458Z</time>
      </trkpt>
      <trkpt lat="46.0003" lon="4.64021">
        <ele>340.982452393</ele>
        <time>2016-01-14T08:58:14.499Z</time>
      </trkpt>
      <trkpt lat="46.0003" lon="4.64019">
        <ele>340.927337646</ele>
        <time>2016-01-14T08:58:15.466Z</time>
      </trkpt>
      <trkpt lat="46.00032" lon="4.64008">
        <ele>340.512359619</ele>
        <time>2016-01-14T08:58:21.485Z</time>
      </trkpt>
      <trkpt lat="46.00032" lon="4.64006">
        <ele>340.448364258</ele>
        <time>2016-01-14T08:58:22.466Z</time>
      </trkpt>
      <trkpt lat="46.00035" lon="4.63995">
        <ele>340.082550049</ele>
        <time>2016-01-14T08:58:29.482Z</time>
      </trkpt>
      <trkpt lat="46.00035" lon="4.63993">
        <ele>340.046295166</ele>
        <time>2016-01-14T08:58:30.472Z</time>
      </trkpt>
      <trkpt lat="46.00038" lon="4.63981">
        <ele>339.890045166</ele>
        <time>2016-01-14T08:58:37.489Z</time>
      </trkpt>
      <trkpt lat="46.00038" lon="4.6398">
        <ele>339.901489258</ele>
        <time>2016-01-14T08:58:38.473Z</time>
      </trkpt>
      <trkpt lat="46.00042" lon="4.6397">
        <ele>339.832519531</ele>
        <time>2016-01-14T08:58:44.487Z</time>
      </trkpt>
      <trkpt lat="46.00043" lon="4.63968">
        <ele>339.814971924</ele>
        <time>2016-01-14T08:58:45.463Z</time>
      </trkpt>
      <trkpt lat="46.00046" lon="4.63957">
        <ele>339.697021484</ele>
        <time>2016-01-14T08:58:53.481Z</time>
      </trkpt>
      <trkpt lat="46.00047" lon="4.63956">
        <ele>339.720550537</ele>
        <time>2016-01-14T08:58:54.464Z</time>
      </trkpt>
      <trkpt lat="46.00051" lon="4.63947">
        <ele>339.836425781</ele>
        <time>2016-01-14T08:59:00.499Z</time>
      </trkpt>
      <trkpt lat="46.00052" lon="4.63945">
        <ele>339.841766357</ele>
        <time>2016-01-14T08:59:01.475Z</time>
      </trkpt>
      <trkpt lat="46.00055" lon="4.63935">
        <ele>339.7840271</ele>
        <time>2016-01-14T08:59:07.487Z</time>
      </trkpt>
      <trkpt lat="46.00055" lon="4.63933">
        <ele>339.762207031</ele>
        <time>2016-01-14T08:59:08.468Z</time>
      </trkpt>
      <trkpt lat="46.00057" lon="4.63922">
        <ele>339.542938232</ele>
        <time>2016-01-14T08:59:14.495Z</time>
      </trkpt>
      <trkpt lat="46.00057" lon="4.6392">
        <ele>339.487060547</ele>
        <time>2016-01-14T08:59:15.468Z</time>
      </trkpt>
      <trkpt lat="46.00058" lon="4.63907">
        <ele>339.193328857</ele>
        <time>2016-01-14T08:59:24.493Z</time>
      </trkpt>
      <trkpt lat="46.00059" lon="4.63906">
        <ele>339.160522461</ele>
        <time>2016-01-14T08:59:25.474Z</time>
      </trkpt>
      <trkpt lat="46.00061" lon="4.63895">
        <ele>339.092407227</ele>
        <time>2016-01-14T08:59:31.495Z</time>
      </trkpt>
      <trkpt lat="46.00061" lon="4.63893">
        <ele>339.084197998</ele>
        <time>2016-01-14T08:59:32.475Z</time>
      </trkpt>
      <trkpt lat="46.00065" lon="4.63881">
        <ele>339.250823975</ele>
        <time>2016-01-14T08:59:39.485Z</time>
      </trkpt>
      <trkpt lat="46.00065" lon="4.63879">
        <ele>339.279937744</ele>
        <time>2016-01-14T08:59:40.47Z</time>
      </trkpt>
      <trkpt lat="46.00068" lon="4.63868">
        <ele>339.411651611</ele>
        <time>2016-01-14T08:59:45.51Z</time>
      </trkpt>
      <trkpt lat="46.00068" lon="4.63866">
        <ele>339.442474365</ele>
        <time>2016-01-14T08:59:46.433Z</time>
      </trkpt>
      <trkpt lat="46.00072" lon="4.63855">
        <ele>339.412414551</ele>
        <time>2016-01-14T08:59:53.476Z</time>
      </trkpt>
      <trkpt lat="46.00072" lon="4.63854">
        <ele>339.417602539</ele>
        <time>2016-01-14T08:59:54.454Z</time>
      </trkpt>
      <trkpt lat="46.00074" lon="4.63842">
        <ele>339.391845703</ele>
        <time>2016-01-14T09:00:00.488Z</time>
      </trkpt>
      <trkpt lat="46.00074" lon="4.6384">
        <ele>339.379364014</ele>
        <time>2016-01-14T09:00:01.453Z</time>
      </trkpt>
      <trkpt lat="46.00074" lon="4.63828">
        <ele>339.560668945</ele>
        <time>2016-01-14T09:00:07.48Z</time>
      </trkpt>
      <trkpt lat="46.00074" lon="4.63827">
        <ele>339.615966797</ele>
        <time>2016-01-14T09:00:08.46Z</time>
      </trkpt>
      <trkpt lat="46.00074" lon="4.63815">
        <ele>339.933837891</ele>
        <time>2016-01-14T09:00:14.472Z</time>
      </trkpt>
      <trkpt lat="46.00074" lon="4.63813">
        <ele>340.028045654</ele>
        <time>2016-01-14T09:00:15.448Z</time>
      </trkpt>
      <trkpt lat="46.00072" lon="4.63802">
        <ele>340.499908447</ele>
        <time>2016-01-14T09:00:21.467Z</time>
      </trkpt>
      <trkpt lat="46.00072" lon="4.638">
        <ele>340.586212158</ele>
        <time>2016-01-14T09:00:22.454Z</time>
      </trkpt>
      <trkpt lat="46.00069" lon="4.63788">
        <ele>341.141357422</ele>
        <time>2016-01-14T09:00:29.449Z</time>
      </trkpt>
      <trkpt lat="46.00068" lon="4.63786">
        <ele>341.257385254</ele>
        <time>2016-01-14T09:00:30.456Z</time>
      </trkpt>
      <trkpt lat="46.00066" lon="4.63774">
        <ele>341.72857666</ele>
        <time>2016-01-14T09:00:37.468Z</time>
      </trkpt>
      <trkpt lat="46.00066" lon="4.63772">
        <ele>341.743560791</ele>
        <time>2016-01-14T09:00:38.456Z</time>
      </trkpt>
      <trkpt lat="46.00062" lon="4.63761">
        <ele>341.713989258</ele>
        <time>2016-01-14T09:00:45.465Z</time>
      </trkpt>
      <trkpt lat="46.00061" lon="4.6376">
        <ele>341.761322021</ele>
        <time>2016-01-14T09:00:46.436Z</time>
      </trkpt>
      <trkpt lat="46.00057" lon="4.63749">
        <ele>342.082366943</ele>
        <time>2016-01-14T09:00:53.505Z</time>
      </trkpt>
      <trkpt lat="46.00057" lon="4.63747">
        <ele>342.121520996</ele>
        <time>2016-01-14T09:00:54.452Z</time>
      </trkpt>
      <trkpt lat="46.00054" lon="4.63736">
        <ele>342.496124268</ele>
        <time>2016-01-14T09:01:01.473Z</time>
      </trkpt>
      <trkpt lat="46.00054" lon="4.63734">
        <ele>342.553344727</ele>
        <time>2016-01-14T09:01:02.455Z</time>
      </trkpt>
      <trkpt lat="46.00053" lon="4.63723">
        <ele>343.032531738</ele>
        <time>2016-01-14T09:01:08.466Z</time>
      </trkpt>
      <trkpt lat="46.00053" lon="4.6372">
        <ele>343.081481934</ele>
        <time>2016-01-14T09:01:09.456Z</time>
      </trkpt>
      <trkpt lat="46.00053" lon="4.63708">
        <ele>343.529571533</ele>
        <time>2016-01-14T09:01:15.47Z</time>
      </trkpt>
      <trkpt lat="46.00053" lon="4.63706">
        <ele>343.589508057</ele>
        <time>2016-01-14T09:01:16.456Z</time>
      </trkpt>
      <trkpt lat="46.00054" lon="4.63694">
        <ele>344.252807617</ele>
        <time>2016-01-14T09:01:24.474Z</time>
      </trkpt>
      <trkpt lat="46.00055" lon="4.63692">
        <ele>344.329040527</ele>
        <time>2016-01-14T09:01:25.456Z</time>
      </trkpt>
      <trkpt lat="46.00054" lon="4.63679">
        <ele>345.037780762</ele>
        <time>2016-01-14T09:01:44.477Z</time>
      </trkpt>
      <trkpt lat="46.00054" lon="4.63679">
        <ele>345.053649902</ele>
        <time>2016-01-14T09:01:45.457Z</time>
      </trkpt>
      <trkpt lat="46.00056" lon="4.63667">
        <ele>346.415618896</ele>
        <time>2016-01-14T09:02:12.482Z</time>
      </trkpt>
      <trkpt lat="46.00056" lon="4.63665">
        <ele>346.460723877</ele>
        <time>2016-01-14T09:02:13.458Z</time>
      </trkpt>
      <trkpt lat="46.0006" lon="4.63656">
        <ele>346.613342285</ele>
        <time>2016-01-14T09:02:18.479Z</time>
      </trkpt>
      <trkpt lat="46.00061" lon="4.63654">
        <ele>346.663238525</ele>
        <time>2016-01-14T09:02:19.467Z</time>
      </trkpt>
      <trkpt lat="46.00065" lon="4.63645">
        <ele>346.957611084</ele>
        <time>2016-01-14T09:02:26.512Z</time>
      </trkpt>
      <trkpt lat="46.00066" lon="4.63643">
        <ele>346.979980469</ele>
        <time>2016-01-14T09:02:27.464Z</time>
      </trkpt>
      <trkpt lat="46.00071" lon="4.63632">
        <ele>347.151977539</ele>
        <time>2016-01-14T09:02:34.456Z</time>
      </trkpt>
      <trkpt lat="46.00072" lon="4.6363">
        <ele>347.212463379</ele>
        <time>2016-01-14T09:02:35.458Z</time>
      </trkpt>
      <trkpt lat="46.00076" lon="4.6362">
        <ele>347.504608154</ele>
        <time>2016-01-14T09:02:41.497Z</time>
      </trkpt>
      <trkpt lat="46.00077" lon="4.63618">
        <ele>347.516693115</ele>
        <time>2016-01-14T09:02:42.458Z</time>
      </trkpt>
      <trkpt lat="46.00083" lon="4.63609">
        <ele>348.05078125</ele>
        <time>2016-01-14T09:02:51.619Z</time>
      </trkpt>
      <trkpt lat="46.00083" lon="4.63608">
        <ele>348.102813721</ele>
        <time>2016-01-14T09:02:52.462Z</time>
      </trkpt>
      <trkpt lat="46.00089" lon="4.636">
        <ele>348.670776367</ele>
        <time>2016-01-14T09:03:20.498Z</time>
      </trkpt>
      <trkpt lat="46.0009" lon="4.63599">
        <ele>348.69921875</ele>
        <time>2016-01-14T09:03:21.473Z</time>
      </trkpt>
      <trkpt lat="46.00097" lon="4.63593">
        <ele>348.817749023</ele>
        <time>2016-01-14T09:03:27.488Z</time>
      </trkpt>
      <trkpt lat="46.00099" lon="4.63592">
        <ele>348.835845947</ele>
        <time>2016-01-14T09:03:28.478Z</time>
      </trkpt>
      <trkpt lat="46.00106" lon="4.63589">
        <ele>348.71484375</ele>
        <time>2016-01-14T09:03:34.486Z</time>
      </trkpt>
      <trkpt lat="46.00107" lon="4.63589">
        <ele>348.660858154</ele>
        <time>2016-01-14T09:03:35.471Z</time>
      </trkpt>
      <trkpt lat="46.00116" lon="4.63586">
        <ele>348.594360352</ele>
        <time>2016-01-14T09:03:43.488Z</time>
      </trkpt>
      <trkpt lat="46.00117" lon="4.63585">
        <ele>348.63494873</ele>
        <time>2016-01-14T09:03:44.462Z</time>
      </trkpt>
      <trkpt lat="46.00125" lon="4.63583">
        <ele>348.848358154</ele>
        <time>2016-01-14T09:03:51.501Z</time>
      </trkpt>
      <trkpt lat="46.00127" lon="4.63583">
        <ele>348.902923584</ele>
        <time>2016-01-14T09:03:52.462Z</time>
      </trkpt>
      <trkpt lat="46.00135" lon="4.6358">
        <ele>348.892822266</ele>
        <time>2016-01-14T09:03:58.487Z</time>
      </trkpt>
      <trkpt lat="46.00137" lon="4.6358">
        <ele>348.84085083</ele>
        <time>2016-01-14T09:03:59.462Z</time>
      </trkpt>
      <trkpt lat="46.00145" lon="4.63579">
        <ele>348.656433105</ele>
        <time>2016-01-14T09:04:05.497Z</time>
      </trkpt>
      <trkpt lat="46.00146" lon="4.63578">
        <ele>348.614074707</ele>
        <time>2016-01-14T09:04:06.454Z</time>
      </trkpt>
      <trkpt lat="46.00154" lon="4.63573">
        <ele>348.286590576</ele>
        <time>2016-01-14T09:04:12.491Z</time>
      </trkpt>
      <trkpt lat="46.00156" lon="4.63573">
        <ele>348.237243652</ele>
        <time>2016-01-14T09:04:13.449Z</time>
      </trkpt>
      <trkpt lat="46.00163" lon="4.63566">
        <ele>347.900909424</ele>
        <time>2016-01-14T09:04:19.504Z</time>
      </trkpt>
      <trkpt lat="46.00164" lon="4.63565">
        <ele>347.840820312</ele>
        <time>2016-01-14T09:04:20.467Z</time>
      </trkpt>
      <trkpt lat="46.00169" lon="4.63557">
        <ele>347.388092041</ele>
        <time>2016-01-14T09:04:26.507Z</time>
      </trkpt>
      <trkpt lat="46.0017" lon="4.63555">
        <ele>347.320068359</ele>
        <time>2016-01-14T09:04:27.479Z</time>
      </trkpt>
      <trkpt lat="46.00175" lon="4.63545">
        <ele>346.960327148</ele>
        <time>2016-01-14T09:04:34.503Z</time>
      </trkpt>
      <trkpt lat="46.00176" lon="4.63543">
        <ele>346.920501709</ele>
        <time>2016-01-14T09:04:35.475Z</time>
      </trkpt>
      <trkpt lat="46.0018" lon="4.63533">
        <ele>346.533111572</ele>
        <time>2016-01-14T09:04:41.515Z</time>
      </trkpt>
      <trkpt lat="46.00181" lon="4.63531">
        <ele>346.479980469</ele>
        <time>2016-01-14T09:04:42.476Z</time>
      </trkpt>
      <trkpt lat="46.00184" lon="4.6352">
        <ele>346.137176514</ele>
        <time>2016-01-14T09:04:48.501Z</time>
      </trkpt>
      <trkpt lat="46.00185" lon="4.63518">
        <ele>346.053161621</ele>
        <time>2016-01-14T09:04:49.477Z</time>
      </trkpt>
      <trkpt lat="46.00188" lon="4.63506">
        <ele>345.33682251</ele>
        <time>2016-01-14T09:04:57.611Z</time>
      </trkpt>
      <trkpt lat="46.00188" lon="4.63504">
        <ele>345.260986328</ele>
        <time>2016-01-14T09:04:58.47Z</time>
      </trkpt>
      <trkpt lat="46.00192" lon="4.63494">
        <ele>344.866760254</ele>
        <time>2016-01-14T09:05:03.466Z</time>
      </trkpt>
      <trkpt lat="46.00193" lon="4.63492">
        <ele>344.797424316</ele>
        <time>2016-01-14T09:05:04.447Z</time>
      </trkpt>
      <trkpt lat="46.00196" lon="4.63481">
        <ele>344.075866699</ele>
        <time>2016-01-14T09:05:11.487Z</time>
      </trkpt>
      <trkpt lat="46.00196" lon="4.6348">
        <ele>343.988647461</ele>
        <time>2016-01-14T09:05:12.434Z</time>
      </trkpt>
      <trkpt lat="46.002" lon="4.63469">
        <ele>343.485595703</ele>
        <time>2016-01-14T09:05:18.481Z</time>
      </trkpt>
      <trkpt lat="46.00201" lon="4.63466">
        <ele>343.38269043</ele>
        <time>2016-01-14T09:05:19.43Z</time>
      </trkpt>
      <trkpt lat="46.00204" lon="4.63454">
        <ele>342.420196533</ele>
        <time>2016-01-14T09:05:26.504Z</time>
      </trkpt>
      <trkpt lat="46.00205" lon="4.63453">
        <ele>342.298095703</ele>
        <time>2016-01-14T09:05:27.454Z</time>
      </trkpt>
      <trkpt lat="46.00208" lon="4.63442">
        <ele>341.398773193</ele>
        <time>2016-01-14T09:05:33.477Z</time>
      </trkpt>
      <trkpt lat="46.00209" lon="4.6344">
        <ele>341.264556885</ele>
        <time>2016-01-14T09:05:34.454Z</time>
      </trkpt>
      <trkpt lat="46.00213" lon="4.6343">
        <ele>340.414764404</ele>
        <time>2016-01-14T09:05:41.467Z</time>
      </trkpt>
      <trkpt lat="46.00214" lon="4.63429">
        <ele>340.296630859</ele>
        <time>2016-01-14T09:05:42.449Z</time>
      </trkpt>
      <trkpt lat="46.00217" lon="4.6342">
        <ele>339.612792969</ele>
        <time>2016-01-14T09:05:47.444Z</time>
      </trkpt>
      <trkpt lat="46.00217" lon="4.63417">
        <ele>339.426605225</ele>
        <time>2016-01-14T09:05:48.447Z</time>
      </trkpt>
      <trkpt lat="46.0022" lon="4.63406">
        <ele>337.934326172</ele>
        <time>2016-01-14T09:05:55.472Z</time>
      </trkpt>
      <trkpt lat="46.00221" lon="4.63404">
        <ele>337.750671387</ele>
        <time>2016-01-14T09:05:56.454Z</time>
      </trkpt>
      <trkpt lat="46.00224" lon="4.63393">
        <ele>336.567840576</ele>
        <time>2016-01-14T09:06:02.475Z</time>
      </trkpt>
      <trkpt lat="46.00225" lon="4.63391">
        <ele>336.424468994</ele>
        <time>2016-01-14T09:06:03.454Z</time>
      </trkpt>
      <trkpt lat="46.00227" lon="4.63381">
        <ele>336.074981689</ele>
        <time>2016-01-14T09:06:09.474Z</time>
      </trkpt>
      <trkpt lat="46.00227" lon="4.63379">
        <ele>336.007354736</ele>
        <time>2016-01-14T09:06:10.461Z</time>
      </trkpt>
      <trkpt lat="46.00228" lon="4.63368">
        <ele>335.855926514</ele>
        <time>2016-01-14T09:06:16.482Z</time>
      </trkpt>
      <trkpt lat="46.00228" lon="4.63366">
        <ele>335.874176025</ele>
        <time>2016-01-14T09:06:17.45Z</time>
      </trkpt>
      <trkpt lat="46.00229" lon="4.63354">
        <ele>335.862823486</ele>
        <time>2016-01-14T09:06:23.493Z</time>
      </trkpt>
      <trkpt lat="46.00229" lon="4.63353">
        <ele>335.793884277</ele>
        <time>2016-01-14T09:06:24.449Z</time>
      </trkpt>
      <trkpt lat="46.00231" lon="4.63341">
        <ele>335.830566406</ele>
        <time>2016-01-14T09:06:35.469Z</time>
      </trkpt>
      <trkpt lat="46.00232" lon="4.6334">
        <ele>335.897186279</ele>
        <time>2016-01-14T09:06:36.453Z</time>
      </trkpt>
      <trkpt lat="46.00239" lon="4.63335">
        <ele>336.371185303</ele>
        <time>2016-01-14T09:06:43.49Z</time>
      </trkpt>
      <trkpt lat="46.0024" lon="4.63335">
        <ele>336.410766602</ele>
        <time>2016-01-14T09:06:44.451Z</time>
      </trkpt>
      <trkpt lat="46.00249" lon="4.63334">
        <ele>336.579559326</ele>
        <time>2016-01-14T09:06:51.471Z</time>
      </trkpt>
      <trkpt lat="46.0025" lon="4.63334">
        <ele>336.540557861</ele>
        <time>2016-01-14T09:06:52.457Z</time>
      </trkpt>
      <trkpt lat="46.00257" lon="4.63337">
        <ele>336.171020508</ele>
        <time>2016-01-14T09:06:57.489Z</time>
      </trkpt>
      <trkpt lat="46.00259" lon="4.63338">
        <ele>336.05267334</ele>
        <time>2016-01-14T09:06:58.451Z</time>
      </trkpt>
      <trkpt lat="46.00267" lon="4.63342">
        <ele>335.253082275</ele>
        <time>2016-01-14T09:07:04.483Z</time>
      </trkpt>
      <trkpt lat="46.00268" lon="4.63343">
        <ele>335.118133545</ele>
        <time>2016-01-14T09:07:05.463Z</time>
      </trkpt>
      <trkpt lat="46.00276" lon="4.63347">
        <ele>334.374725342</ele>
        <time>2016-01-14T09:07:11.495Z</time>
      </trkpt>
      <trkpt lat="46.00277" lon="4.63348">
        <ele>334.234069824</ele>
        <time>2016-01-14T09:07:12.452Z</time>
      </trkpt>
      <trkpt lat="46.00285" lon="4.63353">
        <ele>333.20199585</ele>
        <time>2016-01-14T09:07:19.491Z</time>
      </trkpt>
      <trkpt lat="46.00286" lon="4.63354">
        <ele>333.061218262</ele>
        <time>2016-01-14T09:07:20.461Z</time>
      </trkpt>
      <trkpt lat="46.00294" lon="4.63357">
        <ele>332.252563477</ele>
        <time>2016-01-14T09:07:26.495Z</time>
      </trkpt>
      <trkpt lat="46.00295" lon="4.63357">
        <ele>332.12197876</ele>
        <time>2016-01-14T09:07:27.456Z</time>
      </trkpt>
      <trkpt lat="46.00304" lon="4.6336">
        <ele>331.463348389</ele>
        <time>2016-01-14T09:07:33.498Z</time>
      </trkpt>
      <trkpt lat="46.00305" lon="4.6336">
        <ele>331.404754639</ele>
        <time>2016-01-14T09:07:34.461Z</time>
      </trkpt>
      <trkpt lat="46.00313" lon="4.63362">
        <ele>330.670623779</ele>
        <time>2016-01-14T09:07:41.479Z</time>
      </trkpt>
      <trkpt lat="46.00314" lon="4.63362">
        <ele>330.545379639</ele>
        <time>2016-01-14T09:07:42.458Z</time>
      </trkpt>
      <trkpt lat="46.00321" lon="4.63354">
        <ele>328.432403564</ele>
        <time>2016-01-14T09:07:54.487Z</time>
      </trkpt>
      <trkpt lat="46.0032" lon="4.63352">
        <ele>328.256988525</ele>
        <time>2016-01-14T09:07:55.454Z</time>
      </trkpt>
      <trkpt lat="46.00319" lon="4.6334">
        <ele>327.481079102</ele>
        <time>2016-01-14T09:08:00.483Z</time>
      </trkpt>
      <trkpt lat="46.00319" lon="4.63339">
        <ele>327.319366455</ele>
        <time>2016-01-14T09:08:01.469Z</time>
      </trkpt>
      <trkpt lat="46.00318" lon="4.63327">
        <ele>326.585174561</ele>
        <time>2016-01-14T09:08:07.549Z</time>
      </trkpt>
      <trkpt lat="46.00317" lon="4.63324">
        <ele>326.554443359</ele>
        <time>2016-01-14T09:08:08.469Z</time>
      </trkpt>
      <trkpt lat="46.00316" lon="4.63313">
        <ele>326.532440186</ele>
        <time>2016-01-14T09:08:14.487Z</time>
      </trkpt>
      <trkpt lat="46.00316" lon="4.63311">
        <ele>326.419464111</ele>
        <time>2016-01-14T09:08:15.46Z</time>
      </trkpt>
      <trkpt lat="46.00317" lon="4.63299">
        <ele>325.824523926</ele>
        <time>2016-01-14T09:08:21.48Z</time>
      </trkpt>
      <trkpt lat="46.00317" lon="4.63298">
        <ele>325.705444336</ele>
        <time>2016-01-14T09:08:22.462Z</time>
      </trkpt>
      <trkpt lat="46.00319" lon="4.63285">
        <ele>325.090118408</ele>
        <time>2016-01-14T09:08:30.493Z</time>
      </trkpt>
      <trkpt lat="46.00319" lon="4.63284">
        <ele>325.047119141</ele>
        <time>2016-01-14T09:08:31.463Z</time>
      </trkpt>
      <trkpt lat="46.0032" lon="4.63272">
        <ele>324.639831543</ele>
        <time>2016-01-14T09:08:36.487Z</time>
      </trkpt>
      <trkpt lat="46.0032" lon="4.6327">
        <ele>324.511505127</ele>
        <time>2016-01-14T09:08:37.461Z</time>
      </trkpt>
      <trkpt lat="46.00322" lon="4.63258">
        <ele>323.667022705</ele>
        <time>2016-01-14T09:08:43.494Z</time>
      </trkpt>
      <trkpt lat="46.00322" lon="4.63257">
        <ele>323.537750244</ele>
        <time>2016-01-14T09:08:44.461Z</time>
      </trkpt>
      <trkpt lat="46.00324" lon="4.63244">
        <ele>322.631011963</ele>
        <time>2016-01-14T09:08:50.51Z</time>
      </trkpt>
      <trkpt lat="46.00325" lon="4.63242">
        <ele>322.460632324</ele>
        <time>2016-01-14T09:08:51.469Z</time>
      </trkpt>
      <trkpt lat="46.00328" lon="4.6323">
        <ele>321.556732178</ele>
        <time>2016-01-14T09:08:58.497Z</time>
      </trkpt>
      <trkpt lat="46.00328" lon="4.63229">
        <ele>321.502990723</ele>
        <time>2016-01-14T09:08:59.463Z</time>
      </trkpt>
      <trkpt lat="46.0033" lon="4.63218">
        <ele>321.003204346</ele>
        <time>2016-01-14T09:09:06.49Z</time>
      </trkpt>
      <trkpt lat="46.00331" lon="4.63216">
        <ele>320.951568604</ele>
        <time>2016-01-14T09:09:07.479Z</time>
      </trkpt>
      <trkpt lat="46.00334" lon="4.63204">
        <ele>320.821472168</ele>
        <time>2016-01-14T09:09:14.502Z</time>
      </trkpt>
      <trkpt lat="46.00335" lon="4.63203">
        <ele>320.830230713</ele>
        <time>2016-01-14T09:09:15.474Z</time>
      </trkpt>
      <trkpt lat="46.0034" lon="4.63192">
        <ele>321.007202148</ele>
        <time>2016-01-14T09:09:22.497Z</time>
      </trkpt>
      <trkpt lat="46.00341" lon="4.63191">
        <ele>321.014465332</ele>
        <time>2016-01-14T09:09:23.473Z</time>
      </trkpt>
      <trkpt lat="46.00348" lon="4.63187">
        <ele>321.036254883</ele>
        <time>2016-01-14T09:09:30.511Z</time>
      </trkpt>
      <trkpt lat="46.00349" lon="4.63186">
        <ele>321.045257568</ele>
        <time>2016-01-14T09:09:31.477Z</time>
      </trkpt>
      <trkpt lat="46.00357" lon="4.63184">
        <ele>321.439086914</ele>
        <time>2016-01-14T09:09:39.527Z</time>
      </trkpt>
      <trkpt lat="46.00359" lon="4.63183">
        <ele>321.667541504</ele>
        <time>2016-01-14T09:09:40.475Z</time>
      </trkpt>
      <trkpt lat="46.00366" lon="4.63181">
        <ele>322.550811768</ele>
        <time>2016-01-14T09:09:47.509Z</time>
      </trkpt>
      <trkpt lat="46.00368" lon="4.63181">
        <ele>322.617156982</ele>
        <time>2016-01-14T09:09:48.475Z</time>
      </trkpt>
      <trkpt lat="46.00375" lon="4.63181">
        <ele>323.10369873</ele>
        <time>2016-01-14T09:09:54.503Z</time>
      </trkpt>
      <trkpt lat="46.00377" lon="4.63181">
        <ele>323.170928955</ele>
        <time>2016-01-14T09:09:55.464Z</time>
      </trkpt>
      <trkpt lat="46.00385" lon="4.63175">
        <ele>323.797454834</ele>
        <time>2016-01-14T09:10:04.498Z</time>
      </trkpt>
      <trkpt lat="46.00385" lon="4.63173">
        <ele>323.883758545</ele>
        <time>2016-01-14T09:10:05.48Z</time>
      </trkpt>
      <trkpt lat="46.0039" lon="4.63164">
        <ele>324.789672852</ele>
        <time>2016-01-14T09:10:13.495Z</time>
      </trkpt>
      <trkpt lat="46.0039" lon="4.63162">
        <ele>324.860870361</ele>
        <time>2016-01-14T09:10:14.477Z</time>
      </trkpt>
      <trkpt lat="46.00395" lon="4.63151">
        <ele>326.66973877</ele>
        <time>2016-01-14T09:10:25.549Z</time>
      </trkpt>
      <trkpt lat="46.00395" lon="4.6315">
        <ele>326.858703613</ele>
        <time>2016-01-14T09:10:26.45Z</time>
      </trkpt>
      <trkpt lat="46.004" lon="4.6314">
        <ele>329.003540039</ele>
        <time>2016-01-14T09:10:34.469Z</time>
      </trkpt>
      <trkpt lat="46.004" lon="4.63139">
        <ele>329.265197754</ele>
        <time>2016-01-14T09:10:35.446Z</time>
      </trkpt>
      <trkpt lat="46.00405" lon="4.63128">
        <ele>330.445251465</ele>
        <time>2016-01-14T09:10:44.461Z</time>
      </trkpt>
      <trkpt lat="46.00405" lon="4.63127">
        <ele>330.504455566</ele>
        <time>2016-01-14T09:10:45.451Z</time>
      </trkpt>
      <trkpt lat="46.00408" lon="4.63117">
        <ele>331.583557129</ele>
        <time>2016-01-14T09:10:55.489Z</time>
      </trkpt>
      <trkpt lat="46.00409" lon="4.63115">
        <ele>331.677398682</ele>
        <time>2016-01-14T09:10:56.444Z</time>
      </trkpt>
      <trkpt lat="46.00412" lon="4.63105">
        <ele>332.350952148</ele>
        <time>2016-01-14T09:11:03.483Z</time>
      </trkpt>
      <trkpt lat="46.00412" lon="4.63103">
        <ele>332.450958252</ele>
        <time>2016-01-14T09:11:04.445Z</time>
      </trkpt>
      <trkpt lat="46.00416" lon="4.63091">
        <ele>332.745941162</ele>
        <time>2016-01-14T09:11:12.479Z</time>
      </trkpt>
      <trkpt lat="46.00416" lon="4.6309">
        <ele>332.788696289</ele>
        <time>2016-01-14T09:11:13.448Z</time>
      </trkpt>
      <trkpt lat="46.0042" lon="4.63079">
        <ele>333.562713623</ele>
        <time>2016-01-14T09:11:21.467Z</time>
      </trkpt>
      <trkpt lat="46.00421" lon="4.63078">
        <ele>333.684265137</ele>
        <time>2016-01-14T09:11:22.451Z</time>
      </trkpt>
      <trkpt lat="46.00424" lon="4.63067">
        <ele>334.560791016</ele>
        <time>2016-01-14T09:11:31.466Z</time>
      </trkpt>
      <trkpt lat="46.00425" lon="4.63066">
        <ele>334.694763184</ele>
        <time>2016-01-14T09:11:32.45Z</time>
      </trkpt>
      <trkpt lat="46.00429" lon="4.63056">
        <ele>335.686553955</ele>
        <time>2016-01-14T09:11:40.463Z</time>
      </trkpt>
      <trkpt lat="46.0043" lon="4.63054">
        <ele>335.787322998</ele>
        <time>2016-01-14T09:11:41.452Z</time>
      </trkpt>
      <trkpt lat="46.00432" lon="4.63043">
        <ele>337.066345215</ele>
        <time>2016-01-14T09:11:50.476Z</time>
      </trkpt>
      <trkpt lat="46.00433" lon="4.63042">
        <ele>337.116516113</ele>
        <time>2016-01-14T09:11:51.464Z</time>
      </trkpt>
      <trkpt lat="46.0044" lon="4.63033">
        <ele>338.144226074</ele>
        <time>2016-01-14T09:12:02.48Z</time>
      </trkpt>
      <trkpt lat="46.0044" lon="4.63033">
        <ele>338.300018311</ele>
        <time>2016-01-14T09:12:03.463Z</time>
      </trkpt>
      <trkpt lat="46.00448" lon="4.63029">
        <ele>340.36730957</ele>
        <time>2016-01-14T09:12:18.467Z</time>
      </trkpt>
      <trkpt lat="46.00449" lon="4.63029">
        <ele>340.48840332</ele>
        <time>2016-01-14T09:12:19.455Z</time>
      </trkpt>
      <trkpt lat="46.00456" lon="4.63022">
        <ele>342.120239258</ele>
        <time>2016-01-14T09:12:33.48Z</time>
      </trkpt>
      <trkpt lat="46.00457" lon="4.63021">
        <ele>342.263397217</ele>
        <time>2016-01-14T09:12:34.462Z</time>
      </trkpt>
      <trkpt lat="46.00464" lon="4.63015">
        <ele>344.41116333</ele>
        <time>2016-01-14T09:12:46.477Z</time>
      </trkpt>
      <trkpt lat="46.00464" lon="4.63014">
        <ele>344.60925293</ele>
        <time>2016-01-14T09:12:47.453Z</time>
      </trkpt>
      <trkpt lat="46.0047" lon="4.63006">
        <ele>346.844787598</ele>
        <time>2016-01-14T09:12:59.475Z</time>
      </trkpt>
      <trkpt lat="46.00471" lon="4.63005">
        <ele>347.006835938</ele>
        <time>2016-01-14T09:13:00.461Z</time>
      </trkpt>
      <trkpt lat="46.00478" lon="4.62997">
        <ele>349.95602417</ele>
        <time>2016-01-14T09:13:13.497Z</time>
      </trkpt>
      <trkpt lat="46.00478" lon="4.62997">
        <ele>350.143951416</ele>
        <time>2016-01-14T09:13:14.458Z</time>
      </trkpt>
      <trkpt lat="46.00485" lon="4.6299">
        <ele>353.190490723</ele>
        <time>2016-01-14T09:13:31.529Z</time>
      </trkpt>
      <trkpt lat="46.00486" lon="4.62989">
        <ele>353.289764404</ele>
        <time>2016-01-14T09:13:32.461Z</time>
      </trkpt>
      <trkpt lat="46.00494" lon="4.62983">
        <ele>356.283416748</ele>
        <time>2016-01-14T09:13:47.492Z</time>
      </trkpt>
      <trkpt lat="46.00494" lon="4.62982">
        <ele>356.50579834</ele>
        <time>2016-01-14T09:13:48.474Z</time>
      </trkpt>
      <trkpt lat="46.00499" lon="4.62973">
        <ele>358.82522583</ele>
        <time>2016-01-14T09:14:02.502Z</time>
      </trkpt>
      <trkpt lat="46.005" lon="4.62972">
        <ele>359.007385254</ele>
        <time>2016-01-14T09:14:03.468Z</time>
      </trkpt>
      <trkpt lat="46.00505" lon="4.62962">
        <ele>361.420806885</ele>
        <time>2016-01-14T09:14:15.493Z</time>
      </trkpt>
      <trkpt lat="46.00505" lon="4.62961">
        <ele>361.566497803</ele>
        <time>2016-01-14T09:14:16.461Z</time>
      </trkpt>
      <trkpt lat="46.00508" lon="4.6295">
        <ele>363.937774658</ele>
        <time>2016-01-14T09:14:28.505Z</time>
      </trkpt>
      <trkpt lat="46.00509" lon="4.62949">
        <ele>364.144744873</ele>
        <time>2016-01-14T09:14:29.466Z</time>
      </trkpt>
      <trkpt lat="46.00511" lon="4.62937">
        <ele>366.768798828</ele>
        <time>2016-01-14T09:14:43.488Z</time>
      </trkpt>
      <trkpt lat="46.00511" lon="4.62935">
        <ele>366.89956665</ele>
        <time>2016-01-14T09:14:44.461Z</time>
      </trkpt>
      <trkpt lat="46.00516" lon="4.62945">
        <ele>369.910797119</ele>
        <time>2016-01-14T09:15:40.48Z</time>
      </trkpt>
      <trkpt lat="46.00516" lon="4.62946">
        <ele>369.995330811</ele>
        <time>2016-01-14T09:15:41.447Z</time>
      </trkpt>
      <trkpt lat="46.00518" lon="4.62958">
        <ele>371.078826904</ele>
        <time>2016-01-14T09:15:50.459Z</time>
      </trkpt>
      <trkpt lat="46.00518" lon="4.62959">
        <ele>371.192382812</ele>
        <time>2016-01-14T09:15:51.452Z</time>
      </trkpt>
      <trkpt lat="46.00522" lon="4.62971">
        <ele>371.837738037</ele>
        <time>2016-01-14T09:15:59.462Z</time>
      </trkpt>
      <trkpt lat="46.00523" lon="4.62972">
        <ele>371.918548584</ele>
        <time>2016-01-14T09:16:00.452Z</time>
      </trkpt>
      <trkpt lat="46.00527" lon="4.62982">
        <ele>372.615570068</ele>
        <time>2016-01-14T09:16:08.464Z</time>
      </trkpt>
      <trkpt lat="46.00527" lon="4.62984">
        <ele>372.703674316</ele>
        <time>2016-01-14T09:16:09.468Z</time>
      </trkpt>
      <trkpt lat="46.00532" lon="4.62994">
        <ele>373.090026855</ele>
        <time>2016-01-14T09:16:17.464Z</time>
      </trkpt>
      <trkpt lat="46.00533" lon="4.62995">
        <ele>373.164459229</ele>
        <time>2016-01-14T09:16:18.431Z</time>
      </trkpt>
      <trkpt lat="46.00537" lon="4.63005">
        <ele>373.835235596</ele>
        <time>2016-01-14T09:16:26.498Z</time>
      </trkpt>
      <trkpt lat="46.00538" lon="4.63006">
        <ele>373.929962158</ele>
        <time>2016-01-14T09:16:27.455Z</time>
      </trkpt>
      <trkpt lat="46.00544" lon="4.63015">
        <ele>374.508148193</ele>
        <time>2016-01-14T09:16:34.473Z</time>
      </trkpt>
      <trkpt lat="46.00545" lon="4.63016">
        <ele>374.546966553</ele>
        <time>2016-01-14T09:16:35.494Z</time>
      </trkpt>
      <trkpt lat="46.00551" lon="4.63024">
        <ele>374.674926758</ele>
        <time>2016-01-14T09:16:43.474Z</time>
      </trkpt>
      <trkpt lat="46.00552" lon="4.63025">
        <ele>374.740600586</ele>
        <time>2016-01-14T09:16:44.457Z</time>
      </trkpt>
      <trkpt lat="46.00561" lon="4.63025">
        <ele>375.528503418</ele>
        <time>2016-01-14T09:16:56.57Z</time>
      </trkpt>
      <trkpt lat="46.00561" lon="4.63023">
        <ele>375.544677734</ele>
        <time>2016-01-14T09:16:57.449Z</time>
      </trkpt>
      <trkpt lat="46.00562" lon="4.6301">
        <ele>376.217987061</ele>
        <time>2016-01-14T09:17:13.483Z</time>
      </trkpt>
      <trkpt lat="46.00562" lon="4.63009">
        <ele>376.276153564</ele>
        <time>2016-01-14T09:17:14.45Z</time>
      </trkpt>
      <trkpt lat="46.00563" lon="4.62998">
        <ele>376.699951172</ele>
        <time>2016-01-14T09:17:21.468Z</time>
      </trkpt>
      <trkpt lat="46.00564" lon="4.62996">
        <ele>376.754852295</ele>
        <time>2016-01-14T09:17:22.453Z</time>
      </trkpt>
      <trkpt lat="46.00565" lon="4.62984">
        <ele>377.080444336</ele>
        <time>2016-01-14T09:17:29.486Z</time>
      </trkpt>
      <trkpt lat="46.00565" lon="4.62982">
        <ele>377.126647949</ele>
        <time>2016-01-14T09:17:30.451Z</time>
      </trkpt>
      <trkpt lat="46.00566" lon="4.62971">
        <ele>377.261749268</ele>
        <time>2016-01-14T09:17:37.476Z</time>
      </trkpt>
      <trkpt lat="46.00567" lon="4.62968">
        <ele>377.281158447</ele>
        <time>2016-01-14T09:17:38.451Z</time>
      </trkpt>
      <trkpt lat="46.00571" lon="4.62957">
        <ele>377.736053467</ele>
        <time>2016-01-14T09:17:46.481Z</time>
      </trkpt>
      <trkpt lat="46.00572" lon="4.62956">
        <ele>377.820220947</ele>
        <time>2016-01-14T09:17:47.457Z</time>
      </trkpt>
      <trkpt lat="46.00579" lon="4.62948">
        <ele>378.626739502</ele>
        <time>2016-01-14T09:17:55.476Z</time>
      </trkpt>
      <trkpt lat="46.0058" lon="4.62947">
        <ele>378.754394531</ele>
        <time>2016-01-14T09:17:56.468Z</time>
      </trkpt>
      <trkpt lat="46.00587" lon="4.62942">
        <ele>379.456634521</ele>
        <time>2016-01-14T09:18:03.492Z</time>
      </trkpt>
      <trkpt lat="46.00588" lon="4.62942">
        <ele>379.551177979</ele>
        <time>2016-01-14T09:18:04.464Z</time>
      </trkpt>
      <trkpt lat="46.00596" lon="4.62937">
        <ele>380.410217285</ele>
        <time>2016-01-14T09:18:12.593Z</time>
      </trkpt>
      <trkpt lat="46.00597" lon="4.62937">
        <ele>380.526367188</ele>
        <time>2016-01-14T09:18:13.454Z</time>
      </trkpt>
      <trkpt lat="46.00605" lon="4.62934">
        <ele>381.140258789</ele>
        <time>2016-01-14T09:18:19.488Z</time>
      </trkpt>
      <trkpt lat="46.00606" lon="4.62933">
        <ele>381.22845459</ele>
        <time>2016-01-14T09:18:20.49Z</time>
      </trkpt>
      <trkpt lat="46.00613" lon="4.62929">
        <ele>381.720397949</ele>
        <time>2016-01-14T09:18:26.5Z</time>
      </trkpt>
      <trkpt lat="46.00614" lon="4.62928">
        <ele>381.8230896</ele>
        <time>2016-01-14T09:18:27.46Z</time>
      </trkpt>
      <trkpt lat="46.00623" lon="4.62923">
        <ele>382.443603516</ele>
        <time>2016-01-14T09:18:35.477Z</time>
      </trkpt>
      <trkpt lat="46.00624" lon="4.62923">
        <ele>382.500701904</ele>
        <time>2016-01-14T09:18:36.452Z</time>
      </trkpt>
      <trkpt lat="46.00631" lon="4.62919">
        <ele>383.115936279</ele>
        <time>2016-01-14T09:18:43.488Z</time>
      </trkpt>
      <trkpt lat="46.00632" lon="4.62918">
        <ele>383.19921875</ele>
        <time>2016-01-14T09:18:44.458Z</time>
      </trkpt>
      <trkpt lat="46.00641" lon="4.62914">
        <ele>383.830718994</ele>
        <time>2016-01-14T09:18:51.492Z</time>
      </trkpt>
      <trkpt lat="46.00642" lon="4.62913">
        <ele>383.912872314</ele>
        <time>2016-01-14T09:18:52.46Z</time>
      </trkpt>
      <trkpt lat="46.0065" lon="4.62911">
        <ele>384.435913086</ele>
        <time>2016-01-14T09:18:59.494Z</time>
      </trkpt>
      <trkpt lat="46.00651" lon="4.6291">
        <ele>384.511993408</ele>
        <time>2016-01-14T09:19:00.458Z</time>
      </trkpt>
      <trkpt lat="46.0066" lon="4.62908">
        <ele>385.587646484</ele>
        <time>2016-01-14T09:19:08.581Z</time>
      </trkpt>
      <trkpt lat="46.00661" lon="4.62908">
        <ele>385.7940979</ele>
        <time>2016-01-14T09:19:09.458Z</time>
      </trkpt>
      <trkpt lat="46.00669" lon="4.62911">
        <ele>387.091461182</ele>
        <time>2016-01-14T09:19:17.49Z</time>
      </trkpt>
      <trkpt lat="46.0067" lon="4.62911">
        <ele>387.276367188</ele>
        <time>2016-01-14T09:19:18.453Z</time>
      </trkpt>
      <trkpt lat="46.00678" lon="4.62914">
        <ele>388.392272949</ele>
        <time>2016-01-14T09:19:24.503Z</time>
      </trkpt>
      <trkpt lat="46.00679" lon="4.62914">
        <ele>388.594787598</ele>
        <time>2016-01-14T09:19:25.465Z</time>
      </trkpt>
      <trkpt lat="46.00687" lon="4.62915">
        <ele>389.585571289</ele>
        <time>2016-01-14T09:19:31.511Z</time>
      </trkpt>
      <trkpt lat="46.00688" lon="4.62916">
        <ele>389.716491699</ele>
        <time>2016-01-14T09:19:32.474Z</time>
      </trkpt>
      <trkpt lat="46.00697" lon="4.62916">
        <ele>390.729522705</ele>
        <time>2016-01-14T09:19:40.488Z</time>
      </trkpt>
      <trkpt lat="46.00698" lon="4.62916">
        <ele>390.85269165</ele>
        <time>2016-01-14T09:19:41.465Z</time>
      </trkpt>
      <trkpt lat="46.00706" lon="4.62915">
        <ele>391.729370117</ele>
        <time>2016-01-14T09:19:48.493Z</time>
      </trkpt>
      <trkpt lat="46.00708" lon="4.62915">
        <ele>391.810241699</ele>
        <time>2016-01-14T09:19:49.47Z</time>
      </trkpt>
      <trkpt lat="46.00716" lon="4.62915">
        <ele>392.320770264</ele>
        <time>2016-01-14T09:19:55.488Z</time>
      </trkpt>
      <trkpt lat="46.00717" lon="4.62915">
        <ele>392.398925781</ele>
        <time>2016-01-14T09:19:56.479Z</time>
      </trkpt>
      <trkpt lat="46.00724" lon="4.62916">
        <ele>392.699310303</ele>
        <time>2016-01-14T09:20:02.546Z</time>
      </trkpt>
      <trkpt lat="46.00726" lon="4.62917">
        <ele>392.712860107</ele>
        <time>2016-01-14T09:20:03.475Z</time>
      </trkpt>
      <trkpt lat="46.00733" lon="4.62924">
        <ele>392.703765869</ele>
        <time>2016-01-14T09:20:09.525Z</time>
      </trkpt>
      <trkpt lat="46.00733" lon="4.62925">
        <ele>392.689422607</ele>
        <time>2016-01-14T09:20:10.473Z</time>
      </trkpt>
      <trkpt lat="46.00736" lon="4.62937">
        <ele>393.172607422</ele>
        <time>2016-01-14T09:20:18.5Z</time>
      </trkpt>
      <trkpt lat="46.00737" lon="4.62939">
        <ele>393.28805542</ele>
        <time>2016-01-14T09:20:19.467Z</time>
      </trkpt>
      <trkpt lat="46.00739" lon="4.62951">
        <ele>393.658935547</ele>
        <time>2016-01-14T09:20:25.502Z</time>
      </trkpt>
      <trkpt lat="46.00739" lon="4.62953">
        <ele>393.675842285</ele>
        <time>2016-01-14T09:20:26.466Z</time>
      </trkpt>
      <trkpt lat="46.00742" lon="4.62964">
        <ele>393.492645264</ele>
        <time>2016-01-14T09:20:32.502Z</time>
      </trkpt>
      <trkpt lat="46.00742" lon="4.62966">
        <ele>393.493469238</ele>
        <time>2016-01-14T09:20:33.471Z</time>
      </trkpt>
      <trkpt lat="46.00744" lon="4.62978">
        <ele>393.539276123</ele>
        <time>2016-01-14T09:20:39.524Z</time>
      </trkpt>
      <trkpt lat="46.00744" lon="4.62979">
        <ele>393.4871521</ele>
        <time>2016-01-14T09:20:40.47Z</time>
      </trkpt>
      <trkpt lat="46.00746" lon="4.62992">
        <ele>393.295959473</ele>
        <time>2016-01-14T09:20:47.46Z</time>
      </trkpt>
      <trkpt lat="46.00746" lon="4.62993">
        <ele>393.266540527</ele>
        <time>2016-01-14T09:20:48.446Z</time>
      </trkpt>
      <trkpt lat="46.00748" lon="4.63004">
        <ele>393.181793213</ele>
        <time>2016-01-14T09:20:54.466Z</time>
      </trkpt>
      <trkpt lat="46.00749" lon="4.63006">
        <ele>393.212402344</ele>
        <time>2016-01-14T09:20:55.446Z</time>
      </trkpt>
      <trkpt lat="46.00752" lon="4.63017">
        <ele>393.135467529</ele>
        <time>2016-01-14T09:21:01.48Z</time>
      </trkpt>
      <trkpt lat="46.00752" lon="4.63019">
        <ele>393.129943848</ele>
        <time>2016-01-14T09:21:02.456Z</time>
      </trkpt>
      <trkpt lat="46.00754" lon="4.63031">
        <ele>393.095184326</ele>
        <time>2016-01-14T09:21:09.463Z</time>
      </trkpt>
      <trkpt lat="46.00755" lon="4.63033">
        <ele>393.07333374</ele>
        <time>2016-01-14T09:21:10.448Z</time>
      </trkpt>
      <trkpt lat="46.00757" lon="4.63045">
        <ele>392.867980957</ele>
        <time>2016-01-14T09:21:17.476Z</time>
      </trkpt>
      <trkpt lat="46.00757" lon="4.63046">
        <ele>392.869232178</ele>
        <time>2016-01-14T09:21:18.447Z</time>
      </trkpt>
      <trkpt lat="46.00759" lon="4.63058">
        <ele>392.885437012</ele>
        <time>2016-01-14T09:21:24.482Z</time>
      </trkpt>
      <trkpt lat="46.00759" lon="4.6306">
        <ele>392.848175049</ele>
        <time>2016-01-14T09:21:25.448Z</time>
      </trkpt>
      <trkpt lat="46.00761" lon="4.63072">
        <ele>392.352294922</ele>
        <time>2016-01-14T09:21:31.497Z</time>
      </trkpt>
      <trkpt lat="46.00761" lon="4.63075">
        <ele>392.24621582</ele>
        <time>2016-01-14T09:21:32.466Z</time>
      </trkpt>
      <trkpt lat="46.00763" lon="4.63085">
        <ele>391.825042725</ele>
        <time>2016-01-14T09:21:38.462Z</time>
      </trkpt>
      <trkpt lat="46.00763" lon="4.63087">
        <ele>391.789398193</ele>
        <time>2016-01-14T09:21:39.464Z</time>
      </trkpt>
      <trkpt lat="46.00765" lon="4.63099">
        <ele>391.671386719</ele>
        <time>2016-01-14T09:21:45.465Z</time>
      </trkpt>
      <trkpt lat="46.00766" lon="4.63101">
        <ele>391.666656494</ele>
        <time>2016-01-14T09:21:46.44Z</time>
      </trkpt>
      <trkpt lat="46.00768" lon="4.63113">
        <ele>391.630401611</ele>
        <time>2016-01-14T09:21:52.479Z</time>
      </trkpt>
      <trkpt lat="46.00768" lon="4.63115">
        <ele>391.617858887</ele>
        <time>2016-01-14T09:21:53.449Z</time>
      </trkpt>
      <trkpt lat="46.00769" lon="4.63125">
        <ele>391.351196289</ele>
        <time>2016-01-14T09:21:59.474Z</time>
      </trkpt>
      <trkpt lat="46.0077" lon="4.63128">
        <ele>391.334960938</ele>
        <time>2016-01-14T09:22:00.45Z</time>
      </trkpt>
      <trkpt lat="46.00772" lon="4.63139">
        <ele>391.441955566</ele>
        <time>2016-01-14T09:22:05.463Z</time>
      </trkpt>
      <trkpt lat="46.00773" lon="4.6314">
        <ele>391.492523193</ele>
        <time>2016-01-14T09:22:06.451Z</time>
      </trkpt>
      <trkpt lat="46.00777" lon="4.63151">
        <ele>391.660308838</ele>
        <time>2016-01-14T09:22:13.467Z</time>
      </trkpt>
      <trkpt lat="46.00778" lon="4.63153">
        <ele>391.682678223</ele>
        <time>2016-01-14T09:22:14.451Z</time>
      </trkpt>
      <trkpt lat="46.00782" lon="4.63163">
        <ele>391.998565674</ele>
        <time>2016-01-14T09:22:19.484Z</time>
      </trkpt>
      <trkpt lat="46.00782" lon="4.63165">
        <ele>392.062896729</ele>
        <time>2016-01-14T09:22:20.458Z</time>
      </trkpt>
      <trkpt lat="46.0079" lon="4.63168">
        <ele>392.41885376</ele>
        <time>2016-01-14T09:22:26.472Z</time>
      </trkpt>
      <trkpt lat="46.00791" lon="4.63167">
        <ele>392.441345215</ele>
        <time>2016-01-14T09:22:27.452Z</time>
      </trkpt>
      <trkpt lat="46.00799" lon="4.63165">
        <ele>392.465026855</ele>
        <time>2016-01-14T09:22:33.468Z</time>
      </trkpt>
      <trkpt lat="46.00801" lon="4.63165">
        <ele>392.48223877</ele>
        <time>2016-01-14T09:22:34.45Z</time>
      </trkpt>
      <trkpt lat="46.00809" lon="4.63163">
        <ele>392.396850586</ele>
        <time>2016-01-14T09:22:42.469Z</time>
      </trkpt>
      <trkpt lat="46.0081" lon="4.63163">
        <ele>392.364379883</ele>
        <time>2016-01-14T09:22:43.45Z</time>
      </trkpt>
      <trkpt lat="46.00819" lon="4.63163">
        <ele>392.144470215</ele>
        <time>2016-01-14T09:22:49.467Z</time>
      </trkpt>
      <trkpt lat="46.0082" lon="4.63163">
        <ele>392.11026001</ele>
        <time>2016-01-14T09:22:50.452Z</time>
      </trkpt>
      <trkpt lat="46.00829" lon="4.63163">
        <ele>391.982574463</ele>
        <time>2016-01-14T09:22:57.48Z</time>
      </trkpt>
      <trkpt lat="46.0083" lon="4.63162">
        <ele>391.969696045</ele>
        <time>2016-01-14T09:22:58.451Z</time>
      </trkpt>
      <trkpt lat="46.00839" lon="4.63161">
        <ele>392.299316406</ele>
        <time>2016-01-14T09:23:06.493Z</time>
      </trkpt>
      <trkpt lat="46.0084" lon="4.63161">
        <ele>392.355621338</ele>
        <time>2016-01-14T09:23:07.453Z</time>
      </trkpt>
      <trkpt lat="46.00848" lon="4.6316">
        <ele>392.592559814</ele>
        <time>2016-01-14T09:23:13.485Z</time>
      </trkpt>
      <trkpt lat="46.0085" lon="4.6316">
        <ele>392.633483887</ele>
        <time>2016-01-14T09:23:14.492Z</time>
      </trkpt>
      <trkpt lat="46.00857" lon="4.63159">
        <ele>392.81652832</ele>
        <time>2016-01-14T09:23:20.454Z</time>
      </trkpt>
      <trkpt lat="46.00859" lon="4.63159">
        <ele>392.826263428</ele>
        <time>2016-01-14T09:23:21.451Z</time>
      </trkpt>
      <trkpt lat="46.00867" lon="4.63158">
        <ele>392.828094482</ele>
        <time>2016-01-14T09:23:27.477Z</time>
      </trkpt>
      <trkpt lat="46.00868" lon="4.63157">
        <ele>392.856231689</ele>
        <time>2016-01-14T09:23:28.462Z</time>
      </trkpt>
      <trkpt lat="46.00876" lon="4.63155">
        <ele>393.160583496</ele>
        <time>2016-01-14T09:23:35.478Z</time>
      </trkpt>
      <trkpt lat="46.00877" lon="4.63155">
        <ele>393.217407227</ele>
        <time>2016-01-14T09:23:36.457Z</time>
      </trkpt>
      <trkpt lat="46.00884" lon="4.63152">
        <ele>393.372802734</ele>
        <time>2016-01-14T09:23:42.501Z</time>
      </trkpt>
      <trkpt lat="46.00886" lon="4.63152">
        <ele>393.38973999</ele>
        <time>2016-01-14T09:23:43.459Z</time>
      </trkpt>
      <trkpt lat="46.00894" lon="4.63152">
        <ele>393.471557617</ele>
        <time>2016-01-14T09:23:49.49Z</time>
      </trkpt>
      <trkpt lat="46.00895" lon="4.63151">
        <ele>393.521728516</ele>
        <time>2016-01-14T09:23:50.46Z</time>
      </trkpt>
      <trkpt lat="46.00903" lon="4.63149">
        <ele>393.853057861</ele>
        <time>2016-01-14T09:23:57.486Z</time>
      </trkpt>
      <trkpt lat="46.00904" lon="4.63149">
        <ele>393.887115479</ele>
        <time>2016-01-14T09:23:58.46Z</time>
      </trkpt>
      <trkpt lat="46.00911" lon="4.63144">
        <ele>394.216430664</ele>
        <time>2016-01-14T09:24:05.477Z</time>
      </trkpt>
      <trkpt lat="46.00912" lon="4.63143">
        <ele>394.259521484</ele>
        <time>2016-01-14T09:24:06.474Z</time>
      </trkpt>
      <trkpt lat="46.0092" lon="4.63137">
        <ele>395.295928955</ele>
        <time>2016-01-14T09:24:29.497Z</time>
      </trkpt>
      <trkpt lat="46.0092" lon="4.63137">
        <ele>395.301361084</ele>
        <time>2016-01-14T09:24:30.457Z</time>
      </trkpt>
      <trkpt lat="46.00928" lon="4.63131">
        <ele>396.333831787</ele>
        <time>2016-01-14T09:24:57.533Z</time>
      </trkpt>
      <trkpt lat="46.00929" lon="4.6313">
        <ele>396.412414551</ele>
        <time>2016-01-14T09:24:58.473Z</time>
      </trkpt>
      <trkpt lat="46.00937" lon="4.63125">
        <ele>396.93649292</ele>
        <time>2016-01-14T09:25:06.51Z</time>
      </trkpt>
      <trkpt lat="46.00938" lon="4.63124">
        <ele>396.99420166</ele>
        <time>2016-01-14T09:25:07.472Z</time>
      </trkpt>
      <trkpt lat="46.00943" lon="4.63115">
        <ele>397.54901123</ele>
        <time>2016-01-14T09:25:15.521Z</time>
      </trkpt>
      <trkpt lat="46.00944" lon="4.63114">
        <ele>397.621612549</ele>
        <time>2016-01-14T09:25:16.473Z</time>
      </trkpt>
      <trkpt lat="46.00948" lon="4.63104">
        <ele>398.417022705</ele>
        <time>2016-01-14T09:25:22.504Z</time>
      </trkpt>
      <trkpt lat="46.00949" lon="4.63103">
        <ele>398.545623779</ele>
        <time>2016-01-14T09:25:23.453Z</time>
      </trkpt>
      <trkpt lat="46.00954" lon="4.63093">
        <ele>399.311187744</ele>
        <time>2016-01-14T09:25:30.502Z</time>
      </trkpt>
      <trkpt lat="46.00955" lon="4.63092">
        <ele>399.415283203</ele>
        <time>2016-01-14T09:25:31.474Z</time>
      </trkpt>
      <trkpt lat="46.00961" lon="4.63084">
        <ele>400.132293701</ele>
        <time>2016-01-14T09:25:38.503Z</time>
      </trkpt>
      <trkpt lat="46.00962" lon="4.63084">
        <ele>400.233581543</ele>
        <time>2016-01-14T09:25:39.458Z</time>
      </trkpt>
      <trkpt lat="46.0097" lon="4.63079">
        <ele>400.853210449</ele>
        <time>2016-01-14T09:25:45.504Z</time>
      </trkpt>
      <trkpt lat="46.00971" lon="4.63078">
        <ele>400.971160889</ele>
        <time>2016-01-14T09:25:46.464Z</time>
      </trkpt>
      <trkpt lat="46.00979" lon="4.63074">
        <ele>401.781097412</ele>
        <time>2016-01-14T09:25:53.512Z</time>
      </trkpt>
      <trkpt lat="46.0098" lon="4.63074">
        <ele>401.909942627</ele>
        <time>2016-01-14T09:25:54.47Z</time>
      </trkpt>
      <trkpt lat="46.00988" lon="4.63069">
        <ele>402.52911377</ele>
        <time>2016-01-14T09:26:01.501Z</time>
      </trkpt>
      <trkpt lat="46.00989" lon="4.63069">
        <ele>402.598114014</ele>
        <time>2016-01-14T09:26:02.447Z</time>
      </trkpt>
      <trkpt lat="46.00997" lon="4.63065">
        <ele>403.254821777</ele>
        <time>2016-01-14T09:26:09.484Z</time>
      </trkpt>
      <trkpt lat="46.00998" lon="4.63064">
        <ele>403.398284912</ele>
        <time>2016-01-14T09:26:10.453Z</time>
      </trkpt>
      <trkpt lat="46.01006" lon="4.63061">
        <ele>404.058776855</ele>
        <time>2016-01-14T09:26:16.465Z</time>
      </trkpt>
      <trkpt lat="46.01007" lon="4.63061">
        <ele>404.141784668</ele>
        <time>2016-01-14T09:26:17.445Z</time>
      </trkpt>
      <trkpt lat="46.01016" lon="4.63056">
        <ele>404.690185547</ele>
        <time>2016-01-14T09:26:24.467Z</time>
      </trkpt>
      <trkpt lat="46.01017" lon="4.63055">
        <ele>404.741790771</ele>
        <time>2016-01-14T09:26:25.457Z</time>
      </trkpt>
      <trkpt lat="46.01025" lon="4.63051">
        <ele>405.160186768</ele>
        <time>2016-01-14T09:26:32.466Z</time>
      </trkpt>
      <trkpt lat="46.01026" lon="4.6305">
        <ele>405.224639893</ele>
        <time>2016-01-14T09:26:33.447Z</time>
      </trkpt>
      <trkpt lat="46.01034" lon="4.63045">
        <ele>405.686798096</ele>
        <time>2016-01-14T09:26:40.465Z</time>
      </trkpt>
      <trkpt lat="46.01035" lon="4.63045">
        <ele>405.740203857</ele>
        <time>2016-01-14T09:26:41.45Z</time>
      </trkpt>
      <trkpt lat="46.01042" lon="4.63038">
        <ele>406.235473633</ele>
        <time>2016-01-14T09:26:48.473Z</time>
      </trkpt>
      <trkpt lat="46.01043" lon="4.63037">
        <ele>406.316802979</ele>
        <time>2016-01-14T09:26:49.447Z</time>
      </trkpt>
      <trkpt lat="46.01049" lon="4.6303">
        <ele>406.806732178</ele>
        <time>2016-01-14T09:26:56.492Z</time>
      </trkpt>
      <trkpt lat="46.0105" lon="4.63029">
        <ele>406.854156494</ele>
        <time>2016-01-14T09:26:57.448Z</time>
      </trkpt>
      <trkpt lat="46.0105" lon="4.63016">
        <ele>407.696136475</ele>
        <time>2016-01-14T09:27:06.471Z</time>
      </trkpt>
      <trkpt lat="46.0105" lon="4.63014">
        <ele>407.784973145</ele>
        <time>2016-01-14T09:27:07.448Z</time>
      </trkpt>
      <trkpt lat="46.01042" lon="4.63007">
        <ele>408.468475342</ele>
        <time>2016-01-14T09:27:15.47Z</time>
      </trkpt>
      <trkpt lat="46.01041" lon="4.63007">
        <ele>408.558959961</ele>
        <time>2016-01-14T09:27:16.458Z</time>
      </trkpt>
      <trkpt lat="46.01033" lon="4.63001">
        <ele>409.298065186</ele>
        <time>2016-01-14T09:27:23.5Z</time>
      </trkpt>
      <trkpt lat="46.01032" lon="4.63">
        <ele>409.389251709</ele>
        <time>2016-01-14T09:27:24.438Z</time>
      </trkpt>
      <trkpt lat="46.01024" lon="4.62993">
        <ele>410.140563965</ele>
        <time>2016-01-14T09:27:32.474Z</time>
      </trkpt>
      <trkpt lat="46.01023" lon="4.62992">
        <ele>410.239318848</ele>
        <time>2016-01-14T09:27:33.464Z</time>
      </trkpt>
      <trkpt lat="46.01016" lon="4.62985">
        <ele>411.029327393</ele>
        <time>2016-01-14T09:27:41.492Z</time>
      </trkpt>
      <trkpt lat="46.01015" lon="4.62985">
        <ele>411.116943359</ele>
        <time>2016-01-14T09:27:42.459Z</time>
      </trkpt>
      <trkpt lat="46.01009" lon="4.62978">
        <ele>411.829650879</ele>
        <time>2016-01-14T09:27:49.475Z</time>
      </trkpt>
      <trkpt lat="46.01008" lon="4.62977">
        <ele>411.948577881</ele>
        <time>2016-01-14T09:27:50.437Z</time>
      </trkpt>
      <trkpt lat="46.01002" lon="4.6297">
        <ele>412.685180664</ele>
        <time>2016-01-14T09:27:56.476Z</time>
      </trkpt>
      <trkpt lat="46.01001" lon="4.62968">
        <ele>412.80368042</ele>
        <time>2016-01-14T09:27:57.455Z</time>
      </trkpt>
      <trkpt lat="46.00994" lon="4.6296">
        <ele>413.421417236</ele>
        <time>2016-01-14T09:28:04.484Z</time>
      </trkpt>
      <trkpt lat="46.00993" lon="4.62959">
        <ele>413.518035889</ele>
        <time>2016-01-14T09:28:05.451Z</time>
      </trkpt>
      <trkpt lat="46.00988" lon="4.62951">
        <ele>414.303497314</ele>
        <time>2016-01-14T09:28:12.471Z</time>
      </trkpt>
      <trkpt lat="46.00987" lon="4.62949">
        <ele>414.422607422</ele>
        <time>2016-01-14T09:28:13.458Z</time>
      </trkpt>
      <trkpt lat="46.00982" lon="4.6294">
        <ele>415.507019043</ele>
        <time>2016-01-14T09:28:20.491Z</time>
      </trkpt>
      <trkpt lat="46.00981" lon="4.62939">
        <ele>415.672973633</ele>
        <time>2016-01-14T09:28:21.457Z</time>
      </trkpt>
      <trkpt lat="46.00975" lon="4.6293">
        <ele>416.820404053</ele>
        <time>2016-01-14T09:28:29.495Z</time>
      </trkpt>
      <trkpt lat="46.00975" lon="4.62929">
        <ele>416.954437256</ele>
        <time>2016-01-14T09:28:30.452Z</time>
      </trkpt>
      <trkpt lat="46.00969" lon="4.62921">
        <ele>418.080688477</ele>
        <time>2016-01-14T09:28:39.48Z</time>
      </trkpt>
      <trkpt lat="46.00968" lon="4.6292">
        <ele>418.186462402</ele>
        <time>2016-01-14T09:28:40.458Z</time>
      </trkpt>
      <trkpt lat="46.0096" lon="4.62914">
        <ele>419.134307861</ele>
        <time>2016-01-14T09:28:48.482Z</time>
      </trkpt>
      <trkpt lat="46.00959" lon="4.62913">
        <ele>419.283538818</ele>
        <time>2016-01-14T09:28:49.458Z</time>
      </trkpt>
      <trkpt lat="46.00952" lon="4.62906">
        <ele>420.102020264</ele>
        <time>2016-01-14T09:28:56.484Z</time>
      </trkpt>
      <trkpt lat="46.00951" lon="4.62906">
        <ele>420.153991699</ele>
        <time>2016-01-14T09:28:57.459Z</time>
      </trkpt>
      <trkpt lat="46.00943" lon="4.629">
        <ele>420.511962891</ele>
        <time>2016-01-14T09:29:03.479Z</time>
      </trkpt>
      <trkpt lat="46.00943" lon="4.62899">
        <ele>420.608154297</ele>
        <time>2016-01-14T09:29:04.459Z</time>
      </trkpt>
      <trkpt lat="46.00935" lon="4.62892">
        <ele>421.083099365</ele>
        <time>2016-01-14T09:29:11.506Z</time>
      </trkpt>
      <trkpt lat="46.00934" lon="4.6289">
        <ele>421.198364258</ele>
        <time>2016-01-14T09:29:12.46Z</time>
      </trkpt>
      <trkpt lat="46.00928" lon="4.62886">
        <ele>421.596466064</ele>
        <time>2016-01-14T09:29:19.491Z</time>
      </trkpt>
      <trkpt lat="46.00926" lon="4.62884">
        <ele>421.642913818</ele>
        <time>2016-01-14T09:29:20.501Z</time>
      </trkpt>
      <trkpt lat="46.0092" lon="4.62878">
        <ele>421.981658936</ele>
        <time>2016-01-14T09:29:27.475Z</time>
      </trkpt>
      <trkpt lat="46.00919" lon="4.62877">
        <ele>421.998077393</ele>
        <time>2016-01-14T09:29:28.459Z</time>
      </trkpt>
      <trkpt lat="46.0091" lon="4.62872">
        <ele>422.202606201</ele>
        <time>2016-01-14T09:29:37.491Z</time>
      </trkpt>
      <trkpt lat="46.0091" lon="4.62873">
        <ele>422.213378906</ele>
        <time>2016-01-14T09:29:38.472Z</time>
      </trkpt>
      <trkpt lat="46.00906" lon="4.62884">
        <ele>421.600708008</ele>
        <time>2016-01-14T09:29:53.5Z</time>
      </trkpt>
      <trkpt lat="46.00906" lon="4.62885">
        <ele>421.568847656</ele>
        <time>2016-01-14T09:29:54.469Z</time>
      </trkpt>
      <trkpt lat="46.00903" lon="4.62896">
        <ele>421.147705078</ele>
        <time>2016-01-14T09:30:02.468Z</time>
      </trkpt>
      <trkpt lat="46.00902" lon="4.62898">
        <ele>421.054779053</ele>
        <time>2016-01-14T09:30:03.463Z</time>
      </trkpt>
      <trkpt lat="46.00897" lon="4.62908">
        <ele>420.560760498</ele>
        <time>2016-01-14T09:30:10.499Z</time>
      </trkpt>
      <trkpt lat="46.00897" lon="4.6291">
        <ele>420.511474609</ele>
        <time>2016-01-14T09:30:11.46Z</time>
      </trkpt>
      <trkpt lat="46.00895" lon="4.62922">
        <ele>418.697235107</ele>
        <time>2016-01-14T09:30:51.503Z</time>
      </trkpt>
      <trkpt lat="46.00895" lon="4.62923">
        <ele>418.627532959</ele>
        <time>2016-01-14T09:30:52.474Z</time>
      </trkpt>
      <trkpt lat="46.00898" lon="4.62935">
        <ele>417.631225586</ele>
        <time>2016-01-14T09:31:01.515Z</time>
      </trkpt>
      <trkpt lat="46.00898" lon="4.62936">
        <ele>417.519104004</ele>
        <time>2016-01-14T09:31:02.474Z</time>
      </trkpt>
      <trkpt lat="46.00895" lon="4.62947">
        <ele>416.739715576</ele>
        <time>2016-01-14T09:31:10.498Z</time>
      </trkpt>
      <trkpt lat="46.00895" lon="4.6295">
        <ele>416.633483887</ele>
        <time>2016-01-14T09:31:11.471Z</time>
      </trkpt>
      <trkpt lat="46.00892" lon="4.62961">
        <ele>415.773864746</ele>
        <time>2016-01-14T09:31:19.48Z</time>
      </trkpt>
      <trkpt lat="46.00892" lon="4.62963">
        <ele>415.668914795</ele>
        <time>2016-01-14T09:31:20.448Z</time>
      </trkpt>
      <trkpt lat="46.00888" lon="4.62973">
        <ele>414.817840576</ele>
        <time>2016-01-14T09:31:27.472Z</time>
      </trkpt>
      <trkpt lat="46.00888" lon="4.62975">
        <ele>414.692718506</ele>
        <time>2016-01-14T09:31:28.44Z</time>
      </trkpt>
      <trkpt lat="46.00884" lon="4.62986">
        <ele>413.980682373</ele>
        <time>2016-01-14T09:31:36.483Z</time>
      </trkpt>
      <trkpt lat="46.00883" lon="4.62988">
        <ele>413.924713135</ele>
        <time>2016-01-14T09:31:37.447Z</time>
      </trkpt>
      <trkpt lat="46.0088" lon="4.62998">
        <ele>413.665557861</ele>
        <time>2016-01-14T09:31:43.554Z</time>
      </trkpt>
      <trkpt lat="46.00879" lon="4.63">
        <ele>413.62020874</ele>
        <time>2016-01-14T09:31:44.447Z</time>
      </trkpt>
      <trkpt lat="46.00875" lon="4.6301">
        <ele>413.502746582</ele>
        <time>2016-01-14T09:31:51.467Z</time>
      </trkpt>
      <trkpt lat="46.00874" lon="4.63012">
        <ele>413.442962646</ele>
        <time>2016-01-14T09:31:52.453Z</time>
      </trkpt>
      <trkpt lat="46.00872" lon="4.63023">
        <ele>412.593597412</ele>
        <time>2016-01-14T09:32:00.467Z</time>
      </trkpt>
      <trkpt lat="46.00871" lon="4.63025">
        <ele>412.490081787</ele>
        <time>2016-01-14T09:32:01.442Z</time>
      </trkpt>
      <trkpt lat="46.00866" lon="4.63035">
        <ele>411.661956787</ele>
        <time>2016-01-14T09:32:08.488Z</time>
      </trkpt>
      <trkpt lat="46.00866" lon="4.63037">
        <ele>411.541687012</ele>
        <time>2016-01-14T09:32:09.443Z</time>
      </trkpt>
      <trkpt lat="46.00859" lon="4.63045">
        <ele>410.703582764</ele>
        <time>2016-01-14T09:32:18.486Z</time>
      </trkpt>
      <trkpt lat="46.00858" lon="4.63045">
        <ele>410.555999756</ele>
        <time>2016-01-14T09:32:19.451Z</time>
      </trkpt>
      <trkpt lat="46.00852" lon="4.63036">
        <ele>409.817230225</ele>
        <time>2016-01-14T09:32:28.485Z</time>
      </trkpt>
      <trkpt lat="46.00851" lon="4.63034">
        <ele>409.726287842</ele>
        <time>2016-01-14T09:32:29.453Z</time>
      </trkpt>
      <trkpt lat="46.00845" lon="4.63026">
        <ele>409.028930664</ele>
        <time>2016-01-14T09:32:36.486Z</time>
      </trkpt>
      <trkpt lat="46.00845" lon="4.63025">
        <ele>408.933349609</ele>
        <time>2016-01-14T09:32:37.456Z</time>
      </trkpt>
      <trkpt lat="46.00839" lon="4.63016">
        <ele>408.332336426</ele>
        <time>2016-01-14T09:32:44.485Z</time>
      </trkpt>
      <trkpt lat="46.00838" lon="4.63014">
        <ele>408.250183105</ele>
        <time>2016-01-14T09:32:45.449Z</time>
      </trkpt>
      <trkpt lat="46.00832" lon="4.63004">
        <ele>407.66607666</ele>
        <time>2016-01-14T09:32:52.496Z</time>
      </trkpt>
      <trkpt lat="46.00832" lon="4.63003">
        <ele>407.593994141</ele>
        <time>2016-01-14T09:32:53.458Z</time>
      </trkpt>
      <trkpt lat="46.00825" lon="4.62995">
        <ele>407.049499512</ele>
        <time>2016-01-14T09:33:00.478Z</time>
      </trkpt>
      <trkpt lat="46.00824" lon="4.62994">
        <ele>406.97644043</ele>
        <time>2016-01-14T09:33:01.459Z</time>
      </trkpt>
      <trkpt lat="46.00817" lon="4.62986">
        <ele>406.463012695</ele>
        <time>2016-01-14T09:33:08.507Z</time>
      </trkpt>
      <trkpt lat="46.00816" lon="4.62985">
        <ele>406.36706543</ele>
        <time>2016-01-14T09:33:09.46Z</time>
      </trkpt>
      <trkpt lat="46.0081" lon="4.62977">
        <ele>405.727813721</ele>
        <time>2016-01-14T09:33:17.488Z</time>
      </trkpt>
      <trkpt lat="46.00809" lon="4.62976">
        <ele>405.674133301</ele>
        <time>2016-01-14T09:33:18.459Z</time>
      </trkpt>
      <trkpt lat="46.00803" lon="4.62967">
        <ele>405.407531738</ele>
        <time>2016-01-14T09:33:26.477Z</time>
      </trkpt>
      <trkpt lat="46.00802" lon="4.62966">
        <ele>405.391448975</ele>
        <time>2016-01-14T09:33:27.454Z</time>
      </trkpt>
      <trkpt lat="46.00797" lon="4.62957">
        <ele>405.437225342</ele>
        <time>2016-01-14T09:33:34.482Z</time>
      </trkpt>
      <trkpt lat="46.00797" lon="4.62956">
        <ele>405.469055176</ele>
        <time>2016-01-14T09:33:35.463Z</time>
      </trkpt>
      <trkpt lat="46.00794" lon="4.62944">
        <ele>405.552886963</ele>
        <time>2016-01-14T09:33:42.491Z</time>
      </trkpt>
      <trkpt lat="46.00793" lon="4.62942">
        <ele>405.522033691</ele>
        <time>2016-01-14T09:33:43.458Z</time>
      </trkpt>
      <trkpt lat="46.00795" lon="4.6293">
        <ele>405.397857666</ele>
        <time>2016-01-14T09:34:13.598Z</time>
      </trkpt>
      <trkpt lat="46.00796" lon="4.62929">
        <ele>405.434570312</ele>
        <time>2016-01-14T09:34:14.464Z</time>
      </trkpt>
      <trkpt lat="46.00801" lon="4.62919">
        <ele>405.871765137</ele>
        <time>2016-01-14T09:34:26.487Z</time>
      </trkpt>
      <trkpt lat="46.00802" lon="4.62918">
        <ele>405.903594971</ele>
        <time>2016-01-14T09:34:27.449Z</time>
      </trkpt>
      <trkpt lat="46.00808" lon="4.62909">
        <ele>406.310302734</ele>
        <time>2016-01-14T09:34:37.497Z</time>
      </trkpt>
      <trkpt lat="46.00808" lon="4.62908">
        <ele>406.366210938</ele>
        <time>2016-01-14T09:34:38.478Z</time>
      </trkpt>
      <trkpt lat="46.00814" lon="4.62899">
        <ele>407.122894287</ele>
        <time>2016-01-14T09:34:48.497Z</time>
      </trkpt>
      <trkpt lat="46.00815" lon="4.62899">
        <ele>407.18862915</ele>
        <time>2016-01-14T09:34:49.467Z</time>
      </trkpt>
      <trkpt lat="46.0082" lon="4.62889">
        <ele>408.065429688</ele>
        <time>2016-01-14T09:35:01.492Z</time>
      </trkpt>
      <trkpt lat="46.00821" lon="4.62888">
        <ele>408.132263184</ele>
        <time>2016-01-14T09:35:02.469Z</time>
      </trkpt>
      <trkpt lat="46.00815" lon="4.62879">
        <ele>408.890777588</ele>
        <time>2016-01-14T09:35:18.493Z</time>
      </trkpt>
      <trkpt lat="46.00814" lon="4.62878">
        <ele>408.936981201</ele>
        <time>2016-01-14T09:35:19.47Z</time>
      </trkpt>
      <trkpt lat="46.00806" lon="4.62873">
        <ele>409.073669434</ele>
        <time>2016-01-14T09:35:27.508Z</time>
      </trkpt>
      <trkpt lat="46.00805" lon="4.62871">
        <ele>409.048522949</ele>
        <time>2016-01-14T09:35:28.468Z</time>
      </trkpt>
      <trkpt lat="46.00801" lon="4.62861">
        <ele>409.391418457</ele>
        <time>2016-01-14T09:35:37.497Z</time>
      </trkpt>
      <trkpt lat="46.008" lon="4.62859">
        <ele>409.468139648</ele>
        <time>2016-01-14T09:35:38.471Z</time>
      </trkpt>
      <trkpt lat="46.00795" lon="4.62849">
        <ele>410.282684326</ele>
        <time>2016-01-14T09:35:46.494Z</time>
      </trkpt>
      <trkpt lat="46.00794" lon="4.62847">
        <ele>410.31539917</ele>
        <time>2016-01-14T09:35:47.475Z</time>
      </trkpt>
      <trkpt lat="46.00788" lon="4.62838">
        <ele>410.61907959</ele>
        <time>2016-01-14T09:35:54.523Z</time>
      </trkpt>
      <trkpt lat="46.00787" lon="4.62837">
        <ele>410.652374268</ele>
        <time>2016-01-14T09:35:55.47Z</time>
      </trkpt>
      <trkpt lat="46.00783" lon="4.62826">
        <ele>411.099822998</ele>
        <time>2016-01-14T09:36:03.53Z</time>
      </trkpt>
      <trkpt lat="46.00782" lon="4.62825">
        <ele>411.22366333</ele>
        <time>2016-01-14T09:36:04.474Z</time>
      </trkpt>
      <trkpt lat="46.00778" lon="4.62814">
        <ele>412.166381836</ele>
        <time>2016-01-14T09:36:12.534Z</time>
      </trkpt>
      <trkpt lat="46.00777" lon="4.62812">
        <ele>412.24432373</ele>
        <time>2016-01-14T09:36:13.453Z</time>
      </trkpt>
      <trkpt lat="46.00771" lon="4.62806">
        <ele>412.135772705</ele>
        <time>2016-01-14T09:36:18.501Z</time>
      </trkpt>
      <trkpt lat="46.0077" lon="4.62805">
        <ele>412.007598877</ele>
        <time>2016-01-14T09:36:19.474Z</time>
      </trkpt>
      <trkpt lat="46.00764" lon="4.62796">
        <ele>411.909820557</ele>
        <time>2016-01-14T09:36:31.55Z</time>
      </trkpt>
      <trkpt lat="46.00762" lon="4.62795">
        <ele>411.895751953</ele>
        <time>2016-01-14T09:36:32.476Z</time>
      </trkpt>
      <trkpt lat="46.00757" lon="4.62786">
        <ele>413.671722412</ele>
        <time>2016-01-14T09:37:06.461Z</time>
      </trkpt>
      <trkpt lat="46.00758" lon="4.62784">
        <ele>413.66317749</ele>
        <time>2016-01-14T09:37:07.449Z</time>
      </trkpt>
      <trkpt lat="46.00764" lon="4.62775">
        <ele>413.841308594</ele>
        <time>2016-01-14T09:37:20.488Z</time>
      </trkpt>
      <trkpt lat="46.00766" lon="4.62775">
        <ele>413.933074951</ele>
        <time>2016-01-14T09:37:21.443Z</time>
      </trkpt>
      <trkpt lat="46.00774" lon="4.62777">
        <ele>414.424102783</ele>
        <time>2016-01-14T09:37:28.478Z</time>
      </trkpt>
      <trkpt lat="46.00775" lon="4.62777">
        <ele>414.497955322</ele>
        <time>2016-01-14T09:37:29.446Z</time>
      </trkpt>
      <trkpt lat="46.00782" lon="4.62781">
        <ele>414.923614502</ele>
        <time>2016-01-14T09:37:36.483Z</time>
      </trkpt>
      <trkpt lat="46.00784" lon="4.62781">
        <ele>414.982635498</ele>
        <time>2016-01-14T09:37:37.45Z</time>
      </trkpt>
      <trkpt lat="46.00791" lon="4.62787">
        <ele>415.492279053</ele>
        <time>2016-01-14T09:37:45.46Z</time>
      </trkpt>
      <trkpt lat="46.00792" lon="4.62788">
        <ele>415.620819092</ele>
        <time>2016-01-14T09:37:46.441Z</time>
      </trkpt>
      <trkpt lat="46.008" lon="4.62792">
        <ele>416.254272461</ele>
        <time>2016-01-14T09:37:54.462Z</time>
      </trkpt>
      <trkpt lat="46.00801" lon="4.62792">
        <ele>416.340454102</ele>
        <time>2016-01-14T09:37:55.449Z</time>
      </trkpt>
      <trkpt lat="46.0081" lon="4.62792">
        <ele>416.740783691</ele>
        <time>2016-01-14T09:38:04.463Z</time>
      </trkpt>
      <trkpt lat="46.00811" lon="4.62792">
        <ele>416.85748291</ele>
        <time>2016-01-14T09:38:05.449Z</time>
      </trkpt>
      <trkpt lat="46.00819" lon="4.62791">
        <ele>417.797607422</ele>
        <time>2016-01-14T09:38:14.474Z</time>
      </trkpt>
      <trkpt lat="46.0082" lon="4.62791">
        <ele>417.844573975</ele>
        <time>2016-01-14T09:38:15.449Z</time>
      </trkpt>
      <trkpt lat="46.00828" lon="4.62789">
        <ele>418.570404053</ele>
        <time>2016-01-14T09:38:23.468Z</time>
      </trkpt>
      <trkpt lat="46.00829" lon="4.62789">
        <ele>418.695465088</ele>
        <time>2016-01-14T09:38:24.45Z</time>
      </trkpt>
      <trkpt lat="46.00838" lon="4.62787">
        <ele>419.709716797</ele>
        <time>2016-01-14T09:38:32.493Z</time>
      </trkpt>
      <trkpt lat="46.00839" lon="4.62787">
        <ele>419.823455811</ele>
        <time>2016-01-14T09:38:33.453Z</time>
      </trkpt>
      <trkpt lat="46.00847" lon="4.62785">
        <ele>421.309631348</ele>
        <time>2016-01-14T09:38:44.478Z</time>
      </trkpt>
      <trkpt lat="46.00847" lon="4.62784">
        <ele>421.370574951</ele>
        <time>2016-01-14T09:38:45.49Z</time>
      </trkpt>
      <trkpt lat="46.00848" lon="4.62771">
        <ele>422.671173096</ele>
        <time>2016-01-14T09:38:58.579Z</time>
      </trkpt>
      <trkpt lat="46.00847" lon="4.62771">
        <ele>422.786712646</ele>
        <time>2016-01-14T09:38:59.46Z</time>
      </trkpt>
      <trkpt lat="46.00845" lon="4.62759">
        <ele>423.467651367</ele>
        <time>2016-01-14T09:39:06.475Z</time>
      </trkpt>
      <trkpt lat="46.00845" lon="4.62757">
        <ele>423.559448242</ele>
        <time>2016-01-14T09:39:07.452Z</time>
      </trkpt>
      <trkpt lat="46.00841" lon="4.62746">
        <ele>425.436859131</ele>
        <time>2016-01-14T09:39:35.494Z</time>
      </trkpt>
      <trkpt lat="46.00841" lon="4.62744">
        <ele>425.506561279</ele>
        <time>2016-01-14T09:39:36.454Z</time>
      </trkpt>
      <trkpt lat="46.00838" lon="4.62733">
        <ele>425.845794678</ele>
        <time>2016-01-14T09:39:42.485Z</time>
      </trkpt>
      <trkpt lat="46.00838" lon="4.62731">
        <ele>425.892913818</ele>
        <time>2016-01-14T09:39:43.459Z</time>
      </trkpt>
      <trkpt lat="46.00836" lon="4.62719">
        <ele>426.475708008</ele>
        <time>2016-01-14T09:39:50.607Z</time>
      </trkpt>
      <trkpt lat="46.00836" lon="4.62717">
        <ele>426.560546875</ele>
        <time>2016-01-14T09:39:51.464Z</time>
      </trkpt>
      <trkpt lat="46.00834" lon="4.62705">
        <ele>427.388824463</ele>
        <time>2016-01-14T09:39:59.488Z</time>
      </trkpt>
      <trkpt lat="46.00833" lon="4.62703">
        <ele>427.487915039</ele>
        <time>2016-01-14T09:40:00.461Z</time>
      </trkpt>
      <trkpt lat="46.00831" lon="4.62691">
        <ele>427.95980835</ele>
        <time>2016-01-14T09:40:07.454Z</time>
      </trkpt>
      <trkpt lat="46.0083" lon="4.6269">
        <ele>428.04385376</ele>
        <time>2016-01-14T09:40:08.469Z</time>
      </trkpt>
      <trkpt lat="46.00829" lon="4.62679">
        <ele>428.688476562</ele>
        <time>2016-01-14T09:40:14.505Z</time>
      </trkpt>
      <trkpt lat="46.00829" lon="4.62677">
        <ele>428.806640625</ele>
        <time>2016-01-14T09:40:15.467Z</time>
      </trkpt>
      <trkpt lat="46.00826" lon="4.62665">
        <ele>429.765380859</ele>
        <time>2016-01-14T09:40:23.488Z</time>
      </trkpt>
      <trkpt lat="46.00826" lon="4.62664">
        <ele>429.909515381</ele>
        <time>2016-01-14T09:40:24.461Z</time>
      </trkpt>
      <trkpt lat="46.00822" lon="4.62653">
        <ele>430.296325684</ele>
        <time>2016-01-14T09:40:30.494Z</time>
      </trkpt>
      <trkpt lat="46.00822" lon="4.62652">
        <ele>430.353424072</ele>
        <time>2016-01-14T09:40:31.481Z</time>
      </trkpt>
      <trkpt lat="46.00819" lon="4.62641">
        <ele>430.914581299</ele>
        <time>2016-01-14T09:40:38.596Z</time>
      </trkpt>
      <trkpt lat="46.00819" lon="4.62639">
        <ele>430.998718262</ele>
        <time>2016-01-14T09:40:39.459Z</time>
      </trkpt>
      <trkpt lat="46.00816" lon="4.62628">
        <ele>431.592926025</ele>
        <time>2016-01-14T09:40:46.496Z</time>
      </trkpt>
      <trkpt lat="46.00816" lon="4.62625">
        <ele>431.690795898</ele>
        <time>2016-01-14T09:40:47.46Z</time>
      </trkpt>
      <trkpt lat="46.00813" lon="4.62613">
        <ele>432.048248291</ele>
        <time>2016-01-14T09:40:53.505Z</time>
      </trkpt>
      <trkpt lat="46.00812" lon="4.62612">
        <ele>432.067871094</ele>
        <time>2016-01-14T09:40:54.466Z</time>
      </trkpt>
      <trkpt lat="46.0081" lon="4.62601">
        <ele>432.338378906</ele>
        <time>2016-01-14T09:41:01.501Z</time>
      </trkpt>
      <trkpt lat="46.00809" lon="4.62599">
        <ele>432.425537109</ele>
        <time>2016-01-14T09:41:02.473Z</time>
      </trkpt>
      <trkpt lat="46.00807" lon="4.62589">
        <ele>432.925598145</ele>
        <time>2016-01-14T09:41:08.493Z</time>
      </trkpt>
      <trkpt lat="46.00807" lon="4.62586">
        <ele>432.995147705</ele>
        <time>2016-01-14T09:41:09.452Z</time>
      </trkpt>
      <trkpt lat="46.00804" lon="4.62575">
        <ele>433.50994873</ele>
        <time>2016-01-14T09:41:17.503Z</time>
      </trkpt>
      <trkpt lat="46.00803" lon="4.62573">
        <ele>433.611877441</ele>
        <time>2016-01-14T09:41:18.471Z</time>
      </trkpt>
      <trkpt lat="46.00801" lon="4.62562">
        <ele>434.111663818</ele>
        <time>2016-01-14T09:41:25.496Z</time>
      </trkpt>
      <trkpt lat="46.00801" lon="4.62561">
        <ele>434.201049805</ele>
        <time>2016-01-14T09:41:26.474Z</time>
      </trkpt>
      <trkpt lat="46.00799" lon="4.62548">
        <ele>434.600341797</ele>
        <time>2016-01-14T09:41:32.503Z</time>
      </trkpt>
      <trkpt lat="46.00799" lon="4.62547">
        <ele>434.66192627</ele>
        <time>2016-01-14T09:41:33.475Z</time>
      </trkpt>
      <trkpt lat="46.00798" lon="4.62534">
        <ele>435.492370605</ele>
        <time>2016-01-14T09:41:40.499Z</time>
      </trkpt>
      <trkpt lat="46.00798" lon="4.62533">
        <ele>435.613922119</ele>
        <time>2016-01-14T09:41:41.475Z</time>
      </trkpt>
      <trkpt lat="46.00795" lon="4.62521">
        <ele>435.890380859</ele>
        <time>2016-01-14T09:41:49.471Z</time>
      </trkpt>
      <trkpt lat="46.00796" lon="4.62519">
        <ele>435.936248779</ele>
        <time>2016-01-14T09:41:50.446Z</time>
      </trkpt>
      <trkpt lat="46.00791" lon="4.62509">
        <ele>439.171051025</ele>
        <time>2016-01-14T09:43:33.451Z</time>
      </trkpt>
      <trkpt lat="46.0079" lon="4.62507">
        <ele>439.145263672</ele>
        <time>2016-01-14T09:43:34.461Z</time>
      </trkpt>
      <trkpt lat="46.00787" lon="4.62495">
        <ele>439.457092285</ele>
        <time>2016-01-14T09:43:41.496Z</time>
      </trkpt>
      <trkpt lat="46.00787" lon="4.62494">
        <ele>439.530914307</ele>
        <time>2016-01-14T09:43:42.439Z</time>
      </trkpt>
      <trkpt lat="46.00785" lon="4.62482">
        <ele>439.88494873</ele>
        <time>2016-01-14T09:43:48.478Z</time>
      </trkpt>
      <trkpt lat="46.00785" lon="4.62479">
        <ele>439.92388916</ele>
        <time>2016-01-14T09:43:49.452Z</time>
      </trkpt>
      <trkpt lat="46.00782" lon="4.62468">
        <ele>440.033752441</ele>
        <time>2016-01-14T09:43:57.488Z</time>
      </trkpt>
      <trkpt lat="46.00782" lon="4.62467">
        <ele>440.141906738</ele>
        <time>2016-01-14T09:43:58.449Z</time>
      </trkpt>
      <trkpt lat="46.0078" lon="4.62455">
        <ele>441.056365967</ele>
        <time>2016-01-14T09:44:06.489Z</time>
      </trkpt>
      <trkpt lat="46.00779" lon="4.62453">
        <ele>441.119262695</ele>
        <time>2016-01-14T09:44:07.45Z</time>
      </trkpt>
      <trkpt lat="46.00776" lon="4.62441">
        <ele>441.714080811</ele>
        <time>2016-01-14T09:44:14.477Z</time>
      </trkpt>
      <trkpt lat="46.00776" lon="4.6244">
        <ele>441.91003418</ele>
        <time>2016-01-14T09:44:15.451Z</time>
      </trkpt>
      <trkpt lat="46.00774" lon="4.62429">
        <ele>442.596313477</ele>
        <time>2016-01-14T09:44:21.482Z</time>
      </trkpt>
      <trkpt lat="46.00774" lon="4.62427">
        <ele>442.670684814</ele>
        <time>2016-01-14T09:44:22.452Z</time>
      </trkpt>
      <trkpt lat="46.00772" lon="4.62415">
        <ele>443.178314209</ele>
        <time>2016-01-14T09:44:29.496Z</time>
      </trkpt>
      <trkpt lat="46.00772" lon="4.62412">
        <ele>443.257476807</ele>
        <time>2016-01-14T09:44:30.452Z</time>
      </trkpt>
      <trkpt lat="46.0077" lon="4.62401">
        <ele>443.576812744</ele>
        <time>2016-01-14T09:44:36.486Z</time>
      </trkpt>
      <trkpt lat="46.0077" lon="4.62399">
        <ele>443.682556152</ele>
        <time>2016-01-14T09:44:37.466Z</time>
      </trkpt>
      <trkpt lat="46.00769" lon="4.62387">
        <ele>444.436584473</ele>
        <time>2016-01-14T09:44:45.487Z</time>
      </trkpt>
      <trkpt lat="46.00769" lon="4.62385">
        <ele>444.480712891</ele>
        <time>2016-01-14T09:44:46.443Z</time>
      </trkpt>
      <trkpt lat="46.00767" lon="4.62373">
        <ele>444.962463379</ele>
        <time>2016-01-14T09:44:53.495Z</time>
      </trkpt>
      <trkpt lat="46.00767" lon="4.62372">
        <ele>445.059661865</ele>
        <time>2016-01-14T09:44:54.45Z</time>
      </trkpt>
      <trkpt lat="46.00769" lon="4.62361">
        <ele>445.674743652</ele>
        <time>2016-01-14T09:45:05.498Z</time>
      </trkpt>
      <trkpt lat="46.0077" lon="4.6236">
        <ele>445.682830811</ele>
        <time>2016-01-14T09:45:06.467Z</time>
      </trkpt>
      <trkpt lat="46.00777" lon="4.62352">
        <ele>445.74331665</ele>
        <time>2016-01-14T09:45:12.49Z</time>
      </trkpt>
      <trkpt lat="46.00777" lon="4.62351">
        <ele>445.758087158</ele>
        <time>2016-01-14T09:45:13.464Z</time>
      </trkpt>
      <trkpt lat="46.00786" lon="4.62348">
        <ele>445.855834961</ele>
        <time>2016-01-14T09:45:21.496Z</time>
      </trkpt>
      <trkpt lat="46.00787" lon="4.62348">
        <ele>445.883453369</ele>
        <time>2016-01-14T09:45:22.465Z</time>
      </trkpt>
      <trkpt lat="46.00795" lon="4.62345">
        <ele>446.019500732</ele>
        <time>2016-01-14T09:45:29.493Z</time>
      </trkpt>
      <trkpt lat="46.00796" lon="4.62344">
        <ele>446.057769775</ele>
        <time>2016-01-14T09:45:30.478Z</time>
      </trkpt>
      <trkpt lat="46.00804" lon="4.62343">
        <ele>447.148468018</ele>
        <time>2016-01-14T09:45:54.493Z</time>
      </trkpt>
      <trkpt lat="46.00806" lon="4.62344">
        <ele>447.149902344</ele>
        <time>2016-01-14T09:45:55.461Z</time>
      </trkpt>
      <trkpt lat="46.00814" lon="4.62346">
        <ele>447.376708984</ele>
        <time>2016-01-14T09:46:05.491Z</time>
      </trkpt>
      <trkpt lat="46.00815" lon="4.62347">
        <ele>447.419342041</ele>
        <time>2016-01-14T09:46:06.472Z</time>
      </trkpt>
      <trkpt lat="46.00823" lon="4.62349">
        <ele>447.698760986</ele>
        <time>2016-01-14T09:47:28.496Z</time>
      </trkpt>
      <trkpt lat="46.00824" lon="4.62349">
        <ele>447.74230957</ele>
        <time>2016-01-14T09:47:29.453Z</time>
      </trkpt>
      <trkpt lat="46.00832" lon="4.62349">
        <ele>447.801055908</ele>
        <time>2016-01-14T09:47:35.475Z</time>
      </trkpt>
      <trkpt lat="46.00833" lon="4.62349">
        <ele>447.817443848</ele>
        <time>2016-01-14T09:47:36.446Z</time>
      </trkpt>
      <trkpt lat="46.00841" lon="4.62351">
        <ele>448.142059326</ele>
        <time>2016-01-14T09:47:43.465Z</time>
      </trkpt>
      <trkpt lat="46.00842" lon="4.62352">
        <ele>448.215606689</ele>
        <time>2016-01-14T09:47:44.447Z</time>
      </trkpt>
      <trkpt lat="46.0085" lon="4.62352">
        <ele>448.366027832</ele>
        <time>2016-01-14T09:47:50.45Z</time>
      </trkpt>
      <trkpt lat="46.00852" lon="4.62352">
        <ele>448.388275146</ele>
        <time>2016-01-14T09:47:51.458Z</time>
      </trkpt>
      <trkpt lat="46.00859" lon="4.62353">
        <ele>448.433227539</ele>
        <time>2016-01-14T09:47:57.465Z</time>
      </trkpt>
      <trkpt lat="46.0086" lon="4.62354">
        <ele>448.462860107</ele>
        <time>2016-01-14T09:47:58.452Z</time>
      </trkpt>
      <trkpt lat="46.00869" lon="4.62356">
        <ele>448.682800293</ele>
        <time>2016-01-14T09:48:05.47Z</time>
      </trkpt>
      <trkpt lat="46.0087" lon="4.62357">
        <ele>448.700561523</ele>
        <time>2016-01-14T09:48:06.447Z</time>
      </trkpt>
      <trkpt lat="46.00878" lon="4.62361">
        <ele>449.012329102</ele>
        <time>2016-01-14T09:48:14.466Z</time>
      </trkpt>
      <trkpt lat="46.0088" lon="4.62362">
        <ele>449.058746338</ele>
        <time>2016-01-14T09:48:15.448Z</time>
      </trkpt>
      <trkpt lat="46.00888" lon="4.62366">
        <ele>449.227386475</ele>
        <time>2016-01-14T09:48:22.469Z</time>
      </trkpt>
      <trkpt lat="46.00889" lon="4.62366">
        <ele>449.268829346</ele>
        <time>2016-01-14T09:48:23.454Z</time>
      </trkpt>
      <trkpt lat="46.00897" lon="4.62371">
        <ele>449.278167725</ele>
        <time>2016-01-14T09:48:30.468Z</time>
      </trkpt>
      <trkpt lat="46.00898" lon="4.62372">
        <ele>449.236053467</ele>
        <time>2016-01-14T09:48:31.445Z</time>
      </trkpt>
      <trkpt lat="46.00906" lon="4.62377">
        <ele>449.54095459</ele>
        <time>2016-01-14T09:48:39.476Z</time>
      </trkpt>
      <trkpt lat="46.00907" lon="4.62377">
        <ele>449.640594482</ele>
        <time>2016-01-14T09:48:40.454Z</time>
      </trkpt>
      <trkpt lat="46.00914" lon="4.6238">
        <ele>450.198699951</ele>
        <time>2016-01-14T09:48:46.448Z</time>
      </trkpt>
      <trkpt lat="46.00915" lon="4.62381">
        <ele>450.303527832</ele>
        <time>2016-01-14T09:48:47.461Z</time>
      </trkpt>
      <trkpt lat="46.00923" lon="4.62385">
        <ele>450.877563477</ele>
        <time>2016-01-14T09:48:54.476Z</time>
      </trkpt>
      <trkpt lat="46.00924" lon="4.62386">
        <ele>450.950805664</ele>
        <time>2016-01-14T09:48:55.456Z</time>
      </trkpt>
      <trkpt lat="46.00931" lon="4.62389">
        <ele>451.321289062</ele>
        <time>2016-01-14T09:49:00.489Z</time>
      </trkpt>
      <trkpt lat="46.00933" lon="4.6239">
        <ele>451.381103516</ele>
        <time>2016-01-14T09:49:01.449Z</time>
      </trkpt>
      <trkpt lat="46.00941" lon="4.62394">
        <ele>451.621337891</ele>
        <time>2016-01-14T09:49:07.473Z</time>
      </trkpt>
      <trkpt lat="46.00942" lon="4.62395">
        <ele>451.656707764</ele>
        <time>2016-01-14T09:49:08.45Z</time>
      </trkpt>
      <trkpt lat="46.00951" lon="4.62399">
        <ele>452.048309326</ele>
        <time>2016-01-14T09:49:16.471Z</time>
      </trkpt>
      <trkpt lat="46.00952" lon="4.624">
        <ele>452.100494385</ele>
        <time>2016-01-14T09:49:17.45Z</time>
      </trkpt>
      <trkpt lat="46.00959" lon="4.62404">
        <ele>452.648590088</ele>
        <time>2016-01-14T09:49:24.476Z</time>
      </trkpt>
      <trkpt lat="46.00961" lon="4.62405">
        <ele>452.708862305</ele>
        <time>2016-01-14T09:49:25.45Z</time>
      </trkpt>
      <trkpt lat="46.00968" lon="4.6241">
        <ele>452.987609863</ele>
        <time>2016-01-14T09:49:31.476Z</time>
      </trkpt>
      <trkpt lat="46.00969" lon="4.62411">
        <ele>453.036804199</ele>
        <time>2016-01-14T09:49:32.466Z</time>
      </trkpt>
      <trkpt lat="46.00976" lon="4.62415">
        <ele>453.267730713</ele>
        <time>2016-01-14T09:49:38.473Z</time>
      </trkpt>
      <trkpt lat="46.00978" lon="4.62416">
        <ele>453.317352295</ele>
        <time>2016-01-14T09:49:39.453Z</time>
      </trkpt>
      <trkpt lat="46.00985" lon="4.6242">
        <ele>453.809173584</ele>
        <time>2016-01-14T09:49:45.486Z</time>
      </trkpt>
      <trkpt lat="46.00986" lon="4.62421">
        <ele>453.892700195</ele>
        <time>2016-01-14T09:49:46.442Z</time>
      </trkpt>
      <trkpt lat="46.00993" lon="4.62426">
        <ele>454.582641602</ele>
        <time>2016-01-14T09:49:53.486Z</time>
      </trkpt>
      <trkpt lat="46.00995" lon="4.62427">
        <ele>454.731842041</ele>
        <time>2016-01-14T09:49:54.456Z</time>
      </trkpt>
      <trkpt lat="46.01002" lon="4.62431">
        <ele>455.250915527</ele>
        <time>2016-01-14T09:50:00.485Z</time>
      </trkpt>
      <trkpt lat="46.01003" lon="4.62431">
        <ele>455.323699951</ele>
        <time>2016-01-14T09:50:01.466Z</time>
      </trkpt>
      <trkpt lat="46.01012" lon="4.62434">
        <ele>455.892059326</ele>
        <time>2016-01-14T09:50:08.523Z</time>
      </trkpt>
      <trkpt lat="46.01013" lon="4.62435">
        <ele>455.951904297</ele>
        <time>2016-01-14T09:50:09.458Z</time>
      </trkpt>
      <trkpt lat="46.01022" lon="4.62436">
        <ele>456.446716309</ele>
        <time>2016-01-14T09:50:17.491Z</time>
      </trkpt>
      <trkpt lat="46.01023" lon="4.62436">
        <ele>456.512207031</ele>
        <time>2016-01-14T09:50:18.454Z</time>
      </trkpt>
      <trkpt lat="46.01031" lon="4.62435">
        <ele>456.907958984</ele>
        <time>2016-01-14T09:50:25.493Z</time>
      </trkpt>
      <trkpt lat="46.01032" lon="4.62435">
        <ele>457.020172119</ele>
        <time>2016-01-14T09:50:26.452Z</time>
      </trkpt>
      <trkpt lat="46.01038" lon="4.62426">
        <ele>458.548431396</ele>
        <time>2016-01-14T09:50:36.495Z</time>
      </trkpt>
      <trkpt lat="46.01039" lon="4.62424">
        <ele>458.746917725</ele>
        <time>2016-01-14T09:50:37.471Z</time>
      </trkpt>
      <trkpt lat="46.01044" lon="4.62415">
        <ele>460.177947998</ele>
        <time>2016-01-14T09:50:45.48Z</time>
      </trkpt>
      <trkpt lat="46.01045" lon="4.62413">
        <ele>460.349090576</ele>
        <time>2016-01-14T09:50:46.446Z</time>
      </trkpt>
      <trkpt lat="46.0105" lon="4.62404">
        <ele>461.423919678</ele>
        <time>2016-01-14T09:50:53.485Z</time>
      </trkpt>
      <trkpt lat="46.0105" lon="4.62403">
        <ele>461.557952881</ele>
        <time>2016-01-14T09:50:54.458Z</time>
      </trkpt>
      <trkpt lat="46.01057" lon="4.62394">
        <ele>462.957641602</ele>
        <time>2016-01-14T09:51:04.479Z</time>
      </trkpt>
      <trkpt lat="46.01058" lon="4.62393">
        <ele>463.116241455</ele>
        <time>2016-01-14T09:51:05.456Z</time>
      </trkpt>
      <trkpt lat="46.01064" lon="4.62385">
        <ele>464.305450439</ele>
        <time>2016-01-14T09:51:14.473Z</time>
      </trkpt>
      <trkpt lat="46.01065" lon="4.62384">
        <ele>464.409942627</ele>
        <time>2016-01-14T09:51:15.459Z</time>
      </trkpt>
      <trkpt lat="46.01073" lon="4.62377">
        <ele>465.527496338</ele>
        <time>2016-01-14T09:51:25.504Z</time>
      </trkpt>
      <trkpt lat="46.01073" lon="4.62376">
        <ele>465.660217285</ele>
        <time>2016-01-14T09:51:26.46Z</time>
      </trkpt>
      <trkpt lat="46.01081" lon="4.6237">
        <ele>466.712646484</ele>
        <time>2016-01-14T09:51:34.495Z</time>
      </trkpt>
      <trkpt lat="46.01082" lon="4.62369">
        <ele>466.801483154</ele>
        <time>2016-01-14T09:51:35.467Z</time>
      </trkpt>
      <trkpt lat="46.01088" lon="4.62361">
        <ele>467.836181641</ele>
        <time>2016-01-14T09:51:44.48Z</time>
      </trkpt>
      <trkpt lat="46.01089" lon="4.6236">
        <ele>467.981262207</ele>
        <time>2016-01-14T09:51:45.471Z</time>
      </trkpt>
      <trkpt lat="46.01096" lon="4.62353">
        <ele>468.966796875</ele>
        <time>2016-01-14T09:51:52.513Z</time>
      </trkpt>
      <trkpt lat="46.01097" lon="4.62352">
        <ele>469.17779541</ele>
        <time>2016-01-14T09:51:53.463Z</time>
      </trkpt>
      <trkpt lat="46.01103" lon="4.62347">
        <ele>470.607727051</ele>
        <time>2016-01-14T09:52:00.607Z</time>
      </trkpt>
      <trkpt lat="46.01105" lon="4.62346">
        <ele>470.811157227</ele>
        <time>2016-01-14T09:52:01.472Z</time>
      </trkpt>
      <trkpt lat="46.01112" lon="4.6234">
        <ele>472.224212646</ele>
        <time>2016-01-14T09:52:11.525Z</time>
      </trkpt>
      <trkpt lat="46.01113" lon="4.62338">
        <ele>472.353118896</ele>
        <time>2016-01-14T09:52:12.473Z</time>
      </trkpt>
      <trkpt lat="46.0112" lon="4.62331">
        <ele>473.431793213</ele>
        <time>2016-01-14T09:52:20.461Z</time>
      </trkpt>
      <trkpt lat="46.01121" lon="4.6233">
        <ele>473.562744141</ele>
        <time>2016-01-14T09:52:21.44Z</time>
      </trkpt>
      <trkpt lat="46.01128" lon="4.62324">
        <ele>475.18951416</ele>
        <time>2016-01-14T09:52:30.468Z</time>
      </trkpt>
      <trkpt lat="46.01129" lon="4.62323">
        <ele>475.412353516</ele>
        <time>2016-01-14T09:52:31.425Z</time>
      </trkpt>
      <trkpt lat="46.01135" lon="4.62316">
        <ele>477.483856201</ele>
        <time>2016-01-14T09:52:39.514Z</time>
      </trkpt>
      <trkpt lat="46.01137" lon="4.62315">
        <ele>477.747039795</ele>
        <time>2016-01-14T09:52:40.451Z</time>
      </trkpt>
      <trkpt lat="46.01144" lon="4.62309">
        <ele>479.65524292</ele>
        <time>2016-01-14T09:52:48.477Z</time>
      </trkpt>
      <trkpt lat="46.01145" lon="4.62308">
        <ele>479.878051758</ele>
        <time>2016-01-14T09:52:49.463Z</time>
      </trkpt>
      <trkpt lat="46.01152" lon="4.62303">
        <ele>482.316802979</ele>
        <time>2016-01-14T09:53:00.462Z</time>
      </trkpt>
      <trkpt lat="46.01153" lon="4.62302">
        <ele>482.547576904</ele>
        <time>2016-01-14T09:53:01.456Z</time>
      </trkpt>
      <trkpt lat="46.01161" lon="4.62297">
        <ele>483.919799805</ele>
        <time>2016-01-14T09:53:08.474Z</time>
      </trkpt>
      <trkpt lat="46.01162" lon="4.62296">
        <ele>484.098693848</ele>
        <time>2016-01-14T09:53:09.452Z</time>
      </trkpt>
      <trkpt lat="46.01169" lon="4.6229">
        <ele>485.563690186</ele>
        <time>2016-01-14T09:53:16.498Z</time>
      </trkpt>
      <trkpt lat="46.0117" lon="4.62288">
        <ele>485.806030273</ele>
        <time>2016-01-14T09:53:17.447Z</time>
      </trkpt>
      <trkpt lat="46.01175" lon="4.6228">
        <ele>487.25769043</ele>
        <time>2016-01-14T09:53:24.47Z</time>
      </trkpt>
      <trkpt lat="46.01176" lon="4.62279">
        <ele>487.476623535</ele>
        <time>2016-01-14T09:53:25.478Z</time>
      </trkpt>
      <trkpt lat="46.01183" lon="4.6227">
        <ele>490.027038574</ele>
        <time>2016-01-14T09:53:49.465Z</time>
      </trkpt>
      <trkpt lat="46.01184" lon="4.6227">
        <ele>490.153442383</ele>
        <time>2016-01-14T09:53:50.448Z</time>
      </trkpt>
      <trkpt lat="46.0119" lon="4.62262">
        <ele>491.401794434</ele>
        <time>2016-01-14T09:53:59.469Z</time>
      </trkpt>
      <trkpt lat="46.01191" lon="4.62261">
        <ele>491.502746582</ele>
        <time>2016-01-14T09:54:00.45Z</time>
      </trkpt>
      <trkpt lat="46.01196" lon="4.6225">
        <ele>493.631561279</ele>
        <time>2016-01-14T09:54:35.476Z</time>
      </trkpt>
      <trkpt lat="46.01197" lon="4.62249">
        <ele>493.706604004</ele>
        <time>2016-01-14T09:54:36.472Z</time>
      </trkpt>
      <trkpt lat="46.01206" lon="4.62245">
        <ele>494.344940186</ele>
        <time>2016-01-14T09:54:45.474Z</time>
      </trkpt>
      <trkpt lat="46.01207" lon="4.62245">
        <ele>494.463195801</ele>
        <time>2016-01-14T09:54:46.436Z</time>
      </trkpt>
      <trkpt lat="46.01215" lon="4.62243">
        <ele>494.909729004</ele>
        <time>2016-01-14T09:54:53.487Z</time>
      </trkpt>
      <trkpt lat="46.01216" lon="4.62243">
        <ele>494.959655762</ele>
        <time>2016-01-14T09:54:54.455Z</time>
      </trkpt>
      <trkpt lat="46.01224" lon="4.62243">
        <ele>495.554473877</ele>
        <time>2016-01-14T09:55:02.467Z</time>
      </trkpt>
      <trkpt lat="46.01226" lon="4.62243">
        <ele>495.618408203</ele>
        <time>2016-01-14T09:55:03.451Z</time>
      </trkpt>
      <trkpt lat="46.01234" lon="4.62245">
        <ele>495.876434326</ele>
        <time>2016-01-14T09:55:08.449Z</time>
      </trkpt>
      <trkpt lat="46.01235" lon="4.62245">
        <ele>495.960845947</ele>
        <time>2016-01-14T09:55:09.448Z</time>
      </trkpt>
      <trkpt lat="46.01243" lon="4.62248">
        <ele>496.503326416</ele>
        <time>2016-01-14T09:55:18.485Z</time>
      </trkpt>
      <trkpt lat="46.01245" lon="4.62249">
        <ele>496.536468506</ele>
        <time>2016-01-14T09:55:19.453Z</time>
      </trkpt>
      <trkpt lat="46.01253" lon="4.62251">
        <ele>496.452453613</ele>
        <time>2016-01-14T09:55:25.499Z</time>
      </trkpt>
      <trkpt lat="46.01254" lon="4.62251">
        <ele>496.443145752</ele>
        <time>2016-01-14T09:55:26.453Z</time>
      </trkpt>
      <trkpt lat="46.01263" lon="4.6225">
        <ele>496.166748047</ele>
        <time>2016-01-14T09:55:32.505Z</time>
      </trkpt>
      <trkpt lat="46.01265" lon="4.6225">
        <ele>496.089691162</ele>
        <time>2016-01-14T09:55:33.455Z</time>
      </trkpt>
      <trkpt lat="46.01273" lon="4.62249">
        <ele>495.638702393</ele>
        <time>2016-01-14T09:55:40.482Z</time>
      </trkpt>
      <trkpt lat="46.01274" lon="4.62249">
        <ele>495.586669922</ele>
        <time>2016-01-14T09:55:41.456Z</time>
      </trkpt>
      <trkpt lat="46.01282" lon="4.62248">
        <ele>495.305603027</ele>
        <time>2016-01-14T09:55:47.481Z</time>
      </trkpt>
      <trkpt lat="46.01283" lon="4.62247">
        <ele>495.245880127</ele>
        <time>2016-01-14T09:55:48.457Z</time>
      </trkpt>
      <trkpt lat="46.01291" lon="4.62245">
        <ele>494.998321533</ele>
        <time>2016-01-14T09:55:54.498Z</time>
      </trkpt>
      <trkpt lat="46.01292" lon="4.62244">
        <ele>494.957000732</ele>
        <time>2016-01-14T09:55:55.463Z</time>
      </trkpt>
      <trkpt lat="46.013" lon="4.62243">
        <ele>494.707458496</ele>
        <time>2016-01-14T09:56:04.491Z</time>
      </trkpt>
      <trkpt lat="46.01301" lon="4.62242">
        <ele>494.657592773</ele>
        <time>2016-01-14T09:56:05.465Z</time>
      </trkpt>
      <trkpt lat="46.0131" lon="4.62239">
        <ele>494.466003418</ele>
        <time>2016-01-14T09:56:18.487Z</time>
      </trkpt>
      <trkpt lat="46.0131" lon="4.62238">
        <ele>494.482421875</ele>
        <time>2016-01-14T09:56:19.461Z</time>
      </trkpt>
      <trkpt lat="46.01318" lon="4.62233">
        <ele>494.484985352</ele>
        <time>2016-01-14T09:56:28.487Z</time>
      </trkpt>
      <trkpt lat="46.01319" lon="4.62233">
        <ele>494.487579346</ele>
        <time>2016-01-14T09:56:29.463Z</time>
      </trkpt>
      <trkpt lat="46.01312" lon="4.6224">
        <ele>496.100463867</ele>
        <time>2016-01-14T09:57:01.511Z</time>
      </trkpt>
      <trkpt lat="46.01311" lon="4.6224">
        <ele>496.265899658</ele>
        <time>2016-01-14T09:57:02.471Z</time>
      </trkpt>
      <trkpt lat="46.01304" lon="4.62243">
        <ele>495.869720459</ele>
        <time>2016-01-14T09:57:31.519Z</time>
      </trkpt>
      <trkpt lat="46.01302" lon="4.62243">
        <ele>495.788604736</ele>
        <time>2016-01-14T09:57:32.473Z</time>
      </trkpt>
      <trkpt lat="46.01294" lon="4.62245">
        <ele>495.774230957</ele>
        <time>2016-01-14T09:57:40.487Z</time>
      </trkpt>
      <trkpt lat="46.01293" lon="4.62246">
        <ele>495.795410156</ele>
        <time>2016-01-14T09:57:41.437Z</time>
      </trkpt>
      <trkpt lat="46.01284" lon="4.62248">
        <ele>495.866882324</ele>
        <time>2016-01-14T09:57:47.459Z</time>
      </trkpt>
      <trkpt lat="46.01283" lon="4.62249">
        <ele>495.830505371</ele>
        <time>2016-01-14T09:57:48.44Z</time>
      </trkpt>
      <trkpt lat="46.01274" lon="4.62249">
        <ele>495.592193604</ele>
        <time>2016-01-14T09:57:54.472Z</time>
      </trkpt>
      <trkpt lat="46.01273" lon="4.6225">
        <ele>495.545440674</ele>
        <time>2016-01-14T09:57:55.445Z</time>
      </trkpt>
      <trkpt lat="46.01264" lon="4.6225">
        <ele>495.475402832</ele>
        <time>2016-01-14T09:58:01.459Z</time>
      </trkpt>
      <trkpt lat="46.01263" lon="4.62249">
        <ele>495.457885742</ele>
        <time>2016-01-14T09:58:02.446Z</time>
      </trkpt>
      <trkpt lat="46.01254" lon="4.62249">
        <ele>495.286865234</ele>
        <time>2016-01-14T09:58:09.483Z</time>
      </trkpt>
      <trkpt lat="46.01253" lon="4.62249">
        <ele>495.223693848</ele>
        <time>2016-01-14T09:58:10.439Z</time>
      </trkpt>
      <trkpt lat="46.01256" lon="4.6226">
        <ele>495.181732178</ele>
        <time>2016-01-14T09:58:35.462Z</time>
      </trkpt>
      <trkpt lat="46.01256" lon="4.62261">
        <ele>495.145935059</ele>
        <time>2016-01-14T09:58:36.446Z</time>
      </trkpt>
      <trkpt lat="46.01265" lon="4.62263">
        <ele>494.805145264</ele>
        <time>2016-01-14T09:58:42.509Z</time>
      </trkpt>
      <trkpt lat="46.01266" lon="4.62263">
        <ele>494.728607178</ele>
        <time>2016-01-14T09:58:43.442Z</time>
      </trkpt>
      <trkpt lat="46.01273" lon="4.62269">
        <ele>494.290771484</ele>
        <time>2016-01-14T09:58:55.463Z</time>
      </trkpt>
      <trkpt lat="46.01274" lon="4.6227">
        <ele>494.231201172</ele>
        <time>2016-01-14T09:58:56.448Z</time>
      </trkpt>
      <trkpt lat="46.01275" lon="4.62282">
        <ele>492.935974121</ele>
        <time>2016-01-14T09:59:52.467Z</time>
      </trkpt>
      <trkpt lat="46.01277" lon="4.62285">
        <ele>492.910186768</ele>
        <time>2016-01-14T09:59:53.453Z</time>
      </trkpt>
      <trkpt lat="46.01284" lon="4.62289">
        <ele>492.577453613</ele>
        <time>2016-01-14T09:59:59.512Z</time>
      </trkpt>
      <trkpt lat="46.01286" lon="4.6229">
        <ele>492.479644775</ele>
        <time>2016-01-14T10:00:00.456Z</time>
      </trkpt>
      <trkpt lat="46.01292" lon="4.62297">
        <ele>491.769317627</ele>
        <time>2016-01-14T10:00:07.487Z</time>
      </trkpt>
      <trkpt lat="46.01293" lon="4.62298">
        <ele>491.596008301</ele>
        <time>2016-01-14T10:00:08.453Z</time>
      </trkpt>
      <trkpt lat="46.01298" lon="4.62308">
        <ele>489.829345703</ele>
        <time>2016-01-14T10:00:18.478Z</time>
      </trkpt>
      <trkpt lat="46.013" lon="4.6231">
        <ele>489.638061523</ele>
        <time>2016-01-14T10:00:19.445Z</time>
      </trkpt>
      <trkpt lat="46.01305" lon="4.62319">
        <ele>488.308837891</ele>
        <time>2016-01-14T10:00:26.47Z</time>
      </trkpt>
      <trkpt lat="46.01306" lon="4.6232">
        <ele>488.118988037</ele>
        <time>2016-01-14T10:00:27.452Z</time>
      </trkpt>
      <trkpt lat="46.01311" lon="4.6233">
        <ele>486.998046875</ele>
        <time>2016-01-14T10:00:35.583Z</time>
      </trkpt>
      <trkpt lat="46.01312" lon="4.62331">
        <ele>486.893218994</ele>
        <time>2016-01-14T10:00:36.453Z</time>
      </trkpt>
      <trkpt lat="46.01316" lon="4.62342">
        <ele>486.048950195</ele>
        <time>2016-01-14T10:00:44.486Z</time>
      </trkpt>
      <trkpt lat="46.01316" lon="4.62343">
        <ele>485.941802979</ele>
        <time>2016-01-14T10:00:45.453Z</time>
      </trkpt>
      <trkpt lat="46.01319" lon="4.62355">
        <ele>485.194793701</ele>
        <time>2016-01-14T10:00:52.486Z</time>
      </trkpt>
      <trkpt lat="46.0132" lon="4.62356">
        <ele>485.083770752</ele>
        <time>2016-01-14T10:00:53.441Z</time>
      </trkpt>
      <trkpt lat="46.01323" lon="4.62366">
        <ele>484.085388184</ele>
        <time>2016-01-14T10:01:00.52Z</time>
      </trkpt>
      <trkpt lat="46.01323" lon="4.62368">
        <ele>483.942047119</ele>
        <time>2016-01-14T10:01:01.458Z</time>
      </trkpt>
      <trkpt lat="46.01328" lon="4.62377">
        <ele>482.9793396</ele>
        <time>2016-01-14T10:01:08.499Z</time>
      </trkpt>
      <trkpt lat="46.0133" lon="4.62379">
        <ele>482.80960083</ele>
        <time>2016-01-14T10:01:09.457Z</time>
      </trkpt>
      <trkpt lat="46.01336" lon="4.62384">
        <ele>481.609710693</ele>
        <time>2016-01-14T10:01:16.488Z</time>
      </trkpt>
      <trkpt lat="46.01338" lon="4.62385">
        <ele>481.438354492</ele>
        <time>2016-01-14T10:01:17.46Z</time>
      </trkpt>
      <trkpt lat="46.01345" lon="4.62392">
        <ele>480.755218506</ele>
        <time>2016-01-14T10:01:23.496Z</time>
      </trkpt>
      <trkpt lat="46.01346" lon="4.62392">
        <ele>480.567047119</ele>
        <time>2016-01-14T10:01:24.454Z</time>
      </trkpt>
      <trkpt lat="46.01353" lon="4.62396">
        <ele>479.382446289</ele>
        <time>2016-01-14T10:01:31.491Z</time>
      </trkpt>
      <trkpt lat="46.01354" lon="4.62397">
        <ele>479.228057861</ele>
        <time>2016-01-14T10:01:32.459Z</time>
      </trkpt>
      <trkpt lat="46.01362" lon="4.62403">
        <ele>478.075408936</ele>
        <time>2016-01-14T10:01:39.498Z</time>
      </trkpt>
      <trkpt lat="46.01363" lon="4.62404">
        <ele>477.953674316</ele>
        <time>2016-01-14T10:01:40.473Z</time>
      </trkpt>
      <trkpt lat="46.01371" lon="4.62408">
        <ele>477.185150146</ele>
        <time>2016-01-14T10:01:47.492Z</time>
      </trkpt>
      <trkpt lat="46.01373" lon="4.62409">
        <ele>477.054229736</ele>
        <time>2016-01-14T10:01:48.47Z</time>
      </trkpt>
      <trkpt lat="46.01381" lon="4.62414">
        <ele>476.076141357</ele>
        <time>2016-01-14T10:01:56.494Z</time>
      </trkpt>
      <trkpt lat="46.01383" lon="4.62415">
        <ele>475.857055664</ele>
        <time>2016-01-14T10:01:57.46Z</time>
      </trkpt>
      <trkpt lat="46.0139" lon="4.6242">
        <ele>474.596893311</ele>
        <time>2016-01-14T10:02:04.628Z</time>
      </trkpt>
      <trkpt lat="46.01391" lon="4.62422">
        <ele>474.410522461</ele>
        <time>2016-01-14T10:02:05.465Z</time>
      </trkpt>
      <trkpt lat="46.01397" lon="4.6243">
        <ele>473.700683594</ele>
        <time>2016-01-14T10:02:12.496Z</time>
      </trkpt>
      <trkpt lat="46.01398" lon="4.62431">
        <ele>473.600891113</ele>
        <time>2016-01-14T10:02:13.466Z</time>
      </trkpt>
      <trkpt lat="46.01405" lon="4.62438">
        <ele>473.001953125</ele>
        <time>2016-01-14T10:02:19.486Z</time>
      </trkpt>
      <trkpt lat="46.01406" lon="4.62439">
        <ele>472.883026123</ele>
        <time>2016-01-14T10:02:20.46Z</time>
      </trkpt>
      <trkpt lat="46.01413" lon="4.62444">
        <ele>472.046508789</ele>
        <time>2016-01-14T10:02:27.494Z</time>
      </trkpt>
      <trkpt lat="46.01415" lon="4.62445">
        <ele>471.930450439</ele>
        <time>2016-01-14T10:02:28.458Z</time>
      </trkpt>
      <trkpt lat="46.01421" lon="4.62452">
        <ele>471.043334961</ele>
        <time>2016-01-14T10:02:35.481Z</time>
      </trkpt>
      <trkpt lat="46.01422" lon="4.62453">
        <ele>470.909179688</ele>
        <time>2016-01-14T10:02:36.473Z</time>
      </trkpt>
      <trkpt lat="46.01429" lon="4.6246">
        <ele>470.035308838</ele>
        <time>2016-01-14T10:02:43.504Z</time>
      </trkpt>
      <trkpt lat="46.0143" lon="4.62461">
        <ele>469.88873291</ele>
        <time>2016-01-14T10:02:44.472Z</time>
      </trkpt>
      <trkpt lat="46.01436" lon="4.62468">
        <ele>469.140716553</ele>
        <time>2016-01-14T10:02:51.486Z</time>
      </trkpt>
      <trkpt lat="46.01437" lon="4.62469">
        <ele>469.055938721</ele>
        <time>2016-01-14T10:02:52.44Z</time>
      </trkpt>
      <trkpt lat="46.01445" lon="4.62475">
        <ele>468.469421387</ele>
        <time>2016-01-14T10:02:59.45Z</time>
      </trkpt>
      <trkpt lat="46.01446" lon="4.62476">
        <ele>468.388793945</ele>
        <time>2016-01-14T10:03:00.445Z</time>
      </trkpt>
      <trkpt lat="46.01454" lon="4.62481">
        <ele>467.522735596</ele>
        <time>2016-01-14T10:03:07.459Z</time>
      </trkpt>
      <trkpt lat="46.01455" lon="4.62482">
        <ele>467.391418457</ele>
        <time>2016-01-14T10:03:08.446Z</time>
      </trkpt>
      <trkpt lat="46.01462" lon="4.62487">
        <ele>466.636413574</ele>
        <time>2016-01-14T10:03:15.456Z</time>
      </trkpt>
      <trkpt lat="46.01463" lon="4.62488">
        <ele>466.531097412</ele>
        <time>2016-01-14T10:03:16.44Z</time>
      </trkpt>
      <trkpt lat="46.0147" lon="4.62494">
        <ele>466.210205078</ele>
        <time>2016-01-14T10:03:22.469Z</time>
      </trkpt>
      <trkpt lat="46.01471" lon="4.62495">
        <ele>466.14855957</ele>
        <time>2016-01-14T10:03:23.45Z</time>
      </trkpt>
      <trkpt lat="46.01479" lon="4.62498">
        <ele>465.864074707</ele>
        <time>2016-01-14T10:03:30.464Z</time>
      </trkpt>
      <trkpt lat="46.01481" lon="4.62499">
        <ele>465.805023193</ele>
        <time>2016-01-14T10:03:31.446Z</time>
      </trkpt>
      <trkpt lat="46.01489" lon="4.62504">
        <ele>465.494659424</ele>
        <time>2016-01-14T10:03:37.462Z</time>
      </trkpt>
      <trkpt lat="46.01491" lon="4.62505">
        <ele>465.424194336</ele>
        <time>2016-01-14T10:03:38.445Z</time>
      </trkpt>
      <trkpt lat="46.01499" lon="4.62507">
        <ele>464.903289795</ele>
        <time>2016-01-14T10:03:45.523Z</time>
      </trkpt>
      <trkpt lat="46.01501" lon="4.62508">
        <ele>464.803344727</ele>
        <time>2016-01-14T10:03:46.43Z</time>
      </trkpt>
      <trkpt lat="46.0151" lon="4.62508">
        <ele>464.310455322</ele>
        <time>2016-01-14T10:03:53.444Z</time>
      </trkpt>
      <trkpt lat="46.01511" lon="4.62509">
        <ele>464.27911377</ele>
        <time>2016-01-14T10:03:54.447Z</time>
      </trkpt>
      <trkpt lat="46.01518" lon="4.62511">
        <ele>464.009765625</ele>
        <time>2016-01-14T10:03:59.584Z</time>
      </trkpt>
      <trkpt lat="46.0152" lon="4.62512">
        <ele>463.944335938</ele>
        <time>2016-01-14T10:04:00.443Z</time>
      </trkpt>
      <trkpt lat="46.01529" lon="4.62514">
        <ele>463.237335205</ele>
        <time>2016-01-14T10:04:08.463Z</time>
      </trkpt>
      <trkpt lat="46.0153" lon="4.62515">
        <ele>463.185668945</ele>
        <time>2016-01-14T10:04:09.446Z</time>
      </trkpt>
      <trkpt lat="46.01538" lon="4.62518">
        <ele>462.832214355</ele>
        <time>2016-01-14T10:04:15.499Z</time>
      </trkpt>
      <trkpt lat="46.01539" lon="4.62519">
        <ele>462.740661621</ele>
        <time>2016-01-14T10:04:16.448Z</time>
      </trkpt>
      <trkpt lat="46.01546" lon="4.62525">
        <ele>462.371704102</ele>
        <time>2016-01-14T10:04:22.466Z</time>
      </trkpt>
      <trkpt lat="46.01547" lon="4.62527">
        <ele>462.318908691</ele>
        <time>2016-01-14T10:04:23.448Z</time>
      </trkpt>
      <trkpt lat="46.01555" lon="4.62534">
        <ele>461.942504883</ele>
        <time>2016-01-14T10:04:30.466Z</time>
      </trkpt>
      <trkpt lat="46.01556" lon="4.62535">
        <ele>461.859710693</ele>
        <time>2016-01-14T10:04:31.448Z</time>
      </trkpt>
      <trkpt lat="46.01563" lon="4.62542">
        <ele>461.47668457</ele>
        <time>2016-01-14T10:04:37.476Z</time>
      </trkpt>
      <trkpt lat="46.01564" lon="4.62543">
        <ele>461.441101074</ele>
        <time>2016-01-14T10:04:38.444Z</time>
      </trkpt>
      <trkpt lat="46.0157" lon="4.6255">
        <ele>461.181121826</ele>
        <time>2016-01-14T10:04:45.465Z</time>
      </trkpt>
      <trkpt lat="46.01571" lon="4.62551">
        <ele>461.157531738</ele>
        <time>2016-01-14T10:04:46.44Z</time>
      </trkpt>
      <trkpt lat="46.01579" lon="4.62557">
        <ele>460.99130249</ele>
        <time>2016-01-14T10:04:56.46Z</time>
      </trkpt>
      <trkpt lat="46.0158" lon="4.62557">
        <ele>460.968109131</ele>
        <time>2016-01-14T10:04:57.449Z</time>
      </trkpt>
      <trkpt lat="46.01588" lon="4.62558">
        <ele>460.699127197</ele>
        <time>2016-01-14T10:05:05.468Z</time>
      </trkpt>
      <trkpt lat="46.01589" lon="4.62559">
        <ele>460.678527832</ele>
        <time>2016-01-14T10:05:06.45Z</time>
      </trkpt>
      <trkpt lat="46.01597" lon="4.62561">
        <ele>460.499542236</ele>
        <time>2016-01-14T10:05:13.468Z</time>
      </trkpt>
      <trkpt lat="46.01598" lon="4.62562">
        <ele>460.460906982</ele>
        <time>2016-01-14T10:05:14.451Z</time>
      </trkpt>
      <trkpt lat="46.01606" lon="4.62563">
        <ele>460.356445312</ele>
        <time>2016-01-14T10:05:22.476Z</time>
      </trkpt>
      <trkpt lat="46.01607" lon="4.62563">
        <ele>460.337982178</ele>
        <time>2016-01-14T10:05:23.448Z</time>
      </trkpt>
      <trkpt lat="46.0161" lon="4.62574">
        <ele>460.978637695</ele>
        <time>2016-01-14T10:05:41.529Z</time>
      </trkpt>
      <trkpt lat="46.0161" lon="4.62576">
        <ele>461.098571777</ele>
        <time>2016-01-14T10:05:42.457Z</time>
      </trkpt>
      <trkpt lat="46.0161" lon="4.62587">
        <ele>462.42565918</ele>
        <time>2016-01-14T10:05:51.478Z</time>
      </trkpt>
      <trkpt lat="46.0161" lon="4.6259">
        <ele>462.480224609</ele>
        <time>2016-01-14T10:05:52.438Z</time>
      </trkpt>
      <trkpt lat="46.01608" lon="4.62602">
        <ele>462.343444824</ele>
        <time>2016-01-14T10:05:57.497Z</time>
      </trkpt>
      <trkpt lat="46.01608" lon="4.62604">
        <ele>462.259521484</ele>
        <time>2016-01-14T10:05:58.451Z</time>
      </trkpt>
      <trkpt lat="46.01606" lon="4.62616">
        <ele>461.243133545</ele>
        <time>2016-01-14T10:06:19.485Z</time>
      </trkpt>
      <trkpt lat="46.01606" lon="4.62617">
        <ele>461.187255859</ele>
        <time>2016-01-14T10:06:20.452Z</time>
      </trkpt>
      <trkpt lat="46.01603" lon="4.62628">
        <ele>460.312194824</ele>
        <time>2016-01-14T10:06:31.474Z</time>
      </trkpt>
      <trkpt lat="46.01602" lon="4.6263">
        <ele>460.25668335</ele>
        <time>2016-01-14T10:06:32.458Z</time>
      </trkpt>
      <trkpt lat="46.016" lon="4.62641">
        <ele>459.847045898</ele>
        <time>2016-01-14T10:06:38.487Z</time>
      </trkpt>
      <trkpt lat="46.016" lon="4.62643">
        <ele>459.74822998</ele>
        <time>2016-01-14T10:06:39.46Z</time>
      </trkpt>
      <trkpt lat="46.01598" lon="4.62656">
        <ele>459.383300781</ele>
        <time>2016-01-14T10:06:45.486Z</time>
      </trkpt>
      <trkpt lat="46.01598" lon="4.62658">
        <ele>459.330718994</ele>
        <time>2016-01-14T10:06:46.447Z</time>
      </trkpt>
      <trkpt lat="46.01594" lon="4.62669">
        <ele>459.225097656</ele>
        <time>2016-01-14T10:06:53.491Z</time>
      </trkpt>
      <trkpt lat="46.01593" lon="4.62671">
        <ele>459.186279297</ele>
        <time>2016-01-14T10:06:54.468Z</time>
      </trkpt>
      <trkpt lat="46.01591" lon="4.62681">
        <ele>458.952484131</ele>
        <time>2016-01-14T10:07:00.584Z</time>
      </trkpt>
      <trkpt lat="46.0159" lon="4.62683">
        <ele>458.887207031</ele>
        <time>2016-01-14T10:07:01.463Z</time>
      </trkpt>
      <trkpt lat="46.01588" lon="4.62695">
        <ele>458.293670654</ele>
        <time>2016-01-14T10:07:07.492Z</time>
      </trkpt>
      <trkpt lat="46.01587" lon="4.62697">
        <ele>458.173950195</ele>
        <time>2016-01-14T10:07:08.465Z</time>
      </trkpt>
      <trkpt lat="46.01584" lon="4.62709">
        <ele>457.666503906</ele>
        <time>2016-01-14T10:07:15.468Z</time>
      </trkpt>
      <trkpt lat="46.01583" lon="4.6271">
        <ele>457.679718018</ele>
        <time>2016-01-14T10:07:16.469Z</time>
      </trkpt>
      <trkpt lat="46.0158" lon="4.62721">
        <ele>457.916656494</ele>
        <time>2016-01-14T10:07:23.495Z</time>
      </trkpt>
      <trkpt lat="46.01579" lon="4.62723">
        <ele>457.891937256</ele>
        <time>2016-01-14T10:07:24.474Z</time>
      </trkpt>
      <trkpt lat="46.01577" lon="4.62735">
        <ele>457.416900635</ele>
        <time>2016-01-14T10:07:30.5Z</time>
      </trkpt>
      <trkpt lat="46.01577" lon="4.62736">
        <ele>457.339294434</ele>
        <time>2016-01-14T10:07:31.471Z</time>
      </trkpt>
      <trkpt lat="46.01575" lon="4.62747">
        <ele>456.930145264</ele>
        <time>2016-01-14T10:07:37.488Z</time>
      </trkpt>
      <trkpt lat="46.01574" lon="4.62749">
        <ele>456.861328125</ele>
        <time>2016-01-14T10:07:38.467Z</time>
      </trkpt>
      <trkpt lat="46.01571" lon="4.6276">
        <ele>456.31427002</ele>
        <time>2016-01-14T10:07:44.518Z</time>
      </trkpt>
      <trkpt lat="46.0157" lon="4.62762">
        <ele>456.227142334</ele>
        <time>2016-01-14T10:07:45.471Z</time>
      </trkpt>
      <trkpt lat="46.01566" lon="4.62773">
        <ele>455.441345215</ele>
        <time>2016-01-14T10:07:51.495Z</time>
      </trkpt>
      <trkpt lat="46.01566" lon="4.62774">
        <ele>455.297851562</ele>
        <time>2016-01-14T10:07:52.468Z</time>
      </trkpt>
      <trkpt lat="46.01564" lon="4.62786">
        <ele>454.5675354</ele>
        <time>2016-01-14T10:07:59.499Z</time>
      </trkpt>
      <trkpt lat="46.01564" lon="4.62788">
        <ele>454.446899414</ele>
        <time>2016-01-14T10:08:00.46Z</time>
      </trkpt>
      <trkpt lat="46.01561" lon="4.628">
        <ele>453.498657227</ele>
        <time>2016-01-14T10:08:06.458Z</time>
      </trkpt>
      <trkpt lat="46.01561" lon="4.62802">
        <ele>453.325256348</ele>
        <time>2016-01-14T10:08:07.443Z</time>
      </trkpt>
      <trkpt lat="46.01558" lon="4.62813">
        <ele>452.680206299</ele>
        <time>2016-01-14T10:08:13.499Z</time>
      </trkpt>
      <trkpt lat="46.01558" lon="4.62814">
        <ele>452.552459717</ele>
        <time>2016-01-14T10:08:14.445Z</time>
      </trkpt>
      <trkpt lat="46.01554" lon="4.62824">
        <ele>451.898773193</ele>
        <time>2016-01-14T10:08:21.456Z</time>
      </trkpt>
      <trkpt lat="46.01553" lon="4.62826">
        <ele>451.794708252</ele>
        <time>2016-01-14T10:08:22.445Z</time>
      </trkpt>
      <trkpt lat="46.0155" lon="4.62837">
        <ele>451.135498047</ele>
        <time>2016-01-14T10:08:28.461Z</time>
      </trkpt>
      <trkpt lat="46.0155" lon="4.62838">
        <ele>451.021270752</ele>
        <time>2016-01-14T10:08:29.449Z</time>
      </trkpt>
      <trkpt lat="46.01551" lon="4.6285">
        <ele>450.010101318</ele>
        <time>2016-01-14T10:08:37.477Z</time>
      </trkpt>
      <trkpt lat="46.01551" lon="4.62852">
        <ele>449.8828125</ele>
        <time>2016-01-14T10:08:38.452Z</time>
      </trkpt>
      <trkpt lat="46.01554" lon="4.62864">
        <ele>448.903991699</ele>
        <time>2016-01-14T10:08:45.47Z</time>
      </trkpt>
      <trkpt lat="46.01554" lon="4.62865">
        <ele>448.854644775</ele>
        <time>2016-01-14T10:08:46.431Z</time>
      </trkpt>
      <trkpt lat="46.01556" lon="4.62877">
        <ele>447.952758789</ele>
        <time>2016-01-14T10:08:53.46Z</time>
      </trkpt>
      <trkpt lat="46.01557" lon="4.6288">
        <ele>447.859344482</ele>
        <time>2016-01-14T10:08:54.442Z</time>
      </trkpt>
      <trkpt lat="46.0156" lon="4.62891">
        <ele>447.127380371</ele>
        <time>2016-01-14T10:09:00.456Z</time>
      </trkpt>
      <trkpt lat="46.0156" lon="4.62893">
        <ele>446.94934082</ele>
        <time>2016-01-14T10:09:01.452Z</time>
      </trkpt>
      <trkpt lat="46.01563" lon="4.62902">
        <ele>446.073760986</ele>
        <time>2016-01-14T10:09:07.461Z</time>
      </trkpt>
      <trkpt lat="46.01563" lon="4.62905">
        <ele>445.974456787</ele>
        <time>2016-01-14T10:09:08.464Z</time>
      </trkpt>
      <trkpt lat="46.01568" lon="4.62916">
        <ele>445.199432373</ele>
        <time>2016-01-14T10:09:15.49Z</time>
      </trkpt>
      <trkpt lat="46.01568" lon="4.62917">
        <ele>445.100830078</ele>
        <time>2016-01-14T10:09:16.444Z</time>
      </trkpt>
      <trkpt lat="46.01572" lon="4.62929">
        <ele>444.26965332</ele>
        <time>2016-01-14T10:09:23.48Z</time>
      </trkpt>
      <trkpt lat="46.01572" lon="4.62931">
        <ele>444.188690186</ele>
        <time>2016-01-14T10:09:24.453Z</time>
      </trkpt>
      <trkpt lat="46.01576" lon="4.62941">
        <ele>443.494018555</ele>
        <time>2016-01-14T10:09:31.482Z</time>
      </trkpt>
      <trkpt lat="46.01577" lon="4.62944">
        <ele>443.37902832</ele>
        <time>2016-01-14T10:09:32.46Z</time>
      </trkpt>
      <trkpt lat="46.0158" lon="4.62956">
        <ele>442.504333496</ele>
        <time>2016-01-14T10:09:41.465Z</time>
      </trkpt>
      <trkpt lat="46.0158" lon="4.62956">
        <ele>442.417297363</ele>
        <time>2016-01-14T10:09:42.447Z</time>
      </trkpt>
      <trkpt lat="46.0158" lon="4.62969">
        <ele>440.731140137</ele>
        <time>2016-01-14T10:10:34.479Z</time>
      </trkpt>
      <trkpt lat="46.0158" lon="4.6297">
        <ele>440.606628418</ele>
        <time>2016-01-14T10:10:35.451Z</time>
      </trkpt>
      <trkpt lat="46.01578" lon="4.62983">
        <ele>439.924987793</ele>
        <time>2016-01-14T10:11:46.463Z</time>
      </trkpt>
      <trkpt lat="46.01578" lon="4.62983">
        <ele>439.924316406</ele>
        <time>2016-01-14T10:11:47.474Z</time>
      </trkpt>
      <trkpt lat="46.01581" lon="4.62971">
        <ele>439.618560791</ele>
        <time>2016-01-14T10:12:35.459Z</time>
      </trkpt>
      <trkpt lat="46.01581" lon="4.6297">
        <ele>439.582000732</ele>
        <time>2016-01-14T10:12:36.458Z</time>
      </trkpt>
      <trkpt lat="46.0159" lon="4.62967">
        <ele>438.607879639</ele>
        <time>2016-01-14T10:12:54.505Z</time>
      </trkpt>
      <trkpt lat="46.0159" lon="4.62969">
        <ele>438.522827148</ele>
        <time>2016-01-14T10:12:55.475Z</time>
      </trkpt>
      <trkpt lat="46.01596" lon="4.62978">
        <ele>438.172119141</ele>
        <time>2016-01-14T10:13:02.5Z</time>
      </trkpt>
      <trkpt lat="46.01597" lon="4.62979">
        <ele>438.100799561</ele>
        <time>2016-01-14T10:13:03.48Z</time>
      </trkpt>
      <trkpt lat="46.01603" lon="4.62987">
        <ele>437.658813477</ele>
        <time>2016-01-14T10:13:11.494Z</time>
      </trkpt>
      <trkpt lat="46.01604" lon="4.62988">
        <ele>437.624542236</ele>
        <time>2016-01-14T10:13:12.484Z</time>
      </trkpt>
      <trkpt lat="46.0161" lon="4.62997">
        <ele>437.302124023</ele>
        <time>2016-01-14T10:13:19.5Z</time>
      </trkpt>
      <trkpt lat="46.01611" lon="4.62998">
        <ele>437.224273682</ele>
        <time>2016-01-14T10:13:20.44Z</time>
      </trkpt>
      <trkpt lat="46.01617" lon="4.63006">
        <ele>436.499725342</ele>
        <time>2016-01-14T10:13:27.465Z</time>
      </trkpt>
      <trkpt lat="46.01617" lon="4.63007">
        <ele>436.40322876</ele>
        <time>2016-01-14T10:13:28.438Z</time>
      </trkpt>
      <trkpt lat="46.01624" lon="4.63015">
        <ele>435.712127686</ele>
        <time>2016-01-14T10:13:34.465Z</time>
      </trkpt>
      <trkpt lat="46.01625" lon="4.63016">
        <ele>435.536865234</ele>
        <time>2016-01-14T10:13:35.439Z</time>
      </trkpt>
      <trkpt lat="46.01631" lon="4.63025">
        <ele>434.230163574</ele>
        <time>2016-01-14T10:13:43.476Z</time>
      </trkpt>
      <trkpt lat="46.01631" lon="4.63027">
        <ele>434.070007324</ele>
        <time>2016-01-14T10:13:44.442Z</time>
      </trkpt>
      <trkpt lat="46.01637" lon="4.63033">
        <ele>432.982635498</ele>
        <time>2016-01-14T10:13:51.461Z</time>
      </trkpt>
      <trkpt lat="46.01638" lon="4.63035">
        <ele>432.848632812</ele>
        <time>2016-01-14T10:13:52.441Z</time>
      </trkpt>
      <trkpt lat="46.01644" lon="4.63044">
        <ele>431.910919189</ele>
        <time>2016-01-14T10:13:58.464Z</time>
      </trkpt>
      <trkpt lat="46.01645" lon="4.63045">
        <ele>431.788726807</ele>
        <time>2016-01-14T10:13:59.443Z</time>
      </trkpt>
      <trkpt lat="46.0165" lon="4.63055">
        <ele>430.684631348</ele>
        <time>2016-01-14T10:14:07.456Z</time>
      </trkpt>
      <trkpt lat="46.01651" lon="4.63057">
        <ele>430.519165039</ele>
        <time>2016-01-14T10:14:08.446Z</time>
      </trkpt>
      <trkpt lat="46.01655" lon="4.63068">
        <ele>429.381317139</ele>
        <time>2016-01-14T10:14:15.466Z</time>
      </trkpt>
      <trkpt lat="46.01655" lon="4.63069">
        <ele>429.199645996</ele>
        <time>2016-01-14T10:14:16.441Z</time>
      </trkpt>
      <trkpt lat="46.01661" lon="4.63077">
        <ele>427.939758301</ele>
        <time>2016-01-14T10:14:22.491Z</time>
      </trkpt>
      <trkpt lat="46.01662" lon="4.63078">
        <ele>427.733795166</ele>
        <time>2016-01-14T10:14:23.464Z</time>
      </trkpt>
      <trkpt lat="46.01667" lon="4.63089">
        <ele>425.871246338</ele>
        <time>2016-01-14T10:14:32.469Z</time>
      </trkpt>
      <trkpt lat="46.01667" lon="4.6309">
        <ele>425.696350098</ele>
        <time>2016-01-14T10:14:33.464Z</time>
      </trkpt>
      <trkpt lat="46.01673" lon="4.631">
        <ele>424.284545898</ele>
        <time>2016-01-14T10:14:40.463Z</time>
      </trkpt>
      <trkpt lat="46.01674" lon="4.63102">
        <ele>424.114990234</ele>
        <time>2016-01-14T10:14:41.455Z</time>
      </trkpt>
      <trkpt lat="46.01677" lon="4.63113">
        <ele>422.863616943</ele>
        <time>2016-01-14T10:14:50.463Z</time>
      </trkpt>
      <trkpt lat="46.01678" lon="4.63114">
        <ele>422.704162598</ele>
        <time>2016-01-14T10:14:51.449Z</time>
      </trkpt>
      <trkpt lat="46.01681" lon="4.63124">
        <ele>421.883178711</ele>
        <time>2016-01-14T10:14:58.47Z</time>
      </trkpt>
      <trkpt lat="46.01682" lon="4.63126">
        <ele>421.732574463</ele>
        <time>2016-01-14T10:14:59.444Z</time>
      </trkpt>
      <trkpt lat="46.01687" lon="4.63135">
        <ele>420.438690186</ele>
        <time>2016-01-14T10:15:07.485Z</time>
      </trkpt>
      <trkpt lat="46.01687" lon="4.63137">
        <ele>420.257324219</ele>
        <time>2016-01-14T10:15:08.444Z</time>
      </trkpt>
      <trkpt lat="46.01691" lon="4.63148">
        <ele>418.824523926</ele>
        <time>2016-01-14T10:15:17.484Z</time>
      </trkpt>
      <trkpt lat="46.01692" lon="4.63149">
        <ele>418.696411133</ele>
        <time>2016-01-14T10:15:18.449Z</time>
      </trkpt>
      <trkpt lat="46.01694" lon="4.63161">
        <ele>417.324829102</ele>
        <time>2016-01-14T10:15:27.482Z</time>
      </trkpt>
      <trkpt lat="46.01694" lon="4.63163">
        <ele>417.135894775</ele>
        <time>2016-01-14T10:15:28.45Z</time>
      </trkpt>
      <trkpt lat="46.01696" lon="4.63175">
        <ele>415.604370117</ele>
        <time>2016-01-14T10:15:36.475Z</time>
      </trkpt>
      <trkpt lat="46.01697" lon="4.63176">
        <ele>415.422973633</ele>
        <time>2016-01-14T10:15:37.483Z</time>
      </trkpt>
      <trkpt lat="46.01699" lon="4.63186">
        <ele>414.212982178</ele>
        <time>2016-01-14T10:15:44.458Z</time>
      </trkpt>
      <trkpt lat="46.017" lon="4.63188">
        <ele>414.010223389</ele>
        <time>2016-01-14T10:15:45.45Z</time>
      </trkpt>
      <trkpt lat="46.01703" lon="4.63199">
        <ele>411.924194336</ele>
        <time>2016-01-14T10:15:57.488Z</time>
      </trkpt>
      <trkpt lat="46.01704" lon="4.632">
        <ele>411.770568848</ele>
        <time>2016-01-14T10:15:58.45Z</time>
      </trkpt>
      <trkpt lat="46.01708" lon="4.63211">
        <ele>410.570739746</ele>
        <time>2016-01-14T10:16:06.483Z</time>
      </trkpt>
      <trkpt lat="46.01709" lon="4.63211">
        <ele>410.448059082</ele>
        <time>2016-01-14T10:16:07.453Z</time>
      </trkpt>
      <trkpt lat="46.01716" lon="4.63219">
        <ele>409.228790283</ele>
        <time>2016-01-14T10:16:14.483Z</time>
      </trkpt>
      <trkpt lat="46.01717" lon="4.6322">
        <ele>408.987243652</ele>
        <time>2016-01-14T10:16:15.458Z</time>
      </trkpt>
      <trkpt lat="46.01723" lon="4.63228">
        <ele>407.507751465</ele>
        <time>2016-01-14T10:16:22.487Z</time>
      </trkpt>
      <trkpt lat="46.01724" lon="4.63229">
        <ele>407.286682129</ele>
        <time>2016-01-14T10:16:23.462Z</time>
      </trkpt>
      <trkpt lat="46.01731" lon="4.63236">
        <ele>405.841064453</ele>
        <time>2016-01-14T10:16:30.485Z</time>
      </trkpt>
      <trkpt lat="46.01732" lon="4.63237">
        <ele>405.614807129</ele>
        <time>2016-01-14T10:16:31.473Z</time>
      </trkpt>
      <trkpt lat="46.01738" lon="4.63245">
        <ele>404.374206543</ele>
        <time>2016-01-14T10:16:37.496Z</time>
      </trkpt>
      <trkpt lat="46.01739" lon="4.63246">
        <ele>404.184692383</ele>
        <time>2016-01-14T10:16:38.459Z</time>
      </trkpt>
      <trkpt lat="46.01744" lon="4.63255">
        <ele>402.857574463</ele>
        <time>2016-01-14T10:16:45.491Z</time>
      </trkpt>
      <trkpt lat="46.01745" lon="4.63256">
        <ele>402.667419434</ele>
        <time>2016-01-14T10:16:46.447Z</time>
      </trkpt>
      <trkpt lat="46.01749" lon="4.63266">
        <ele>401.019195557</ele>
        <time>2016-01-14T10:16:54.488Z</time>
      </trkpt>
      <trkpt lat="46.0175" lon="4.63268">
        <ele>400.811035156</ele>
        <time>2016-01-14T10:16:55.453Z</time>
      </trkpt>
      <trkpt lat="46.01755" lon="4.63277">
        <ele>399.690948486</ele>
        <time>2016-01-14T10:17:01.486Z</time>
      </trkpt>
      <trkpt lat="46.01756" lon="4.63279">
        <ele>399.513427734</ele>
        <time>2016-01-14T10:17:02.464Z</time>
      </trkpt>
      <trkpt lat="46.01762" lon="4.63288">
        <ele>398.319122314</ele>
        <time>2016-01-14T10:17:08.496Z</time>
      </trkpt>
      <trkpt lat="46.01763" lon="4.6329">
        <ele>398.08493042</ele>
        <time>2016-01-14T10:17:09.455Z</time>
      </trkpt>
      <trkpt lat="46.01768" lon="4.633">
        <ele>396.602478027</ele>
        <time>2016-01-14T10:17:15.491Z</time>
      </trkpt>
      <trkpt lat="46.01768" lon="4.63301">
        <ele>396.363708496</ele>
        <time>2016-01-14T10:17:16.466Z</time>
      </trkpt>
      <trkpt lat="46.01773" lon="4.63311">
        <ele>395.050415039</ele>
        <time>2016-01-14T10:17:23.497Z</time>
      </trkpt>
      <trkpt lat="46.01774" lon="4.63313">
        <ele>394.899200439</ele>
        <time>2016-01-14T10:17:24.464Z</time>
      </trkpt>
      <trkpt lat="46.01779" lon="4.63324">
        <ele>393.725219727</ele>
        <time>2016-01-14T10:17:30.494Z</time>
      </trkpt>
      <trkpt lat="46.0178" lon="4.63326">
        <ele>393.527404785</ele>
        <time>2016-01-14T10:17:31.456Z</time>
      </trkpt>
      <trkpt lat="46.01785" lon="4.63335">
        <ele>392.297668457</ele>
        <time>2016-01-14T10:17:37.537Z</time>
      </trkpt>
      <trkpt lat="46.01785" lon="4.63337">
        <ele>392.094421387</ele>
        <time>2016-01-14T10:17:38.468Z</time>
      </trkpt>
      <trkpt lat="46.0179" lon="4.63346">
        <ele>390.987213135</ele>
        <time>2016-01-14T10:17:44.51Z</time>
      </trkpt>
      <trkpt lat="46.01791" lon="4.63347">
        <ele>390.805755615</ele>
        <time>2016-01-14T10:17:45.468Z</time>
      </trkpt>
      <trkpt lat="46.01795" lon="4.63357">
        <ele>389.882720947</ele>
        <time>2016-01-14T10:17:51.482Z</time>
      </trkpt>
      <trkpt lat="46.01795" lon="4.63358">
        <ele>389.713195801</ele>
        <time>2016-01-14T10:17:52.469Z</time>
      </trkpt>
      <trkpt lat="46.01801" lon="4.63367">
        <ele>388.397033691</ele>
        <time>2016-01-14T10:17:59.492Z</time>
      </trkpt>
      <trkpt lat="46.01802" lon="4.63368">
        <ele>388.164886475</ele>
        <time>2016-01-14T10:18:00.463Z</time>
      </trkpt>
      <trkpt lat="46.01807" lon="4.63377">
        <ele>387.050018311</ele>
        <time>2016-01-14T10:18:06.496Z</time>
      </trkpt>
      <trkpt lat="46.01813" lon="4.63385">
        <ele>385.737792969</ele>
        <time>2016-01-14T10:18:13.079Z</time>
      </trkpt>
      <trkpt lat="46.01818" lon="4.63393">
        <ele>384.533081055</ele>
        <time>2016-01-14T10:18:18.485Z</time>
      </trkpt>
      <trkpt lat="46.01819" lon="4.63395">
        <ele>384.354400635</ele>
        <time>2016-01-14T10:18:19.452Z</time>
      </trkpt>
      <trkpt lat="46.01826" lon="4.63403">
        <ele>382.925415039</ele>
        <time>2016-01-14T10:18:26.5Z</time>
      </trkpt>
      <trkpt lat="46.01828" lon="4.63405">
        <ele>382.708679199</ele>
        <time>2016-01-14T10:18:27.478Z</time>
      </trkpt>
      <trkpt lat="46.01833" lon="4.63411">
        <ele>381.324371338</ele>
        <time>2016-01-14T10:18:34.498Z</time>
      </trkpt>
      <trkpt lat="46.01835" lon="4.63413">
        <ele>381.118499756</ele>
        <time>2016-01-14T10:18:35.471Z</time>
      </trkpt>
      <trkpt lat="46.01841" lon="4.63421">
        <ele>379.859283447</ele>
        <time>2016-01-14T10:18:41.455Z</time>
      </trkpt>
      <trkpt lat="46.01842" lon="4.63421">
        <ele>379.648010254</ele>
        <time>2016-01-14T10:18:42.445Z</time>
      </trkpt>
      <trkpt lat="46.01847" lon="4.6343">
        <ele>378.282440186</ele>
        <time>2016-01-14T10:18:49.47Z</time>
      </trkpt>
      <trkpt lat="46.01848" lon="4.63431">
        <ele>378.122436523</ele>
        <time>2016-01-14T10:18:50.439Z</time>
      </trkpt>
      <trkpt lat="46.01855" lon="4.63438">
        <ele>376.981781006</ele>
        <time>2016-01-14T10:18:56.471Z</time>
      </trkpt>
      <trkpt lat="46.01856" lon="4.63439">
        <ele>376.786132812</ele>
        <time>2016-01-14T10:18:57.439Z</time>
      </trkpt>
      <trkpt lat="46.01863" lon="4.63448">
        <ele>375.659362793</ele>
        <time>2016-01-14T10:19:04.463Z</time>
      </trkpt>
      <trkpt lat="46.01864" lon="4.63449">
        <ele>375.499755859</ele>
        <time>2016-01-14T10:19:05.44Z</time>
      </trkpt>
      <trkpt lat="46.01871" lon="4.63456">
        <ele>374.405151367</ele>
        <time>2016-01-14T10:19:12.477Z</time>
      </trkpt>
      <trkpt lat="46.01872" lon="4.63457">
        <ele>374.259460449</ele>
        <time>2016-01-14T10:19:13.44Z</time>
      </trkpt>
      <trkpt lat="46.01878" lon="4.63467">
        <ele>373.260192871</ele>
        <time>2016-01-14T10:19:21.489Z</time>
      </trkpt>
      <trkpt lat="46.01879" lon="4.63468">
        <ele>373.177764893</ele>
        <time>2016-01-14T10:19:22.452Z</time>
      </trkpt>
      <trkpt lat="46.01885" lon="4.63475">
        <ele>372.64541626</ele>
        <time>2016-01-14T10:19:29.473Z</time>
      </trkpt>
      <trkpt lat="46.01886" lon="4.63477">
        <ele>372.523895264</ele>
        <time>2016-01-14T10:19:30.462Z</time>
      </trkpt>
      <trkpt lat="46.01892" lon="4.63485">
        <ele>372.060302734</ele>
        <time>2016-01-14T10:19:38.487Z</time>
      </trkpt>
      <trkpt lat="46.01892" lon="4.63487">
        <ele>372.017303467</ele>
        <time>2016-01-14T10:19:39.457Z</time>
      </trkpt>
      <trkpt lat="46.01898" lon="4.63494">
        <ele>371.770568848</ele>
        <time>2016-01-14T10:19:45.462Z</time>
      </trkpt>
      <trkpt lat="46.019" lon="4.63495">
        <ele>371.697570801</ele>
        <time>2016-01-14T10:19:46.429Z</time>
      </trkpt>
      <trkpt lat="46.01905" lon="4.63504">
        <ele>370.970733643</ele>
        <time>2016-01-14T10:19:53.624Z</time>
      </trkpt>
      <trkpt lat="46.01906" lon="4.63505">
        <ele>370.889221191</ele>
        <time>2016-01-14T10:19:54.443Z</time>
      </trkpt>
      <trkpt lat="46.01912" lon="4.63514">
        <ele>370.40032959</ele>
        <time>2016-01-14T10:19:59.477Z</time>
      </trkpt>
      <trkpt lat="46.01913" lon="4.63516">
        <ele>370.28314209</ele>
        <time>2016-01-14T10:20:00.446Z</time>
      </trkpt>
      <trkpt lat="46.01919" lon="4.63523">
        <ele>369.577819824</ele>
        <time>2016-01-14T10:20:06.465Z</time>
      </trkpt>
      <trkpt lat="46.0192" lon="4.63524">
        <ele>369.45690918</ele>
        <time>2016-01-14T10:20:07.443Z</time>
      </trkpt>
      <trkpt lat="46.01926" lon="4.63531">
        <ele>368.943634033</ele>
        <time>2016-01-14T10:20:12.491Z</time>
      </trkpt>
      <trkpt lat="46.01927" lon="4.63533">
        <ele>368.835449219</ele>
        <time>2016-01-14T10:20:13.445Z</time>
      </trkpt>
      <trkpt lat="46.01933" lon="4.63541">
        <ele>368.364196777</ele>
        <time>2016-01-14T10:20:20.479Z</time>
      </trkpt>
      <trkpt lat="46.01934" lon="4.63542">
        <ele>368.223846436</ele>
        <time>2016-01-14T10:20:21.483Z</time>
      </trkpt>
      <trkpt lat="46.0194" lon="4.63551">
        <ele>367.542266846</ele>
        <time>2016-01-14T10:20:27.471Z</time>
      </trkpt>
      <trkpt lat="46.0194" lon="4.63552">
        <ele>367.464874268</ele>
        <time>2016-01-14T10:20:28.467Z</time>
      </trkpt>
      <trkpt lat="46.01947" lon="4.63559">
        <ele>366.762908936</ele>
        <time>2016-01-14T10:20:34.478Z</time>
      </trkpt>
      <trkpt lat="46.01948" lon="4.6356">
        <ele>366.642242432</ele>
        <time>2016-01-14T10:20:35.447Z</time>
      </trkpt>
      <trkpt lat="46.01954" lon="4.63569">
        <ele>366.185180664</ele>
        <time>2016-01-14T10:20:41.484Z</time>
      </trkpt>
      <trkpt lat="46.01954" lon="4.6357">
        <ele>366.124511719</ele>
        <time>2016-01-14T10:20:42.448Z</time>
      </trkpt>
      <trkpt lat="46.0196" lon="4.63579">
        <ele>365.535125732</ele>
        <time>2016-01-14T10:20:49.49Z</time>
      </trkpt>
      <trkpt lat="46.01962" lon="4.63581">
        <ele>365.444580078</ele>
        <time>2016-01-14T10:20:50.449Z</time>
      </trkpt>
      <trkpt lat="46.01967" lon="4.63587">
        <ele>364.879394531</ele>
        <time>2016-01-14T10:20:56.484Z</time>
      </trkpt>
      <trkpt lat="46.01969" lon="4.63588">
        <ele>364.772918701</ele>
        <time>2016-01-14T10:20:57.434Z</time>
      </trkpt>
      <trkpt lat="46.01975" lon="4.63597">
        <ele>364.191558838</ele>
        <time>2016-01-14T10:21:03.478Z</time>
      </trkpt>
      <trkpt lat="46.01976" lon="4.63599">
        <ele>364.083587646</ele>
        <time>2016-01-14T10:21:04.457Z</time>
      </trkpt>
      <trkpt lat="46.01981" lon="4.63607">
        <ele>363.553283691</ele>
        <time>2016-01-14T10:21:10.483Z</time>
      </trkpt>
      <trkpt lat="46.01982" lon="4.63609">
        <ele>363.474761963</ele>
        <time>2016-01-14T10:21:11.449Z</time>
      </trkpt>
      <trkpt lat="46.01988" lon="4.63618">
        <ele>362.909118652</ele>
        <time>2016-01-14T10:21:18.486Z</time>
      </trkpt>
      <trkpt lat="46.01988" lon="4.6362">
        <ele>362.822052002</ele>
        <time>2016-01-14T10:21:19.454Z</time>
      </trkpt>
      <trkpt lat="46.01994" lon="4.63629">
        <ele>362.330505371</ele>
        <time>2016-01-14T10:21:25.487Z</time>
      </trkpt>
      <trkpt lat="46.01994" lon="4.6363">
        <ele>362.233703613</ele>
        <time>2016-01-14T10:21:26.459Z</time>
      </trkpt>
      <trkpt lat="46.02" lon="4.6364">
        <ele>361.726409912</ele>
        <time>2016-01-14T10:21:32.484Z</time>
      </trkpt>
      <trkpt lat="46.02" lon="4.63641">
        <ele>361.632385254</ele>
        <time>2016-01-14T10:21:33.451Z</time>
      </trkpt>
      <trkpt lat="46.02005" lon="4.6365">
        <ele>361.341491699</ele>
        <time>2016-01-14T10:21:39.479Z</time>
      </trkpt>
      <trkpt lat="46.02006" lon="4.63651">
        <ele>361.296417236</ele>
        <time>2016-01-14T10:21:40.458Z</time>
      </trkpt>
      <trkpt lat="46.0201" lon="4.63661">
        <ele>360.893035889</ele>
        <time>2016-01-14T10:21:46.455Z</time>
      </trkpt>
      <trkpt lat="46.02011" lon="4.63662">
        <ele>360.859771729</ele>
        <time>2016-01-14T10:21:47.458Z</time>
      </trkpt>
      <trkpt lat="46.02015" lon="4.63673">
        <ele>360.511962891</ele>
        <time>2016-01-14T10:21:54.536Z</time>
      </trkpt>
      <trkpt lat="46.02017" lon="4.63675">
        <ele>360.44418335</ele>
        <time>2016-01-14T10:21:55.466Z</time>
      </trkpt>
      <trkpt lat="46.02021" lon="4.63686">
        <ele>359.985443115</ele>
        <time>2016-01-14T10:22:01.487Z</time>
      </trkpt>
      <trkpt lat="46.02022" lon="4.63687">
        <ele>359.892333984</ele>
        <time>2016-01-14T10:22:02.463Z</time>
      </trkpt>
      <trkpt lat="46.02024" lon="4.63699">
        <ele>359.450927734</ele>
        <time>2016-01-14T10:22:10.502Z</time>
      </trkpt>
      <trkpt lat="46.02025" lon="4.63702">
        <ele>359.425292969</ele>
        <time>2016-01-14T10:22:11.458Z</time>
      </trkpt>
      <trkpt lat="46.02028" lon="4.63712">
        <ele>359.442810059</ele>
        <time>2016-01-14T10:22:17.492Z</time>
      </trkpt>
      <trkpt lat="46.02029" lon="4.63714">
        <ele>359.439544678</ele>
        <time>2016-01-14T10:22:18.468Z</time>
      </trkpt>
      <trkpt lat="46.02031" lon="4.63724">
        <ele>359.215332031</ele>
        <time>2016-01-14T10:22:24.486Z</time>
      </trkpt>
      <trkpt lat="46.02032" lon="4.63726">
        <ele>359.187072754</ele>
        <time>2016-01-14T10:22:25.46Z</time>
      </trkpt>
      <trkpt lat="46.02034" lon="4.63737">
        <ele>358.816162109</ele>
        <time>2016-01-14T10:22:31.503Z</time>
      </trkpt>
      <trkpt lat="46.02035" lon="4.63738">
        <ele>358.744720459</ele>
        <time>2016-01-14T10:22:32.464Z</time>
      </trkpt>
      <trkpt lat="46.02038" lon="4.63748">
        <ele>358.306488037</ele>
        <time>2016-01-14T10:22:38.498Z</time>
      </trkpt>
      <trkpt lat="46.02039" lon="4.63751">
        <ele>358.185882568</ele>
        <time>2016-01-14T10:22:39.464Z</time>
      </trkpt>
      <trkpt lat="46.02042" lon="4.63762">
        <ele>357.645050049</ele>
        <time>2016-01-14T10:22:46.582Z</time>
      </trkpt>
      <trkpt lat="46.02043" lon="4.63764">
        <ele>357.563751221</ele>
        <time>2016-01-14T10:22:47.468Z</time>
      </trkpt>
      <trkpt lat="46.02044" lon="4.63776">
        <ele>357.115814209</ele>
        <time>2016-01-14T10:22:53.493Z</time>
      </trkpt>
      <trkpt lat="46.02045" lon="4.63778">
        <ele>357.049713135</ele>
        <time>2016-01-14T10:22:54.466Z</time>
      </trkpt>
      <trkpt lat="46.02047" lon="4.63788">
        <ele>356.570709229</ele>
        <time>2016-01-14T10:23:00.5Z</time>
      </trkpt>
      <trkpt lat="46.02047" lon="4.63791">
        <ele>356.478149414</ele>
        <time>2016-01-14T10:23:01.467Z</time>
      </trkpt>
      <trkpt lat="46.02047" lon="4.63803">
        <ele>355.985809326</ele>
        <time>2016-01-14T10:23:07.499Z</time>
      </trkpt>
      <trkpt lat="46.02047" lon="4.63805">
        <ele>355.925689697</ele>
        <time>2016-01-14T10:23:08.471Z</time>
      </trkpt>
      <trkpt lat="46.02053" lon="4.63816">
        <ele>355.56149292</ele>
        <time>2016-01-14T10:23:15.524Z</time>
      </trkpt>
      <trkpt lat="46.02053" lon="4.63816">
        <ele>355.515808105</ele>
        <time>2016-01-14T10:23:16.444Z</time>
      </trkpt>
      <trkpt lat="46.0206" lon="4.63824">
        <ele>354.957611084</ele>
        <time>2016-01-14T10:23:23.491Z</time>
      </trkpt>
      <trkpt lat="46.02061" lon="4.63824">
        <ele>354.891967773</ele>
        <time>2016-01-14T10:23:24.468Z</time>
      </trkpt>
      <trkpt lat="46.02069" lon="4.63822">
        <ele>354.579711914</ele>
        <time>2016-01-14T10:23:30.484Z</time>
      </trkpt>
      <trkpt lat="46.0207" lon="4.63821">
        <ele>354.508178711</ele>
        <time>2016-01-14T10:23:31.47Z</time>
      </trkpt>
      <trkpt lat="46.02078" lon="4.63819">
        <ele>354.229370117</ele>
        <time>2016-01-14T10:23:38.489Z</time>
      </trkpt>
      <trkpt lat="46.02079" lon="4.63818">
        <ele>354.17074585</ele>
        <time>2016-01-14T10:23:39.461Z</time>
      </trkpt>
      <trkpt lat="46.02088" lon="4.63814">
        <ele>353.7449646</ele>
        <time>2016-01-14T10:23:49.485Z</time>
      </trkpt>
      <trkpt lat="46.02088" lon="4.63814">
        <ele>353.73638916</ele>
        <time>2016-01-14T10:23:50.451Z</time>
      </trkpt>
      <trkpt lat="46.02095" lon="4.63808">
        <ele>353.857879639</ele>
        <time>2016-01-14T10:23:58.466Z</time>
      </trkpt>
      <trkpt lat="46.02097" lon="4.63806">
        <ele>353.855926514</ele>
        <time>2016-01-14T10:23:59.441Z</time>
      </trkpt>
      <trkpt lat="46.02104" lon="4.63803">
        <ele>353.834014893</ele>
        <time>2016-01-14T10:24:05.476Z</time>
      </trkpt>
      <trkpt lat="46.02105" lon="4.63803">
        <ele>353.846130371</ele>
        <time>2016-01-14T10:24:06.447Z</time>
      </trkpt>
      <trkpt lat="46.02114" lon="4.638">
        <ele>353.717346191</ele>
        <time>2016-01-14T10:24:14.471Z</time>
      </trkpt>
      <trkpt lat="46.02115" lon="4.638">
        <ele>353.735626221</ele>
        <time>2016-01-14T10:24:15.449Z</time>
      </trkpt>
      <trkpt lat="46.02123" lon="4.63797">
        <ele>353.678833008</ele>
        <time>2016-01-14T10:24:22.468Z</time>
      </trkpt>
      <trkpt lat="46.02123" lon="4.63796">
        <ele>353.682556152</ele>
        <time>2016-01-14T10:24:23.454Z</time>
      </trkpt>
      <trkpt lat="46.02131" lon="4.63793">
        <ele>353.854827881</ele>
        <time>2016-01-14T10:24:33.476Z</time>
      </trkpt>
      <trkpt lat="46.02132" lon="4.63793">
        <ele>353.870147705</ele>
        <time>2016-01-14T10:24:34.441Z</time>
      </trkpt>
      <trkpt lat="46.0214" lon="4.63787">
        <ele>354.013824463</ele>
        <time>2016-01-14T10:24:46.453Z</time>
      </trkpt>
      <trkpt lat="46.0214" lon="4.63786">
        <ele>354.069763184</ele>
        <time>2016-01-14T10:24:47.45Z</time>
      </trkpt>
      <trkpt lat="46.02148" lon="4.63784">
        <ele>354.191467285</ele>
        <time>2016-01-14T10:24:54.447Z</time>
      </trkpt>
      <trkpt lat="46.02149" lon="4.63784">
        <ele>354.23348999</ele>
        <time>2016-01-14T10:24:55.442Z</time>
      </trkpt>
      <trkpt lat="46.02158" lon="4.63784">
        <ele>354.588378906</ele>
        <time>2016-01-14T10:25:03.472Z</time>
      </trkpt>
      <trkpt lat="46.02159" lon="4.63784">
        <ele>354.617492676</ele>
        <time>2016-01-14T10:25:04.443Z</time>
      </trkpt>
      <trkpt lat="46.02167" lon="4.63784">
        <ele>354.52255249</ele>
        <time>2016-01-14T10:25:13.458Z</time>
      </trkpt>
      <trkpt lat="46.02168" lon="4.63784">
        <ele>354.480743408</ele>
        <time>2016-01-14T10:25:14.449Z</time>
      </trkpt>
      <trkpt lat="46.02177" lon="4.63783">
        <ele>353.869293213</ele>
        <time>2016-01-14T10:25:21.47Z</time>
      </trkpt>
      <trkpt lat="46.02178" lon="4.63783">
        <ele>353.736572266</ele>
        <time>2016-01-14T10:25:22.453Z</time>
      </trkpt>
      <trkpt lat="46.02186" lon="4.6378">
        <ele>352.737487793</ele>
        <time>2016-01-14T10:25:31.467Z</time>
      </trkpt>
      <trkpt lat="46.02187" lon="4.6378">
        <ele>352.700897217</ele>
        <time>2016-01-14T10:25:32.455Z</time>
      </trkpt>
      <trkpt lat="46.02195" lon="4.63774">
        <ele>352.155456543</ele>
        <time>2016-01-14T10:25:46.449Z</time>
      </trkpt>
      <trkpt lat="46.02195" lon="4.63773">
        <ele>352.04208374</ele>
        <time>2016-01-14T10:25:47.472Z</time>
      </trkpt>
      <trkpt lat="46.022" lon="4.63762">
        <ele>351.016815186</ele>
        <time>2016-01-14T10:25:55.462Z</time>
      </trkpt>
      <trkpt lat="46.022" lon="4.6376">
        <ele>350.913330078</ele>
        <time>2016-01-14T10:25:56.462Z</time>
      </trkpt>
      <trkpt lat="46.02201" lon="4.63748">
        <ele>350.015533447</ele>
        <time>2016-01-14T10:26:03.483Z</time>
      </trkpt>
      <trkpt lat="46.022" lon="4.63746">
        <ele>349.855285645</ele>
        <time>2016-01-14T10:26:04.449Z</time>
      </trkpt>
      <trkpt lat="46.02201" lon="4.63734">
        <ele>348.791320801</ele>
        <time>2016-01-14T10:26:12.477Z</time>
      </trkpt>
      <trkpt lat="46.02202" lon="4.63732">
        <ele>348.661254883</ele>
        <time>2016-01-14T10:26:13.455Z</time>
      </trkpt>
      <trkpt lat="46.02203" lon="4.63722">
        <ele>347.932281494</ele>
        <time>2016-01-14T10:26:20.502Z</time>
      </trkpt>
      <trkpt lat="46.02203" lon="4.63719">
        <ele>347.828735352</ele>
        <time>2016-01-14T10:26:21.447Z</time>
      </trkpt>
      <trkpt lat="46.02204" lon="4.63707">
        <ele>346.759857178</ele>
        <time>2016-01-14T10:26:29.479Z</time>
      </trkpt>
      <trkpt lat="46.02204" lon="4.63706">
        <ele>346.642944336</ele>
        <time>2016-01-14T10:26:30.458Z</time>
      </trkpt>
      <trkpt lat="46.02204" lon="4.63693">
        <ele>345.696105957</ele>
        <time>2016-01-14T10:26:39.479Z</time>
      </trkpt>
      <trkpt lat="46.02204" lon="4.63692">
        <ele>345.544494629</ele>
        <time>2016-01-14T10:26:40.454Z</time>
      </trkpt>
      <trkpt lat="46.02204" lon="4.6368">
        <ele>344.212554932</ele>
        <time>2016-01-14T10:26:50.489Z</time>
      </trkpt>
      <trkpt lat="46.02204" lon="4.63679">
        <ele>344.010192871</ele>
        <time>2016-01-14T10:26:51.452Z</time>
      </trkpt>
      <trkpt lat="46.02211" lon="4.63672">
        <ele>339.923095703</ele>
        <time>2016-01-14T10:27:39.602Z</time>
      </trkpt>
      <trkpt lat="46.02212" lon="4.63672">
        <ele>339.828186035</ele>
        <time>2016-01-14T10:27:40.476Z</time>
      </trkpt>
      <trkpt lat="46.0222" lon="4.63672">
        <ele>339.159759521</ele>
        <time>2016-01-14T10:27:51.499Z</time>
      </trkpt>
      <trkpt lat="46.02221" lon="4.63671">
        <ele>338.992889404</ele>
        <time>2016-01-14T10:27:52.453Z</time>
      </trkpt>
      <trkpt lat="46.02229" lon="4.63668">
        <ele>337.707641602</ele>
        <time>2016-01-14T10:28:02.493Z</time>
      </trkpt>
      <trkpt lat="46.0223" lon="4.63667">
        <ele>337.591033936</ele>
        <time>2016-01-14T10:28:03.467Z</time>
      </trkpt>
      <trkpt lat="46.02238" lon="4.63662">
        <ele>336.618621826</ele>
        <time>2016-01-14T10:28:13.489Z</time>
      </trkpt>
      <trkpt lat="46.02239" lon="4.63661">
        <ele>336.541015625</ele>
        <time>2016-01-14T10:28:14.467Z</time>
      </trkpt>
      <trkpt lat="46.02247" lon="4.63656">
        <ele>330.566131592</ele>
        <time>2016-01-14T10:35:16.471Z</time>
      </trkpt>
      <trkpt lat="46.02247" lon="4.63656">
        <ele>330.753570557</ele>
        <time>2016-01-14T10:35:17.455Z</time>
      </trkpt>
      <trkpt lat="46.02256" lon="4.63654">
        <ele>331.611907959</ele>
        <time>2016-01-14T10:35:26.523Z</time>
      </trkpt>
      <trkpt lat="46.02257" lon="4.63654">
        <ele>331.630157471</ele>
        <time>2016-01-14T10:35:27.451Z</time>
      </trkpt>
      <trkpt lat="46.02265" lon="4.63654">
        <ele>331.753051758</ele>
        <time>2016-01-14T10:35:34.47Z</time>
      </trkpt>
      <trkpt lat="46.02266" lon="4.63654">
        <ele>331.706573486</ele>
        <time>2016-01-14T10:35:35.461Z</time>
      </trkpt>
      <trkpt lat="46.02274" lon="4.63654">
        <ele>331.179443359</ele>
        <time>2016-01-14T10:35:43.497Z</time>
      </trkpt>
      <trkpt lat="46.02275" lon="4.63654">
        <ele>331.154388428</ele>
        <time>2016-01-14T10:35:44.442Z</time>
      </trkpt>
      <trkpt lat="46.02283" lon="4.63656">
        <ele>330.800964355</ele>
        <time>2016-01-14T10:35:51.481Z</time>
      </trkpt>
      <trkpt lat="46.02284" lon="4.63656">
        <ele>330.73248291</ele>
        <time>2016-01-14T10:35:52.438Z</time>
      </trkpt>
      <trkpt lat="46.02293" lon="4.63656">
        <ele>330.190124512</ele>
        <time>2016-01-14T10:35:58.481Z</time>
      </trkpt>
      <trkpt lat="46.02294" lon="4.63655">
        <ele>330.045715332</ele>
        <time>2016-01-14T10:35:59.454Z</time>
      </trkpt>
      <trkpt lat="46.02302" lon="4.63656">
        <ele>329.129333496</ele>
        <time>2016-01-14T10:36:06.485Z</time>
      </trkpt>
      <trkpt lat="46.02304" lon="4.63656">
        <ele>329.037078857</ele>
        <time>2016-01-14T10:36:07.453Z</time>
      </trkpt>
      <trkpt lat="46.02311" lon="4.63656">
        <ele>328.415496826</ele>
        <time>2016-01-14T10:36:12.465Z</time>
      </trkpt>
      <trkpt lat="46.02313" lon="4.63655">
        <ele>328.30355835</ele>
        <time>2016-01-14T10:36:13.448Z</time>
      </trkpt>
      <trkpt lat="46.02321" lon="4.63657">
        <ele>328.037506104</ele>
        <time>2016-01-14T10:36:19.477Z</time>
      </trkpt>
      <trkpt lat="46.02322" lon="4.63659">
        <ele>327.932861328</ele>
        <time>2016-01-14T10:36:20.455Z</time>
      </trkpt>
      <trkpt lat="46.02326" lon="4.63669">
        <ele>327.335662842</ele>
        <time>2016-01-14T10:36:28.493Z</time>
      </trkpt>
      <trkpt lat="46.02327" lon="4.6367">
        <ele>327.336181641</ele>
        <time>2016-01-14T10:36:29.449Z</time>
      </trkpt>
      <trkpt lat="46.02334" lon="4.63677">
        <ele>327.3175354</ele>
        <time>2016-01-14T10:36:37.506Z</time>
      </trkpt>
      <trkpt lat="46.02335" lon="4.63678">
        <ele>327.365997314</ele>
        <time>2016-01-14T10:36:38.462Z</time>
      </trkpt>
      <trkpt lat="46.02341" lon="4.63687">
        <ele>327.716918945</ele>
        <time>2016-01-14T10:36:50.483Z</time>
      </trkpt>
      <trkpt lat="46.02341" lon="4.63689">
        <ele>327.706604004</ele>
        <time>2016-01-14T10:36:51.46Z</time>
      </trkpt>
      <trkpt lat="46.02344" lon="4.637">
        <ele>327.962280273</ele>
        <time>2016-01-14T10:36:58.469Z</time>
      </trkpt>
      <trkpt lat="46.02345" lon="4.63701">
        <ele>328.002471924</ele>
        <time>2016-01-14T10:36:59.454Z</time>
      </trkpt>
      <trkpt lat="46.02348" lon="4.63712">
        <ele>328.392822266</ele>
        <time>2016-01-14T10:37:06.475Z</time>
      </trkpt>
      <trkpt lat="46.02349" lon="4.63714">
        <ele>328.562255859</ele>
        <time>2016-01-14T10:37:07.452Z</time>
      </trkpt>
      <trkpt lat="46.02352" lon="4.63725">
        <ele>329.197967529</ele>
        <time>2016-01-14T10:37:14.486Z</time>
      </trkpt>
      <trkpt lat="46.02353" lon="4.63727">
        <ele>329.206237793</ele>
        <time>2016-01-14T10:37:15.445Z</time>
      </trkpt>
      <trkpt lat="46.02357" lon="4.63737">
        <ele>329.625305176</ele>
        <time>2016-01-14T10:37:22.503Z</time>
      </trkpt>
      <trkpt lat="46.02358" lon="4.63739">
        <ele>329.666992188</ele>
        <time>2016-01-14T10:37:23.446Z</time>
      </trkpt>
      <trkpt lat="46.02362" lon="4.6375">
        <ele>329.854766846</ele>
        <time>2016-01-14T10:37:30.485Z</time>
      </trkpt>
      <trkpt lat="46.02363" lon="4.63752">
        <ele>329.834869385</ele>
        <time>2016-01-14T10:37:31.459Z</time>
      </trkpt>
      <trkpt lat="46.02367" lon="4.63761">
        <ele>330.344604492</ele>
        <time>2016-01-14T10:37:38.495Z</time>
      </trkpt>
      <trkpt lat="46.02368" lon="4.63762">
        <ele>330.429656982</ele>
        <time>2016-01-14T10:37:39.462Z</time>
      </trkpt>
      <trkpt lat="46.02373" lon="4.63772">
        <ele>331.030731201</ele>
        <time>2016-01-14T10:37:47.488Z</time>
      </trkpt>
      <trkpt lat="46.02373" lon="4.63774">
        <ele>331.12411499</ele>
        <time>2016-01-14T10:37:48.437Z</time>
      </trkpt>
      <trkpt lat="46.02377" lon="4.63785">
        <ele>332.647491455</ele>
        <time>2016-01-14T10:37:56.496Z</time>
      </trkpt>
      <trkpt lat="46.02377" lon="4.63787">
        <ele>332.888580322</ele>
        <time>2016-01-14T10:37:57.448Z</time>
      </trkpt>
      <trkpt lat="46.0238" lon="4.63798">
        <ele>334.229614258</ele>
        <time>2016-01-14T10:38:04.483Z</time>
      </trkpt>
      <trkpt lat="46.02381" lon="4.63799">
        <ele>334.445068359</ele>
        <time>2016-01-14T10:38:05.462Z</time>
      </trkpt>
      <trkpt lat="46.02384" lon="4.6381">
        <ele>336.31427002</ele>
        <time>2016-01-14T10:38:13.486Z</time>
      </trkpt>
      <trkpt lat="46.02385" lon="4.63812">
        <ele>336.557952881</ele>
        <time>2016-01-14T10:38:14.464Z</time>
      </trkpt>
      <trkpt lat="46.02387" lon="4.63823">
        <ele>337.538269043</ele>
        <time>2016-01-14T10:38:20.499Z</time>
      </trkpt>
      <trkpt lat="46.02388" lon="4.63825">
        <ele>337.672393799</ele>
        <time>2016-01-14T10:38:21.465Z</time>
      </trkpt>
      <trkpt lat="46.0239" lon="4.63834">
        <ele>338.209594727</ele>
        <time>2016-01-14T10:38:25.48Z</time>
      </trkpt>
      <trkpt lat="46.02391" lon="4.63837">
        <ele>338.286010742</ele>
        <time>2016-01-14T10:38:26.466Z</time>
      </trkpt>
      <trkpt lat="46.02393" lon="4.63847">
        <ele>338.785705566</ele>
        <time>2016-01-14T10:38:32.562Z</time>
      </trkpt>
      <trkpt lat="46.02394" lon="4.6385">
        <ele>338.848205566</ele>
        <time>2016-01-14T10:38:33.462Z</time>
      </trkpt>
      <trkpt lat="46.02397" lon="4.63861">
        <ele>339.306640625</ele>
        <time>2016-01-14T10:38:42.633Z</time>
      </trkpt>
      <trkpt lat="46.02397" lon="4.63862">
        <ele>339.361724854</ele>
        <time>2016-01-14T10:38:43.494Z</time>
      </trkpt>
      <trkpt lat="46.024" lon="4.63874">
        <ele>340.008850098</ele>
        <time>2016-01-14T10:38:50.456Z</time>
      </trkpt>
      <trkpt lat="46.024" lon="4.63876">
        <ele>340.147827148</ele>
        <time>2016-01-14T10:38:51.422Z</time>
      </trkpt>
      <trkpt lat="46.02405" lon="4.63886">
        <ele>340.939056396</ele>
        <time>2016-01-14T10:38:57.452Z</time>
      </trkpt>
      <trkpt lat="46.02405" lon="4.63888">
        <ele>341.018676758</ele>
        <time>2016-01-14T10:38:58.457Z</time>
      </trkpt>
      <trkpt lat="46.02412" lon="4.63896">
        <ele>341.351318359</ele>
        <time>2016-01-14T10:39:06.469Z</time>
      </trkpt>
      <trkpt lat="46.02413" lon="4.63897">
        <ele>341.374481201</ele>
        <time>2016-01-14T10:39:07.47Z</time>
      </trkpt>
      <trkpt lat="46.02421" lon="4.639">
        <ele>341.532836914</ele>
        <time>2016-01-14T10:39:14.477Z</time>
      </trkpt>
      <trkpt lat="46.02422" lon="4.639">
        <ele>341.525421143</ele>
        <time>2016-01-14T10:39:15.434Z</time>
      </trkpt>
      <trkpt lat="46.0243" lon="4.63904">
        <ele>341.976531982</ele>
        <time>2016-01-14T10:39:21.457Z</time>
      </trkpt>
      <trkpt lat="46.02431" lon="4.63905">
        <ele>342.028625488</ele>
        <time>2016-01-14T10:39:22.445Z</time>
      </trkpt>
      <trkpt lat="46.02439" lon="4.63908">
        <ele>342.846862793</ele>
        <time>2016-01-14T10:39:30.459Z</time>
      </trkpt>
      <trkpt lat="46.02441" lon="4.63908">
        <ele>342.921325684</ele>
        <time>2016-01-14T10:39:31.445Z</time>
      </trkpt>
      <trkpt lat="46.0245" lon="4.63909">
        <ele>343.498809814</ele>
        <time>2016-01-14T10:39:39.459Z</time>
      </trkpt>
      <trkpt lat="46.0245" lon="4.63908">
        <ele>343.569366455</ele>
        <time>2016-01-14T10:39:40.445Z</time>
      </trkpt>
      <trkpt lat="46.02458" lon="4.63912">
        <ele>343.691375732</ele>
        <time>2016-01-14T10:39:47.476Z</time>
      </trkpt>
      <trkpt lat="46.02459" lon="4.63912">
        <ele>343.757965088</ele>
        <time>2016-01-14T10:39:48.439Z</time>
      </trkpt>
      <trkpt lat="46.02468" lon="4.63912">
        <ele>344.385498047</ele>
        <time>2016-01-14T10:39:56.453Z</time>
      </trkpt>
      <trkpt lat="46.02469" lon="4.63913">
        <ele>344.449127197</ele>
        <time>2016-01-14T10:39:57.447Z</time>
      </trkpt>
      <trkpt lat="46.02477" lon="4.63916">
        <ele>345.105712891</ele>
        <time>2016-01-14T10:40:05.459Z</time>
      </trkpt>
      <trkpt lat="46.02479" lon="4.63916">
        <ele>345.209655762</ele>
        <time>2016-01-14T10:40:06.449Z</time>
      </trkpt>
      <trkpt lat="46.02487" lon="4.63917">
        <ele>345.387634277</ele>
        <time>2016-01-14T10:40:12.536Z</time>
      </trkpt>
      <trkpt lat="46.02489" lon="4.63918">
        <ele>345.460632324</ele>
        <time>2016-01-14T10:40:13.445Z</time>
      </trkpt>
      <trkpt lat="46.02497" lon="4.63919">
        <ele>345.831726074</ele>
        <time>2016-01-14T10:40:20.473Z</time>
      </trkpt>
      <trkpt lat="46.02498" lon="4.63919">
        <ele>345.84387207</ele>
        <time>2016-01-14T10:40:21.438Z</time>
      </trkpt>
      <trkpt lat="46.02506" lon="4.63919">
        <ele>345.92489624</ele>
        <time>2016-01-14T10:40:29.5Z</time>
      </trkpt>
      <trkpt lat="46.02508" lon="4.6392">
        <ele>345.924743652</ele>
        <time>2016-01-14T10:40:30.445Z</time>
      </trkpt>
      <trkpt lat="46.02515" lon="4.63924">
        <ele>346.5128479</ele>
        <time>2016-01-14T10:40:38.474Z</time>
      </trkpt>
      <trkpt lat="46.02516" lon="4.63925">
        <ele>346.625366211</ele>
        <time>2016-01-14T10:40:39.452Z</time>
      </trkpt>
      <trkpt lat="46.02523" lon="4.63927">
        <ele>347.036437988</ele>
        <time>2016-01-14T10:40:44.461Z</time>
      </trkpt>
      <trkpt lat="46.02526" lon="4.63927">
        <ele>347.06262207</ele>
        <time>2016-01-14T10:40:45.448Z</time>
      </trkpt>
      <trkpt lat="46.02533" lon="4.63924">
        <ele>346.875762939</ele>
        <time>2016-01-14T10:40:49.465Z</time>
      </trkpt>
      <trkpt lat="46.02535" lon="4.63924">
        <ele>346.784698486</ele>
        <time>2016-01-14T10:40:50.445Z</time>
      </trkpt>
      <trkpt lat="46.02543" lon="4.63922">
        <ele>346.088287354</ele>
        <time>2016-01-14T10:40:57.46Z</time>
      </trkpt>
      <trkpt lat="46.02545" lon="4.63922">
        <ele>345.998809814</ele>
        <time>2016-01-14T10:40:58.445Z</time>
      </trkpt>
      <trkpt lat="46.02553" lon="4.63923">
        <ele>345.261932373</ele>
        <time>2016-01-14T10:41:05.49Z</time>
      </trkpt>
      <trkpt lat="46.02554" lon="4.63923">
        <ele>345.176574707</ele>
        <time>2016-01-14T10:41:06.442Z</time>
      </trkpt>
      <trkpt lat="46.02562" lon="4.63925">
        <ele>344.950500488</ele>
        <time>2016-01-14T10:41:13.466Z</time>
      </trkpt>
      <trkpt lat="46.02563" lon="4.63926">
        <ele>345.018829346</ele>
        <time>2016-01-14T10:41:14.468Z</time>
      </trkpt>
      <trkpt lat="46.02571" lon="4.63924">
        <ele>345.512451172</ele>
        <time>2016-01-14T10:41:25.458Z</time>
      </trkpt>
      <trkpt lat="46.02573" lon="4.63924">
        <ele>345.501281738</ele>
        <time>2016-01-14T10:41:26.449Z</time>
      </trkpt>
      <trkpt lat="46.02571" lon="4.63913">
        <ele>347.738098145</ele>
        <time>2016-01-14T10:45:16.469Z</time>
      </trkpt>
      <trkpt lat="46.02571" lon="4.63911">
        <ele>347.728088379</ele>
        <time>2016-01-14T10:45:17.467Z</time>
      </trkpt>
      <trkpt lat="46.02572" lon="4.63899">
        <ele>348.114807129</ele>
        <time>2016-01-14T10:45:25.46Z</time>
      </trkpt>
      <trkpt lat="46.02572" lon="4.63898">
        <ele>348.139801025</ele>
        <time>2016-01-14T10:45:26.448Z</time>
      </trkpt>
      <trkpt lat="46.02575" lon="4.63887">
        <ele>347.94631958</ele>
        <time>2016-01-14T10:45:34.462Z</time>
      </trkpt>
      <trkpt lat="46.02576" lon="4.63885">
        <ele>347.943084717</ele>
        <time>2016-01-14T10:45:35.451Z</time>
      </trkpt>
      <trkpt lat="46.02582" lon="4.63876">
        <ele>348.141418457</ele>
        <time>2016-01-14T10:45:44.494Z</time>
      </trkpt>
      <trkpt lat="46.02583" lon="4.63876">
        <ele>348.202941895</ele>
        <time>2016-01-14T10:45:45.445Z</time>
      </trkpt>
      <trkpt lat="46.0259" lon="4.63869">
        <ele>348.937286377</ele>
        <time>2016-01-14T10:45:54.502Z</time>
      </trkpt>
      <trkpt lat="46.02591" lon="4.63868">
        <ele>349.021148682</ele>
        <time>2016-01-14T10:45:55.44Z</time>
      </trkpt>
      <trkpt lat="46.02597" lon="4.6386">
        <ele>349.699523926</ele>
        <time>2016-01-14T10:46:02.581Z</time>
      </trkpt>
      <trkpt lat="46.02598" lon="4.63858">
        <ele>349.739807129</ele>
        <time>2016-01-14T10:46:03.462Z</time>
      </trkpt>
      <trkpt lat="46.02604" lon="4.6385">
        <ele>350.48538208</ele>
        <time>2016-01-14T10:46:11.46Z</time>
      </trkpt>
      <trkpt lat="46.02604" lon="4.63849">
        <ele>350.614959717</ele>
        <time>2016-01-14T10:46:12.439Z</time>
      </trkpt>
      <trkpt lat="46.02609" lon="4.63838">
        <ele>351.652923584</ele>
        <time>2016-01-14T10:46:22.474Z</time>
      </trkpt>
      <trkpt lat="46.02609" lon="4.63837">
        <ele>351.714660645</ele>
        <time>2016-01-14T10:46:23.44Z</time>
      </trkpt>
      <trkpt lat="46.02615" lon="4.63828">
        <ele>352.862670898</ele>
        <time>2016-01-14T10:46:34.468Z</time>
      </trkpt>
      <trkpt lat="46.02616" lon="4.63827">
        <ele>352.982818604</ele>
        <time>2016-01-14T10:46:35.473Z</time>
      </trkpt>
      <trkpt lat="46.0262" lon="4.63817">
        <ele>353.588531494</ele>
        <time>2016-01-14T10:46:43.469Z</time>
      </trkpt>
      <trkpt lat="46.0262" lon="4.63815">
        <ele>353.68359375</ele>
        <time>2016-01-14T10:46:44.454Z</time>
      </trkpt>
      <trkpt lat="46.02624" lon="4.63804">
        <ele>354.565612793</ele>
        <time>2016-01-14T10:46:53.482Z</time>
      </trkpt>
      <trkpt lat="46.02624" lon="4.63803">
        <ele>354.644592285</ele>
        <time>2016-01-14T10:46:54.454Z</time>
      </trkpt>
      <trkpt lat="46.02626" lon="4.63791">
        <ele>355.91116333</ele>
        <time>2016-01-14T10:47:05.47Z</time>
      </trkpt>
      <trkpt lat="46.02626" lon="4.6379">
        <ele>356.072021484</ele>
        <time>2016-01-14T10:47:06.448Z</time>
      </trkpt>
      <trkpt lat="46.0263" lon="4.63779">
        <ele>356.970214844</ele>
        <time>2016-01-14T10:47:13.488Z</time>
      </trkpt>
      <trkpt lat="46.0263" lon="4.63778">
        <ele>357.102661133</ele>
        <time>2016-01-14T10:47:14.448Z</time>
      </trkpt>
      <trkpt lat="46.02633" lon="4.63766">
        <ele>358.573394775</ele>
        <time>2016-01-14T10:47:25.478Z</time>
      </trkpt>
      <trkpt lat="46.02634" lon="4.63765">
        <ele>358.70324707</ele>
        <time>2016-01-14T10:47:26.445Z</time>
      </trkpt>
      <trkpt lat="46.02638" lon="4.63755">
        <ele>359.353637695</ele>
        <time>2016-01-14T10:47:32.478Z</time>
      </trkpt>
      <trkpt lat="46.02638" lon="4.63753">
        <ele>359.444793701</ele>
        <time>2016-01-14T10:47:33.449Z</time>
      </trkpt>
      <trkpt lat="46.02643" lon="4.63744">
        <ele>360.126617432</ele>
        <time>2016-01-14T10:47:41.467Z</time>
      </trkpt>
      <trkpt lat="46.02643" lon="4.63742">
        <ele>360.211853027</ele>
        <time>2016-01-14T10:47:42.446Z</time>
      </trkpt>
      <trkpt lat="46.02647" lon="4.63731">
        <ele>361.010528564</ele>
        <time>2016-01-14T10:47:51.462Z</time>
      </trkpt>
      <trkpt lat="46.02647" lon="4.6373">
        <ele>361.084869385</ele>
        <time>2016-01-14T10:47:52.439Z</time>
      </trkpt>
      <trkpt lat="46.02651" lon="4.63718">
        <ele>362.219482422</ele>
        <time>2016-01-14T10:48:00.45Z</time>
      </trkpt>
      <trkpt lat="46.02651" lon="4.63716">
        <ele>362.379241943</ele>
        <time>2016-01-14T10:48:01.435Z</time>
      </trkpt>
      <trkpt lat="46.02654" lon="4.63704">
        <ele>363.315032959</ele>
        <time>2016-01-14T10:48:08.453Z</time>
      </trkpt>
      <trkpt lat="46.02654" lon="4.63703">
        <ele>363.44241333</ele>
        <time>2016-01-14T10:48:09.449Z</time>
      </trkpt>
      <trkpt lat="46.02656" lon="4.63691">
        <ele>364.710510254</ele>
        <time>2016-01-14T10:48:18.448Z</time>
      </trkpt>
      <trkpt lat="46.02657" lon="4.63689">
        <ele>364.870758057</ele>
        <time>2016-01-14T10:48:19.442Z</time>
      </trkpt>
      <trkpt lat="46.02661" lon="4.6368">
        <ele>365.799957275</ele>
        <time>2016-01-14T10:48:25.499Z</time>
      </trkpt>
      <trkpt lat="46.02662" lon="4.63678">
        <ele>365.933288574</ele>
        <time>2016-01-14T10:48:26.439Z</time>
      </trkpt>
      <trkpt lat="46.02666" lon="4.63668">
        <ele>366.797576904</ele>
        <time>2016-01-14T10:48:33.46Z</time>
      </trkpt>
      <trkpt lat="46.02667" lon="4.63667">
        <ele>366.878448486</ele>
        <time>2016-01-14T10:48:34.454Z</time>
      </trkpt>
      <trkpt lat="46.02668" lon="4.63655">
        <ele>367.568389893</ele>
        <time>2016-01-14T10:48:43.513Z</time>
      </trkpt>
      <trkpt lat="46.02668" lon="4.63653">
        <ele>367.658691406</ele>
        <time>2016-01-14T10:48:44.44Z</time>
      </trkpt>
      <trkpt lat="46.02671" lon="4.63643">
        <ele>368.248138428</ele>
        <time>2016-01-14T10:48:50.455Z</time>
      </trkpt>
      <trkpt lat="46.02671" lon="4.63641">
        <ele>368.380187988</ele>
        <time>2016-01-14T10:48:51.431Z</time>
      </trkpt>
      <trkpt lat="46.02673" lon="4.6363">
        <ele>369.151000977</ele>
        <time>2016-01-14T10:48:57.451Z</time>
      </trkpt>
      <trkpt lat="46.02674" lon="4.63628">
        <ele>369.3309021</ele>
        <time>2016-01-14T10:48:58.435Z</time>
      </trkpt>
      <trkpt lat="46.02675" lon="4.63617">
        <ele>370.309875488</ele>
        <time>2016-01-14T10:49:06.454Z</time>
      </trkpt>
      <trkpt lat="46.02676" lon="4.63615">
        <ele>370.428894043</ele>
        <time>2016-01-14T10:49:07.435Z</time>
      </trkpt>
      <trkpt lat="46.02677" lon="4.63604">
        <ele>370.909362793</ele>
        <time>2016-01-14T10:49:13.472Z</time>
      </trkpt>
      <trkpt lat="46.02677" lon="4.63602">
        <ele>370.987670898</ele>
        <time>2016-01-14T10:49:14.431Z</time>
      </trkpt>
      <trkpt lat="46.0268" lon="4.63591">
        <ele>371.605834961</ele>
        <time>2016-01-14T10:49:20.452Z</time>
      </trkpt>
      <trkpt lat="46.0268" lon="4.63589">
        <ele>371.687561035</ele>
        <time>2016-01-14T10:49:21.416Z</time>
      </trkpt>
      <trkpt lat="46.02682" lon="4.63579">
        <ele>371.918518066</ele>
        <time>2016-01-14T10:49:27.455Z</time>
      </trkpt>
      <trkpt lat="46.02682" lon="4.63576">
        <ele>371.975616455</ele>
        <time>2016-01-14T10:49:28.448Z</time>
      </trkpt>
      <trkpt lat="46.02682" lon="4.63564">
        <ele>372.325042725</ele>
        <time>2016-01-14T10:49:34.447Z</time>
      </trkpt>
      <trkpt lat="46.02683" lon="4.63563">
        <ele>372.43737793</ele>
        <time>2016-01-14T10:49:35.447Z</time>
      </trkpt>
      <trkpt lat="46.02685" lon="4.63552">
        <ele>372.689666748</ele>
        <time>2016-01-14T10:49:41.447Z</time>
      </trkpt>
      <trkpt lat="46.02686" lon="4.6355">
        <ele>372.738037109</ele>
        <time>2016-01-14T10:49:42.437Z</time>
      </trkpt>
      <trkpt lat="46.02686" lon="4.63538">
        <ele>373.30557251</ele>
        <time>2016-01-14T10:49:49.469Z</time>
      </trkpt>
      <trkpt lat="46.02686" lon="4.63536">
        <ele>373.382080078</ele>
        <time>2016-01-14T10:49:50.436Z</time>
      </trkpt>
      <trkpt lat="46.02687" lon="4.63525">
        <ele>373.737762451</ele>
        <time>2016-01-14T10:49:56.486Z</time>
      </trkpt>
      <trkpt lat="46.02687" lon="4.63523">
        <ele>373.79006958</ele>
        <time>2016-01-14T10:49:57.437Z</time>
      </trkpt>
      <trkpt lat="46.02687" lon="4.63511">
        <ele>373.987030029</ele>
        <time>2016-01-14T10:50:03.456Z</time>
      </trkpt>
      <trkpt lat="46.02687" lon="4.63509">
        <ele>373.996490479</ele>
        <time>2016-01-14T10:50:04.455Z</time>
      </trkpt>
      <trkpt lat="46.02687" lon="4.63497">
        <ele>374.041229248</ele>
        <time>2016-01-14T10:50:11.453Z</time>
      </trkpt>
      <trkpt lat="46.02687" lon="4.63495">
        <ele>374.060546875</ele>
        <time>2016-01-14T10:50:12.462Z</time>
      </trkpt>
      <trkpt lat="46.02687" lon="4.63482">
        <ele>374.121002197</ele>
        <time>2016-01-14T10:50:18.581Z</time>
      </trkpt>
      <trkpt lat="46.02687" lon="4.63481">
        <ele>374.095672607</ele>
        <time>2016-01-14T10:50:19.437Z</time>
      </trkpt>
      <trkpt lat="46.02688" lon="4.63469">
        <ele>374.486724854</ele>
        <time>2016-01-14T10:50:26.452Z</time>
      </trkpt>
      <trkpt lat="46.02688" lon="4.63468">
        <ele>374.616363525</ele>
        <time>2016-01-14T10:50:27.437Z</time>
      </trkpt>
      <trkpt lat="46.02688" lon="4.63455">
        <ele>375.053619385</ele>
        <time>2016-01-14T10:50:33.489Z</time>
      </trkpt>
      <trkpt lat="46.02688" lon="4.63454">
        <ele>375.088806152</ele>
        <time>2016-01-14T10:50:34.445Z</time>
      </trkpt>
      <trkpt lat="46.02688" lon="4.63443">
        <ele>375.416931152</ele>
        <time>2016-01-14T10:50:40.494Z</time>
      </trkpt>
      <trkpt lat="46.02689" lon="4.63441">
        <ele>375.492492676</ele>
        <time>2016-01-14T10:50:41.438Z</time>
      </trkpt>
      <trkpt lat="46.02691" lon="4.63428">
        <ele>375.914703369</ele>
        <time>2016-01-14T10:50:47.454Z</time>
      </trkpt>
      <trkpt lat="46.02691" lon="4.63426">
        <ele>375.986816406</ele>
        <time>2016-01-14T10:50:48.438Z</time>
      </trkpt>
      <trkpt lat="46.02693" lon="4.63414">
        <ele>376.480926514</ele>
        <time>2016-01-14T10:50:55.454Z</time>
      </trkpt>
      <trkpt lat="46.02693" lon="4.63413">
        <ele>376.538208008</ele>
        <time>2016-01-14T10:50:56.441Z</time>
      </trkpt>
      <trkpt lat="46.02696" lon="4.63402">
        <ele>376.530761719</ele>
        <time>2016-01-14T10:51:02.469Z</time>
      </trkpt>
      <trkpt lat="46.02696" lon="4.634">
        <ele>376.540374756</ele>
        <time>2016-01-14T10:51:03.442Z</time>
      </trkpt>
      <trkpt lat="46.02699" lon="4.63389">
        <ele>376.530487061</ele>
        <time>2016-01-14T10:51:10.455Z</time>
      </trkpt>
      <trkpt lat="46.027" lon="4.63387">
        <ele>376.544586182</ele>
        <time>2016-01-14T10:51:11.453Z</time>
      </trkpt>
      <trkpt lat="46.02704" lon="4.63377">
        <ele>376.617828369</ele>
        <time>2016-01-14T10:51:18.487Z</time>
      </trkpt>
      <trkpt lat="46.02705" lon="4.63376">
        <ele>376.61517334</ele>
        <time>2016-01-14T10:51:19.44Z</time>
      </trkpt>
      <trkpt lat="46.02709" lon="4.63365">
        <ele>376.583465576</ele>
        <time>2016-01-14T10:51:26.461Z</time>
      </trkpt>
      <trkpt lat="46.0271" lon="4.63363">
        <ele>376.588989258</ele>
        <time>2016-01-14T10:51:27.449Z</time>
      </trkpt>
      <trkpt lat="46.02714" lon="4.63353">
        <ele>376.715423584</ele>
        <time>2016-01-14T10:51:34.482Z</time>
      </trkpt>
      <trkpt lat="46.02715" lon="4.63352">
        <ele>376.740234375</ele>
        <time>2016-01-14T10:51:35.44Z</time>
      </trkpt>
      <trkpt lat="46.02718" lon="4.6334">
        <ele>377.761016846</ele>
        <time>2016-01-14T10:51:43.465Z</time>
      </trkpt>
      <trkpt lat="46.02719" lon="4.63338">
        <ele>377.895294189</ele>
        <time>2016-01-14T10:51:44.44Z</time>
      </trkpt>
      <trkpt lat="46.02722" lon="4.63326">
        <ele>378.771453857</ele>
        <time>2016-01-14T10:51:50.462Z</time>
      </trkpt>
      <trkpt lat="46.02722" lon="4.63324">
        <ele>378.884368896</ele>
        <time>2016-01-14T10:51:51.444Z</time>
      </trkpt>
      <trkpt lat="46.02725" lon="4.63313">
        <ele>379.729400635</ele>
        <time>2016-01-14T10:51:58.456Z</time>
      </trkpt>
      <trkpt lat="46.02725" lon="4.63311">
        <ele>379.83883667</ele>
        <time>2016-01-14T10:51:59.441Z</time>
      </trkpt>
      <trkpt lat="46.02726" lon="4.63299">
        <ele>380.471954346</ele>
        <time>2016-01-14T10:52:07.458Z</time>
      </trkpt>
      <trkpt lat="46.02726" lon="4.63297">
        <ele>380.528717041</ele>
        <time>2016-01-14T10:52:08.441Z</time>
      </trkpt>
      <trkpt lat="46.02727" lon="4.63285">
        <ele>380.824920654</ele>
        <time>2016-01-14T10:52:15.494Z</time>
      </trkpt>
      <trkpt lat="46.02727" lon="4.63284">
        <ele>380.88293457</ele>
        <time>2016-01-14T10:52:16.444Z</time>
      </trkpt>
      <trkpt lat="46.02727" lon="4.63271">
        <ele>381.647216797</ele>
        <time>2016-01-14T10:52:24.479Z</time>
      </trkpt>
      <trkpt lat="46.02727" lon="4.63269">
        <ele>381.741119385</ele>
        <time>2016-01-14T10:52:25.442Z</time>
      </trkpt>
      <trkpt lat="46.02726" lon="4.63257">
        <ele>382.3487854</ele>
        <time>2016-01-14T10:52:32.476Z</time>
      </trkpt>
      <trkpt lat="46.02726" lon="4.63255">
        <ele>382.433959961</ele>
        <time>2016-01-14T10:52:33.456Z</time>
      </trkpt>
      <trkpt lat="46.02725" lon="4.63243">
        <ele>383.033996582</ele>
        <time>2016-01-14T10:52:40.472Z</time>
      </trkpt>
      <trkpt lat="46.02724" lon="4.63241">
        <ele>383.079162598</ele>
        <time>2016-01-14T10:52:41.449Z</time>
      </trkpt>
      <trkpt lat="46.02723" lon="4.63229">
        <ele>382.984008789</ele>
        <time>2016-01-14T10:52:48.467Z</time>
      </trkpt>
      <trkpt lat="46.02723" lon="4.63228">
        <ele>382.956756592</ele>
        <time>2016-01-14T10:52:49.446Z</time>
      </trkpt>
      <trkpt lat="46.02722" lon="4.63215">
        <ele>383.150085449</ele>
        <time>2016-01-14T10:52:57.461Z</time>
      </trkpt>
      <trkpt lat="46.02722" lon="4.63213">
        <ele>383.189178467</ele>
        <time>2016-01-14T10:52:58.455Z</time>
      </trkpt>
      <trkpt lat="46.02723" lon="4.632">
        <ele>383.487762451</ele>
        <time>2016-01-14T10:53:05.447Z</time>
      </trkpt>
      <trkpt lat="46.02723" lon="4.63198">
        <ele>383.5546875</ele>
        <time>2016-01-14T10:53:06.429Z</time>
      </trkpt>
      <trkpt lat="46.02724" lon="4.63187">
        <ele>383.896514893</ele>
        <time>2016-01-14T10:53:12.446Z</time>
      </trkpt>
      <trkpt lat="46.02724" lon="4.63184">
        <ele>383.937561035</ele>
        <time>2016-01-14T10:53:13.429Z</time>
      </trkpt>
      <trkpt lat="46.02727" lon="4.63173">
        <ele>384.700897217</ele>
        <time>2016-01-14T10:53:20.447Z</time>
      </trkpt>
      <trkpt lat="46.02727" lon="4.6317">
        <ele>384.843597412</ele>
        <time>2016-01-14T10:53:21.435Z</time>
      </trkpt>
      <trkpt lat="46.02735" lon="4.63165">
        <ele>386.894042969</ele>
        <time>2016-01-14T10:53:32.551Z</time>
      </trkpt>
      <trkpt lat="46.02736" lon="4.63165">
        <ele>387.120239258</ele>
        <time>2016-01-14T10:53:33.439Z</time>
      </trkpt>
      <trkpt lat="46.02744" lon="4.63166">
        <ele>388.836761475</ele>
        <time>2016-01-14T10:53:41.449Z</time>
      </trkpt>
      <trkpt lat="46.02745" lon="4.63167">
        <ele>389.0050354</ele>
        <time>2016-01-14T10:53:42.45Z</time>
      </trkpt>
      <trkpt lat="46.02753" lon="4.63171">
        <ele>389.749542236</ele>
        <time>2016-01-14T10:53:48.455Z</time>
      </trkpt>
      <trkpt lat="46.02754" lon="4.63171">
        <ele>389.840698242</ele>
        <time>2016-01-14T10:53:49.435Z</time>
      </trkpt>
      <trkpt lat="46.02762" lon="4.63173">
        <ele>390.644927979</ele>
        <time>2016-01-14T10:53:57.481Z</time>
      </trkpt>
      <trkpt lat="46.02763" lon="4.63173">
        <ele>390.741027832</ele>
        <time>2016-01-14T10:53:58.434Z</time>
      </trkpt>
      <trkpt lat="46.02769" lon="4.63182">
        <ele>392.276855469</ele>
        <time>2016-01-14T10:54:06.425Z</time>
      </trkpt>
      <trkpt lat="46.0277" lon="4.63183">
        <ele>392.486236572</ele>
        <time>2016-01-14T10:54:07.435Z</time>
      </trkpt>
      <trkpt lat="46.02778" lon="4.63188">
        <ele>394.502593994</ele>
        <time>2016-01-14T10:54:15.452Z</time>
      </trkpt>
      <trkpt lat="46.02779" lon="4.63188">
        <ele>394.812835693</ele>
        <time>2016-01-14T10:54:16.447Z</time>
      </trkpt>
      <trkpt lat="46.02787" lon="4.63186">
        <ele>396.150177002</ele>
        <time>2016-01-14T10:54:22.484Z</time>
      </trkpt>
      <trkpt lat="46.02789" lon="4.63186">
        <ele>396.333740234</ele>
        <time>2016-01-14T10:54:23.436Z</time>
      </trkpt>
      <trkpt lat="46.02796" lon="4.63185">
        <ele>396.937316895</ele>
        <time>2016-01-14T10:54:28.449Z</time>
      </trkpt>
      <trkpt lat="46.02798" lon="4.63186">
        <ele>396.978424072</ele>
        <time>2016-01-14T10:54:29.438Z</time>
      </trkpt>
      <trkpt lat="46.02807" lon="4.63186">
        <ele>396.487548828</ele>
        <time>2016-01-14T10:54:39.451Z</time>
      </trkpt>
      <trkpt lat="46.02808" lon="4.63186">
        <ele>396.367034912</ele>
        <time>2016-01-14T10:54:40.432Z</time>
      </trkpt>
      <trkpt lat="46.02816" lon="4.63185">
        <ele>395.806030273</ele>
        <time>2016-01-14T10:54:45.457Z</time>
      </trkpt>
      <trkpt lat="46.02818" lon="4.63185">
        <ele>395.682739258</ele>
        <time>2016-01-14T10:54:46.44Z</time>
      </trkpt>
      <trkpt lat="46.02826" lon="4.63185">
        <ele>395.127441406</ele>
        <time>2016-01-14T10:54:54.448Z</time>
      </trkpt>
      <trkpt lat="46.02828" lon="4.63185">
        <ele>395.151580811</ele>
        <time>2016-01-14T10:54:55.437Z</time>
      </trkpt>
      <trkpt lat="46.02837" lon="4.63183">
        <ele>395.22543335</ele>
        <time>2016-01-14T10:55:01.447Z</time>
      </trkpt>
      <trkpt lat="46.02838" lon="4.63183">
        <ele>395.307647705</ele>
        <time>2016-01-14T10:55:02.432Z</time>
      </trkpt>
      <trkpt lat="46.02847" lon="4.63182">
        <ele>396.557525635</ele>
        <time>2016-01-14T10:55:10.447Z</time>
      </trkpt>
      <trkpt lat="46.02848" lon="4.63182">
        <ele>396.672515869</ele>
        <time>2016-01-14T10:55:11.435Z</time>
      </trkpt>
      <trkpt lat="46.02856" lon="4.63183">
        <ele>396.832214355</ele>
        <time>2016-01-14T10:55:16.482Z</time>
      </trkpt>
      <trkpt lat="46.02858" lon="4.63183">
        <ele>396.826324463</ele>
        <time>2016-01-14T10:55:17.436Z</time>
      </trkpt>
      <trkpt lat="46.02866" lon="4.63186">
        <ele>396.338989258</ele>
        <time>2016-01-14T10:55:22.455Z</time>
      </trkpt>
      <trkpt lat="46.02868" lon="4.63186">
        <ele>396.189941406</ele>
        <time>2016-01-14T10:55:23.436Z</time>
      </trkpt>
      <trkpt lat="46.02876" lon="4.6319">
        <ele>395.393310547</ele>
        <time>2016-01-14T10:55:29.46Z</time>
      </trkpt>
      <trkpt lat="46.02878" lon="4.63191">
        <ele>395.234710693</ele>
        <time>2016-01-14T10:55:30.437Z</time>
      </trkpt>
      <trkpt lat="46.02886" lon="4.63195">
        <ele>394.21005249</ele>
        <time>2016-01-14T10:55:37.492Z</time>
      </trkpt>
      <trkpt lat="46.02887" lon="4.63195">
        <ele>394.128417969</ele>
        <time>2016-01-14T10:55:38.444Z</time>
      </trkpt>
      <trkpt lat="46.02894" lon="4.63201">
        <ele>393.623840332</ele>
        <time>2016-01-14T10:55:46.524Z</time>
      </trkpt>
      <trkpt lat="46.02895" lon="4.63202">
        <ele>393.545928955</ele>
        <time>2016-01-14T10:55:47.446Z</time>
      </trkpt>
      <trkpt lat="46.02902" lon="4.63209">
        <ele>392.967987061</ele>
        <time>2016-01-14T10:55:54.578Z</time>
      </trkpt>
      <trkpt lat="46.02903" lon="4.6321">
        <ele>392.932342529</ele>
        <time>2016-01-14T10:55:55.452Z</time>
      </trkpt>
      <trkpt lat="46.02909" lon="4.63219">
        <ele>392.810241699</ele>
        <time>2016-01-14T10:56:02.492Z</time>
      </trkpt>
      <trkpt lat="46.0291" lon="4.63221">
        <ele>392.789916992</ele>
        <time>2016-01-14T10:56:03.438Z</time>
      </trkpt>
      <trkpt lat="46.02915" lon="4.6323">
        <ele>392.69241333</ele>
        <time>2016-01-14T10:56:10.456Z</time>
      </trkpt>
      <trkpt lat="46.02916" lon="4.63232">
        <ele>392.723052979</ele>
        <time>2016-01-14T10:56:11.439Z</time>
      </trkpt>
      <trkpt lat="46.02922" lon="4.63242">
        <ele>392.855682373</ele>
        <time>2016-01-14T10:56:18.464Z</time>
      </trkpt>
      <trkpt lat="46.02922" lon="4.63243">
        <ele>392.870452881</ele>
        <time>2016-01-14T10:56:19.449Z</time>
      </trkpt>
      <trkpt lat="46.02927" lon="4.63252">
        <ele>392.919281006</ele>
        <time>2016-01-14T10:56:25.457Z</time>
      </trkpt>
      <trkpt lat="46.02928" lon="4.63254">
        <ele>392.978118896</ele>
        <time>2016-01-14T10:56:26.439Z</time>
      </trkpt>
      <trkpt lat="46.02932" lon="4.63262">
        <ele>393.093078613</ele>
        <time>2016-01-14T10:56:32.456Z</time>
      </trkpt>
      <trkpt lat="46.02933" lon="4.63264">
        <ele>393.137573242</ele>
        <time>2016-01-14T10:56:33.44Z</time>
      </trkpt>
      <trkpt lat="46.02938" lon="4.63274">
        <ele>393.607177734</ele>
        <time>2016-01-14T10:56:40.473Z</time>
      </trkpt>
      <trkpt lat="46.02939" lon="4.63276">
        <ele>393.654724121</ele>
        <time>2016-01-14T10:56:41.425Z</time>
      </trkpt>
      <trkpt lat="46.02944" lon="4.63286">
        <ele>393.923370361</ele>
        <time>2016-01-14T10:56:47.459Z</time>
      </trkpt>
      <trkpt lat="46.02944" lon="4.63287">
        <ele>393.971893311</ele>
        <time>2016-01-14T10:56:48.45Z</time>
      </trkpt>
      <trkpt lat="46.02949" lon="4.63298">
        <ele>394.481964111</ele>
        <time>2016-01-14T10:56:55.475Z</time>
      </trkpt>
      <trkpt lat="46.0295" lon="4.633">
        <ele>394.469696045</ele>
        <time>2016-01-14T10:56:56.441Z</time>
      </trkpt>
      <trkpt lat="46.02954" lon="4.63309">
        <ele>394.689941406</ele>
        <time>2016-01-14T10:57:02.475Z</time>
      </trkpt>
      <trkpt lat="46.02955" lon="4.63311">
        <ele>394.743408203</ele>
        <time>2016-01-14T10:57:03.502Z</time>
      </trkpt>
      <trkpt lat="46.02959" lon="4.6332">
        <ele>395.010192871</ele>
        <time>2016-01-14T10:57:09.59Z</time>
      </trkpt>
      <trkpt lat="46.0296" lon="4.63322">
        <ele>395.072875977</ele>
        <time>2016-01-14T10:57:10.453Z</time>
      </trkpt>
      <trkpt lat="46.02965" lon="4.63331">
        <ele>395.450317383</ele>
        <time>2016-01-14T10:57:16.481Z</time>
      </trkpt>
      <trkpt lat="46.02966" lon="4.63332">
        <ele>395.543914795</ele>
        <time>2016-01-14T10:57:17.441Z</time>
      </trkpt>
      <trkpt lat="46.0297" lon="4.63341">
        <ele>395.971618652</ele>
        <time>2016-01-14T10:57:23.478Z</time>
      </trkpt>
      <trkpt lat="46.02971" lon="4.63343">
        <ele>396.04800415</ele>
        <time>2016-01-14T10:57:24.455Z</time>
      </trkpt>
      <trkpt lat="46.02975" lon="4.63353">
        <ele>396.424102783</ele>
        <time>2016-01-14T10:57:30.483Z</time>
      </trkpt>
      <trkpt lat="46.02976" lon="4.63354">
        <ele>396.43850708</ele>
        <time>2016-01-14T10:57:31.454Z</time>
      </trkpt>
      <trkpt lat="46.0298" lon="4.63362">
        <ele>396.656951904</ele>
        <time>2016-01-14T10:57:35.457Z</time>
      </trkpt>
      <trkpt lat="46.02981" lon="4.63364">
        <ele>396.748443604</ele>
        <time>2016-01-14T10:57:36.445Z</time>
      </trkpt>
      <trkpt lat="46.02986" lon="4.63373">
        <ele>397.153198242</ele>
        <time>2016-01-14T10:57:41.486Z</time>
      </trkpt>
      <trkpt lat="46.02988" lon="4.63374">
        <ele>397.205169678</ele>
        <time>2016-01-14T10:57:42.457Z</time>
      </trkpt>
      <trkpt lat="46.02992" lon="4.63385">
        <ele>397.4269104</ele>
        <time>2016-01-14T10:57:48.441Z</time>
      </trkpt>
      <trkpt lat="46.02993" lon="4.63386">
        <ele>397.454803467</ele>
        <time>2016-01-14T10:57:49.442Z</time>
      </trkpt>
      <trkpt lat="46.02998" lon="4.63395">
        <ele>397.739318848</ele>
        <time>2016-01-14T10:57:56.486Z</time>
      </trkpt>
      <trkpt lat="46.02999" lon="4.63397">
        <ele>397.784057617</ele>
        <time>2016-01-14T10:57:57.443Z</time>
      </trkpt>
      <trkpt lat="46.03004" lon="4.63405">
        <ele>398.052642822</ele>
        <time>2016-01-14T10:58:03.466Z</time>
      </trkpt>
      <trkpt lat="46.03005" lon="4.63407">
        <ele>398.12310791</ele>
        <time>2016-01-14T10:58:04.437Z</time>
      </trkpt>
      <trkpt lat="46.0301" lon="4.63418">
        <ele>398.596221924</ele>
        <time>2016-01-14T10:58:11.483Z</time>
      </trkpt>
      <trkpt lat="46.0301" lon="4.63419">
        <ele>398.671722412</ele>
        <time>2016-01-14T10:58:12.444Z</time>
      </trkpt>
      <trkpt lat="46.03016" lon="4.63428">
        <ele>399.205963135</ele>
        <time>2016-01-14T10:58:19.466Z</time>
      </trkpt>
      <trkpt lat="46.03017" lon="4.6343">
        <ele>399.297058105</ele>
        <time>2016-01-14T10:58:20.436Z</time>
      </trkpt>
      <trkpt lat="46.03021" lon="4.6344">
        <ele>399.828979492</ele>
        <time>2016-01-14T10:58:27.48Z</time>
      </trkpt>
      <trkpt lat="46.03022" lon="4.63441">
        <ele>399.902557373</ele>
        <time>2016-01-14T10:58:28.433Z</time>
      </trkpt>
      <trkpt lat="46.03027" lon="4.63449">
        <ele>400.407073975</ele>
        <time>2016-01-14T10:58:34.451Z</time>
      </trkpt>
      <trkpt lat="46.03028" lon="4.63451">
        <ele>400.46862793</ele>
        <time>2016-01-14T10:58:35.448Z</time>
      </trkpt>
      <trkpt lat="46.03033" lon="4.6346">
        <ele>400.800964355</ele>
        <time>2016-01-14T10:58:41.465Z</time>
      </trkpt>
      <trkpt lat="46.03033" lon="4.63462">
        <ele>400.833221436</ele>
        <time>2016-01-14T10:58:42.437Z</time>
      </trkpt>
      <trkpt lat="46.03036" lon="4.63473">
        <ele>400.982696533</ele>
        <time>2016-01-14T10:58:48.447Z</time>
      </trkpt>
      <trkpt lat="46.03036" lon="4.63475">
        <ele>401.025268555</ele>
        <time>2016-01-14T10:58:49.436Z</time>
      </trkpt>
      <trkpt lat="46.03038" lon="4.63488">
        <ele>401.238555908</ele>
        <time>2016-01-14T10:58:57.458Z</time>
      </trkpt>
      <trkpt lat="46.03038" lon="4.6349">
        <ele>401.240753174</ele>
        <time>2016-01-14T10:58:58.454Z</time>
      </trkpt>
      <trkpt lat="46.0304" lon="4.63501">
        <ele>401.414672852</ele>
        <time>2016-01-14T10:59:04.465Z</time>
      </trkpt>
      <trkpt lat="46.0304" lon="4.63503">
        <ele>401.422790527</ele>
        <time>2016-01-14T10:59:05.434Z</time>
      </trkpt>
      <trkpt lat="46.03041" lon="4.63514">
        <ele>401.315307617</ele>
        <time>2016-01-14T10:59:10.449Z</time>
      </trkpt>
      <trkpt lat="46.03041" lon="4.63517">
        <ele>401.306243896</ele>
        <time>2016-01-14T10:59:11.435Z</time>
      </trkpt>
      <trkpt lat="46.03043" lon="4.63529">
        <ele>401.314910889</ele>
        <time>2016-01-14T10:59:17.512Z</time>
      </trkpt>
      <trkpt lat="46.03044" lon="4.63531">
        <ele>401.302124023</ele>
        <time>2016-01-14T10:59:18.439Z</time>
      </trkpt>
      <trkpt lat="46.03045" lon="4.63542">
        <ele>401.264282227</ele>
        <time>2016-01-14T10:59:24.448Z</time>
      </trkpt>
      <trkpt lat="46.03046" lon="4.63544">
        <ele>401.273010254</ele>
        <time>2016-01-14T10:59:25.438Z</time>
      </trkpt>
      <trkpt lat="46.03047" lon="4.63557">
        <ele>401.469848633</ele>
        <time>2016-01-14T10:59:33.451Z</time>
      </trkpt>
      <trkpt lat="46.03047" lon="4.63559">
        <ele>401.475769043</ele>
        <time>2016-01-14T10:59:34.437Z</time>
      </trkpt>
      <trkpt lat="46.03048" lon="4.63571">
        <ele>401.559143066</ele>
        <time>2016-01-14T10:59:40.45Z</time>
      </trkpt>
      <trkpt lat="46.03049" lon="4.63573">
        <ele>401.568603516</ele>
        <time>2016-01-14T10:59:41.435Z</time>
      </trkpt>
      <trkpt lat="46.0305" lon="4.63585">
        <ele>401.514068604</ele>
        <time>2016-01-14T10:59:46.543Z</time>
      </trkpt>
      <trkpt lat="46.0305" lon="4.63586">
        <ele>401.496185303</ele>
        <time>2016-01-14T10:59:47.43Z</time>
      </trkpt>
      <trkpt lat="46.03052" lon="4.63598">
        <ele>401.432556152</ele>
        <time>2016-01-14T10:59:53.45Z</time>
      </trkpt>
      <trkpt lat="46.03052" lon="4.636">
        <ele>401.415985107</ele>
        <time>2016-01-14T10:59:54.441Z</time>
      </trkpt>
      <trkpt lat="46.03054" lon="4.63613">
        <ele>401.206298828</ele>
        <time>2016-01-14T11:00:01.449Z</time>
      </trkpt>
      <trkpt lat="46.03054" lon="4.63614">
        <ele>401.195007324</ele>
        <time>2016-01-14T11:00:02.435Z</time>
      </trkpt>
      <trkpt lat="46.03056" lon="4.63626">
        <ele>401.069519043</ele>
        <time>2016-01-14T11:00:08.452Z</time>
      </trkpt>
      <trkpt lat="46.03056" lon="4.63628">
        <ele>401.046813965</ele>
        <time>2016-01-14T11:00:09.431Z</time>
      </trkpt>
      <trkpt lat="46.03057" lon="4.6364">
        <ele>400.950500488</ele>
        <time>2016-01-14T11:00:17.46Z</time>
      </trkpt>
      <trkpt lat="46.03057" lon="4.63643">
        <ele>400.91583252</ele>
        <time>2016-01-14T11:00:18.445Z</time>
      </trkpt>
      <trkpt lat="46.03059" lon="4.63655">
        <ele>400.871429443</ele>
        <time>2016-01-14T11:00:25.459Z</time>
      </trkpt>
      <trkpt lat="46.03059" lon="4.63658">
        <ele>400.865570068</ele>
        <time>2016-01-14T11:00:26.444Z</time>
      </trkpt>
      <trkpt lat="46.03061" lon="4.6367">
        <ele>400.729980469</ele>
        <time>2016-01-14T11:00:34.562Z</time>
      </trkpt>
      <trkpt lat="46.03061" lon="4.63671">
        <ele>400.728668213</ele>
        <time>2016-01-14T11:00:35.444Z</time>
      </trkpt>
      <trkpt lat="46.03064" lon="4.63683">
        <ele>400.620361328</ele>
        <time>2016-01-14T11:00:43.459Z</time>
      </trkpt>
      <trkpt lat="46.03064" lon="4.63685">
        <ele>400.602722168</ele>
        <time>2016-01-14T11:00:44.444Z</time>
      </trkpt>
      <trkpt lat="46.03066" lon="4.63695">
        <ele>400.509735107</ele>
        <time>2016-01-14T11:00:49.49Z</time>
      </trkpt>
      <trkpt lat="46.03066" lon="4.63698">
        <ele>400.489837646</ele>
        <time>2016-01-14T11:00:50.444Z</time>
      </trkpt>
      <trkpt lat="46.03068" lon="4.6371">
        <ele>400.259002686</ele>
        <time>2016-01-14T11:00:58.49Z</time>
      </trkpt>
      <trkpt lat="46.03068" lon="4.63712">
        <ele>400.219665527</ele>
        <time>2016-01-14T11:00:59.443Z</time>
      </trkpt>
      <trkpt lat="46.0307" lon="4.63723">
        <ele>399.96307373</ele>
        <time>2016-01-14T11:01:05.465Z</time>
      </trkpt>
      <trkpt lat="46.03071" lon="4.63725">
        <ele>399.917388916</ele>
        <time>2016-01-14T11:01:06.444Z</time>
      </trkpt>
      <trkpt lat="46.03074" lon="4.63736">
        <ele>399.804199219</ele>
        <time>2016-01-14T11:01:13.456Z</time>
      </trkpt>
      <trkpt lat="46.03075" lon="4.63739">
        <ele>399.789764404</ele>
        <time>2016-01-14T11:01:14.459Z</time>
      </trkpt>
      <trkpt lat="46.03077" lon="4.63751">
        <ele>399.429107666</ele>
        <time>2016-01-14T11:01:21.459Z</time>
      </trkpt>
      <trkpt lat="46.03077" lon="4.63752">
        <ele>399.397644043</ele>
        <time>2016-01-14T11:01:22.445Z</time>
      </trkpt>
      <trkpt lat="46.03076" lon="4.63764">
        <ele>399.012237549</ele>
        <time>2016-01-14T11:02:05.457Z</time>
      </trkpt>
      <trkpt lat="46.03075" lon="4.63765">
        <ele>398.98526001</ele>
        <time>2016-01-14T11:02:06.442Z</time>
      </trkpt>
      <trkpt lat="46.0307" lon="4.63775">
        <ele>398.820678711</ele>
        <time>2016-01-14T11:02:12.471Z</time>
      </trkpt>
      <trkpt lat="46.03069" lon="4.63776">
        <ele>398.809295654</ele>
        <time>2016-01-14T11:02:13.454Z</time>
      </trkpt>
      <trkpt lat="46.03063" lon="4.63785">
        <ele>398.749084473</ele>
        <time>2016-01-14T11:02:20.459Z</time>
      </trkpt>
      <trkpt lat="46.03062" lon="4.63785">
        <ele>398.785400391</ele>
        <time>2016-01-14T11:02:21.442Z</time>
      </trkpt>
      <trkpt lat="46.03055" lon="4.63794">
        <ele>398.822021484</ele>
        <time>2016-01-14T11:02:27.502Z</time>
      </trkpt>
      <trkpt lat="46.03054" lon="4.63795">
        <ele>398.827667236</ele>
        <time>2016-01-14T11:02:28.454Z</time>
      </trkpt>
      <trkpt lat="46.0305" lon="4.63805">
        <ele>399.263824463</ele>
        <time>2016-01-14T11:02:35.509Z</time>
      </trkpt>
      <trkpt lat="46.03048" lon="4.63806">
        <ele>399.305328369</ele>
        <time>2016-01-14T11:02:36.443Z</time>
      </trkpt>
      <trkpt lat="46.03041" lon="4.63813">
        <ele>399.513305664</ele>
        <time>2016-01-14T11:02:42.461Z</time>
      </trkpt>
      <trkpt lat="46.0304" lon="4.63815">
        <ele>399.565887451</ele>
        <time>2016-01-14T11:02:43.442Z</time>
      </trkpt>
      <trkpt lat="46.03034" lon="4.63822">
        <ele>399.872802734</ele>
        <time>2016-01-14T11:02:49.46Z</time>
      </trkpt>
      <trkpt lat="46.03033" lon="4.63824">
        <ele>399.946258545</ele>
        <time>2016-01-14T11:02:50.45Z</time>
      </trkpt>
      <trkpt lat="46.03028" lon="4.63832">
        <ele>400.360626221</ele>
        <time>2016-01-14T11:02:57.464Z</time>
      </trkpt>
      <trkpt lat="46.03027" lon="4.63834">
        <ele>400.383880615</ele>
        <time>2016-01-14T11:02:58.448Z</time>
      </trkpt>
      <trkpt lat="46.03021" lon="4.63843">
        <ele>400.479980469</ele>
        <time>2016-01-14T11:03:04.492Z</time>
      </trkpt>
      <trkpt lat="46.0302" lon="4.63844">
        <ele>400.487091064</ele>
        <time>2016-01-14T11:03:05.449Z</time>
      </trkpt>
      <trkpt lat="46.03015" lon="4.63854">
        <ele>400.495635986</ele>
        <time>2016-01-14T11:03:11.472Z</time>
      </trkpt>
      <trkpt lat="46.03015" lon="4.63855">
        <ele>400.500701904</ele>
        <time>2016-01-14T11:03:12.458Z</time>
      </trkpt>
      <trkpt lat="46.0301" lon="4.63866">
        <ele>400.367584229</ele>
        <time>2016-01-14T11:03:18.47Z</time>
      </trkpt>
      <trkpt lat="46.0301" lon="4.63867">
        <ele>400.337127686</ele>
        <time>2016-01-14T11:03:19.449Z</time>
      </trkpt>
      <trkpt lat="46.03005" lon="4.63878">
        <ele>400.273101807</ele>
        <time>2016-01-14T11:03:26.472Z</time>
      </trkpt>
      <trkpt lat="46.03005" lon="4.63879">
        <ele>400.25112915</ele>
        <time>2016-01-14T11:03:27.458Z</time>
      </trkpt>
      <trkpt lat="46.03001" lon="4.6389">
        <ele>400.092834473</ele>
        <time>2016-01-14T11:03:33.477Z</time>
      </trkpt>
      <trkpt lat="46.03" lon="4.63892">
        <ele>400.060882568</ele>
        <time>2016-01-14T11:03:34.445Z</time>
      </trkpt>
      <trkpt lat="46.02997" lon="4.63903">
        <ele>399.706207275</ele>
        <time>2016-01-14T11:03:40.45Z</time>
      </trkpt>
      <trkpt lat="46.02997" lon="4.63904">
        <ele>399.657928467</ele>
        <time>2016-01-14T11:03:41.467Z</time>
      </trkpt>
      <trkpt lat="46.02995" lon="4.63916">
        <ele>399.561187744</ele>
        <time>2016-01-14T11:03:49.465Z</time>
      </trkpt>
      <trkpt lat="46.02994" lon="4.63917">
        <ele>399.530273438</ele>
        <time>2016-01-14T11:03:50.436Z</time>
      </trkpt>
      <trkpt lat="46.02993" lon="4.63928">
        <ele>399.12310791</ele>
        <time>2016-01-14T11:03:57.498Z</time>
      </trkpt>
      <trkpt lat="46.02992" lon="4.63931">
        <ele>399.064971924</ele>
        <time>2016-01-14T11:03:58.429Z</time>
      </trkpt>
      <trkpt lat="46.0299" lon="4.63942">
        <ele>398.812194824</ele>
        <time>2016-01-14T11:04:06.447Z</time>
      </trkpt>
      <trkpt lat="46.02989" lon="4.63945">
        <ele>398.79876709</ele>
        <time>2016-01-14T11:04:07.434Z</time>
      </trkpt>
      <trkpt lat="46.02987" lon="4.63955">
        <ele>398.661804199</ele>
        <time>2016-01-14T11:04:13.454Z</time>
      </trkpt>
      <trkpt lat="46.02987" lon="4.63958">
        <ele>398.618041992</ele>
        <time>2016-01-14T11:04:14.444Z</time>
      </trkpt>
      <trkpt lat="46.02986" lon="4.6397">
        <ele>398.229736328</ele>
        <time>2016-01-14T11:04:21.458Z</time>
      </trkpt>
      <trkpt lat="46.02986" lon="4.63971">
        <ele>398.21786499</ele>
        <time>2016-01-14T11:04:22.447Z</time>
      </trkpt>
      <trkpt lat="46.02981" lon="4.6398">
        <ele>397.877563477</ele>
        <time>2016-01-14T11:04:29.509Z</time>
      </trkpt>
      <trkpt lat="46.0298" lon="4.63982">
        <ele>397.857208252</ele>
        <time>2016-01-14T11:04:30.439Z</time>
      </trkpt>
      <trkpt lat="46.02976" lon="4.63992">
        <ele>397.86138916</ele>
        <time>2016-01-14T11:04:38.509Z</time>
      </trkpt>
      <trkpt lat="46.02976" lon="4.63993">
        <ele>397.869689941</ele>
        <time>2016-01-14T11:04:39.445Z</time>
      </trkpt>
      <trkpt lat="46.02971" lon="4.64004">
        <ele>397.969909668</ele>
        <time>2016-01-14T11:04:50.458Z</time>
      </trkpt>
      <trkpt lat="46.0297" lon="4.64006">
        <ele>397.959442139</ele>
        <time>2016-01-14T11:04:51.444Z</time>
      </trkpt>
      <trkpt lat="46.02967" lon="4.64016">
        <ele>397.88168335</ele>
        <time>2016-01-14T11:04:58.466Z</time>
      </trkpt>
      <trkpt lat="46.02967" lon="4.64019">
        <ele>397.84954834</ele>
        <time>2016-01-14T11:04:59.444Z</time>
      </trkpt>
      <trkpt lat="46.02964" lon="4.6403">
        <ele>397.67364502</ele>
        <time>2016-01-14T11:05:06.493Z</time>
      </trkpt>
      <trkpt lat="46.02963" lon="4.64033">
        <ele>397.660400391</ele>
        <time>2016-01-14T11:05:07.444Z</time>
      </trkpt>
      <trkpt lat="46.02961" lon="4.64044">
        <ele>397.477539062</ele>
        <time>2016-01-14T11:05:15.518Z</time>
      </trkpt>
      <trkpt lat="46.02961" lon="4.64046">
        <ele>397.420196533</ele>
        <time>2016-01-14T11:05:16.444Z</time>
      </trkpt>
      <trkpt lat="46.02958" lon="4.64056">
        <ele>397.132171631</ele>
        <time>2016-01-14T11:05:24.469Z</time>
      </trkpt>
      <trkpt lat="46.02958" lon="4.64058">
        <ele>397.08190918</ele>
        <time>2016-01-14T11:05:25.467Z</time>
      </trkpt>
      <trkpt lat="46.02956" lon="4.64071">
        <ele>396.770751953</ele>
        <time>2016-01-14T11:05:33.46Z</time>
      </trkpt>
      <trkpt lat="46.02955" lon="4.64072">
        <ele>396.739929199</ele>
        <time>2016-01-14T11:05:34.436Z</time>
      </trkpt>
      <trkpt lat="46.02954" lon="4.64084">
        <ele>396.530059814</ele>
        <time>2016-01-14T11:05:41.474Z</time>
      </trkpt>
      <trkpt lat="46.02954" lon="4.64086">
        <ele>396.509277344</ele>
        <time>2016-01-14T11:05:42.435Z</time>
      </trkpt>
      <trkpt lat="46.02952" lon="4.64099">
        <ele>396.254241943</ele>
        <time>2016-01-14T11:05:50.455Z</time>
      </trkpt>
      <trkpt lat="46.02951" lon="4.641">
        <ele>396.18069458</ele>
        <time>2016-01-14T11:05:51.446Z</time>
      </trkpt>
      <trkpt lat="46.02949" lon="4.64111">
        <ele>395.646911621</ele>
        <time>2016-01-14T11:05:59.456Z</time>
      </trkpt>
      <trkpt lat="46.02949" lon="4.64113">
        <ele>395.607727051</ele>
        <time>2016-01-14T11:06:00.457Z</time>
      </trkpt>
      <trkpt lat="46.02946" lon="4.64124">
        <ele>395.032501221</ele>
        <time>2016-01-14T11:06:06.457Z</time>
      </trkpt>
      <trkpt lat="46.02946" lon="4.64126">
        <ele>394.924987793</ele>
        <time>2016-01-14T11:06:07.447Z</time>
      </trkpt>
      <trkpt lat="46.02945" lon="4.64138">
        <ele>393.903717041</ele>
        <time>2016-01-14T11:06:16.489Z</time>
      </trkpt>
      <trkpt lat="46.02944" lon="4.6414">
        <ele>393.817687988</ele>
        <time>2016-01-14T11:06:17.445Z</time>
      </trkpt>
      <trkpt lat="46.02941" lon="4.64152">
        <ele>393.236175537</ele>
        <time>2016-01-14T11:06:25.457Z</time>
      </trkpt>
      <trkpt lat="46.02941" lon="4.64154">
        <ele>393.202575684</ele>
        <time>2016-01-14T11:06:26.446Z</time>
      </trkpt>
      <trkpt lat="46.0294" lon="4.64166">
        <ele>392.626159668</ele>
        <time>2016-01-14T11:06:34.456Z</time>
      </trkpt>
      <trkpt lat="46.0294" lon="4.64167">
        <ele>392.553649902</ele>
        <time>2016-01-14T11:06:35.44Z</time>
      </trkpt>
      <trkpt lat="46.02938" lon="4.64179">
        <ele>392.148162842</ele>
        <time>2016-01-14T11:06:42.47Z</time>
      </trkpt>
      <trkpt lat="46.02939" lon="4.64181">
        <ele>392.124969482</ele>
        <time>2016-01-14T11:06:43.445Z</time>
      </trkpt>
      <trkpt lat="46.0294" lon="4.64193">
        <ele>391.498474121</ele>
        <time>2016-01-14T11:06:49.569Z</time>
      </trkpt>
      <trkpt lat="46.02941" lon="4.64194">
        <ele>391.378051758</ele>
        <time>2016-01-14T11:06:50.448Z</time>
      </trkpt>
      <trkpt lat="46.02949" lon="4.64193">
        <ele>390.293182373</ele>
        <time>2016-01-14T11:06:57.462Z</time>
      </trkpt>
      <trkpt lat="46.0295" lon="4.64193">
        <ele>390.166046143</ele>
        <time>2016-01-14T11:06:58.467Z</time>
      </trkpt>
      <trkpt lat="46.02958" lon="4.64191">
        <ele>389.443847656</ele>
        <time>2016-01-14T11:07:04.473Z</time>
      </trkpt>
      <trkpt lat="46.02959" lon="4.6419">
        <ele>389.298919678</ele>
        <time>2016-01-14T11:07:05.444Z</time>
      </trkpt>
      <trkpt lat="46.02967" lon="4.64186">
        <ele>388.53137207</ele>
        <time>2016-01-14T11:07:12.457Z</time>
      </trkpt>
      <trkpt lat="46.02969" lon="4.64185">
        <ele>388.401611328</ele>
        <time>2016-01-14T11:07:13.448Z</time>
      </trkpt>
      <trkpt lat="46.02976" lon="4.64182">
        <ele>387.666748047</ele>
        <time>2016-01-14T11:07:18.457Z</time>
      </trkpt>
      <trkpt lat="46.02977" lon="4.64181">
        <ele>387.539245605</ele>
        <time>2016-01-14T11:07:19.453Z</time>
      </trkpt>
      <trkpt lat="46.02986" lon="4.64179">
        <ele>386.590423584</ele>
        <time>2016-01-14T11:07:26.495Z</time>
      </trkpt>
      <trkpt lat="46.02987" lon="4.64179">
        <ele>386.499664307</ele>
        <time>2016-01-14T11:07:27.446Z</time>
      </trkpt>
      <trkpt lat="46.02996" lon="4.64177">
        <ele>385.702941895</ele>
        <time>2016-01-14T11:07:33.465Z</time>
      </trkpt>
      <trkpt lat="46.02997" lon="4.64178">
        <ele>385.591491699</ele>
        <time>2016-01-14T11:07:34.454Z</time>
      </trkpt>
      <trkpt lat="46.03002" lon="4.64185">
        <ele>384.938842773</ele>
        <time>2016-01-14T11:07:41.46Z</time>
      </trkpt>
      <trkpt lat="46.03003" lon="4.64187">
        <ele>384.820648193</ele>
        <time>2016-01-14T11:07:42.459Z</time>
      </trkpt>
      <trkpt lat="46.03005" lon="4.64198">
        <ele>384.266815186</ele>
        <time>2016-01-14T11:07:50.469Z</time>
      </trkpt>
      <trkpt lat="46.03005" lon="4.642">
        <ele>384.192657471</ele>
        <time>2016-01-14T11:07:51.445Z</time>
      </trkpt>
      <trkpt lat="46.03005" lon="4.64211">
        <ele>383.795806885</ele>
        <time>2016-01-14T11:07:58.46Z</time>
      </trkpt>
      <trkpt lat="46.03005" lon="4.64214">
        <ele>383.742492676</ele>
        <time>2016-01-14T11:07:59.443Z</time>
      </trkpt>
      <trkpt lat="46.03005" lon="4.64225">
        <ele>383.469543457</ele>
        <time>2016-01-14T11:08:05.459Z</time>
      </trkpt>
      <trkpt lat="46.03006" lon="4.64227">
        <ele>383.377593994</ele>
        <time>2016-01-14T11:08:06.45Z</time>
      </trkpt>
      <trkpt lat="46.0301" lon="4.64236">
        <ele>382.843536377</ele>
        <time>2016-01-14T11:08:11.468Z</time>
      </trkpt>
      <trkpt lat="46.03011" lon="4.64237">
        <ele>382.705078125</ele>
        <time>2016-01-14T11:08:12.464Z</time>
      </trkpt>
      <trkpt lat="46.0302" lon="4.64242">
        <ele>381.720214844</ele>
        <time>2016-01-14T11:08:19.474Z</time>
      </trkpt>
      <trkpt lat="46.03021" lon="4.64242">
        <ele>381.596557617</ele>
        <time>2016-01-14T11:08:20.447Z</time>
      </trkpt>
      <trkpt lat="46.03029" lon="4.64239">
        <ele>380.673797607</ele>
        <time>2016-01-14T11:08:26.476Z</time>
      </trkpt>
      <trkpt lat="46.0303" lon="4.64239">
        <ele>380.522705078</ele>
        <time>2016-01-14T11:08:27.448Z</time>
      </trkpt>
      <trkpt lat="46.03039" lon="4.64237">
        <ele>379.553924561</ele>
        <time>2016-01-14T11:08:33.462Z</time>
      </trkpt>
      <trkpt lat="46.0304" lon="4.64237">
        <ele>379.419891357</ele>
        <time>2016-01-14T11:08:34.445Z</time>
      </trkpt>
      <trkpt lat="46.03048" lon="4.64235">
        <ele>378.835235596</ele>
        <time>2016-01-14T11:08:40.468Z</time>
      </trkpt>
      <trkpt lat="46.03049" lon="4.64236">
        <ele>378.788574219</ele>
        <time>2016-01-14T11:08:41.449Z</time>
      </trkpt>
      <trkpt lat="46.03058" lon="4.64235">
        <ele>378.587371826</ele>
        <time>2016-01-14T11:08:47.507Z</time>
      </trkpt>
      <trkpt lat="46.03059" lon="4.64234">
        <ele>378.485595703</ele>
        <time>2016-01-14T11:08:48.455Z</time>
      </trkpt>
      <trkpt lat="46.03067" lon="4.64231">
        <ele>377.961853027</ele>
        <time>2016-01-14T11:08:55.46Z</time>
      </trkpt>
      <trkpt lat="46.03068" lon="4.64231">
        <ele>377.937042236</ele>
        <time>2016-01-14T11:08:56.446Z</time>
      </trkpt>
      <trkpt lat="46.03076" lon="4.64229">
        <ele>377.478729248</ele>
        <time>2016-01-14T11:09:02.458Z</time>
      </trkpt>
      <trkpt lat="46.03078" lon="4.64229">
        <ele>377.35256958</ele>
        <time>2016-01-14T11:09:03.445Z</time>
      </trkpt>
      <trkpt lat="46.03086" lon="4.64227">
        <ele>376.648345947</ele>
        <time>2016-01-14T11:09:09.473Z</time>
      </trkpt>
      <trkpt lat="46.03087" lon="4.64226">
        <ele>376.488891602</ele>
        <time>2016-01-14T11:09:10.447Z</time>
      </trkpt>
      <trkpt lat="46.03095" lon="4.64226">
        <ele>375.613739014</ele>
        <time>2016-01-14T11:09:16.513Z</time>
      </trkpt>
      <trkpt lat="46.03096" lon="4.64227">
        <ele>375.468170166</ele>
        <time>2016-01-14T11:09:17.445Z</time>
      </trkpt>
      <trkpt lat="46.03103" lon="4.64232">
        <ele>375.085754395</ele>
        <time>2016-01-14T11:09:25.495Z</time>
      </trkpt>
      <trkpt lat="46.03105" lon="4.64232">
        <ele>375.074188232</ele>
        <time>2016-01-14T11:09:26.446Z</time>
      </trkpt>
      <trkpt lat="46.03112" lon="4.64237">
        <ele>374.999053955</ele>
        <time>2016-01-14T11:09:32.469Z</time>
      </trkpt>
      <trkpt lat="46.03113" lon="4.64238">
        <ele>374.951599121</ele>
        <time>2016-01-14T11:09:33.453Z</time>
      </trkpt>
      <trkpt lat="46.03119" lon="4.64246">
        <ele>374.535858154</ele>
        <time>2016-01-14T11:09:39.457Z</time>
      </trkpt>
      <trkpt lat="46.0312" lon="4.64247">
        <ele>374.42791748</ele>
        <time>2016-01-14T11:09:40.445Z</time>
      </trkpt>
      <trkpt lat="46.03123" lon="4.64259">
        <ele>373.329101562</ele>
        <time>2016-01-14T11:09:49.437Z</time>
      </trkpt>
      <trkpt lat="46.03122" lon="4.6426">
        <ele>373.260101318</ele>
        <time>2016-01-14T11:09:50.453Z</time>
      </trkpt>
      <trkpt lat="46.03119" lon="4.6427">
        <ele>372.732116699</ele>
        <time>2016-01-14T11:09:57.447Z</time>
      </trkpt>
      <trkpt lat="46.03119" lon="4.64272">
        <ele>372.647705078</ele>
        <time>2016-01-14T11:09:58.435Z</time>
      </trkpt>
      <trkpt lat="46.03117" lon="4.64284">
        <ele>372.503112793</ele>
        <time>2016-01-14T11:10:04.509Z</time>
      </trkpt>
      <trkpt lat="46.03117" lon="4.64285">
        <ele>372.519165039</ele>
        <time>2016-01-14T11:10:05.435Z</time>
      </trkpt>
      <trkpt lat="46.03113" lon="4.64297">
        <ele>372.605194092</ele>
        <time>2016-01-14T11:10:13.451Z</time>
      </trkpt>
      <trkpt lat="46.03113" lon="4.64298">
        <ele>372.678161621</ele>
        <time>2016-01-14T11:10:14.485Z</time>
      </trkpt>
      <trkpt lat="46.03105" lon="4.64304">
        <ele>372.811096191</ele>
        <time>2016-01-14T11:10:21.465Z</time>
      </trkpt>
      <trkpt lat="46.03104" lon="4.64305">
        <ele>372.79699707</ele>
        <time>2016-01-14T11:10:22.445Z</time>
      </trkpt>
      <trkpt lat="46.03097" lon="4.64313">
        <ele>372.388183594</ele>
        <time>2016-01-14T11:10:28.475Z</time>
      </trkpt>
      <trkpt lat="46.03096" lon="4.64314">
        <ele>372.297515869</ele>
        <time>2016-01-14T11:10:29.445Z</time>
      </trkpt>
      <trkpt lat="46.03089" lon="4.64321">
        <ele>371.84564209</ele>
        <time>2016-01-14T11:10:35.468Z</time>
      </trkpt>
      <trkpt lat="46.03088" lon="4.64321">
        <ele>371.816253662</ele>
        <time>2016-01-14T11:10:36.442Z</time>
      </trkpt>
      <trkpt lat="46.03082" lon="4.6433">
        <ele>372.015228271</ele>
        <time>2016-01-14T11:10:45.449Z</time>
      </trkpt>
      <trkpt lat="46.03081" lon="4.64332">
        <ele>371.937133789</ele>
        <time>2016-01-14T11:10:46.438Z</time>
      </trkpt>
      <trkpt lat="46.03077" lon="4.64341">
        <ele>371.415313721</ele>
        <time>2016-01-14T11:10:51.512Z</time>
      </trkpt>
      <trkpt lat="46.03077" lon="4.64343">
        <ele>371.333892822</ele>
        <time>2016-01-14T11:10:52.444Z</time>
      </trkpt>
      <trkpt lat="46.03075" lon="4.64355">
        <ele>369.628814697</ele>
        <time>2016-01-14T11:11:06.458Z</time>
      </trkpt>
      <trkpt lat="46.03075" lon="4.64357">
        <ele>369.493591309</ele>
        <time>2016-01-14T11:11:07.441Z</time>
      </trkpt>
      <trkpt lat="46.03069" lon="4.64367">
        <ele>368.389068604</ele>
        <time>2016-01-14T11:11:15.457Z</time>
      </trkpt>
      <trkpt lat="46.03069" lon="4.64368">
        <ele>368.205993652</ele>
        <time>2016-01-14T11:11:16.445Z</time>
      </trkpt>
      <trkpt lat="46.03069" lon="4.64381">
        <ele>366.906738281</ele>
        <time>2016-01-14T11:11:23.487Z</time>
      </trkpt>
      <trkpt lat="46.03069" lon="4.64383">
        <ele>366.704956055</ele>
        <time>2016-01-14T11:11:24.445Z</time>
      </trkpt>
      <trkpt lat="46.03069" lon="4.64395">
        <ele>365.515838623</ele>
        <time>2016-01-14T11:11:32.543Z</time>
      </trkpt>
      <trkpt lat="46.03068" lon="4.64397">
        <ele>365.41506958</ele>
        <time>2016-01-14T11:11:33.438Z</time>
      </trkpt>
      <trkpt lat="46.03068" lon="4.64408">
        <ele>365.084075928</ele>
        <time>2016-01-14T11:11:39.481Z</time>
      </trkpt>
      <trkpt lat="46.03069" lon="4.6441">
        <ele>365.101074219</ele>
        <time>2016-01-14T11:11:40.446Z</time>
      </trkpt>
      <trkpt lat="46.03074" lon="4.6442">
        <ele>364.526397705</ele>
        <time>2016-01-14T11:11:49.46Z</time>
      </trkpt>
      <trkpt lat="46.03074" lon="4.6442">
        <ele>364.481109619</ele>
        <time>2016-01-14T11:11:50.433Z</time>
      </trkpt>
      <trkpt lat="46.03081" lon="4.64427">
        <ele>364.758117676</ele>
        <time>2016-01-14T11:11:58.453Z</time>
      </trkpt>
      <trkpt lat="46.03082" lon="4.64427">
        <ele>364.782653809</ele>
        <time>2016-01-14T11:11:59.437Z</time>
      </trkpt>
      <trkpt lat="46.03091" lon="4.64427">
        <ele>365.326324463</ele>
        <time>2016-01-14T11:12:08.46Z</time>
      </trkpt>
      <trkpt lat="46.03091" lon="4.64428">
        <ele>365.407440186</ele>
        <time>2016-01-14T11:12:09.451Z</time>
      </trkpt>
      <trkpt lat="46.03099" lon="4.64431">
        <ele>364.984893799</ele>
        <time>2016-01-14T11:12:16.46Z</time>
      </trkpt>
      <trkpt lat="46.031" lon="4.64431">
        <ele>364.837677002</ele>
        <time>2016-01-14T11:12:17.451Z</time>
      </trkpt>
      <trkpt lat="46.03108" lon="4.64437">
        <ele>364.372680664</ele>
        <time>2016-01-14T11:12:25.46Z</time>
      </trkpt>
      <trkpt lat="46.03108" lon="4.64439">
        <ele>364.360961914</ele>
        <time>2016-01-14T11:12:26.44Z</time>
      </trkpt>
      <trkpt lat="46.03117" lon="4.64442">
        <ele>365.00289917</ele>
        <time>2016-01-14T11:13:18.475Z</time>
      </trkpt>
      <trkpt lat="46.03117" lon="4.64442">
        <ele>364.978881836</ele>
        <time>2016-01-14T11:13:19.441Z</time>
      </trkpt>
      <trkpt lat="46.03123" lon="4.64452">
        <ele>365.052825928</ele>
        <time>2016-01-14T11:15:47.458Z</time>
      </trkpt>
      <trkpt lat="46.03124" lon="4.64451">
        <ele>364.926452637</ele>
        <time>2016-01-14T11:15:48.427Z</time>
      </trkpt>
      <trkpt lat="46.03132" lon="4.6445">
        <ele>364.147918701</ele>
        <time>2016-01-14T11:15:55.446Z</time>
      </trkpt>
      <trkpt lat="46.03134" lon="4.6445">
        <ele>364.045257568</ele>
        <time>2016-01-14T11:15:56.439Z</time>
      </trkpt>
      <trkpt lat="46.03142" lon="4.6445">
        <ele>362.83493042</ele>
        <time>2016-01-14T11:16:09.452Z</time>
      </trkpt>
      <trkpt lat="46.03143" lon="4.6445">
        <ele>362.760253906</ele>
        <time>2016-01-14T11:16:10.451Z</time>
      </trkpt>
      <trkpt lat="46.03151" lon="4.64449">
        <ele>361.90536499</ele>
        <time>2016-01-14T11:16:18.473Z</time>
      </trkpt>
      <trkpt lat="46.03152" lon="4.64448">
        <ele>361.76739502</ele>
        <time>2016-01-14T11:16:19.464Z</time>
      </trkpt>
      <trkpt lat="46.03161" lon="4.64444">
        <ele>360.850494385</ele>
        <time>2016-01-14T11:16:27.462Z</time>
      </trkpt>
      <trkpt lat="46.03161" lon="4.64444">
        <ele>360.725250244</ele>
        <time>2016-01-14T11:16:28.459Z</time>
      </trkpt>
      <trkpt lat="46.03168" lon="4.64435">
        <ele>359.203918457</ele>
        <time>2016-01-14T11:16:53.48Z</time>
      </trkpt>
      <trkpt lat="46.03168" lon="4.64435">
        <ele>359.158935547</ele>
        <time>2016-01-14T11:16:54.437Z</time>
      </trkpt>
      <trkpt lat="46.03169" lon="4.64422">
        <ele>354.616333008</ele>
        <time>2016-01-14T11:17:40.462Z</time>
      </trkpt>
      <trkpt lat="46.03169" lon="4.6442">
        <ele>354.558746338</ele>
        <time>2016-01-14T11:17:41.423Z</time>
      </trkpt>
      <trkpt lat="46.03174" lon="4.6441">
        <ele>354.890899658</ele>
        <time>2016-01-14T11:17:50.472Z</time>
      </trkpt>
      <trkpt lat="46.03175" lon="4.64409">
        <ele>354.946563721</ele>
        <time>2016-01-14T11:17:51.445Z</time>
      </trkpt>
      <trkpt lat="46.03183" lon="4.64405">
        <ele>355.178863525</ele>
        <time>2016-01-14T11:17:59.48Z</time>
      </trkpt>
      <trkpt lat="46.03184" lon="4.64405">
        <ele>355.202270508</ele>
        <time>2016-01-14T11:18:00.448Z</time>
      </trkpt>
      <trkpt lat="46.03191" lon="4.64399">
        <ele>355.043945312</ele>
        <time>2016-01-14T11:18:07.59Z</time>
      </trkpt>
      <trkpt lat="46.03192" lon="4.64398">
        <ele>355.027130127</ele>
        <time>2016-01-14T11:18:08.441Z</time>
      </trkpt>
      <trkpt lat="46.032" lon="4.64395">
        <ele>358.178894043</ele>
        <time>2016-01-14T11:27:17.464Z</time>
      </trkpt>
      <trkpt lat="46.03201" lon="4.64395">
        <ele>358.187713623</ele>
        <time>2016-01-14T11:27:18.432Z</time>
      </trkpt>
      <trkpt lat="46.03192" lon="4.64396">
        <ele>361.178955078</ele>
        <time>2016-01-14T11:45:58.459Z</time>
      </trkpt>
      <trkpt lat="46.03191" lon="4.64396">
        <ele>361.276733398</ele>
        <time>2016-01-14T11:45:59.42Z</time>
      </trkpt>
      <trkpt lat="46.03183" lon="4.64399">
        <ele>361.483032227</ele>
        <time>2016-01-14T11:46:22.434Z</time>
      </trkpt>
      <trkpt lat="46.03182" lon="4.644">
        <ele>361.582672119</ele>
        <time>2016-01-14T11:46:23.431Z</time>
      </trkpt>
      <trkpt lat="46.03176" lon="4.64409">
        <ele>362.81350708</ele>
        <time>2016-01-14T11:46:32.453Z</time>
      </trkpt>
      <trkpt lat="46.03176" lon="4.64411">
        <ele>362.808380127</ele>
        <time>2016-01-14T11:46:33.409Z</time>
      </trkpt>
      <trkpt lat="46.0317" lon="4.6442">
        <ele>362.898284912</ele>
        <time>2016-01-14T11:46:39.469Z</time>
      </trkpt>
      <trkpt lat="46.03169" lon="4.64421">
        <ele>362.954833984</ele>
        <time>2016-01-14T11:46:40.434Z</time>
      </trkpt>
      <trkpt lat="46.03164" lon="4.64431">
        <ele>362.645721436</ele>
        <time>2016-01-14T11:47:04.447Z</time>
      </trkpt>
      <trkpt lat="46.03163" lon="4.64432">
        <ele>362.431213379</ele>
        <time>2016-01-14T11:47:05.428Z</time>
      </trkpt>
      <trkpt lat="46.03155" lon="4.64435">
        <ele>361.165802002</ele>
        <time>2016-01-14T11:47:19.464Z</time>
      </trkpt>
      <trkpt lat="46.03154" lon="4.64435">
        <ele>361.106964111</ele>
        <time>2016-01-14T11:47:20.431Z</time>
      </trkpt>
      <trkpt lat="46.03145" lon="4.64436">
        <ele>361.276794434</ele>
        <time>2016-01-14T11:47:27.464Z</time>
      </trkpt>
      <trkpt lat="46.03144" lon="4.64436">
        <ele>361.256408691</ele>
        <time>2016-01-14T11:47:28.438Z</time>
      </trkpt>
      <trkpt lat="46.03136" lon="4.64437">
        <ele>360.63180542</ele>
        <time>2016-01-14T11:47:39.442Z</time>
      </trkpt>
      <trkpt lat="46.03135" lon="4.64437">
        <ele>360.552001953</ele>
        <time>2016-01-14T11:47:40.429Z</time>
      </trkpt>
      <trkpt lat="46.03126" lon="4.64433">
        <ele>361.984191895</ele>
        <time>2016-01-14T11:48:03.462Z</time>
      </trkpt>
      <trkpt lat="46.03125" lon="4.64434">
        <ele>362.201690674</ele>
        <time>2016-01-14T11:48:04.433Z</time>
      </trkpt>
      <trkpt lat="46.03118" lon="4.6444">
        <ele>367.281005859</ele>
        <time>2016-01-14T11:49:02.442Z</time>
      </trkpt>
      <trkpt lat="46.03117" lon="4.6444">
        <ele>367.306335449</ele>
        <time>2016-01-14T11:49:03.453Z</time>
      </trkpt>
      <trkpt lat="46.03126" lon="4.64441">
        <ele>363.032348633</ele>
        <time>2016-01-14T11:59:05.503Z</time>
      </trkpt>
      <trkpt lat="46.03126" lon="4.64441">
        <ele>363.031463623</ele>
        <time>2016-01-14T11:59:07.434Z</time>
      </trkpt>
      <trkpt lat="46.03117" lon="4.64443">
        <ele>359.314422607</ele>
        <time>2016-01-14T12:03:19.458Z</time>
      </trkpt>
      <trkpt lat="46.03117" lon="4.64443">
        <ele>359.360046387</ele>
        <time>2016-01-14T12:03:21.438Z</time>
      </trkpt>
      <trkpt lat="46.03125" lon="4.64447">
        <ele>361.509643555</ele>
        <time>2016-01-14T12:04:02.589Z</time>
      </trkpt>
      <trkpt lat="46.03126" lon="4.64447">
        <ele>361.537322998</ele>
        <time>2016-01-14T12:04:03.442Z</time>
      </trkpt>
      <trkpt lat="46.03134" lon="4.64447">
        <ele>362.091888428</ele>
        <time>2016-01-14T12:04:11.457Z</time>
      </trkpt>
      <trkpt lat="46.03135" lon="4.64448">
        <ele>362.150909424</ele>
        <time>2016-01-14T12:04:12.439Z</time>
      </trkpt>
      <trkpt lat="46.03144" lon="4.64446">
        <ele>362.014312744</ele>
        <time>2016-01-14T12:04:20.475Z</time>
      </trkpt>
      <trkpt lat="46.03148" lon="4.64446">
        <ele>362.032104492</ele>
        <time>2016-01-14T12:04:21.452Z</time>
      </trkpt>
      <trkpt lat="46.03155" lon="4.64443">
        <ele>361.561096191</ele>
        <time>2016-01-14T12:04:26.46Z</time>
      </trkpt>
      <trkpt lat="46.03157" lon="4.64442">
        <ele>361.389038086</ele>
        <time>2016-01-14T12:04:27.443Z</time>
      </trkpt>
      <trkpt lat="46.03165" lon="4.6444">
        <ele>360.603424072</ele>
        <time>2016-01-14T12:04:36.478Z</time>
      </trkpt>
      <trkpt lat="46.03166" lon="4.6444">
        <ele>360.527496338</ele>
        <time>2016-01-14T12:04:37.443Z</time>
      </trkpt>
      <trkpt lat="46.03174" lon="4.64445">
        <ele>360.130645752</ele>
        <time>2016-01-14T12:04:44.472Z</time>
      </trkpt>
      <trkpt lat="46.03175" lon="4.64446">
        <ele>359.989990234</ele>
        <time>2016-01-14T12:04:45.443Z</time>
      </trkpt>
      <trkpt lat="46.03175" lon="4.64459">
        <ele>359.149810791</ele>
        <time>2016-01-14T12:04:59.476Z</time>
      </trkpt>
      <trkpt lat="46.03175" lon="4.64461">
        <ele>359.083831787</ele>
        <time>2016-01-14T12:05:00.446Z</time>
      </trkpt>
      <trkpt lat="46.03171" lon="4.64472">
        <ele>358.720825195</ele>
        <time>2016-01-14T12:05:11.586Z</time>
      </trkpt>
      <trkpt lat="46.03171" lon="4.64473">
        <ele>358.792907715</ele>
        <time>2016-01-14T12:05:12.437Z</time>
      </trkpt>
      <trkpt lat="46.03165" lon="4.64482">
        <ele>358.206817627</ele>
        <time>2016-01-14T12:05:16.471Z</time>
      </trkpt>
      <trkpt lat="46.03164" lon="4.64483">
        <ele>358.119506836</ele>
        <time>2016-01-14T12:05:17.447Z</time>
      </trkpt>
      <trkpt lat="46.03158" lon="4.64491">
        <ele>357.010009766</ele>
        <time>2016-01-14T12:05:24.477Z</time>
      </trkpt>
      <trkpt lat="46.03157" lon="4.64493">
        <ele>356.726531982</ele>
        <time>2016-01-14T12:05:25.431Z</time>
      </trkpt>
      <trkpt lat="46.03151" lon="4.64503">
        <ele>355.821533203</ele>
        <time>2016-01-14T12:05:32.469Z</time>
      </trkpt>
      <trkpt lat="46.0315" lon="4.64504">
        <ele>355.70513916</ele>
        <time>2016-01-14T12:05:33.45Z</time>
      </trkpt>
      <trkpt lat="46.03144" lon="4.64512">
        <ele>355.436828613</ele>
        <time>2016-01-14T12:05:41.588Z</time>
      </trkpt>
      <trkpt lat="46.03143" lon="4.64513">
        <ele>355.454559326</ele>
        <time>2016-01-14T12:05:42.437Z</time>
      </trkpt>
      <trkpt lat="46.03136" lon="4.64521">
        <ele>355.006286621</ele>
        <time>2016-01-14T12:05:48.482Z</time>
      </trkpt>
      <trkpt lat="46.03134" lon="4.64522">
        <ele>354.869506836</ele>
        <time>2016-01-14T12:05:49.441Z</time>
      </trkpt>
      <trkpt lat="46.03128" lon="4.64529">
        <ele>354.004364014</ele>
        <time>2016-01-14T12:05:56.478Z</time>
      </trkpt>
      <trkpt lat="46.03127" lon="4.6453">
        <ele>353.884033203</ele>
        <time>2016-01-14T12:05:57.458Z</time>
      </trkpt>
      <trkpt lat="46.0312" lon="4.64538">
        <ele>353.401092529</ele>
        <time>2016-01-14T12:06:05.473Z</time>
      </trkpt>
      <trkpt lat="46.0312" lon="4.64539">
        <ele>353.414642334</ele>
        <time>2016-01-14T12:06:06.44Z</time>
      </trkpt>
      <trkpt lat="46.03115" lon="4.64549">
        <ele>353.588165283</ele>
        <time>2016-01-14T12:06:13.473Z</time>
      </trkpt>
      <trkpt lat="46.03114" lon="4.6455">
        <ele>353.674285889</ele>
        <time>2016-01-14T12:06:14.442Z</time>
      </trkpt>
      <trkpt lat="46.0311" lon="4.64559">
        <ele>356.181274414</ele>
        <time>2016-01-14T12:06:27.481Z</time>
      </trkpt>
      <trkpt lat="46.0311" lon="4.64562">
        <ele>356.064605713</ele>
        <time>2016-01-14T12:06:28.45Z</time>
      </trkpt>
      <trkpt lat="46.03104" lon="4.64569">
        <ele>355.213562012</ele>
        <time>2016-01-14T12:06:32.484Z</time>
      </trkpt>
      <trkpt lat="46.03103" lon="4.6457">
        <ele>355.071685791</ele>
        <time>2016-01-14T12:06:33.453Z</time>
      </trkpt>
      <trkpt lat="46.03095" lon="4.64575">
        <ele>354.440307617</ele>
        <time>2016-01-14T12:06:38.485Z</time>
      </trkpt>
      <trkpt lat="46.03094" lon="4.64576">
        <ele>354.250457764</ele>
        <time>2016-01-14T12:06:39.425Z</time>
      </trkpt>
      <trkpt lat="46.03088" lon="4.64583">
        <ele>350.962127686</ele>
        <time>2016-01-14T12:08:10.441Z</time>
      </trkpt>
      <trkpt lat="46.03087" lon="4.64585">
        <ele>350.985839844</ele>
        <time>2016-01-14T12:08:11.427Z</time>
      </trkpt>
      <trkpt lat="46.0308" lon="4.64592">
        <ele>351.36227417</ele>
        <time>2016-01-14T12:08:19.441Z</time>
      </trkpt>
      <trkpt lat="46.03079" lon="4.64593">
        <ele>351.347198486</ele>
        <time>2016-01-14T12:08:20.43Z</time>
      </trkpt>
      <trkpt lat="46.03072" lon="4.646">
        <ele>350.737670898</ele>
        <time>2016-01-14T12:08:26.476Z</time>
      </trkpt>
      <trkpt lat="46.03071" lon="4.646">
        <ele>350.60848999</ele>
        <time>2016-01-14T12:08:27.435Z</time>
      </trkpt>
      <trkpt lat="46.03062" lon="4.64604">
        <ele>350.010253906</ele>
        <time>2016-01-14T12:08:33.485Z</time>
      </trkpt>
      <trkpt lat="46.03061" lon="4.64604">
        <ele>349.979949951</ele>
        <time>2016-01-14T12:08:34.426Z</time>
      </trkpt>
      <trkpt lat="46.03053" lon="4.64608">
        <ele>349.440979004</ele>
        <time>2016-01-14T12:08:42.477Z</time>
      </trkpt>
      <trkpt lat="46.03052" lon="4.64608">
        <ele>349.333831787</ele>
        <time>2016-01-14T12:08:43.413Z</time>
      </trkpt>
      <trkpt lat="46.03044" lon="4.64608">
        <ele>348.734863281</ele>
        <time>2016-01-14T12:08:50.445Z</time>
      </trkpt>
      <trkpt lat="46.03042" lon="4.64608">
        <ele>348.668212891</ele>
        <time>2016-01-14T12:08:51.43Z</time>
      </trkpt>
      <trkpt lat="46.03035" lon="4.64607">
        <ele>348.145782471</ele>
        <time>2016-01-14T12:08:56.453Z</time>
      </trkpt>
      <trkpt lat="46.03033" lon="4.64608">
        <ele>348.120727539</ele>
        <time>2016-01-14T12:08:57.426Z</time>
      </trkpt>
      <trkpt lat="46.03025" lon="4.64609">
        <ele>348.322052002</ele>
        <time>2016-01-14T12:09:03.453Z</time>
      </trkpt>
      <trkpt lat="46.03024" lon="4.64609">
        <ele>348.331359863</ele>
        <time>2016-01-14T12:09:04.43Z</time>
      </trkpt>
      <trkpt lat="46.03015" lon="4.64609">
        <ele>348.042388916</ele>
        <time>2016-01-14T12:09:10.45Z</time>
      </trkpt>
      <trkpt lat="46.03014" lon="4.64609">
        <ele>347.949737549</ele>
        <time>2016-01-14T12:09:11.43Z</time>
      </trkpt>
      <trkpt lat="46.03007" lon="4.64614">
        <ele>347.402557373</ele>
        <time>2016-01-14T12:09:17.466Z</time>
      </trkpt>
      <trkpt lat="46.03005" lon="4.64615">
        <ele>347.34375</ele>
        <time>2016-01-14T12:09:18.43Z</time>
      </trkpt>
      <trkpt lat="46.02999" lon="4.64624">
        <ele>346.729888916</ele>
        <time>2016-01-14T12:09:23.47Z</time>
      </trkpt>
      <trkpt lat="46.02998" lon="4.64626">
        <ele>346.591278076</ele>
        <time>2016-01-14T12:09:24.427Z</time>
      </trkpt>
      <trkpt lat="46.02995" lon="4.64637">
        <ele>346.032012939</ele>
        <time>2016-01-14T12:09:30.456Z</time>
      </trkpt>
      <trkpt lat="46.02995" lon="4.64639">
        <ele>345.965881348</ele>
        <time>2016-01-14T12:09:31.431Z</time>
      </trkpt>
      <trkpt lat="46.02993" lon="4.6465">
        <ele>345.264343262</ele>
        <time>2016-01-14T12:09:37.457Z</time>
      </trkpt>
      <trkpt lat="46.02993" lon="4.64652">
        <ele>345.143218994</ele>
        <time>2016-01-14T12:09:38.432Z</time>
      </trkpt>
      <trkpt lat="46.02991" lon="4.64664">
        <ele>344.354980469</ele>
        <time>2016-01-14T12:09:45.53Z</time>
      </trkpt>
      <trkpt lat="46.0299" lon="4.64665">
        <ele>344.284820557</ele>
        <time>2016-01-14T12:09:46.446Z</time>
      </trkpt>
      <trkpt lat="46.02988" lon="4.64676">
        <ele>343.630554199</ele>
        <time>2016-01-14T12:09:53.464Z</time>
      </trkpt>
      <trkpt lat="46.02987" lon="4.64679">
        <ele>343.623413086</ele>
        <time>2016-01-14T12:09:54.432Z</time>
      </trkpt>
      <trkpt lat="46.02986" lon="4.64691">
        <ele>343.330841064</ele>
        <time>2016-01-14T12:10:00.443Z</time>
      </trkpt>
      <trkpt lat="46.02987" lon="4.64692">
        <ele>343.246063232</ele>
        <time>2016-01-14T12:10:01.443Z</time>
      </trkpt>
      <trkpt lat="46.02986" lon="4.64704">
        <ele>342.558776855</ele>
        <time>2016-01-14T12:10:07.46Z</time>
      </trkpt>
      <trkpt lat="46.02986" lon="4.64706">
        <ele>342.432556152</ele>
        <time>2016-01-14T12:10:08.433Z</time>
      </trkpt>
      <trkpt lat="46.02986" lon="4.64717">
        <ele>341.912322998</ele>
        <time>2016-01-14T12:10:13.477Z</time>
      </trkpt>
      <trkpt lat="46.02986" lon="4.64719">
        <ele>341.837432861</ele>
        <time>2016-01-14T12:10:14.437Z</time>
      </trkpt>
      <trkpt lat="46.02985" lon="4.64731">
        <ele>341.268310547</ele>
        <time>2016-01-14T12:10:19.551Z</time>
      </trkpt>
      <trkpt lat="46.02985" lon="4.64733">
        <ele>341.130187988</ele>
        <time>2016-01-14T12:10:20.444Z</time>
      </trkpt>
      <trkpt lat="46.02984" lon="4.64744">
        <ele>340.60848999</ele>
        <time>2016-01-14T12:10:25.465Z</time>
      </trkpt>
      <trkpt lat="46.02983" lon="4.64746">
        <ele>340.605773926</ele>
        <time>2016-01-14T12:10:26.444Z</time>
      </trkpt>
      <trkpt lat="46.02982" lon="4.64758">
        <ele>340.435760498</ele>
        <time>2016-01-14T12:10:32.494Z</time>
      </trkpt>
      <trkpt lat="46.02981" lon="4.6476">
        <ele>340.397583008</ele>
        <time>2016-01-14T12:10:33.448Z</time>
      </trkpt>
      <trkpt lat="46.02981" lon="4.64772">
        <ele>339.975952148</ele>
        <time>2016-01-14T12:10:39.469Z</time>
      </trkpt>
      <trkpt lat="46.02981" lon="4.64774">
        <ele>339.935272217</ele>
        <time>2016-01-14T12:10:40.437Z</time>
      </trkpt>
      <trkpt lat="46.0298" lon="4.64785">
        <ele>339.593200684</ele>
        <time>2016-01-14T12:10:45.445Z</time>
      </trkpt>
      <trkpt lat="46.0298" lon="4.64788">
        <ele>339.556640625</ele>
        <time>2016-01-14T12:10:46.447Z</time>
      </trkpt>
      <trkpt lat="46.0298" lon="4.648">
        <ele>339.041809082</ele>
        <time>2016-01-14T12:10:53.469Z</time>
      </trkpt>
      <trkpt lat="46.0298" lon="4.64803">
        <ele>338.982116699</ele>
        <time>2016-01-14T12:10:54.436Z</time>
      </trkpt>
      <trkpt lat="46.02979" lon="4.64814">
        <ele>338.561126709</ele>
        <time>2016-01-14T12:11:00.48Z</time>
      </trkpt>
      <trkpt lat="46.02979" lon="4.64816">
        <ele>338.515014648</ele>
        <time>2016-01-14T12:11:01.444Z</time>
      </trkpt>
      <trkpt lat="46.02976" lon="4.64828">
        <ele>338.454528809</ele>
        <time>2016-01-14T12:11:06.477Z</time>
      </trkpt>
      <trkpt lat="46.02976" lon="4.64829">
        <ele>338.365692139</ele>
        <time>2016-01-14T12:11:07.444Z</time>
      </trkpt>
      <trkpt lat="46.02974" lon="4.6484">
        <ele>337.966430664</ele>
        <time>2016-01-14T12:11:12.474Z</time>
      </trkpt>
      <trkpt lat="46.02974" lon="4.64843">
        <ele>337.800689697</ele>
        <time>2016-01-14T12:11:13.439Z</time>
      </trkpt>
      <trkpt lat="46.02972" lon="4.64855">
        <ele>337.136749268</ele>
        <time>2016-01-14T12:11:18.488Z</time>
      </trkpt>
      <trkpt lat="46.02972" lon="4.64857">
        <ele>336.929443359</ele>
        <time>2016-01-14T12:11:19.437Z</time>
      </trkpt>
      <trkpt lat="46.02969" lon="4.64867">
        <ele>336.097167969</ele>
        <time>2016-01-14T12:11:25.483Z</time>
      </trkpt>
      <trkpt lat="46.02968" lon="4.64869">
        <ele>335.956420898</ele>
        <time>2016-01-14T12:11:26.432Z</time>
      </trkpt>
      <trkpt lat="46.02962" lon="4.64877">
        <ele>335.14050293</ele>
        <time>2016-01-14T12:11:32.482Z</time>
      </trkpt>
      <trkpt lat="46.02961" lon="4.64878">
        <ele>334.970947266</ele>
        <time>2016-01-14T12:11:33.458Z</time>
      </trkpt>
      <trkpt lat="46.02955" lon="4.64885">
        <ele>334.226623535</ele>
        <time>2016-01-14T12:11:39.594Z</time>
      </trkpt>
      <trkpt lat="46.02954" lon="4.64886">
        <ele>334.111968994</ele>
        <time>2016-01-14T12:11:40.451Z</time>
      </trkpt>
      <trkpt lat="46.02946" lon="4.64892">
        <ele>333.661376953</ele>
        <time>2016-01-14T12:11:45.474Z</time>
      </trkpt>
      <trkpt lat="46.02945" lon="4.64892">
        <ele>333.580444336</ele>
        <time>2016-01-14T12:11:46.454Z</time>
      </trkpt>
      <trkpt lat="46.02939" lon="4.64899">
        <ele>333.115447998</ele>
        <time>2016-01-14T12:11:52.474Z</time>
      </trkpt>
      <trkpt lat="46.02937" lon="4.649">
        <ele>333.032196045</ele>
        <time>2016-01-14T12:11:53.452Z</time>
      </trkpt>
      <trkpt lat="46.02929" lon="4.64906">
        <ele>332.515289307</ele>
        <time>2016-01-14T12:12:00.436Z</time>
      </trkpt>
      <trkpt lat="46.02928" lon="4.64907">
        <ele>332.441589355</ele>
        <time>2016-01-14T12:12:01.419Z</time>
      </trkpt>
      <trkpt lat="46.02921" lon="4.64914">
        <ele>331.822601318</ele>
        <time>2016-01-14T12:12:07.458Z</time>
      </trkpt>
      <trkpt lat="46.0292" lon="4.64915">
        <ele>331.735717773</ele>
        <time>2016-01-14T12:12:08.427Z</time>
      </trkpt>
      <trkpt lat="46.02913" lon="4.64923">
        <ele>331.770050049</ele>
        <time>2016-01-14T12:12:14.454Z</time>
      </trkpt>
      <trkpt lat="46.02912" lon="4.64925">
        <ele>331.743682861</ele>
        <time>2016-01-14T12:12:15.419Z</time>
      </trkpt>
      <trkpt lat="46.02906" lon="4.64931">
        <ele>331.608947754</ele>
        <time>2016-01-14T12:12:21.443Z</time>
      </trkpt>
      <trkpt lat="46.02905" lon="4.64933">
        <ele>331.567779541</ele>
        <time>2016-01-14T12:12:22.42Z</time>
      </trkpt>
      <trkpt lat="46.02899" lon="4.64942">
        <ele>331.267669678</ele>
        <time>2016-01-14T12:12:28.463Z</time>
      </trkpt>
      <trkpt lat="46.02898" lon="4.64943">
        <ele>331.200622559</ele>
        <time>2016-01-14T12:12:29.429Z</time>
      </trkpt>
      <trkpt lat="46.02893" lon="4.64953">
        <ele>330.962799072</ele>
        <time>2016-01-14T12:12:35.444Z</time>
      </trkpt>
      <trkpt lat="46.02893" lon="4.64955">
        <ele>330.989746094</ele>
        <time>2016-01-14T12:12:36.421Z</time>
      </trkpt>
      <trkpt lat="46.02888" lon="4.64962">
        <ele>330.985137939</ele>
        <time>2016-01-14T12:12:41.453Z</time>
      </trkpt>
      <trkpt lat="46.02887" lon="4.64965">
        <ele>330.923126221</ele>
        <time>2016-01-14T12:12:42.42Z</time>
      </trkpt>
      <trkpt lat="46.02881" lon="4.64972">
        <ele>330.741027832</ele>
        <time>2016-01-14T12:12:48.442Z</time>
      </trkpt>
      <trkpt lat="46.0288" lon="4.64973">
        <ele>330.712219238</ele>
        <time>2016-01-14T12:12:49.421Z</time>
      </trkpt>
      <trkpt lat="46.02875" lon="4.64981">
        <ele>330.454223633</ele>
        <time>2016-01-14T12:12:54.443Z</time>
      </trkpt>
      <trkpt lat="46.02874" lon="4.64983">
        <ele>330.364227295</ele>
        <time>2016-01-14T12:12:55.445Z</time>
      </trkpt>
      <trkpt lat="46.02868" lon="4.64991">
        <ele>330.241394043</ele>
        <time>2016-01-14T12:13:01.44Z</time>
      </trkpt>
      <trkpt lat="46.02867" lon="4.64992">
        <ele>330.246765137</ele>
        <time>2016-01-14T12:13:02.423Z</time>
      </trkpt>
      <trkpt lat="46.02861" lon="4.65">
        <ele>330.157012939</ele>
        <time>2016-01-14T12:13:08.446Z</time>
      </trkpt>
      <trkpt lat="46.02861" lon="4.65002">
        <ele>330.110046387</ele>
        <time>2016-01-14T12:13:09.424Z</time>
      </trkpt>
      <trkpt lat="46.02855" lon="4.65011">
        <ele>329.806884766</ele>
        <time>2016-01-14T12:13:15.466Z</time>
      </trkpt>
      <trkpt lat="46.02854" lon="4.65013">
        <ele>329.749664307</ele>
        <time>2016-01-14T12:13:16.432Z</time>
      </trkpt>
      <trkpt lat="46.0285" lon="4.65022">
        <ele>329.43661499</ele>
        <time>2016-01-14T12:13:21.454Z</time>
      </trkpt>
      <trkpt lat="46.02849" lon="4.65023">
        <ele>329.375915527</ele>
        <time>2016-01-14T12:13:22.423Z</time>
      </trkpt>
      <trkpt lat="46.02844" lon="4.65033">
        <ele>328.830749512</ele>
        <time>2016-01-14T12:13:28.449Z</time>
      </trkpt>
      <trkpt lat="46.02843" lon="4.65034">
        <ele>328.714660645</ele>
        <time>2016-01-14T12:13:29.424Z</time>
      </trkpt>
      <trkpt lat="46.02837" lon="4.65041">
        <ele>328.029602051</ele>
        <time>2016-01-14T12:13:35.474Z</time>
      </trkpt>
      <trkpt lat="46.02836" lon="4.65042">
        <ele>327.93359375</ele>
        <time>2016-01-14T12:13:36.43Z</time>
      </trkpt>
      <trkpt lat="46.02831" lon="4.65051">
        <ele>327.137969971</ele>
        <time>2016-01-14T12:13:42.46Z</time>
      </trkpt>
      <trkpt lat="46.0283" lon="4.65052">
        <ele>327.026733398</ele>
        <time>2016-01-14T12:13:43.425Z</time>
      </trkpt>
      <trkpt lat="46.02825" lon="4.65061">
        <ele>326.452514648</ele>
        <time>2016-01-14T12:13:48.456Z</time>
      </trkpt>
      <trkpt lat="46.02824" lon="4.65063">
        <ele>326.38168335</ele>
        <time>2016-01-14T12:13:49.437Z</time>
      </trkpt>
      <trkpt lat="46.0282" lon="4.65074">
        <ele>325.601745605</ele>
        <time>2016-01-14T12:13:56.572Z</time>
      </trkpt>
      <trkpt lat="46.02819" lon="4.65076">
        <ele>325.475250244</ele>
        <time>2016-01-14T12:13:57.427Z</time>
      </trkpt>
      <trkpt lat="46.02816" lon="4.65087">
        <ele>324.722381592</ele>
        <time>2016-01-14T12:14:03.504Z</time>
      </trkpt>
      <trkpt lat="46.02815" lon="4.65088">
        <ele>324.598510742</ele>
        <time>2016-01-14T12:14:04.438Z</time>
      </trkpt>
      <trkpt lat="46.0281" lon="4.65099">
        <ele>323.525177002</ele>
        <time>2016-01-14T12:14:11.459Z</time>
      </trkpt>
      <trkpt lat="46.02809" lon="4.65101">
        <ele>323.371398926</ele>
        <time>2016-01-14T12:14:12.43Z</time>
      </trkpt>
      <trkpt lat="46.02804" lon="4.65111">
        <ele>322.440002441</ele>
        <time>2016-01-14T12:14:18.449Z</time>
      </trkpt>
      <trkpt lat="46.02803" lon="4.65113">
        <ele>322.285125732</ele>
        <time>2016-01-14T12:14:19.431Z</time>
      </trkpt>
      <trkpt lat="46.02796" lon="4.65121">
        <ele>321.040283203</ele>
        <time>2016-01-14T12:14:26.463Z</time>
      </trkpt>
      <trkpt lat="46.02795" lon="4.65122">
        <ele>320.845672607</ele>
        <time>2016-01-14T12:14:27.435Z</time>
      </trkpt>
      <trkpt lat="46.02788" lon="4.65127">
        <ele>319.802337646</ele>
        <time>2016-01-14T12:14:33.434Z</time>
      </trkpt>
      <trkpt lat="46.02787" lon="4.65127">
        <ele>319.636810303</ele>
        <time>2016-01-14T12:14:34.417Z</time>
      </trkpt>
      <trkpt lat="46.02778" lon="4.65132">
        <ele>318.210693359</ele>
        <time>2016-01-14T12:14:41.474Z</time>
      </trkpt>
      <trkpt lat="46.02777" lon="4.65133">
        <ele>318.016571045</ele>
        <time>2016-01-14T12:14:42.433Z</time>
      </trkpt>
      <trkpt lat="46.0277" lon="4.65136">
        <ele>317.209228516</ele>
        <time>2016-01-14T12:14:47.46Z</time>
      </trkpt>
      <trkpt lat="46.02768" lon="4.65136">
        <ele>317.093170166</ele>
        <time>2016-01-14T12:14:48.432Z</time>
      </trkpt>
      <trkpt lat="46.02759" lon="4.65139">
        <ele>316.107940674</ele>
        <time>2016-01-14T12:14:54.464Z</time>
      </trkpt>
      <trkpt lat="46.02758" lon="4.65139">
        <ele>315.937133789</ele>
        <time>2016-01-14T12:14:55.442Z</time>
      </trkpt>
      <trkpt lat="46.02751" lon="4.65143">
        <ele>314.952148438</ele>
        <time>2016-01-14T12:15:01.475Z</time>
      </trkpt>
      <trkpt lat="46.02749" lon="4.65143">
        <ele>314.768463135</ele>
        <time>2016-01-14T12:15:02.435Z</time>
      </trkpt>
      <trkpt lat="46.02741" lon="4.65146">
        <ele>313.504699707</ele>
        <time>2016-01-14T12:15:09.473Z</time>
      </trkpt>
      <trkpt lat="46.02739" lon="4.65147">
        <ele>313.372528076</ele>
        <time>2016-01-14T12:15:10.443Z</time>
      </trkpt>
      <trkpt lat="46.02732" lon="4.65151">
        <ele>312.435455322</ele>
        <time>2016-01-14T12:15:16.471Z</time>
      </trkpt>
      <trkpt lat="46.0273" lon="4.65151">
        <ele>312.280975342</ele>
        <time>2016-01-14T12:15:17.444Z</time>
      </trkpt>
      <trkpt lat="46.02722" lon="4.65155">
        <ele>311.19430542</ele>
        <time>2016-01-14T12:15:23.474Z</time>
      </trkpt>
      <trkpt lat="46.02721" lon="4.65155">
        <ele>310.975402832</ele>
        <time>2016-01-14T12:15:24.44Z</time>
      </trkpt>
      <trkpt lat="46.02713" lon="4.6516">
        <ele>309.879974365</ele>
        <time>2016-01-14T12:15:30.469Z</time>
      </trkpt>
      <trkpt lat="46.02712" lon="4.6516">
        <ele>309.697814941</ele>
        <time>2016-01-14T12:15:31.445Z</time>
      </trkpt>
      <trkpt lat="46.02706" lon="4.65168">
        <ele>309.165618896</ele>
        <time>2016-01-14T12:15:36.438Z</time>
      </trkpt>
      <trkpt lat="46.02705" lon="4.6517">
        <ele>309.032806396</ele>
        <time>2016-01-14T12:15:37.435Z</time>
      </trkpt>
      <trkpt lat="46.02702" lon="4.65181">
        <ele>307.987701416</ele>
        <time>2016-01-14T12:15:43.475Z</time>
      </trkpt>
      <trkpt lat="46.02701" lon="4.65183">
        <ele>307.815002441</ele>
        <time>2016-01-14T12:15:44.446Z</time>
      </trkpt>
      <trkpt lat="46.02698" lon="4.65194">
        <ele>306.386627197</ele>
        <time>2016-01-14T12:15:52.476Z</time>
      </trkpt>
      <trkpt lat="46.02697" lon="4.65195">
        <ele>306.22555542</ele>
        <time>2016-01-14T12:15:53.446Z</time>
      </trkpt>
      <trkpt lat="46.02688" lon="4.65197">
        <ele>304.907348633</ele>
        <time>2016-01-14T12:16:00.486Z</time>
      </trkpt>
      <trkpt lat="46.02687" lon="4.65197">
        <ele>304.705566406</ele>
        <time>2016-01-14T12:16:01.446Z</time>
      </trkpt>
      <trkpt lat="46.02679" lon="4.65193">
        <ele>303.88772583</ele>
        <time>2016-01-14T12:16:08.474Z</time>
      </trkpt>
      <trkpt lat="46.02678" lon="4.65192">
        <ele>303.859649658</ele>
        <time>2016-01-14T12:16:09.431Z</time>
      </trkpt>
      <trkpt lat="46.0267" lon="4.65189">
        <ele>303.75390625</ele>
        <time>2016-01-14T12:16:15.474Z</time>
      </trkpt>
      <trkpt lat="46.02669" lon="4.65189">
        <ele>303.745269775</ele>
        <time>2016-01-14T12:16:16.438Z</time>
      </trkpt>
      <trkpt lat="46.02662" lon="4.65196">
        <ele>303.275146484</ele>
        <time>2016-01-14T12:16:24.476Z</time>
      </trkpt>
      <trkpt lat="46.02661" lon="4.65197">
        <ele>303.263641357</ele>
        <time>2016-01-14T12:16:25.463Z</time>
      </trkpt>
      <trkpt lat="46.02654" lon="4.65201">
        <ele>303.128326416</ele>
        <time>2016-01-14T12:16:29.491Z</time>
      </trkpt>
      <trkpt lat="46.02653" lon="4.65203">
        <ele>303.114135742</ele>
        <time>2016-01-14T12:16:30.45Z</time>
      </trkpt>
      <trkpt lat="46.02647" lon="4.65212">
        <ele>303.434448242</ele>
        <time>2016-01-14T12:16:37.475Z</time>
      </trkpt>
      <trkpt lat="46.02646" lon="4.65213">
        <ele>303.457244873</ele>
        <time>2016-01-14T12:16:38.45Z</time>
      </trkpt>
      <trkpt lat="46.02641" lon="4.65221">
        <ele>303.263763428</ele>
        <time>2016-01-14T12:16:42.474Z</time>
      </trkpt>
      <trkpt lat="46.02639" lon="4.65222">
        <ele>303.158813477</ele>
        <time>2016-01-14T12:16:43.449Z</time>
      </trkpt>
      <trkpt lat="46.02632" lon="4.65226">
        <ele>302.474304199</ele>
        <time>2016-01-14T12:16:47.489Z</time>
      </trkpt>
      <trkpt lat="46.0263" lon="4.65227">
        <ele>302.312866211</ele>
        <time>2016-01-14T12:16:48.438Z</time>
      </trkpt>
      <trkpt lat="46.02623" lon="4.65235">
        <ele>301.59954834</ele>
        <time>2016-01-14T12:16:55.486Z</time>
      </trkpt>
      <trkpt lat="46.02622" lon="4.65236">
        <ele>301.532012939</ele>
        <time>2016-01-14T12:16:56.44Z</time>
      </trkpt>
      <trkpt lat="46.02615" lon="4.65243">
        <ele>301.399688721</ele>
        <time>2016-01-14T12:17:07.467Z</time>
      </trkpt>
      <trkpt lat="46.02614" lon="4.65245">
        <ele>301.589263916</ele>
        <time>2016-01-14T12:17:08.456Z</time>
      </trkpt>
      <trkpt lat="46.02612" lon="4.65257">
        <ele>304.355377197</ele>
        <time>2016-01-14T12:17:20.436Z</time>
      </trkpt>
      <trkpt lat="46.02612" lon="4.65258">
        <ele>304.495178223</ele>
        <time>2016-01-14T12:17:21.425Z</time>
      </trkpt>
      <trkpt lat="46.0261" lon="4.65268">
        <ele>304.97088623</ele>
        <time>2016-01-14T12:17:30.454Z</time>
      </trkpt>
      <trkpt lat="46.02611" lon="4.65274">
        <ele>305.125305176</ele>
        <time>2016-01-14T12:17:31.419Z</time>
      </trkpt>
      <trkpt lat="46.02611" lon="4.65287">
        <ele>305.786987305</ele>
        <time>2016-01-14T12:17:38.471Z</time>
      </trkpt>
      <trkpt lat="46.02611" lon="4.65288">
        <ele>305.824981689</ele>
        <time>2016-01-14T12:17:39.42Z</time>
      </trkpt>
      <trkpt lat="46.0261" lon="4.653">
        <ele>305.399688721</ele>
        <time>2016-01-14T12:17:49.481Z</time>
      </trkpt>
      <trkpt lat="46.02611" lon="4.65303">
        <ele>305.303466797</ele>
        <time>2016-01-14T12:17:50.41Z</time>
      </trkpt>
      <trkpt lat="46.02611" lon="4.65315">
        <ele>304.687011719</ele>
        <time>2016-01-14T12:17:59.487Z</time>
      </trkpt>
      <trkpt lat="46.0261" lon="4.65316">
        <ele>304.658233643</ele>
        <time>2016-01-14T12:18:00.426Z</time>
      </trkpt>
      <trkpt lat="46.02602" lon="4.65322">
        <ele>304.844116211</ele>
        <time>2016-01-14T12:18:06.464Z</time>
      </trkpt>
      <trkpt lat="46.026" lon="4.65323">
        <ele>304.715332031</ele>
        <time>2016-01-14T12:18:07.434Z</time>
      </trkpt>
      <trkpt lat="46.02593" lon="4.65327">
        <ele>303.929504395</ele>
        <time>2016-01-14T12:18:12.439Z</time>
      </trkpt>
      <trkpt lat="46.02591" lon="4.65328">
        <ele>303.890838623</ele>
        <time>2016-01-14T12:18:13.429Z</time>
      </trkpt>
      <trkpt lat="46.02584" lon="4.65333">
        <ele>304.571899414</ele>
        <time>2016-01-14T12:18:42.444Z</time>
      </trkpt>
      <trkpt lat="46.02583" lon="4.65334">
        <ele>304.612854004</ele>
        <time>2016-01-14T12:18:43.429Z</time>
      </trkpt>
      <trkpt lat="46.02575" lon="4.65334">
        <ele>306.303192139</ele>
        <time>2016-01-14T12:18:59.45Z</time>
      </trkpt>
      <trkpt lat="46.02573" lon="4.65334">
        <ele>306.398284912</ele>
        <time>2016-01-14T12:19:00.424Z</time>
      </trkpt>
      <trkpt lat="46.02565" lon="4.65334">
        <ele>306.940185547</ele>
        <time>2016-01-14T12:19:05.512Z</time>
      </trkpt>
      <trkpt lat="46.02563" lon="4.65333">
        <ele>306.949188232</ele>
        <time>2016-01-14T12:19:06.436Z</time>
      </trkpt>
      <trkpt lat="46.02554" lon="4.65333">
        <ele>306.255767822</ele>
        <time>2016-01-14T12:19:15.502Z</time>
      </trkpt>
      <trkpt lat="46.02554" lon="4.65334">
        <ele>306.185333252</ele>
        <time>2016-01-14T12:19:16.462Z</time>
      </trkpt>
      <trkpt lat="46.02547" lon="4.65343">
        <ele>307.148986816</ele>
        <time>2016-01-14T12:19:25.467Z</time>
      </trkpt>
      <trkpt lat="46.02547" lon="4.65345">
        <ele>307.1668396</ele>
        <time>2016-01-14T12:19:26.431Z</time>
      </trkpt>
      <trkpt lat="46.02545" lon="4.65357">
        <ele>306.252349854</ele>
        <time>2016-01-14T12:19:51.459Z</time>
      </trkpt>
      <trkpt lat="46.02545" lon="4.65358">
        <ele>306.072967529</ele>
        <time>2016-01-14T12:19:52.446Z</time>
      </trkpt>
      <trkpt lat="46.02542" lon="4.6537">
        <ele>304.69934082</ele>
        <time>2016-01-14T12:20:06.487Z</time>
      </trkpt>
      <trkpt lat="46.02542" lon="4.65371">
        <ele>304.561523438</ele>
        <time>2016-01-14T12:20:07.438Z</time>
      </trkpt>
      <trkpt lat="46.02541" lon="4.65382">
        <ele>303.906433105</ele>
        <time>2016-01-14T12:20:12.449Z</time>
      </trkpt>
      <trkpt lat="46.02541" lon="4.65384">
        <ele>303.810058594</ele>
        <time>2016-01-14T12:20:13.43Z</time>
      </trkpt>
      <trkpt lat="46.02541" lon="4.65372">
        <ele>299.10647583</ele>
        <time>2016-01-14T12:22:26.434Z</time>
      </trkpt>
      <trkpt lat="46.02541" lon="4.65371">
        <ele>299.109893799</ele>
        <time>2016-01-14T12:22:27.417Z</time>
      </trkpt>
      <trkpt lat="46.02545" lon="4.6536">
        <ele>300.522338867</ele>
        <time>2016-01-14T12:22:36.435Z</time>
      </trkpt>
      <trkpt lat="46.02545" lon="4.65358">
        <ele>300.595947266</ele>
        <time>2016-01-14T12:22:37.419Z</time>
      </trkpt>
      <trkpt lat="46.02546" lon="4.65346">
        <ele>301.295776367</ele>
        <time>2016-01-14T12:22:45.452Z</time>
      </trkpt>
      <trkpt lat="46.02545" lon="4.65344">
        <ele>301.301055908</ele>
        <time>2016-01-14T12:22:46.419Z</time>
      </trkpt>
      <trkpt lat="46.02548" lon="4.65333">
        <ele>301.119567871</ele>
        <time>2016-01-14T12:22:54.439Z</time>
      </trkpt>
      <trkpt lat="46.02549" lon="4.65332">
        <ele>301.18838501</ele>
        <time>2016-01-14T12:22:55.42Z</time>
      </trkpt>
      <trkpt lat="46.02549" lon="4.65319">
        <ele>301.937408447</ele>
        <time>2016-01-14T12:23:01.437Z</time>
      </trkpt>
      <trkpt lat="46.02549" lon="4.65317">
        <ele>302.146697998</ele>
        <time>2016-01-14T12:23:02.425Z</time>
      </trkpt>
      <trkpt lat="46.02545" lon="4.65306">
        <ele>302.393188477</ele>
        <time>2016-01-14T12:23:08.568Z</time>
      </trkpt>
      <trkpt lat="46.02544" lon="4.65304">
        <ele>302.347503662</ele>
        <time>2016-01-14T12:23:09.42Z</time>
      </trkpt>
      <trkpt lat="46.02545" lon="4.65291">
        <ele>302.025360107</ele>
        <time>2016-01-14T12:23:15.455Z</time>
      </trkpt>
      <trkpt lat="46.02546" lon="4.65289">
        <ele>301.976776123</ele>
        <time>2016-01-14T12:23:16.408Z</time>
      </trkpt>
      <trkpt lat="46.02546" lon="4.65277">
        <ele>302.111999512</ele>
        <time>2016-01-14T12:23:23.455Z</time>
      </trkpt>
      <trkpt lat="46.02545" lon="4.65275">
        <ele>302.143707275</ele>
        <time>2016-01-14T12:23:24.421Z</time>
      </trkpt>
      <trkpt lat="46.02541" lon="4.65265">
        <ele>301.595336914</ele>
        <time>2016-01-14T12:23:31.444Z</time>
      </trkpt>
      <trkpt lat="46.0254" lon="4.65264">
        <ele>301.470245361</ele>
        <time>2016-01-14T12:23:32.421Z</time>
      </trkpt>
      <trkpt lat="46.02536" lon="4.65252">
        <ele>300.944885254</ele>
        <time>2016-01-14T12:23:41.438Z</time>
      </trkpt>
      <trkpt lat="46.02535" lon="4.65252">
        <ele>300.889190674</ele>
        <time>2016-01-14T12:23:42.445Z</time>
      </trkpt>
      <trkpt lat="46.02532" lon="4.65241">
        <ele>301.164428711</ele>
        <time>2016-01-14T12:23:50.449Z</time>
      </trkpt>
      <trkpt lat="46.02532" lon="4.65239">
        <ele>301.363067627</ele>
        <time>2016-01-14T12:23:51.43Z</time>
      </trkpt>
      <trkpt lat="46.02534" lon="4.65228">
        <ele>302.487579346</ele>
        <time>2016-01-14T12:23:59.463Z</time>
      </trkpt>
      <trkpt lat="46.02535" lon="4.65226">
        <ele>302.537841797</ele>
        <time>2016-01-14T12:24:00.427Z</time>
      </trkpt>
      <trkpt lat="46.02537" lon="4.65215">
        <ele>301.553344727</ele>
        <time>2016-01-14T12:24:15.46Z</time>
      </trkpt>
      <trkpt lat="46.02536" lon="4.65213">
        <ele>301.470703125</ele>
        <time>2016-01-14T12:24:16.424Z</time>
      </trkpt>
      <trkpt lat="46.02536" lon="4.652">
        <ele>300.362731934</ele>
        <time>2016-01-14T12:24:30.458Z</time>
      </trkpt>
      <trkpt lat="46.02535" lon="4.65199">
        <ele>300.299743652</ele>
        <time>2016-01-14T12:24:31.429Z</time>
      </trkpt>
      <trkpt lat="46.02527" lon="4.65194">
        <ele>301.099731445</ele>
        <time>2016-01-14T12:24:40.459Z</time>
      </trkpt>
      <trkpt lat="46.02527" lon="4.65194">
        <ele>301.167602539</ele>
        <time>2016-01-14T12:24:41.429Z</time>
      </trkpt>
      <trkpt lat="46.02518" lon="4.65197">
        <ele>300.453918457</ele>
        <time>2016-01-14T12:25:32.464Z</time>
      </trkpt>
      <trkpt lat="46.02517" lon="4.65197">
        <ele>300.439025879</ele>
        <time>2016-01-14T12:25:33.444Z</time>
      </trkpt>
      <trkpt lat="46.02508" lon="4.65198">
        <ele>299.842285156</ele>
        <time>2016-01-14T12:25:45.462Z</time>
      </trkpt>
      <trkpt lat="46.02508" lon="4.65199">
        <ele>299.890625</ele>
        <time>2016-01-14T12:25:46.432Z</time>
      </trkpt>
      <trkpt lat="46.02504" lon="4.65211">
        <ele>299.957885742</ele>
        <time>2016-01-14T12:25:57.542Z</time>
      </trkpt>
      <trkpt lat="46.02504" lon="4.65212">
        <ele>299.958526611</ele>
        <time>2016-01-14T12:25:58.447Z</time>
      </trkpt>
      <trkpt lat="46.02503" lon="4.65223">
        <ele>299.817779541</ele>
        <time>2016-01-14T12:26:03.469Z</time>
      </trkpt>
      <trkpt lat="46.02502" lon="4.65225">
        <ele>299.700775146</ele>
        <time>2016-01-14T12:26:04.454Z</time>
      </trkpt>
      <trkpt lat="46.02499" lon="4.65237">
        <ele>299.305267334</ele>
        <time>2016-01-14T12:26:10.471Z</time>
      </trkpt>
      <trkpt lat="46.02498" lon="4.65238">
        <ele>299.296875</ele>
        <time>2016-01-14T12:26:11.445Z</time>
      </trkpt>
      <trkpt lat="46.02495" lon="4.6525">
        <ele>298.811309814</ele>
        <time>2016-01-14T12:26:17.481Z</time>
      </trkpt>
      <trkpt lat="46.02495" lon="4.65252">
        <ele>298.745452881</ele>
        <time>2016-01-14T12:26:18.449Z</time>
      </trkpt>
      <trkpt lat="46.02487" lon="4.65258">
        <ele>299.116851807</ele>
        <time>2016-01-14T12:26:26.464Z</time>
      </trkpt>
      <trkpt lat="46.02486" lon="4.65259">
        <ele>299.348693848</ele>
        <time>2016-01-14T12:26:27.422Z</time>
      </trkpt>
      <trkpt lat="46.02485" lon="4.6527">
        <ele>301.441711426</ele>
        <time>2016-01-14T12:26:35.487Z</time>
      </trkpt>
      <trkpt lat="46.02485" lon="4.65273">
        <ele>301.753265381</ele>
        <time>2016-01-14T12:26:36.44Z</time>
      </trkpt>
      <trkpt lat="46.02484" lon="4.65284">
        <ele>303.574310303</ele>
        <time>2016-01-14T12:26:42.477Z</time>
      </trkpt>
      <trkpt lat="46.02484" lon="4.65286">
        <ele>303.816711426</ele>
        <time>2016-01-14T12:26:43.448Z</time>
      </trkpt>
      <trkpt lat="46.02485" lon="4.65296">
        <ele>304.805297852</ele>
        <time>2016-01-14T12:26:52.471Z</time>
      </trkpt>
      <trkpt lat="46.02485" lon="4.65299">
        <ele>304.931213379</ele>
        <time>2016-01-14T12:26:53.431Z</time>
      </trkpt>
      <trkpt lat="46.02487" lon="4.65311">
        <ele>305.639251709</ele>
        <time>2016-01-14T12:26:58.474Z</time>
      </trkpt>
      <trkpt lat="46.02487" lon="4.65313">
        <ele>305.79675293</ele>
        <time>2016-01-14T12:26:59.452Z</time>
      </trkpt>
      <trkpt lat="46.02491" lon="4.65323">
        <ele>306.596191406</ele>
        <time>2016-01-14T12:27:10.473Z</time>
      </trkpt>
      <trkpt lat="46.02492" lon="4.65324">
        <ele>306.598297119</ele>
        <time>2016-01-14T12:27:11.453Z</time>
      </trkpt>
      <trkpt lat="46.02495" lon="4.65335">
        <ele>306.513580322</ele>
        <time>2016-01-14T12:27:16.482Z</time>
      </trkpt>
      <trkpt lat="46.02496" lon="4.65337">
        <ele>306.490875244</ele>
        <time>2016-01-14T12:27:17.449Z</time>
      </trkpt>
      <trkpt lat="46.02499" lon="4.65347">
        <ele>306.261352539</ele>
        <time>2016-01-14T12:27:21.474Z</time>
      </trkpt>
      <trkpt lat="46.02499" lon="4.65349">
        <ele>306.256713867</ele>
        <time>2016-01-14T12:27:22.45Z</time>
      </trkpt>
      <trkpt lat="46.02503" lon="4.6536">
        <ele>306.187438965</ele>
        <time>2016-01-14T12:27:30.474Z</time>
      </trkpt>
      <trkpt lat="46.02503" lon="4.65361">
        <ele>306.066162109</ele>
        <time>2016-01-14T12:27:31.451Z</time>
      </trkpt>
      <trkpt lat="46.02506" lon="4.65372">
        <ele>305.352752686</ele>
        <time>2016-01-14T12:27:41.448Z</time>
      </trkpt>
      <trkpt lat="46.02506" lon="4.65373">
        <ele>305.323120117</ele>
        <time>2016-01-14T12:27:42.417Z</time>
      </trkpt>
      <trkpt lat="46.02508" lon="4.65385">
        <ele>305.040893555</ele>
        <time>2016-01-14T12:27:48.443Z</time>
      </trkpt>
      <trkpt lat="46.02508" lon="4.65387">
        <ele>304.977203369</ele>
        <time>2016-01-14T12:27:49.42Z</time>
      </trkpt>
      <trkpt lat="46.02509" lon="4.65398">
        <ele>305.128570557</ele>
        <time>2016-01-14T12:27:55.45Z</time>
      </trkpt>
      <trkpt lat="46.02509" lon="4.65401">
        <ele>305.278442383</ele>
        <time>2016-01-14T12:27:56.427Z</time>
      </trkpt>
      <trkpt lat="46.02511" lon="4.65413">
        <ele>304.837890625</ele>
        <time>2016-01-14T12:28:01.446Z</time>
      </trkpt>
      <trkpt lat="46.02512" lon="4.65415">
        <ele>304.741882324</ele>
        <time>2016-01-14T12:28:02.467Z</time>
      </trkpt>
      <trkpt lat="46.02512" lon="4.65428">
        <ele>303.660522461</ele>
        <time>2016-01-14T12:28:09.442Z</time>
      </trkpt>
      <trkpt lat="46.02512" lon="4.6543">
        <ele>303.563323975</ele>
        <time>2016-01-14T12:28:10.433Z</time>
      </trkpt>
      <trkpt lat="46.0251" lon="4.65442">
        <ele>302.593078613</ele>
        <time>2016-01-14T12:28:17.437Z</time>
      </trkpt>
      <trkpt lat="46.0251" lon="4.65443">
        <ele>302.47555542</ele>
        <time>2016-01-14T12:28:18.432Z</time>
      </trkpt>
      <trkpt lat="46.02509" lon="4.65455">
        <ele>301.649902344</ele>
        <time>2016-01-14T12:28:25.461Z</time>
      </trkpt>
      <trkpt lat="46.02509" lon="4.65457">
        <ele>301.532745361</ele>
        <time>2016-01-14T12:28:26.431Z</time>
      </trkpt>
      <trkpt lat="46.02508" lon="4.65469">
        <ele>301.015991211</ele>
        <time>2016-01-14T12:28:32.458Z</time>
      </trkpt>
      <trkpt lat="46.02508" lon="4.65471">
        <ele>300.963500977</ele>
        <time>2016-01-14T12:28:33.427Z</time>
      </trkpt>
      <trkpt lat="46.02507" lon="4.65484">
        <ele>300.623596191</ele>
        <time>2016-01-14T12:28:39.445Z</time>
      </trkpt>
      <trkpt lat="46.02507" lon="4.65486">
        <ele>300.623443604</ele>
        <time>2016-01-14T12:28:40.423Z</time>
      </trkpt>
      <trkpt lat="46.02507" lon="4.65498">
        <ele>301.184783936</ele>
        <time>2016-01-14T12:28:46.468Z</time>
      </trkpt>
      <trkpt lat="46.02507" lon="4.655">
        <ele>301.192352295</ele>
        <time>2016-01-14T12:28:47.433Z</time>
      </trkpt>
      <trkpt lat="46.02502" lon="4.65511">
        <ele>300.65145874</ele>
        <time>2016-01-14T12:28:55.464Z</time>
      </trkpt>
      <trkpt lat="46.02501" lon="4.65512">
        <ele>300.602478027</ele>
        <time>2016-01-14T12:28:56.44Z</time>
      </trkpt>
      <trkpt lat="46.02496" lon="4.65522">
        <ele>299.886260986</ele>
        <time>2016-01-14T12:29:03.455Z</time>
      </trkpt>
      <trkpt lat="46.02496" lon="4.65524">
        <ele>299.799346924</ele>
        <time>2016-01-14T12:29:04.434Z</time>
      </trkpt>
      <trkpt lat="46.02494" lon="4.65536">
        <ele>298.810943604</ele>
        <time>2016-01-14T12:29:10.458Z</time>
      </trkpt>
      <trkpt lat="46.02494" lon="4.65538">
        <ele>298.68637085</ele>
        <time>2016-01-14T12:29:11.434Z</time>
      </trkpt>
      <trkpt lat="46.02492" lon="4.65549">
        <ele>297.988555908</ele>
        <time>2016-01-14T12:29:16.461Z</time>
      </trkpt>
      <trkpt lat="46.02492" lon="4.65551">
        <ele>297.783416748</ele>
        <time>2016-01-14T12:29:17.429Z</time>
      </trkpt>
      <trkpt lat="46.02492" lon="4.65563">
        <ele>296.892303467</ele>
        <time>2016-01-14T12:29:24.466Z</time>
      </trkpt>
      <trkpt lat="46.02491" lon="4.65564">
        <ele>296.776428223</ele>
        <time>2016-01-14T12:29:25.437Z</time>
      </trkpt>
      <trkpt lat="46.02489" lon="4.65577">
        <ele>296.103851318</ele>
        <time>2016-01-14T12:29:32.467Z</time>
      </trkpt>
      <trkpt lat="46.02489" lon="4.65578">
        <ele>296.007019043</ele>
        <time>2016-01-14T12:29:33.434Z</time>
      </trkpt>
      <trkpt lat="46.02486" lon="4.6559">
        <ele>295.370391846</ele>
        <time>2016-01-14T12:29:41.462Z</time>
      </trkpt>
      <trkpt lat="46.02485" lon="4.65591">
        <ele>295.39074707</ele>
        <time>2016-01-14T12:29:42.448Z</time>
      </trkpt>
      <trkpt lat="46.02485" lon="4.65604">
        <ele>295.626617432</ele>
        <time>2016-01-14T12:29:49.467Z</time>
      </trkpt>
      <trkpt lat="46.02485" lon="4.65606">
        <ele>295.643859863</ele>
        <time>2016-01-14T12:29:50.44Z</time>
      </trkpt>
      <trkpt lat="46.02485" lon="4.65618">
        <ele>295.806793213</ele>
        <time>2016-01-14T12:29:55.464Z</time>
      </trkpt>
      <trkpt lat="46.02484" lon="4.6562">
        <ele>295.883728027</ele>
        <time>2016-01-14T12:29:56.432Z</time>
      </trkpt>
      <trkpt lat="46.02484" lon="4.65631">
        <ele>295.862518311</ele>
        <time>2016-01-14T12:30:01.47Z</time>
      </trkpt>
      <trkpt lat="46.02483" lon="4.65634">
        <ele>295.868927002</ele>
        <time>2016-01-14T12:30:02.462Z</time>
      </trkpt>
      <trkpt lat="46.02481" lon="4.65644">
        <ele>295.641479492</ele>
        <time>2016-01-14T12:30:09.459Z</time>
      </trkpt>
      <trkpt lat="46.02481" lon="4.65646">
        <ele>295.530700684</ele>
        <time>2016-01-14T12:30:10.44Z</time>
      </trkpt>
      <trkpt lat="46.0248" lon="4.65657">
        <ele>295.428741455</ele>
        <time>2016-01-14T12:30:15.455Z</time>
      </trkpt>
      <trkpt lat="46.0248" lon="4.65659">
        <ele>295.364379883</ele>
        <time>2016-01-14T12:30:16.43Z</time>
      </trkpt>
      <trkpt lat="46.02481" lon="4.65672">
        <ele>295.067230225</ele>
        <time>2016-01-14T12:30:23.472Z</time>
      </trkpt>
      <trkpt lat="46.0248" lon="4.65673">
        <ele>295.003082275</ele>
        <time>2016-01-14T12:30:24.44Z</time>
      </trkpt>
      <trkpt lat="46.02479" lon="4.65686">
        <ele>294.454406738</ele>
        <time>2016-01-14T12:30:31.46Z</time>
      </trkpt>
      <trkpt lat="46.02478" lon="4.65688">
        <ele>294.348419189</ele>
        <time>2016-01-14T12:30:32.442Z</time>
      </trkpt>
      <trkpt lat="46.02477" lon="4.65699">
        <ele>294.146240234</ele>
        <time>2016-01-14T12:30:38.471Z</time>
      </trkpt>
      <trkpt lat="46.02477" lon="4.65701">
        <ele>294.2237854</ele>
        <time>2016-01-14T12:30:39.443Z</time>
      </trkpt>
      <trkpt lat="46.02479" lon="4.65713">
        <ele>294.796539307</ele>
        <time>2016-01-14T12:30:45.469Z</time>
      </trkpt>
      <trkpt lat="46.0248" lon="4.65715">
        <ele>294.809631348</ele>
        <time>2016-01-14T12:30:46.45Z</time>
      </trkpt>
      <trkpt lat="46.02479" lon="4.65727">
        <ele>295.176452637</ele>
        <time>2016-01-14T12:30:52.469Z</time>
      </trkpt>
      <trkpt lat="46.02479" lon="4.65729">
        <ele>295.186218262</ele>
        <time>2016-01-14T12:30:53.454Z</time>
      </trkpt>
      <trkpt lat="46.02478" lon="4.65741">
        <ele>294.941711426</ele>
        <time>2016-01-14T12:30:59.469Z</time>
      </trkpt>
      <trkpt lat="46.02478" lon="4.65743">
        <ele>294.899536133</ele>
        <time>2016-01-14T12:31:00.454Z</time>
      </trkpt>
      <trkpt lat="46.02477" lon="4.65755">
        <ele>294.933105469</ele>
        <time>2016-01-14T12:31:07.48Z</time>
      </trkpt>
      <trkpt lat="46.02477" lon="4.65757">
        <ele>294.96585083</ele>
        <time>2016-01-14T12:31:08.444Z</time>
      </trkpt>
      <trkpt lat="46.02478" lon="4.65769">
        <ele>295.337188721</ele>
        <time>2016-01-14T12:31:16.464Z</time>
      </trkpt>
      <trkpt lat="46.02479" lon="4.6577">
        <ele>295.397460938</ele>
        <time>2016-01-14T12:31:17.443Z</time>
      </trkpt>
      <trkpt lat="46.0248" lon="4.65781">
        <ele>295.429626465</ele>
        <time>2016-01-14T12:31:23.475Z</time>
      </trkpt>
      <trkpt lat="46.0248" lon="4.65783">
        <ele>295.419830322</ele>
        <time>2016-01-14T12:31:24.445Z</time>
      </trkpt>
      <trkpt lat="46.02483" lon="4.65794">
        <ele>295.630828857</ele>
        <time>2016-01-14T12:31:32.476Z</time>
      </trkpt>
      <trkpt lat="46.02484" lon="4.65796">
        <ele>295.639678955</ele>
        <time>2016-01-14T12:31:33.447Z</time>
      </trkpt>
      <trkpt lat="46.02486" lon="4.65808">
        <ele>295.814666748</ele>
        <time>2016-01-14T12:31:39.477Z</time>
      </trkpt>
      <trkpt lat="46.02487" lon="4.6581">
        <ele>295.846588135</ele>
        <time>2016-01-14T12:31:40.437Z</time>
      </trkpt>
      <trkpt lat="46.02488" lon="4.65822">
        <ele>295.535644531</ele>
        <time>2016-01-14T12:31:47.463Z</time>
      </trkpt>
      <trkpt lat="46.02489" lon="4.65825">
        <ele>295.466766357</ele>
        <time>2016-01-14T12:31:48.449Z</time>
      </trkpt>
      <trkpt lat="46.02491" lon="4.65835">
        <ele>295.401550293</ele>
        <time>2016-01-14T12:31:53.48Z</time>
      </trkpt>
      <trkpt lat="46.02491" lon="4.65837">
        <ele>295.432678223</ele>
        <time>2016-01-14T12:31:54.446Z</time>
      </trkpt>
      <trkpt lat="46.02494" lon="4.65849">
        <ele>295.623046875</ele>
        <time>2016-01-14T12:32:00.476Z</time>
      </trkpt>
      <trkpt lat="46.02494" lon="4.6585">
        <ele>295.631713867</ele>
        <time>2016-01-14T12:32:01.448Z</time>
      </trkpt>
      <trkpt lat="46.02497" lon="4.65861">
        <ele>295.724151611</ele>
        <time>2016-01-14T12:32:05.459Z</time>
      </trkpt>
      <trkpt lat="46.02497" lon="4.65864">
        <ele>295.766571045</ele>
        <time>2016-01-14T12:32:06.448Z</time>
      </trkpt>
      <trkpt lat="46.025" lon="4.65875">
        <ele>295.840576172</ele>
        <time>2016-01-14T12:32:12.469Z</time>
      </trkpt>
      <trkpt lat="46.025" lon="4.65877">
        <ele>295.873657227</ele>
        <time>2016-01-14T12:32:13.446Z</time>
      </trkpt>
      <trkpt lat="46.02503" lon="4.65889">
        <ele>295.504364014</ele>
        <time>2016-01-14T12:32:23.476Z</time>
      </trkpt>
      <trkpt lat="46.02504" lon="4.6589">
        <ele>295.450561523</ele>
        <time>2016-01-14T12:32:24.451Z</time>
      </trkpt>
      <trkpt lat="46.02506" lon="4.65902">
        <ele>294.929260254</ele>
        <time>2016-01-14T12:32:31.476Z</time>
      </trkpt>
      <trkpt lat="46.02506" lon="4.65903">
        <ele>294.925933838</ele>
        <time>2016-01-14T12:32:32.452Z</time>
      </trkpt>
      <trkpt lat="46.02512" lon="4.65912">
        <ele>295.045898438</ele>
        <time>2016-01-14T12:32:39.476Z</time>
      </trkpt>
      <trkpt lat="46.02512" lon="4.65914">
        <ele>295.087158203</ele>
        <time>2016-01-14T12:32:40.453Z</time>
      </trkpt>
      <trkpt lat="46.02513" lon="4.65925">
        <ele>295.219848633</ele>
        <time>2016-01-14T12:32:46.49Z</time>
      </trkpt>
      <trkpt lat="46.02513" lon="4.65927">
        <ele>295.268066406</ele>
        <time>2016-01-14T12:32:47.452Z</time>
      </trkpt>
      <trkpt lat="46.02513" lon="4.65939">
        <ele>295.449157715</ele>
        <time>2016-01-14T12:32:55.483Z</time>
      </trkpt>
      <trkpt lat="46.02513" lon="4.6594">
        <ele>295.45614624</ele>
        <time>2016-01-14T12:32:56.418Z</time>
      </trkpt>
      <trkpt lat="46.02517" lon="4.65952">
        <ele>295.854400635</ele>
        <time>2016-01-14T12:33:08.438Z</time>
      </trkpt>
      <trkpt lat="46.02517" lon="4.65954">
        <ele>295.838317871</ele>
        <time>2016-01-14T12:33:09.407Z</time>
      </trkpt>
      <trkpt lat="46.02519" lon="4.65964">
        <ele>295.594818115</ele>
        <time>2016-01-14T12:33:15.437Z</time>
      </trkpt>
      <trkpt lat="46.02519" lon="4.65966">
        <ele>295.5184021</ele>
        <time>2016-01-14T12:33:16.419Z</time>
      </trkpt>
      <trkpt lat="46.02522" lon="4.65977">
        <ele>294.977935791</ele>
        <time>2016-01-14T12:33:21.464Z</time>
      </trkpt>
      <trkpt lat="46.02522" lon="4.65979">
        <ele>294.896057129</ele>
        <time>2016-01-14T12:33:22.42Z</time>
      </trkpt>
      <trkpt lat="46.02525" lon="4.6599">
        <ele>294.523956299</ele>
        <time>2016-01-14T12:33:28.455Z</time>
      </trkpt>
      <trkpt lat="46.02526" lon="4.65993">
        <ele>294.458374023</ele>
        <time>2016-01-14T12:33:29.43Z</time>
      </trkpt>
      <trkpt lat="46.02528" lon="4.66005">
        <ele>293.964538574</ele>
        <time>2016-01-14T12:33:35.433Z</time>
      </trkpt>
      <trkpt lat="46.02528" lon="4.66007">
        <ele>293.887115479</ele>
        <time>2016-01-14T12:33:36.42Z</time>
      </trkpt>
      <trkpt lat="46.02532" lon="4.66018">
        <ele>293.640136719</ele>
        <time>2016-01-14T12:33:42.438Z</time>
      </trkpt>
      <trkpt lat="46.02533" lon="4.6602">
        <ele>293.639282227</ele>
        <time>2016-01-14T12:33:43.42Z</time>
      </trkpt>
      <trkpt lat="46.02536" lon="4.66031">
        <ele>293.870574951</ele>
        <time>2016-01-14T12:33:53.453Z</time>
      </trkpt>
      <trkpt lat="46.02537" lon="4.66033">
        <ele>293.84979248</ele>
        <time>2016-01-14T12:33:54.421Z</time>
      </trkpt>
      <trkpt lat="46.02538" lon="4.66045">
        <ele>293.484039307</ele>
        <time>2016-01-14T12:34:00.457Z</time>
      </trkpt>
      <trkpt lat="46.02538" lon="4.66047">
        <ele>293.39944458</ele>
        <time>2016-01-14T12:34:01.422Z</time>
      </trkpt>
      <trkpt lat="46.02541" lon="4.66059">
        <ele>292.930969238</ele>
        <time>2016-01-14T12:34:07.46Z</time>
      </trkpt>
      <trkpt lat="46.02541" lon="4.6606">
        <ele>292.943115234</ele>
        <time>2016-01-14T12:34:08.435Z</time>
      </trkpt>
      <trkpt lat="46.02543" lon="4.66072">
        <ele>292.642120361</ele>
        <time>2016-01-14T12:34:15.462Z</time>
      </trkpt>
      <trkpt lat="46.02543" lon="4.66074">
        <ele>292.540100098</ele>
        <time>2016-01-14T12:34:16.425Z</time>
      </trkpt>
      <trkpt lat="46.02545" lon="4.66085">
        <ele>292.333282471</ele>
        <time>2016-01-14T12:34:22.438Z</time>
      </trkpt>
      <trkpt lat="46.02546" lon="4.66087">
        <ele>292.337432861</ele>
        <time>2016-01-14T12:34:23.436Z</time>
      </trkpt>
      <trkpt lat="46.02547" lon="4.66098">
        <ele>292.553405762</ele>
        <time>2016-01-14T12:34:29.449Z</time>
      </trkpt>
      <trkpt lat="46.02547" lon="4.661">
        <ele>292.536743164</ele>
        <time>2016-01-14T12:34:30.423Z</time>
      </trkpt>
      <trkpt lat="46.0255" lon="4.66112">
        <ele>292.277496338</ele>
        <time>2016-01-14T12:34:37.499Z</time>
      </trkpt>
      <trkpt lat="46.0255" lon="4.66113">
        <ele>292.234313965</ele>
        <time>2016-01-14T12:34:38.43Z</time>
      </trkpt>
      <trkpt lat="46.02552" lon="4.66125">
        <ele>291.782165527</ele>
        <time>2016-01-14T12:34:45.455Z</time>
      </trkpt>
      <trkpt lat="46.02552" lon="4.66127">
        <ele>291.692993164</ele>
        <time>2016-01-14T12:34:46.434Z</time>
      </trkpt>
      <trkpt lat="46.02555" lon="4.66138">
        <ele>291.868652344</ele>
        <time>2016-01-14T12:34:54.452Z</time>
      </trkpt>
      <trkpt lat="46.02556" lon="4.66141">
        <ele>291.881256104</ele>
        <time>2016-01-14T12:34:55.432Z</time>
      </trkpt>
      <trkpt lat="46.02558" lon="4.66152">
        <ele>291.742828369</ele>
        <time>2016-01-14T12:35:00.442Z</time>
      </trkpt>
      <trkpt lat="46.02558" lon="4.66154">
        <ele>291.762329102</ele>
        <time>2016-01-14T12:35:01.424Z</time>
      </trkpt>
      <trkpt lat="46.02561" lon="4.66165">
        <ele>292.077880859</ele>
        <time>2016-01-14T12:35:06.463Z</time>
      </trkpt>
      <trkpt lat="46.02562" lon="4.66167">
        <ele>292.142456055</ele>
        <time>2016-01-14T12:35:07.427Z</time>
      </trkpt>
      <trkpt lat="46.02564" lon="4.66178">
        <ele>292.237670898</ele>
        <time>2016-01-14T12:35:13.496Z</time>
      </trkpt>
      <trkpt lat="46.02564" lon="4.6618">
        <ele>292.238098145</ele>
        <time>2016-01-14T12:35:14.437Z</time>
      </trkpt>
      <trkpt lat="46.02566" lon="4.6619">
        <ele>292.11618042</ele>
        <time>2016-01-14T12:35:19.459Z</time>
      </trkpt>
      <trkpt lat="46.02566" lon="4.66193">
        <ele>292.082336426</ele>
        <time>2016-01-14T12:35:20.431Z</time>
      </trkpt>
      <trkpt lat="46.02568" lon="4.66205">
        <ele>291.919006348</ele>
        <time>2016-01-14T12:35:25.461Z</time>
      </trkpt>
      <trkpt lat="46.02569" lon="4.66207">
        <ele>291.856506348</ele>
        <time>2016-01-14T12:35:26.439Z</time>
      </trkpt>
      <trkpt lat="46.02571" lon="4.66219">
        <ele>291.641662598</ele>
        <time>2016-01-14T12:35:33.463Z</time>
      </trkpt>
      <trkpt lat="46.02571" lon="4.6622">
        <ele>291.579772949</ele>
        <time>2016-01-14T12:35:34.43Z</time>
      </trkpt>
      <trkpt lat="46.02572" lon="4.66232">
        <ele>291.250427246</ele>
        <time>2016-01-14T12:35:41.472Z</time>
      </trkpt>
      <trkpt lat="46.02573" lon="4.66234">
        <ele>291.214172363</ele>
        <time>2016-01-14T12:35:42.443Z</time>
      </trkpt>
      <trkpt lat="46.02575" lon="4.66246">
        <ele>291.376922607</ele>
        <time>2016-01-14T12:35:48.46Z</time>
      </trkpt>
      <trkpt lat="46.02575" lon="4.66249">
        <ele>291.431243896</ele>
        <time>2016-01-14T12:35:49.434Z</time>
      </trkpt>
      <trkpt lat="46.02578" lon="4.6626">
        <ele>291.685577393</ele>
        <time>2016-01-14T12:35:55.463Z</time>
      </trkpt>
      <trkpt lat="46.02579" lon="4.66262">
        <ele>291.670074463</ele>
        <time>2016-01-14T12:35:56.432Z</time>
      </trkpt>
      <trkpt lat="46.02581" lon="4.66275">
        <ele>291.577423096</ele>
        <time>2016-01-14T12:36:04.47Z</time>
      </trkpt>
      <trkpt lat="46.02581" lon="4.66275">
        <ele>291.600616455</ele>
        <time>2016-01-14T12:36:05.437Z</time>
      </trkpt>
      <trkpt lat="46.02584" lon="4.66285">
        <ele>291.49987793</ele>
        <time>2016-01-14T12:36:12.444Z</time>
      </trkpt>
      <trkpt lat="46.02584" lon="4.66287">
        <ele>291.491882324</ele>
        <time>2016-01-14T12:36:13.431Z</time>
      </trkpt>
      <trkpt lat="46.02586" lon="4.66298">
        <ele>291.602325439</ele>
        <time>2016-01-14T12:36:17.472Z</time>
      </trkpt>
      <trkpt lat="46.02587" lon="4.663">
        <ele>291.671630859</ele>
        <time>2016-01-14T12:36:18.436Z</time>
      </trkpt>
      <trkpt lat="46.02589" lon="4.66312">
        <ele>291.491149902</ele>
        <time>2016-01-14T12:36:25.472Z</time>
      </trkpt>
      <trkpt lat="46.0259" lon="4.66313">
        <ele>291.510009766</ele>
        <time>2016-01-14T12:36:26.444Z</time>
      </trkpt>
      <trkpt lat="46.02591" lon="4.66324">
        <ele>291.381347656</ele>
        <time>2016-01-14T12:36:31.516Z</time>
      </trkpt>
      <trkpt lat="46.02591" lon="4.66326">
        <ele>291.296112061</ele>
        <time>2016-01-14T12:36:32.445Z</time>
      </trkpt>
      <trkpt lat="46.02593" lon="4.66338">
        <ele>290.460906982</ele>
        <time>2016-01-14T12:36:39.478Z</time>
      </trkpt>
      <trkpt lat="46.02593" lon="4.6634">
        <ele>290.39465332</ele>
        <time>2016-01-14T12:36:40.449Z</time>
      </trkpt>
      <trkpt lat="46.02595" lon="4.66351">
        <ele>289.976959229</ele>
        <time>2016-01-14T12:36:46.475Z</time>
      </trkpt>
      <trkpt lat="46.02595" lon="4.66354">
        <ele>289.941223145</ele>
        <time>2016-01-14T12:36:47.446Z</time>
      </trkpt>
      <trkpt lat="46.02597" lon="4.66366">
        <ele>289.361968994</ele>
        <time>2016-01-14T12:36:53.488Z</time>
      </trkpt>
      <trkpt lat="46.02598" lon="4.66368">
        <ele>289.308227539</ele>
        <time>2016-01-14T12:36:54.435Z</time>
      </trkpt>
      <trkpt lat="46.026" lon="4.66379">
        <ele>289.189117432</ele>
        <time>2016-01-14T12:37:01.522Z</time>
      </trkpt>
      <trkpt lat="46.026" lon="4.66381">
        <ele>289.153808594</ele>
        <time>2016-01-14T12:37:02.444Z</time>
      </trkpt>
      <trkpt lat="46.02601" lon="4.66391">
        <ele>289.031219482</ele>
        <time>2016-01-14T12:37:07.473Z</time>
      </trkpt>
      <trkpt lat="46.02602" lon="4.66395">
        <ele>289.020935059</ele>
        <time>2016-01-14T12:37:08.453Z</time>
      </trkpt>
      <trkpt lat="46.02604" lon="4.66407">
        <ele>288.880004883</ele>
        <time>2016-01-14T12:37:15.503Z</time>
      </trkpt>
      <trkpt lat="46.02604" lon="4.66409">
        <ele>288.862060547</ele>
        <time>2016-01-14T12:37:16.448Z</time>
      </trkpt>
      <trkpt lat="46.02606" lon="4.66419">
        <ele>289.103118896</ele>
        <time>2016-01-14T12:37:21.475Z</time>
      </trkpt>
      <trkpt lat="46.02607" lon="4.66422">
        <ele>289.110656738</ele>
        <time>2016-01-14T12:37:22.432Z</time>
      </trkpt>
      <trkpt lat="46.02607" lon="4.66434">
        <ele>288.764709473</ele>
        <time>2016-01-14T12:37:28.469Z</time>
      </trkpt>
      <trkpt lat="46.02607" lon="4.66435">
        <ele>288.74432373</ele>
        <time>2016-01-14T12:37:29.455Z</time>
      </trkpt>
      <trkpt lat="46.02608" lon="4.66448">
        <ele>288.479095459</ele>
        <time>2016-01-14T12:37:37.475Z</time>
      </trkpt>
      <trkpt lat="46.02608" lon="4.66449">
        <ele>288.424591064</ele>
        <time>2016-01-14T12:37:38.46Z</time>
      </trkpt>
      <trkpt lat="46.02609" lon="4.6646">
        <ele>288.340332031</ele>
        <time>2016-01-14T12:37:44.475Z</time>
      </trkpt>
      <trkpt lat="46.0261" lon="4.66463">
        <ele>288.379547119</ele>
        <time>2016-01-14T12:37:45.445Z</time>
      </trkpt>
      <trkpt lat="46.02611" lon="4.66475">
        <ele>288.565673828</ele>
        <time>2016-01-14T12:37:52.466Z</time>
      </trkpt>
      <trkpt lat="46.02611" lon="4.66475">
        <ele>288.619049072</ele>
        <time>2016-01-14T12:37:53.444Z</time>
      </trkpt>
      <trkpt lat="46.02612" lon="4.66487">
        <ele>288.855987549</ele>
        <time>2016-01-14T12:37:58.487Z</time>
      </trkpt>
      <trkpt lat="46.02612" lon="4.66489">
        <ele>288.864227295</ele>
        <time>2016-01-14T12:37:59.444Z</time>
      </trkpt>
      <trkpt lat="46.02614" lon="4.66501">
        <ele>288.522674561</ele>
        <time>2016-01-14T12:38:06.47Z</time>
      </trkpt>
      <trkpt lat="46.02614" lon="4.66504">
        <ele>288.525817871</ele>
        <time>2016-01-14T12:38:07.436Z</time>
      </trkpt>
      <trkpt lat="46.02614" lon="4.66515">
        <ele>288.113006592</ele>
        <time>2016-01-14T12:38:14.436Z</time>
      </trkpt>
      <trkpt lat="46.02614" lon="4.66518">
        <ele>288.094970703</ele>
        <time>2016-01-14T12:38:15.426Z</time>
      </trkpt>
      <trkpt lat="46.02616" lon="4.6653">
        <ele>287.679321289</ele>
        <time>2016-01-14T12:38:24.437Z</time>
      </trkpt>
      <trkpt lat="46.02616" lon="4.66532">
        <ele>287.67779541</ele>
        <time>2016-01-14T12:38:25.425Z</time>
      </trkpt>
      <trkpt lat="46.02618" lon="4.66544">
        <ele>287.649993896</ele>
        <time>2016-01-14T12:38:32.436Z</time>
      </trkpt>
      <trkpt lat="46.02618" lon="4.66546">
        <ele>287.678344727</ele>
        <time>2016-01-14T12:38:33.425Z</time>
      </trkpt>
      <trkpt lat="46.02619" lon="4.66557">
        <ele>287.791656494</ele>
        <time>2016-01-14T12:38:39.442Z</time>
      </trkpt>
      <trkpt lat="46.02619" lon="4.6656">
        <ele>287.859039307</ele>
        <time>2016-01-14T12:38:40.424Z</time>
      </trkpt>
      <trkpt lat="46.02621" lon="4.66572">
        <ele>288.058258057</ele>
        <time>2016-01-14T12:38:47.508Z</time>
      </trkpt>
      <trkpt lat="46.02621" lon="4.66575">
        <ele>288.118408203</ele>
        <time>2016-01-14T12:38:48.431Z</time>
      </trkpt>
      <trkpt lat="46.0262" lon="4.66588">
        <ele>288.196655273</ele>
        <time>2016-01-14T12:38:58.449Z</time>
      </trkpt>
      <trkpt lat="46.0262" lon="4.6659">
        <ele>288.166442871</ele>
        <time>2016-01-14T12:38:59.426Z</time>
      </trkpt>
      <trkpt lat="46.02621" lon="4.66603">
        <ele>288.343597412</ele>
        <time>2016-01-14T12:39:05.482Z</time>
      </trkpt>
      <trkpt lat="46.02622" lon="4.66604">
        <ele>288.374908447</ele>
        <time>2016-01-14T12:39:06.425Z</time>
      </trkpt>
      <trkpt lat="46.02623" lon="4.66617">
        <ele>288.469573975</ele>
        <time>2016-01-14T12:39:13.443Z</time>
      </trkpt>
      <trkpt lat="46.02623" lon="4.66619">
        <ele>288.423614502</ele>
        <time>2016-01-14T12:39:14.409Z</time>
      </trkpt>
      <trkpt lat="46.02624" lon="4.66631">
        <ele>288.03805542</ele>
        <time>2016-01-14T12:39:21.438Z</time>
      </trkpt>
      <trkpt lat="46.02625" lon="4.66632">
        <ele>288.011108398</ele>
        <time>2016-01-14T12:39:22.428Z</time>
      </trkpt>
      <trkpt lat="46.02626" lon="4.66644">
        <ele>287.754821777</ele>
        <time>2016-01-14T12:39:28.509Z</time>
      </trkpt>
      <trkpt lat="46.02627" lon="4.66646">
        <ele>287.64755249</ele>
        <time>2016-01-14T12:39:29.434Z</time>
      </trkpt>
      <trkpt lat="46.02629" lon="4.66657">
        <ele>287.5730896</ele>
        <time>2016-01-14T12:39:36.452Z</time>
      </trkpt>
      <trkpt lat="46.02629" lon="4.66659">
        <ele>287.539550781</ele>
        <time>2016-01-14T12:39:37.427Z</time>
      </trkpt>
      <trkpt lat="46.02633" lon="4.6667">
        <ele>287.62979126</ele>
        <time>2016-01-14T12:39:44.444Z</time>
      </trkpt>
      <trkpt lat="46.02633" lon="4.66672">
        <ele>287.614562988</ele>
        <time>2016-01-14T12:39:45.431Z</time>
      </trkpt>
      <trkpt lat="46.02636" lon="4.66684">
        <ele>287.556549072</ele>
        <time>2016-01-14T12:39:51.44Z</time>
      </trkpt>
      <trkpt lat="46.02637" lon="4.66686">
        <ele>287.551116943</ele>
        <time>2016-01-14T12:39:52.429Z</time>
      </trkpt>
      <trkpt lat="46.02641" lon="4.66697">
        <ele>287.506256104</ele>
        <time>2016-01-14T12:39:58.443Z</time>
      </trkpt>
      <trkpt lat="46.02641" lon="4.66698">
        <ele>287.460083008</ele>
        <time>2016-01-14T12:39:59.442Z</time>
      </trkpt>
      <trkpt lat="46.02645" lon="4.66709">
        <ele>287.417938232</ele>
        <time>2016-01-14T12:40:05.479Z</time>
      </trkpt>
      <trkpt lat="46.02645" lon="4.6671">
        <ele>287.491760254</ele>
        <time>2016-01-14T12:40:06.428Z</time>
      </trkpt>
      <trkpt lat="46.0265" lon="4.66721">
        <ele>287.477996826</ele>
        <time>2016-01-14T12:40:11.467Z</time>
      </trkpt>
      <trkpt lat="46.02651" lon="4.66723">
        <ele>287.447418213</ele>
        <time>2016-01-14T12:40:12.434Z</time>
      </trkpt>
      <trkpt lat="46.02655" lon="4.66733">
        <ele>287.10559082</ele>
        <time>2016-01-14T12:40:19.444Z</time>
      </trkpt>
      <trkpt lat="46.02656" lon="4.66734">
        <ele>287.085296631</ele>
        <time>2016-01-14T12:40:20.427Z</time>
      </trkpt>
      <trkpt lat="46.02661" lon="4.66744">
        <ele>286.954681396</ele>
        <time>2016-01-14T12:40:27.443Z</time>
      </trkpt>
      <trkpt lat="46.02662" lon="4.66745">
        <ele>287.02835083</ele>
        <time>2016-01-14T12:40:28.43Z</time>
      </trkpt>
      <trkpt lat="46.02666" lon="4.66754">
        <ele>287.427520752</ele>
        <time>2016-01-14T12:40:36.445Z</time>
      </trkpt>
      <trkpt lat="46.02667" lon="4.66756">
        <ele>287.443206787</ele>
        <time>2016-01-14T12:40:37.443Z</time>
      </trkpt>
      <trkpt lat="46.02672" lon="4.66766">
        <ele>287.639068604</ele>
        <time>2016-01-14T12:40:41.499Z</time>
      </trkpt>
      <trkpt lat="46.02672" lon="4.66768">
        <ele>287.684112549</ele>
        <time>2016-01-14T12:40:42.435Z</time>
      </trkpt>
      <trkpt lat="46.02676" lon="4.66778">
        <ele>287.921417236</ele>
        <time>2016-01-14T12:40:49.449Z</time>
      </trkpt>
      <trkpt lat="46.02677" lon="4.66779">
        <ele>288.002593994</ele>
        <time>2016-01-14T12:40:50.437Z</time>
      </trkpt>
      <trkpt lat="46.02681" lon="4.6679">
        <ele>288.242004395</ele>
        <time>2016-01-14T12:40:56.449Z</time>
      </trkpt>
      <trkpt lat="46.02682" lon="4.66793">
        <ele>288.237091064</ele>
        <time>2016-01-14T12:40:57.43Z</time>
      </trkpt>
      <trkpt lat="46.02686" lon="4.66802">
        <ele>288.123077393</ele>
        <time>2016-01-14T12:41:02.464Z</time>
      </trkpt>
      <trkpt lat="46.02687" lon="4.66804">
        <ele>288.123840332</ele>
        <time>2016-01-14T12:41:03.438Z</time>
      </trkpt>
      <trkpt lat="46.02691" lon="4.66813">
        <ele>287.777313232</ele>
        <time>2016-01-14T12:41:10.473Z</time>
      </trkpt>
      <trkpt lat="46.02692" lon="4.66815">
        <ele>287.660949707</ele>
        <time>2016-01-14T12:41:11.444Z</time>
      </trkpt>
      <trkpt lat="46.02697" lon="4.66824">
        <ele>287.119598389</ele>
        <time>2016-01-14T12:41:17.449Z</time>
      </trkpt>
      <trkpt lat="46.02697" lon="4.66826">
        <ele>287.048431396</ele>
        <time>2016-01-14T12:41:18.432Z</time>
      </trkpt>
      <trkpt lat="46.02702" lon="4.66835">
        <ele>286.329925537</ele>
        <time>2016-01-14T12:41:25.453Z</time>
      </trkpt>
      <trkpt lat="46.02702" lon="4.66836">
        <ele>286.278961182</ele>
        <time>2016-01-14T12:41:26.431Z</time>
      </trkpt>
      <trkpt lat="46.02706" lon="4.66846">
        <ele>285.635864258</ele>
        <time>2016-01-14T12:41:33.461Z</time>
      </trkpt>
      <trkpt lat="46.02707" lon="4.66848">
        <ele>285.497039795</ele>
        <time>2016-01-14T12:41:34.434Z</time>
      </trkpt>
      <trkpt lat="46.02711" lon="4.66858">
        <ele>285.27520752</ele>
        <time>2016-01-14T12:41:40.458Z</time>
      </trkpt>
      <trkpt lat="46.02713" lon="4.66861">
        <ele>285.370513916</ele>
        <time>2016-01-14T12:41:41.434Z</time>
      </trkpt>
      <trkpt lat="46.02716" lon="4.66871">
        <ele>285.691619873</ele>
        <time>2016-01-14T12:41:47.458Z</time>
      </trkpt>
      <trkpt lat="46.02717" lon="4.66874">
        <ele>285.713439941</ele>
        <time>2016-01-14T12:41:48.434Z</time>
      </trkpt>
      <trkpt lat="46.02721" lon="4.66885">
        <ele>285.721099854</ele>
        <time>2016-01-14T12:41:53.473Z</time>
      </trkpt>
      <trkpt lat="46.02722" lon="4.66887">
        <ele>285.673217773</ele>
        <time>2016-01-14T12:41:54.435Z</time>
      </trkpt>
      <trkpt lat="46.02726" lon="4.66896">
        <ele>285.37677002</ele>
        <time>2016-01-14T12:42:00.455Z</time>
      </trkpt>
      <trkpt lat="46.02727" lon="4.66899">
        <ele>285.354827881</ele>
        <time>2016-01-14T12:42:01.436Z</time>
      </trkpt>
      <trkpt lat="46.02732" lon="4.6691">
        <ele>285.299194336</ele>
        <time>2016-01-14T12:42:06.481Z</time>
      </trkpt>
      <trkpt lat="46.02732" lon="4.66911">
        <ele>285.308441162</ele>
        <time>2016-01-14T12:42:07.449Z</time>
      </trkpt>
      <trkpt lat="46.02737" lon="4.66921">
        <ele>285.261077881</ele>
        <time>2016-01-14T12:42:13.459Z</time>
      </trkpt>
      <trkpt lat="46.02738" lon="4.66923">
        <ele>285.26272583</ele>
        <time>2016-01-14T12:42:14.436Z</time>
      </trkpt>
      <trkpt lat="46.02742" lon="4.66933">
        <ele>285.162017822</ele>
        <time>2016-01-14T12:42:21.456Z</time>
      </trkpt>
      <trkpt lat="46.02743" lon="4.66934">
        <ele>285.115722656</ele>
        <time>2016-01-14T12:42:22.446Z</time>
      </trkpt>
      <trkpt lat="46.02748" lon="4.66945">
        <ele>285.166107178</ele>
        <time>2016-01-14T12:42:28.481Z</time>
      </trkpt>
      <trkpt lat="46.02748" lon="4.66946">
        <ele>285.128448486</ele>
        <time>2016-01-14T12:42:29.439Z</time>
      </trkpt>
      <trkpt lat="46.02752" lon="4.66955">
        <ele>284.729278564</ele>
        <time>2016-01-14T12:42:34.477Z</time>
      </trkpt>
      <trkpt lat="46.02753" lon="4.66958">
        <ele>284.690582275</ele>
        <time>2016-01-14T12:42:35.455Z</time>
      </trkpt>
      <trkpt lat="46.02758" lon="4.66968">
        <ele>284.5625</ele>
        <time>2016-01-14T12:42:40.47Z</time>
      </trkpt>
      <trkpt lat="46.02758" lon="4.66971">
        <ele>284.533599854</ele>
        <time>2016-01-14T12:42:41.441Z</time>
      </trkpt>
      <trkpt lat="46.02762" lon="4.66981">
        <ele>284.343444824</ele>
        <time>2016-01-14T12:42:47.475Z</time>
      </trkpt>
      <trkpt lat="46.02762" lon="4.66983">
        <ele>284.406433105</ele>
        <time>2016-01-14T12:42:48.442Z</time>
      </trkpt>
      <trkpt lat="46.02765" lon="4.66994">
        <ele>284.458343506</ele>
        <time>2016-01-14T12:42:54.469Z</time>
      </trkpt>
      <trkpt lat="46.02766" lon="4.66996">
        <ele>284.483734131</ele>
        <time>2016-01-14T12:42:55.442Z</time>
      </trkpt>
      <trkpt lat="46.02768" lon="4.67007">
        <ele>284.458282471</ele>
        <time>2016-01-14T12:43:00.448Z</time>
      </trkpt>
      <trkpt lat="46.02768" lon="4.6701">
        <ele>284.404998779</ele>
        <time>2016-01-14T12:43:01.446Z</time>
      </trkpt>
      <trkpt lat="46.02768" lon="4.67022">
        <ele>283.923309326</ele>
        <time>2016-01-14T12:43:07.486Z</time>
      </trkpt>
      <trkpt lat="46.02769" lon="4.67024">
        <ele>283.864746094</ele>
        <time>2016-01-14T12:43:08.426Z</time>
      </trkpt>
      <trkpt lat="46.02768" lon="4.67034">
        <ele>283.71887207</ele>
        <time>2016-01-14T12:43:13.468Z</time>
      </trkpt>
      <trkpt lat="46.02768" lon="4.67037">
        <ele>283.679351807</ele>
        <time>2016-01-14T12:43:14.452Z</time>
      </trkpt>
      <trkpt lat="46.02769" lon="4.67048">
        <ele>283.623260498</ele>
        <time>2016-01-14T12:43:19.476Z</time>
      </trkpt>
      <trkpt lat="46.02768" lon="4.67051">
        <ele>283.583770752</ele>
        <time>2016-01-14T12:43:20.443Z</time>
      </trkpt>
      <trkpt lat="46.02767" lon="4.67062">
        <ele>283.252410889</ele>
        <time>2016-01-14T12:43:25.466Z</time>
      </trkpt>
      <trkpt lat="46.02767" lon="4.67064">
        <ele>283.241363525</ele>
        <time>2016-01-14T12:43:26.445Z</time>
      </trkpt>
      <trkpt lat="46.02766" lon="4.67075">
        <ele>282.799499512</ele>
        <time>2016-01-14T12:43:32.46Z</time>
      </trkpt>
      <trkpt lat="46.02765" lon="4.67077">
        <ele>282.715209961</ele>
        <time>2016-01-14T12:43:33.426Z</time>
      </trkpt>
      <trkpt lat="46.02762" lon="4.67087">
        <ele>282.218566895</ele>
        <time>2016-01-14T12:43:39.44Z</time>
      </trkpt>
      <trkpt lat="46.02761" lon="4.67089">
        <ele>282.157684326</ele>
        <time>2016-01-14T12:43:40.425Z</time>
      </trkpt>
      <trkpt lat="46.02757" lon="4.67099">
        <ele>281.707397461</ele>
        <time>2016-01-14T12:43:46.452Z</time>
      </trkpt>
      <trkpt lat="46.02756" lon="4.67101">
        <ele>281.610931396</ele>
        <time>2016-01-14T12:43:47.425Z</time>
      </trkpt>
      <trkpt lat="46.02752" lon="4.67112">
        <ele>280.914276123</ele>
        <time>2016-01-14T12:43:55.439Z</time>
      </trkpt>
      <trkpt lat="46.02751" lon="4.67114">
        <ele>280.821655273</ele>
        <time>2016-01-14T12:43:56.424Z</time>
      </trkpt>
      <trkpt lat="46.02746" lon="4.67123">
        <ele>280.450286865</ele>
        <time>2016-01-14T12:44:02.464Z</time>
      </trkpt>
      <trkpt lat="46.02746" lon="4.67125">
        <ele>280.426513672</ele>
        <time>2016-01-14T12:44:03.432Z</time>
      </trkpt>
      <trkpt lat="46.02742" lon="4.67135">
        <ele>280.475219727</ele>
        <time>2016-01-14T12:44:09.443Z</time>
      </trkpt>
      <trkpt lat="46.02741" lon="4.67136">
        <ele>280.482116699</ele>
        <time>2016-01-14T12:44:10.426Z</time>
      </trkpt>
      <trkpt lat="46.02736" lon="4.67145">
        <ele>280.679443359</ele>
        <time>2016-01-14T12:44:16.447Z</time>
      </trkpt>
      <trkpt lat="46.02735" lon="4.67146">
        <ele>280.757293701</ele>
        <time>2016-01-14T12:44:17.426Z</time>
      </trkpt>
      <trkpt lat="46.02731" lon="4.67156">
        <ele>280.922058105</ele>
        <time>2016-01-14T12:44:23.448Z</time>
      </trkpt>
      <trkpt lat="46.0273" lon="4.67158">
        <ele>280.965087891</ele>
        <time>2016-01-14T12:44:24.426Z</time>
      </trkpt>
      <trkpt lat="46.02725" lon="4.67167">
        <ele>281.211975098</ele>
        <time>2016-01-14T12:44:30.446Z</time>
      </trkpt>
      <trkpt lat="46.02724" lon="4.67169">
        <ele>281.285339355</ele>
        <time>2016-01-14T12:44:31.444Z</time>
      </trkpt>
      <trkpt lat="46.02719" lon="4.67178">
        <ele>281.748931885</ele>
        <time>2016-01-14T12:44:37.441Z</time>
      </trkpt>
      <trkpt lat="46.02718" lon="4.6718">
        <ele>281.746337891</ele>
        <time>2016-01-14T12:44:38.43Z</time>
      </trkpt>
      <trkpt lat="46.02712" lon="4.67189">
        <ele>281.780212402</ele>
        <time>2016-01-14T12:44:45.44Z</time>
      </trkpt>
      <trkpt lat="46.02711" lon="4.67191">
        <ele>281.793579102</ele>
        <time>2016-01-14T12:44:46.427Z</time>
      </trkpt>
      <trkpt lat="46.02707" lon="4.67201">
        <ele>281.920562744</ele>
        <time>2016-01-14T12:44:53.445Z</time>
      </trkpt>
      <trkpt lat="46.02706" lon="4.67202">
        <ele>281.955932617</ele>
        <time>2016-01-14T12:44:54.427Z</time>
      </trkpt>
      <trkpt lat="46.02702" lon="4.67212">
        <ele>282.483978271</ele>
        <time>2016-01-14T12:45:00.454Z</time>
      </trkpt>
      <trkpt lat="46.02701" lon="4.67213">
        <ele>282.558013916</ele>
        <time>2016-01-14T12:45:01.427Z</time>
      </trkpt>
      <trkpt lat="46.02696" lon="4.67224">
        <ele>282.893127441</ele>
        <time>2016-01-14T12:45:07.46Z</time>
      </trkpt>
      <trkpt lat="46.02696" lon="4.67226">
        <ele>282.923034668</ele>
        <time>2016-01-14T12:45:08.428Z</time>
      </trkpt>
      <trkpt lat="46.02691" lon="4.67234">
        <ele>282.903167725</ele>
        <time>2016-01-14T12:45:13.44Z</time>
      </trkpt>
      <trkpt lat="46.0269" lon="4.67236">
        <ele>282.867218018</ele>
        <time>2016-01-14T12:45:14.429Z</time>
      </trkpt>
      <trkpt lat="46.02683" lon="4.67243">
        <ele>282.670196533</ele>
        <time>2016-01-14T12:45:21.443Z</time>
      </trkpt>
      <trkpt lat="46.02683" lon="4.67244">
        <ele>282.727325439</ele>
        <time>2016-01-14T12:45:22.429Z</time>
      </trkpt>
      <trkpt lat="46.02678" lon="4.67253">
        <ele>283.134277344</ele>
        <time>2016-01-14T12:45:28.483Z</time>
      </trkpt>
      <trkpt lat="46.02677" lon="4.67255">
        <ele>283.145019531</ele>
        <time>2016-01-14T12:45:29.435Z</time>
      </trkpt>
      <trkpt lat="46.02673" lon="4.67265">
        <ele>283.154632568</ele>
        <time>2016-01-14T12:45:35.448Z</time>
      </trkpt>
      <trkpt lat="46.02673" lon="4.67267">
        <ele>283.140258789</ele>
        <time>2016-01-14T12:45:36.413Z</time>
      </trkpt>
      <trkpt lat="46.02667" lon="4.67276">
        <ele>282.98739624</ele>
        <time>2016-01-14T12:45:42.462Z</time>
      </trkpt>
      <trkpt lat="46.02666" lon="4.67277">
        <ele>282.995056152</ele>
        <time>2016-01-14T12:45:43.439Z</time>
      </trkpt>
      <trkpt lat="46.02661" lon="4.67287">
        <ele>282.916107178</ele>
        <time>2016-01-14T12:45:48.439Z</time>
      </trkpt>
      <trkpt lat="46.02661" lon="4.67289">
        <ele>282.821502686</ele>
        <time>2016-01-14T12:45:49.436Z</time>
      </trkpt>
      <trkpt lat="46.02656" lon="4.67299">
        <ele>282.437835693</ele>
        <time>2016-01-14T12:45:54.447Z</time>
      </trkpt>
      <trkpt lat="46.02656" lon="4.67301">
        <ele>282.38394165</ele>
        <time>2016-01-14T12:45:55.432Z</time>
      </trkpt>
      <trkpt lat="46.02652" lon="4.67312">
        <ele>282.188323975</ele>
        <time>2016-01-14T12:46:02.428Z</time>
      </trkpt>
      <trkpt lat="46.02651" lon="4.67314">
        <ele>282.108093262</ele>
        <time>2016-01-14T12:46:03.428Z</time>
      </trkpt>
      <trkpt lat="46.02646" lon="4.67323">
        <ele>281.7706604</ele>
        <time>2016-01-14T12:46:08.427Z</time>
      </trkpt>
      <trkpt lat="46.02645" lon="4.67325">
        <ele>281.709014893</ele>
        <time>2016-01-14T12:46:09.433Z</time>
      </trkpt>
      <trkpt lat="46.02639" lon="4.67334">
        <ele>281.338317871</ele>
        <time>2016-01-14T12:46:15.446Z</time>
      </trkpt>
      <trkpt lat="46.02638" lon="4.67336">
        <ele>281.276397705</ele>
        <time>2016-01-14T12:46:16.424Z</time>
      </trkpt>
      <trkpt lat="46.02634" lon="4.67346">
        <ele>281.05065918</ele>
        <time>2016-01-14T12:46:22.445Z</time>
      </trkpt>
      <trkpt lat="46.02633" lon="4.67347">
        <ele>280.97277832</ele>
        <time>2016-01-14T12:46:23.43Z</time>
      </trkpt>
      <trkpt lat="46.02628" lon="4.67357">
        <ele>280.506988525</ele>
        <time>2016-01-14T12:46:29.481Z</time>
      </trkpt>
      <trkpt lat="46.02627" lon="4.67358">
        <ele>280.459716797</ele>
        <time>2016-01-14T12:46:30.432Z</time>
      </trkpt>
      <trkpt lat="46.02622" lon="4.67367">
        <ele>280.066467285</ele>
        <time>2016-01-14T12:46:35.447Z</time>
      </trkpt>
      <trkpt lat="46.02621" lon="4.67369">
        <ele>279.975006104</ele>
        <time>2016-01-14T12:46:36.417Z</time>
      </trkpt>
      <trkpt lat="46.02616" lon="4.67379">
        <ele>279.449890137</ele>
        <time>2016-01-14T12:46:42.452Z</time>
      </trkpt>
      <trkpt lat="46.02615" lon="4.6738">
        <ele>279.372192383</ele>
        <time>2016-01-14T12:46:43.433Z</time>
      </trkpt>
      <trkpt lat="46.0261" lon="4.6739">
        <ele>278.738739014</ele>
        <time>2016-01-14T12:46:49.447Z</time>
      </trkpt>
      <trkpt lat="46.02609" lon="4.67392">
        <ele>278.639678955</ele>
        <time>2016-01-14T12:46:50.43Z</time>
      </trkpt>
      <trkpt lat="46.0261" lon="4.67404">
        <ele>277.607330322</ele>
        <time>2016-01-14T12:47:02.439Z</time>
      </trkpt>
      <trkpt lat="46.02611" lon="4.67404">
        <ele>277.550628662</ele>
        <time>2016-01-14T12:47:03.417Z</time>
      </trkpt>
      <trkpt lat="46.0262" lon="4.67406">
        <ele>277.005096436</ele>
        <time>2016-01-14T12:47:09.421Z</time>
      </trkpt>
      <trkpt lat="46.02621" lon="4.67406">
        <ele>276.897186279</ele>
        <time>2016-01-14T12:47:10.422Z</time>
      </trkpt>
      <trkpt lat="46.0263" lon="4.67407">
        <ele>276.470581055</ele>
        <time>2016-01-14T12:47:16.429Z</time>
      </trkpt>
      <trkpt lat="46.02631" lon="4.67407">
        <ele>276.435699463</ele>
        <time>2016-01-14T12:47:17.414Z</time>
      </trkpt>
      <trkpt lat="46.0264" lon="4.67408">
        <ele>276.125518799</ele>
        <time>2016-01-14T12:47:23.532Z</time>
      </trkpt>
      <trkpt lat="46.02641" lon="4.67408">
        <ele>276.071044922</ele>
        <time>2016-01-14T12:47:24.421Z</time>
      </trkpt>
      <trkpt lat="46.0265" lon="4.67409">
        <ele>275.843414307</ele>
        <time>2016-01-14T12:47:30.435Z</time>
      </trkpt>
      <trkpt lat="46.02651" lon="4.67409">
        <ele>275.812408447</ele>
        <time>2016-01-14T12:47:31.415Z</time>
      </trkpt>
      <trkpt lat="46.02659" lon="4.6741">
        <ele>275.791259766</ele>
        <time>2016-01-14T12:47:37.447Z</time>
      </trkpt>
      <trkpt lat="46.02661" lon="4.6741">
        <ele>275.76763916</ele>
        <time>2016-01-14T12:47:38.437Z</time>
      </trkpt>
      <trkpt lat="46.02669" lon="4.67411">
        <ele>275.571807861</ele>
        <time>2016-01-14T12:47:44.436Z</time>
      </trkpt>
      <trkpt lat="46.0267" lon="4.67411">
        <ele>275.437011719</ele>
        <time>2016-01-14T12:47:45.416Z</time>
      </trkpt>
      <trkpt lat="46.02679" lon="4.67412">
        <ele>274.785430908</ele>
        <time>2016-01-14T12:47:51.417Z</time>
      </trkpt>
      <trkpt lat="46.0268" lon="4.67413">
        <ele>274.733825684</ele>
        <time>2016-01-14T12:47:52.423Z</time>
      </trkpt>
      <trkpt lat="46.02687" lon="4.67415">
        <ele>274.326385498</ele>
        <time>2016-01-14T12:47:57.432Z</time>
      </trkpt>
      <trkpt lat="46.02689" lon="4.67415">
        <ele>274.281646729</ele>
        <time>2016-01-14T12:47:58.429Z</time>
      </trkpt>
      <trkpt lat="46.02698" lon="4.67415">
        <ele>273.982849121</ele>
        <time>2016-01-14T12:48:04.436Z</time>
      </trkpt>
      <trkpt lat="46.02699" lon="4.67416">
        <ele>273.927246094</ele>
        <time>2016-01-14T12:48:05.428Z</time>
      </trkpt>
      <trkpt lat="46.02707" lon="4.67419">
        <ele>273.566925049</ele>
        <time>2016-01-14T12:48:11.427Z</time>
      </trkpt>
      <trkpt lat="46.02709" lon="4.67419">
        <ele>273.474517822</ele>
        <time>2016-01-14T12:48:12.416Z</time>
      </trkpt>
      <trkpt lat="46.02715" lon="4.67427">
        <ele>273.003479004</ele>
        <time>2016-01-14T12:48:20.435Z</time>
      </trkpt>
      <trkpt lat="46.02716" lon="4.67429">
        <ele>272.971435547</ele>
        <time>2016-01-14T12:48:21.428Z</time>
      </trkpt>
      <trkpt lat="46.02716" lon="4.67441">
        <ele>272.866973877</ele>
        <time>2016-01-14T12:48:26.44Z</time>
      </trkpt>
      <trkpt lat="46.02716" lon="4.67443">
        <ele>272.830535889</ele>
        <time>2016-01-14T12:48:27.414Z</time>
      </trkpt>
      <trkpt lat="46.02715" lon="4.67454">
        <ele>272.5625</ele>
        <time>2016-01-14T12:48:32.427Z</time>
      </trkpt>
      <trkpt lat="46.02714" lon="4.67456">
        <ele>272.555480957</ele>
        <time>2016-01-14T12:48:33.415Z</time>
      </trkpt>
      <trkpt lat="46.02711" lon="4.67468">
        <ele>272.159088135</ele>
        <time>2016-01-14T12:48:40.539Z</time>
      </trkpt>
      <trkpt lat="46.02711" lon="4.6747">
        <ele>272.10647583</ele>
        <time>2016-01-14T12:48:41.418Z</time>
      </trkpt>
      <trkpt lat="46.02709" lon="4.67481">
        <ele>271.945556641</ele>
        <time>2016-01-14T12:48:47.433Z</time>
      </trkpt>
      <trkpt lat="46.02709" lon="4.67483">
        <ele>271.917144775</ele>
        <time>2016-01-14T12:48:48.417Z</time>
      </trkpt>
      <trkpt lat="46.02706" lon="4.67494">
        <ele>271.766448975</ele>
        <time>2016-01-14T12:48:54.44Z</time>
      </trkpt>
      <trkpt lat="46.02705" lon="4.67496">
        <ele>271.704742432</ele>
        <time>2016-01-14T12:48:55.443Z</time>
      </trkpt>
      <trkpt lat="46.02701" lon="4.67506">
        <ele>271.465820312</ele>
        <time>2016-01-14T12:49:01.446Z</time>
      </trkpt>
      <trkpt lat="46.027" lon="4.67508">
        <ele>271.409423828</ele>
        <time>2016-01-14T12:49:02.419Z</time>
      </trkpt>
      <trkpt lat="46.02696" lon="4.67518">
        <ele>270.930969238</ele>
        <time>2016-01-14T12:49:08.437Z</time>
      </trkpt>
      <trkpt lat="46.02696" lon="4.6752">
        <ele>270.829559326</ele>
        <time>2016-01-14T12:49:09.419Z</time>
      </trkpt>
      <trkpt lat="46.02692" lon="4.6753">
        <ele>270.047210693</ele>
        <time>2016-01-14T12:49:15.457Z</time>
      </trkpt>
      <trkpt lat="46.02692" lon="4.67532">
        <ele>269.967498779</ele>
        <time>2016-01-14T12:49:16.418Z</time>
      </trkpt>
      <trkpt lat="46.02689" lon="4.67543">
        <ele>269.831115723</ele>
        <time>2016-01-14T12:49:22.438Z</time>
      </trkpt>
      <trkpt lat="46.02688" lon="4.67545">
        <ele>269.820800781</ele>
        <time>2016-01-14T12:49:23.425Z</time>
      </trkpt>
      <trkpt lat="46.02684" lon="4.67556">
        <ele>269.421081543</ele>
        <time>2016-01-14T12:49:29.444Z</time>
      </trkpt>
      <trkpt lat="46.02683" lon="4.67557">
        <ele>269.345947266</ele>
        <time>2016-01-14T12:49:30.419Z</time>
      </trkpt>
      <trkpt lat="46.0268" lon="4.67568">
        <ele>269.011444092</ele>
        <time>2016-01-14T12:49:36.444Z</time>
      </trkpt>
      <trkpt lat="46.02679" lon="4.6757">
        <ele>268.990142822</ele>
        <time>2016-01-14T12:49:37.457Z</time>
      </trkpt>
      <trkpt lat="46.02676" lon="4.6758">
        <ele>268.896636963</ele>
        <time>2016-01-14T12:49:42.442Z</time>
      </trkpt>
      <trkpt lat="46.02675" lon="4.67582">
        <ele>268.895385742</ele>
        <time>2016-01-14T12:49:43.42Z</time>
      </trkpt>
      <trkpt lat="46.02672" lon="4.67592">
        <ele>268.965789795</ele>
        <time>2016-01-14T12:49:48.449Z</time>
      </trkpt>
      <trkpt lat="46.02672" lon="4.67594">
        <ele>268.975311279</ele>
        <time>2016-01-14T12:49:49.428Z</time>
      </trkpt>
      <trkpt lat="46.02667" lon="4.67604">
        <ele>268.971099854</ele>
        <time>2016-01-14T12:49:55.482Z</time>
      </trkpt>
      <trkpt lat="46.02666" lon="4.67605">
        <ele>268.947387695</ele>
        <time>2016-01-14T12:49:56.432Z</time>
      </trkpt>
      <trkpt lat="46.02662" lon="4.67615">
        <ele>268.876464844</ele>
        <time>2016-01-14T12:50:01.443Z</time>
      </trkpt>
      <trkpt lat="46.02661" lon="4.67617">
        <ele>268.855865479</ele>
        <time>2016-01-14T12:50:02.426Z</time>
      </trkpt>
      <trkpt lat="46.02658" lon="4.67626">
        <ele>268.837463379</ele>
        <time>2016-01-14T12:50:07.442Z</time>
      </trkpt>
      <trkpt lat="46.02657" lon="4.67628">
        <ele>268.84854126</ele>
        <time>2016-01-14T12:50:08.428Z</time>
      </trkpt>
      <trkpt lat="46.02653" lon="4.67638">
        <ele>268.858551025</ele>
        <time>2016-01-14T12:50:14.447Z</time>
      </trkpt>
      <trkpt lat="46.02653" lon="4.6764">
        <ele>268.826171875</ele>
        <time>2016-01-14T12:50:15.473Z</time>
      </trkpt>
      <trkpt lat="46.02648" lon="4.67649">
        <ele>268.842803955</ele>
        <time>2016-01-14T12:50:21.539Z</time>
      </trkpt>
      <trkpt lat="46.02647" lon="4.6765">
        <ele>268.838989258</ele>
        <time>2016-01-14T12:50:22.438Z</time>
      </trkpt>
      <trkpt lat="46.02641" lon="4.67658">
        <ele>268.803161621</ele>
        <time>2016-01-14T12:50:27.462Z</time>
      </trkpt>
      <trkpt lat="46.0264" lon="4.6766">
        <ele>268.812591553</ele>
        <time>2016-01-14T12:50:28.434Z</time>
      </trkpt>
      <trkpt lat="46.02635" lon="4.67668">
        <ele>268.993255615</ele>
        <time>2016-01-14T12:50:34.446Z</time>
      </trkpt>
      <trkpt lat="46.02634" lon="4.6767">
        <ele>269.034698486</ele>
        <time>2016-01-14T12:50:35.428Z</time>
      </trkpt>
      <trkpt lat="46.02628" lon="4.67678">
        <ele>268.817382812</ele>
        <time>2016-01-14T12:50:41.45Z</time>
      </trkpt>
      <trkpt lat="46.02628" lon="4.6768">
        <ele>268.740600586</ele>
        <time>2016-01-14T12:50:42.467Z</time>
      </trkpt>
      <trkpt lat="46.02624" lon="4.67689">
        <ele>268.454223633</ele>
        <time>2016-01-14T12:50:47.476Z</time>
      </trkpt>
      <trkpt lat="46.02623" lon="4.67692">
        <ele>268.403320312</ele>
        <time>2016-01-14T12:50:48.428Z</time>
      </trkpt>
      <trkpt lat="46.02622" lon="4.67703">
        <ele>267.991699219</ele>
        <time>2016-01-14T12:50:54.457Z</time>
      </trkpt>
      <trkpt lat="46.02622" lon="4.67704">
        <ele>267.929779053</ele>
        <time>2016-01-14T12:50:55.427Z</time>
      </trkpt>
      <trkpt lat="46.02623" lon="4.67717">
        <ele>267.6902771</ele>
        <time>2016-01-14T12:51:01.462Z</time>
      </trkpt>
      <trkpt lat="46.02624" lon="4.67719">
        <ele>267.675750732</ele>
        <time>2016-01-14T12:51:02.428Z</time>
      </trkpt>
      <trkpt lat="46.02625" lon="4.6773">
        <ele>267.465667725</ele>
        <time>2016-01-14T12:51:08.464Z</time>
      </trkpt>
      <trkpt lat="46.02626" lon="4.67732">
        <ele>267.48336792</ele>
        <time>2016-01-14T12:51:09.429Z</time>
      </trkpt>
      <trkpt lat="46.02628" lon="4.67743">
        <ele>267.591796875</ele>
        <time>2016-01-14T12:51:15.464Z</time>
      </trkpt>
      <trkpt lat="46.02628" lon="4.67746">
        <ele>267.539428711</ele>
        <time>2016-01-14T12:51:16.43Z</time>
      </trkpt>
      <trkpt lat="46.02631" lon="4.67757">
        <ele>267.425964355</ele>
        <time>2016-01-14T12:51:22.464Z</time>
      </trkpt>
      <trkpt lat="46.02631" lon="4.67759">
        <ele>267.427703857</ele>
        <time>2016-01-14T12:51:23.414Z</time>
      </trkpt>
      <trkpt lat="46.02634" lon="4.6777">
        <ele>267.565856934</ele>
        <time>2016-01-14T12:51:29.473Z</time>
      </trkpt>
      <trkpt lat="46.02634" lon="4.67772">
        <ele>267.563232422</ele>
        <time>2016-01-14T12:51:30.435Z</time>
      </trkpt>
      <trkpt lat="46.02637" lon="4.67783">
        <ele>267.571807861</ele>
        <time>2016-01-14T12:51:36.45Z</time>
      </trkpt>
      <trkpt lat="46.02637" lon="4.67785">
        <ele>267.508361816</ele>
        <time>2016-01-14T12:51:37.429Z</time>
      </trkpt>
      <trkpt lat="46.0264" lon="4.67796">
        <ele>267.264923096</ele>
        <time>2016-01-14T12:51:43.429Z</time>
      </trkpt>
      <trkpt lat="46.02641" lon="4.67798">
        <ele>267.225280762</ele>
        <time>2016-01-14T12:51:44.413Z</time>
      </trkpt>
      <trkpt lat="46.02644" lon="4.67809">
        <ele>267.155944824</ele>
        <time>2016-01-14T12:51:50.463Z</time>
      </trkpt>
      <trkpt lat="46.02644" lon="4.67811">
        <ele>267.155853271</ele>
        <time>2016-01-14T12:51:51.414Z</time>
      </trkpt>
      <trkpt lat="46.02647" lon="4.67823">
        <ele>267.047943115</ele>
        <time>2016-01-14T12:51:57.448Z</time>
      </trkpt>
      <trkpt lat="46.02647" lon="4.67824">
        <ele>267.024353027</ele>
        <time>2016-01-14T12:51:58.392Z</time>
      </trkpt>
      <trkpt lat="46.0265" lon="4.67834">
        <ele>267.088989258</ele>
        <time>2016-01-14T12:52:04.564Z</time>
      </trkpt>
      <trkpt lat="46.02651" lon="4.67837">
        <ele>267.080596924</ele>
        <time>2016-01-14T12:52:05.41Z</time>
      </trkpt>
      <trkpt lat="46.02655" lon="4.67849">
        <ele>266.99041748</ele>
        <time>2016-01-14T12:52:10.429Z</time>
      </trkpt>
      <trkpt lat="46.02655" lon="4.67851">
        <ele>266.992156982</ele>
        <time>2016-01-14T12:52:11.418Z</time>
      </trkpt>
      <trkpt lat="46.02659" lon="4.67861">
        <ele>267.008850098</ele>
        <time>2016-01-14T12:52:18.429Z</time>
      </trkpt>
      <trkpt lat="46.02659" lon="4.67863">
        <ele>267.045318604</ele>
        <time>2016-01-14T12:52:19.415Z</time>
      </trkpt>
      <trkpt lat="46.02662" lon="4.67874">
        <ele>266.96496582</ele>
        <time>2016-01-14T12:52:25.43Z</time>
      </trkpt>
      <trkpt lat="46.02662" lon="4.67875">
        <ele>266.945068359</ele>
        <time>2016-01-14T12:52:26.415Z</time>
      </trkpt>
      <trkpt lat="46.02663" lon="4.67887">
        <ele>266.570220947</ele>
        <time>2016-01-14T12:52:35.447Z</time>
      </trkpt>
      <trkpt lat="46.02664" lon="4.67889">
        <ele>266.535583496</ele>
        <time>2016-01-14T12:52:36.444Z</time>
      </trkpt>
      <trkpt lat="46.02667" lon="4.67901">
        <ele>266.29107666</ele>
        <time>2016-01-14T12:52:44.441Z</time>
      </trkpt>
      <trkpt lat="46.02667" lon="4.67902">
        <ele>266.213226318</ele>
        <time>2016-01-14T12:52:45.451Z</time>
      </trkpt>
      <trkpt lat="46.0267" lon="4.67913">
        <ele>265.593811035</ele>
        <time>2016-01-14T12:52:50.434Z</time>
      </trkpt>
      <trkpt lat="46.0267" lon="4.67914">
        <ele>265.492004395</ele>
        <time>2016-01-14T12:52:51.415Z</time>
      </trkpt>
      <trkpt lat="46.02672" lon="4.67925">
        <ele>265.005310059</ele>
        <time>2016-01-14T12:52:58.43Z</time>
      </trkpt>
      <trkpt lat="46.02672" lon="4.67927">
        <ele>264.964996338</ele>
        <time>2016-01-14T12:52:59.416Z</time>
      </trkpt>
      <trkpt lat="46.02676" lon="4.67938">
        <ele>265.010070801</ele>
        <time>2016-01-14T12:53:06.43Z</time>
      </trkpt>
      <trkpt lat="46.02676" lon="4.6794">
        <ele>264.957427979</ele>
        <time>2016-01-14T12:53:07.426Z</time>
      </trkpt>
      <trkpt lat="46.02679" lon="4.6795">
        <ele>265.023223877</ele>
        <time>2016-01-14T12:53:14.442Z</time>
      </trkpt>
      <trkpt lat="46.0268" lon="4.67952">
        <ele>265.03314209</ele>
        <time>2016-01-14T12:53:15.417Z</time>
      </trkpt>
      <trkpt lat="46.02683" lon="4.67963">
        <ele>265.343353271</ele>
        <time>2016-01-14T12:53:21.447Z</time>
      </trkpt>
      <trkpt lat="46.02683" lon="4.67965">
        <ele>265.379852295</ele>
        <time>2016-01-14T12:53:22.433Z</time>
      </trkpt>
      <trkpt lat="46.02685" lon="4.67976">
        <ele>265.57623291</ele>
        <time>2016-01-14T12:53:28.432Z</time>
      </trkpt>
      <trkpt lat="46.02686" lon="4.67978">
        <ele>265.616943359</ele>
        <time>2016-01-14T12:53:29.421Z</time>
      </trkpt>
      <trkpt lat="46.0269" lon="4.67989">
        <ele>265.742767334</ele>
        <time>2016-01-14T12:53:35.525Z</time>
      </trkpt>
      <trkpt lat="46.0269" lon="4.67991">
        <ele>265.678375244</ele>
        <time>2016-01-14T12:53:36.426Z</time>
      </trkpt>
      <trkpt lat="46.02692" lon="4.68003">
        <ele>265.595092773</ele>
        <time>2016-01-14T12:53:43.437Z</time>
      </trkpt>
      <trkpt lat="46.02693" lon="4.68004">
        <ele>265.695281982</ele>
        <time>2016-01-14T12:53:44.418Z</time>
      </trkpt>
      <trkpt lat="46.02696" lon="4.68016">
        <ele>265.493164062</ele>
        <time>2016-01-14T12:53:52.441Z</time>
      </trkpt>
      <trkpt lat="46.02696" lon="4.68018">
        <ele>265.427124023</ele>
        <time>2016-01-14T12:53:53.418Z</time>
      </trkpt>
      <trkpt lat="46.02698" lon="4.68029">
        <ele>265.058685303</ele>
        <time>2016-01-14T12:54:00.437Z</time>
      </trkpt>
      <trkpt lat="46.02699" lon="4.6803">
        <ele>265.133239746</ele>
        <time>2016-01-14T12:54:01.42Z</time>
      </trkpt>
      <trkpt lat="46.02702" lon="4.68041">
        <ele>266.10043335</ele>
        <time>2016-01-14T12:54:08.435Z</time>
      </trkpt>
      <trkpt lat="46.02703" lon="4.68043">
        <ele>266.228942871</ele>
        <time>2016-01-14T12:54:09.419Z</time>
      </trkpt>
      <trkpt lat="46.02706" lon="4.68054">
        <ele>266.563537598</ele>
        <time>2016-01-14T12:54:14.471Z</time>
      </trkpt>
      <trkpt lat="46.02706" lon="4.68057">
        <ele>266.585021973</ele>
        <time>2016-01-14T12:54:15.426Z</time>
      </trkpt>
      <trkpt lat="46.02709" lon="4.68068">
        <ele>266.211914062</ele>
        <time>2016-01-14T12:54:21.485Z</time>
      </trkpt>
      <trkpt lat="46.0271" lon="4.68071">
        <ele>266.247283936</ele>
        <time>2016-01-14T12:54:22.426Z</time>
      </trkpt>
      <trkpt lat="46.02713" lon="4.68081">
        <ele>266.204284668</ele>
        <time>2016-01-14T12:54:27.45Z</time>
      </trkpt>
      <trkpt lat="46.02714" lon="4.68083">
        <ele>266.263671875</ele>
        <time>2016-01-14T12:54:28.42Z</time>
      </trkpt>
      <trkpt lat="46.02717" lon="4.68095">
        <ele>266.36819458</ele>
        <time>2016-01-14T12:54:34.459Z</time>
      </trkpt>
      <trkpt lat="46.02717" lon="4.68096">
        <ele>266.409667969</ele>
        <time>2016-01-14T12:54:35.421Z</time>
      </trkpt>
      <trkpt lat="46.02718" lon="4.68108">
        <ele>266.307159424</ele>
        <time>2016-01-14T12:54:41.445Z</time>
      </trkpt>
      <trkpt lat="46.02718" lon="4.6811">
        <ele>266.303497314</ele>
        <time>2016-01-14T12:54:42.43Z</time>
      </trkpt>
      <trkpt lat="46.02718" lon="4.68121">
        <ele>266.187896729</ele>
        <time>2016-01-14T12:54:47.441Z</time>
      </trkpt>
      <trkpt lat="46.02718" lon="4.68124">
        <ele>266.096252441</ele>
        <time>2016-01-14T12:54:48.421Z</time>
      </trkpt>
      <trkpt lat="46.02718" lon="4.68137">
        <ele>265.790740967</ele>
        <time>2016-01-14T12:54:54.444Z</time>
      </trkpt>
      <trkpt lat="46.02718" lon="4.68138">
        <ele>265.681945801</ele>
        <time>2016-01-14T12:54:55.418Z</time>
      </trkpt>
      <trkpt lat="46.02718" lon="4.68149">
        <ele>265.303833008</ele>
        <time>2016-01-14T12:55:01.449Z</time>
      </trkpt>
      <trkpt lat="46.02717" lon="4.68151">
        <ele>265.26852417</ele>
        <time>2016-01-14T12:55:02.42Z</time>
      </trkpt>
      <trkpt lat="46.02717" lon="4.68164">
        <ele>264.969970703</ele>
        <time>2016-01-14T12:55:08.45Z</time>
      </trkpt>
      <trkpt lat="46.02717" lon="4.68165">
        <ele>264.93536377</ele>
        <time>2016-01-14T12:55:09.436Z</time>
      </trkpt>
      <trkpt lat="46.02716" lon="4.68177">
        <ele>264.469024658</ele>
        <time>2016-01-14T12:55:15.57Z</time>
      </trkpt>
      <trkpt lat="46.02717" lon="4.68179">
        <ele>264.38671875</ele>
        <time>2016-01-14T12:55:16.429Z</time>
      </trkpt>
      <trkpt lat="46.02716" lon="4.6819">
        <ele>263.938018799</ele>
        <time>2016-01-14T12:55:22.447Z</time>
      </trkpt>
      <trkpt lat="46.02716" lon="4.68193">
        <ele>263.902709961</ele>
        <time>2016-01-14T12:55:23.425Z</time>
      </trkpt>
      <trkpt lat="46.02716" lon="4.68205">
        <ele>263.567810059</ele>
        <time>2016-01-14T12:55:29.451Z</time>
      </trkpt>
      <trkpt lat="46.02716" lon="4.68206">
        <ele>263.56451416</ele>
        <time>2016-01-14T12:55:30.439Z</time>
      </trkpt>
      <trkpt lat="46.02716" lon="4.68219">
        <ele>263.434417725</ele>
        <time>2016-01-14T12:55:36.46Z</time>
      </trkpt>
      <trkpt lat="46.02716" lon="4.68221">
        <ele>263.447784424</ele>
        <time>2016-01-14T12:55:37.434Z</time>
      </trkpt>
      <trkpt lat="46.02716" lon="4.68233">
        <ele>263.099578857</ele>
        <time>2016-01-14T12:55:45.455Z</time>
      </trkpt>
      <trkpt lat="46.02715" lon="4.68236">
        <ele>263.049133301</ele>
        <time>2016-01-14T12:55:46.424Z</time>
      </trkpt>
      <trkpt lat="46.02715" lon="4.68248">
        <ele>262.825469971</ele>
        <time>2016-01-14T12:55:51.458Z</time>
      </trkpt>
      <trkpt lat="46.02714" lon="4.6825">
        <ele>262.803344727</ele>
        <time>2016-01-14T12:55:52.43Z</time>
      </trkpt>
      <trkpt lat="46.02714" lon="4.68262">
        <ele>262.872711182</ele>
        <time>2016-01-14T12:55:59.462Z</time>
      </trkpt>
      <trkpt lat="46.02714" lon="4.68264">
        <ele>262.878356934</ele>
        <time>2016-01-14T12:56:00.428Z</time>
      </trkpt>
      <trkpt lat="46.02714" lon="4.68276">
        <ele>262.646148682</ele>
        <time>2016-01-14T12:56:06.451Z</time>
      </trkpt>
      <trkpt lat="46.02714" lon="4.68278">
        <ele>262.569091797</ele>
        <time>2016-01-14T12:56:07.435Z</time>
      </trkpt>
      <trkpt lat="46.02713" lon="4.68289">
        <ele>262.597320557</ele>
        <time>2016-01-14T12:56:13.46Z</time>
      </trkpt>
      <trkpt lat="46.02713" lon="4.68291">
        <ele>262.657653809</ele>
        <time>2016-01-14T12:56:14.43Z</time>
      </trkpt>
      <trkpt lat="46.02713" lon="4.68303">
        <ele>263.037017822</ele>
        <time>2016-01-14T12:56:20.469Z</time>
      </trkpt>
      <trkpt lat="46.02712" lon="4.68305">
        <ele>263.133911133</ele>
        <time>2016-01-14T12:56:21.443Z</time>
      </trkpt>
      <trkpt lat="46.02713" lon="4.68316">
        <ele>263.418182373</ele>
        <time>2016-01-14T12:56:26.463Z</time>
      </trkpt>
      <trkpt lat="46.02713" lon="4.68318">
        <ele>263.384765625</ele>
        <time>2016-01-14T12:56:27.429Z</time>
      </trkpt>
      <trkpt lat="46.02714" lon="4.6833">
        <ele>263.21472168</ele>
        <time>2016-01-14T12:56:33.462Z</time>
      </trkpt>
      <trkpt lat="46.02714" lon="4.68332">
        <ele>263.192199707</ele>
        <time>2016-01-14T12:56:34.438Z</time>
      </trkpt>
      <trkpt lat="46.02713" lon="4.68343">
        <ele>262.900085449</ele>
        <time>2016-01-14T12:56:40.474Z</time>
      </trkpt>
      <trkpt lat="46.02713" lon="4.68345">
        <ele>262.807556152</ele>
        <time>2016-01-14T12:56:41.434Z</time>
      </trkpt>
      <trkpt lat="46.02713" lon="4.68357">
        <ele>262.30166626</ele>
        <time>2016-01-14T12:56:47.456Z</time>
      </trkpt>
      <trkpt lat="46.02713" lon="4.68359">
        <ele>262.283538818</ele>
        <time>2016-01-14T12:56:48.435Z</time>
      </trkpt>
      <trkpt lat="46.02713" lon="4.68371">
        <ele>262.12197876</ele>
        <time>2016-01-14T12:56:54.427Z</time>
      </trkpt>
      <trkpt lat="46.02713" lon="4.68372">
        <ele>262.067596436</ele>
        <time>2016-01-14T12:56:55.404Z</time>
      </trkpt>
      <trkpt lat="46.02713" lon="4.68385">
        <ele>261.735412598</ele>
        <time>2016-01-14T12:57:01.429Z</time>
      </trkpt>
      <trkpt lat="46.02713" lon="4.68387">
        <ele>261.685882568</ele>
        <time>2016-01-14T12:57:02.409Z</time>
      </trkpt>
      <trkpt lat="46.02712" lon="4.68397">
        <ele>261.261444092</ele>
        <time>2016-01-14T12:57:08.428Z</time>
      </trkpt>
      <trkpt lat="46.02712" lon="4.68399">
        <ele>261.202148438</ele>
        <time>2016-01-14T12:57:09.417Z</time>
      </trkpt>
      <trkpt lat="46.02711" lon="4.6841">
        <ele>260.969421387</ele>
        <time>2016-01-14T12:57:14.426Z</time>
      </trkpt>
      <trkpt lat="46.02711" lon="4.68412">
        <ele>260.876342773</ele>
        <time>2016-01-14T12:57:15.414Z</time>
      </trkpt>
      <trkpt lat="46.02711" lon="4.68424">
        <ele>260.704437256</ele>
        <time>2016-01-14T12:57:21.429Z</time>
      </trkpt>
      <trkpt lat="46.02711" lon="4.68426">
        <ele>260.680511475</ele>
        <time>2016-01-14T12:57:22.416Z</time>
      </trkpt>
      <trkpt lat="46.0271" lon="4.68438">
        <ele>260.072570801</ele>
        <time>2016-01-14T12:57:29.437Z</time>
      </trkpt>
      <trkpt lat="46.0271" lon="4.6844">
        <ele>259.989532471</ele>
        <time>2016-01-14T12:57:30.428Z</time>
      </trkpt>
      <trkpt lat="46.0271" lon="4.68451">
        <ele>259.699157715</ele>
        <time>2016-01-14T12:57:36.472Z</time>
      </trkpt>
      <trkpt lat="46.0271" lon="4.68453">
        <ele>259.673706055</ele>
        <time>2016-01-14T12:57:37.42Z</time>
      </trkpt>
      <trkpt lat="46.0271" lon="4.68465">
        <ele>259.59564209</ele>
        <time>2016-01-14T12:57:42.434Z</time>
      </trkpt>
      <trkpt lat="46.0271" lon="4.68468">
        <ele>259.585601807</ele>
        <time>2016-01-14T12:57:43.415Z</time>
      </trkpt>
      <trkpt lat="46.0271" lon="4.68481">
        <ele>258.869476318</ele>
        <time>2016-01-14T12:57:50.448Z</time>
      </trkpt>
      <trkpt lat="46.0271" lon="4.68482">
        <ele>258.744537354</ele>
        <time>2016-01-14T12:57:51.424Z</time>
      </trkpt>
      <trkpt lat="46.0271" lon="4.68493">
        <ele>258.170013428</ele>
        <time>2016-01-14T12:57:57.439Z</time>
      </trkpt>
      <trkpt lat="46.0271" lon="4.68495">
        <ele>258.085327148</ele>
        <time>2016-01-14T12:57:58.422Z</time>
      </trkpt>
      <trkpt lat="46.0271" lon="4.68507">
        <ele>257.77053833</ele>
        <time>2016-01-14T12:58:03.43Z</time>
      </trkpt>
      <trkpt lat="46.0271" lon="4.68509">
        <ele>257.681488037</ele>
        <time>2016-01-14T12:58:04.415Z</time>
      </trkpt>
      <trkpt lat="46.0271" lon="4.6852">
        <ele>257.309844971</ele>
        <time>2016-01-14T12:58:10.494Z</time>
      </trkpt>
      <trkpt lat="46.02709" lon="4.68522">
        <ele>257.312042236</ele>
        <time>2016-01-14T12:58:11.42Z</time>
      </trkpt>
      <trkpt lat="46.02708" lon="4.68534">
        <ele>256.865234375</ele>
        <time>2016-01-14T12:58:17.434Z</time>
      </trkpt>
      <trkpt lat="46.02708" lon="4.68536">
        <ele>256.754364014</ele>
        <time>2016-01-14T12:58:18.416Z</time>
      </trkpt>
      <trkpt lat="46.02706" lon="4.68548">
        <ele>256.153533936</ele>
        <time>2016-01-14T12:58:25.433Z</time>
      </trkpt>
      <trkpt lat="46.02706" lon="4.6855">
        <ele>256.058319092</ele>
        <time>2016-01-14T12:58:26.416Z</time>
      </trkpt>
      <trkpt lat="46.02703" lon="4.68562">
        <ele>255.46913147</ele>
        <time>2016-01-14T12:58:32.435Z</time>
      </trkpt>
      <trkpt lat="46.02703" lon="4.68564">
        <ele>255.34135437</ele>
        <time>2016-01-14T12:58:33.416Z</time>
      </trkpt>
      <trkpt lat="46.02701" lon="4.68576">
        <ele>254.663360596</ele>
        <time>2016-01-14T12:58:39.439Z</time>
      </trkpt>
      <trkpt lat="46.027" lon="4.68577">
        <ele>254.56477356</ele>
        <time>2016-01-14T12:58:40.43Z</time>
      </trkpt>
      <trkpt lat="46.02697" lon="4.68588">
        <ele>254.202789307</ele>
        <time>2016-01-14T12:58:46.434Z</time>
      </trkpt>
      <trkpt lat="46.02697" lon="4.6859">
        <ele>254.134292603</ele>
        <time>2016-01-14T12:58:47.401Z</time>
      </trkpt>
      <trkpt lat="46.02694" lon="4.68601">
        <ele>253.957092285</ele>
        <time>2016-01-14T12:58:53.434Z</time>
      </trkpt>
      <trkpt lat="46.02693" lon="4.68603">
        <ele>253.910186768</ele>
        <time>2016-01-14T12:58:54.424Z</time>
      </trkpt>
      <trkpt lat="46.02689" lon="4.68614">
        <ele>253.563735962</ele>
        <time>2016-01-14T12:59:00.431Z</time>
      </trkpt>
      <trkpt lat="46.02688" lon="4.68615">
        <ele>253.513153076</ele>
        <time>2016-01-14T12:59:01.418Z</time>
      </trkpt>
      <trkpt lat="46.02684" lon="4.68627">
        <ele>253.128295898</ele>
        <time>2016-01-14T12:59:07.436Z</time>
      </trkpt>
      <trkpt lat="46.02684" lon="4.68628">
        <ele>253.098297119</ele>
        <time>2016-01-14T12:59:08.418Z</time>
      </trkpt>
      <trkpt lat="46.02681" lon="4.68639">
        <ele>252.784240723</ele>
        <time>2016-01-14T12:59:14.432Z</time>
      </trkpt>
      <trkpt lat="46.0268" lon="4.6864">
        <ele>252.692626953</ele>
        <time>2016-01-14T12:59:15.417Z</time>
      </trkpt>
      <trkpt lat="46.02677" lon="4.68651">
        <ele>252.248214722</ele>
        <time>2016-01-14T12:59:21.417Z</time>
      </trkpt>
      <trkpt lat="46.02676" lon="4.68653">
        <ele>252.191680908</ele>
        <time>2016-01-14T12:59:22.433Z</time>
      </trkpt>
      <trkpt lat="46.02672" lon="4.68664">
        <ele>251.693603516</ele>
        <time>2016-01-14T12:59:28.528Z</time>
      </trkpt>
      <trkpt lat="46.02671" lon="4.68666">
        <ele>251.627365112</ele>
        <time>2016-01-14T12:59:29.419Z</time>
      </trkpt>
      <trkpt lat="46.02667" lon="4.68676">
        <ele>251.003723145</ele>
        <time>2016-01-14T12:59:35.434Z</time>
      </trkpt>
      <trkpt lat="46.02667" lon="4.68678">
        <ele>250.926361084</ele>
        <time>2016-01-14T12:59:36.418Z</time>
      </trkpt>
      <trkpt lat="46.02664" lon="4.68689">
        <ele>250.538009644</ele>
        <time>2016-01-14T12:59:42.469Z</time>
      </trkpt>
      <trkpt lat="46.02663" lon="4.68691">
        <ele>250.414154053</ele>
        <time>2016-01-14T12:59:43.42Z</time>
      </trkpt>
      <trkpt lat="46.0266" lon="4.68702">
        <ele>249.827087402</ele>
        <time>2016-01-14T12:59:49.456Z</time>
      </trkpt>
      <trkpt lat="46.02659" lon="4.68703">
        <ele>249.759796143</ele>
        <time>2016-01-14T12:59:50.428Z</time>
      </trkpt>
      <trkpt lat="46.02656" lon="4.68714">
        <ele>249.281646729</ele>
        <time>2016-01-14T12:59:56.438Z</time>
      </trkpt>
      <trkpt lat="46.02656" lon="4.68716">
        <ele>249.296539307</ele>
        <time>2016-01-14T12:59:57.419Z</time>
      </trkpt>
      <trkpt lat="46.02653" lon="4.68726">
        <ele>249.205535889</ele>
        <time>2016-01-14T13:00:03.434Z</time>
      </trkpt>
      <trkpt lat="46.02652" lon="4.68728">
        <ele>249.162094116</ele>
        <time>2016-01-14T13:00:04.42Z</time>
      </trkpt>
      <trkpt lat="46.02649" lon="4.68739">
        <ele>248.925857544</ele>
        <time>2016-01-14T13:00:10.447Z</time>
      </trkpt>
      <trkpt lat="46.02648" lon="4.68741">
        <ele>248.894210815</ele>
        <time>2016-01-14T13:00:11.42Z</time>
      </trkpt>
      <trkpt lat="46.02645" lon="4.68751">
        <ele>248.515289307</ele>
        <time>2016-01-14T13:00:17.443Z</time>
      </trkpt>
      <trkpt lat="46.02644" lon="4.68753">
        <ele>248.464584351</ele>
        <time>2016-01-14T13:00:18.433Z</time>
      </trkpt>
      <trkpt lat="46.02641" lon="4.68763">
        <ele>247.825836182</ele>
        <time>2016-01-14T13:00:24.442Z</time>
      </trkpt>
      <trkpt lat="46.0264" lon="4.68765">
        <ele>247.75213623</ele>
        <time>2016-01-14T13:00:25.436Z</time>
      </trkpt>
      <trkpt lat="46.02637" lon="4.68776">
        <ele>246.996749878</ele>
        <time>2016-01-14T13:00:33.45Z</time>
      </trkpt>
      <trkpt lat="46.02636" lon="4.68778">
        <ele>246.927078247</ele>
        <time>2016-01-14T13:00:34.426Z</time>
      </trkpt>
      <trkpt lat="46.02632" lon="4.68789">
        <ele>246.464645386</ele>
        <time>2016-01-14T13:00:40.447Z</time>
      </trkpt>
      <trkpt lat="46.02631" lon="4.6879">
        <ele>246.420791626</ele>
        <time>2016-01-14T13:00:41.436Z</time>
      </trkpt>
      <trkpt lat="46.02626" lon="4.688">
        <ele>246.090118408</ele>
        <time>2016-01-14T13:00:48.469Z</time>
      </trkpt>
      <trkpt lat="46.02625" lon="4.68801">
        <ele>246.031188965</ele>
        <time>2016-01-14T13:00:49.427Z</time>
      </trkpt>
      <trkpt lat="46.02619" lon="4.6881">
        <ele>245.760070801</ele>
        <time>2016-01-14T13:00:56.541Z</time>
      </trkpt>
      <trkpt lat="46.02618" lon="4.68811">
        <ele>245.716247559</ele>
        <time>2016-01-14T13:00:57.421Z</time>
      </trkpt>
      <trkpt lat="46.02611" lon="4.68818">
        <ele>245.446380615</ele>
        <time>2016-01-14T13:01:03.461Z</time>
      </trkpt>
      <trkpt lat="46.0261" lon="4.68819">
        <ele>245.388046265</ele>
        <time>2016-01-14T13:01:04.442Z</time>
      </trkpt>
      <trkpt lat="46.02603" lon="4.68825">
        <ele>245.282440186</ele>
        <time>2016-01-14T13:01:10.458Z</time>
      </trkpt>
      <trkpt lat="46.02601" lon="4.68826">
        <ele>245.285705566</ele>
        <time>2016-01-14T13:01:11.429Z</time>
      </trkpt>
      <trkpt lat="46.02594" lon="4.68834">
        <ele>245.102386475</ele>
        <time>2016-01-14T13:01:19.455Z</time>
      </trkpt>
      <trkpt lat="46.02593" lon="4.68835">
        <ele>245.055526733</ele>
        <time>2016-01-14T13:01:20.422Z</time>
      </trkpt>
      <trkpt lat="46.02586" lon="4.68842">
        <ele>244.780517578</ele>
        <time>2016-01-14T13:01:26.455Z</time>
      </trkpt>
      <trkpt lat="46.02585" lon="4.68843">
        <ele>244.761734009</ele>
        <time>2016-01-14T13:01:27.427Z</time>
      </trkpt>
      <trkpt lat="46.02578" lon="4.6885">
        <ele>244.802368164</ele>
        <time>2016-01-14T13:01:34.457Z</time>
      </trkpt>
      <trkpt lat="46.02577" lon="4.68851">
        <ele>244.806991577</ele>
        <time>2016-01-14T13:01:35.431Z</time>
      </trkpt>
      <trkpt lat="46.0257" lon="4.68856">
        <ele>244.768798828</ele>
        <time>2016-01-14T13:01:41.47Z</time>
      </trkpt>
      <trkpt lat="46.02568" lon="4.68857">
        <ele>244.759567261</ele>
        <time>2016-01-14T13:01:42.431Z</time>
      </trkpt>
      <trkpt lat="46.0256" lon="4.68859">
        <ele>244.788925171</ele>
        <time>2016-01-14T13:01:49.462Z</time>
      </trkpt>
      <trkpt lat="46.02559" lon="4.6886">
        <ele>244.824066162</ele>
        <time>2016-01-14T13:01:50.435Z</time>
      </trkpt>
      <trkpt lat="46.0255" lon="4.68861">
        <ele>244.826217651</ele>
        <time>2016-01-14T13:01:56.466Z</time>
      </trkpt>
      <trkpt lat="46.02548" lon="4.68861">
        <ele>244.816665649</ele>
        <time>2016-01-14T13:01:57.426Z</time>
      </trkpt>
      <trkpt lat="46.02539" lon="4.68861">
        <ele>244.615539551</ele>
        <time>2016-01-14T13:02:03.574Z</time>
      </trkpt>
      <trkpt lat="46.02538" lon="4.68861">
        <ele>244.559234619</ele>
        <time>2016-01-14T13:02:04.45Z</time>
      </trkpt>
      <trkpt lat="46.0253" lon="4.68861">
        <ele>244.372283936</ele>
        <time>2016-01-14T13:02:11.425Z</time>
      </trkpt>
      <trkpt lat="46.02529" lon="4.68861">
        <ele>244.403198242</ele>
        <time>2016-01-14T13:02:12.406Z</time>
      </trkpt>
      <trkpt lat="46.0252" lon="4.68861">
        <ele>244.680053711</ele>
        <time>2016-01-14T13:02:19.455Z</time>
      </trkpt>
      <trkpt lat="46.02518" lon="4.68861">
        <ele>244.718215942</ele>
        <time>2016-01-14T13:02:20.416Z</time>
      </trkpt>
      <trkpt lat="46.0251" lon="4.6886">
        <ele>245.107971191</ele>
        <time>2016-01-14T13:02:26.434Z</time>
      </trkpt>
      <trkpt lat="46.02509" lon="4.6886">
        <ele>245.120910645</ele>
        <time>2016-01-14T13:02:27.408Z</time>
      </trkpt>
      <trkpt lat="46.025" lon="4.6886">
        <ele>245.329330444</ele>
        <time>2016-01-14T13:02:33.438Z</time>
      </trkpt>
      <trkpt lat="46.02499" lon="4.6886">
        <ele>245.354537964</ele>
        <time>2016-01-14T13:02:34.414Z</time>
      </trkpt>
      <trkpt lat="46.02491" lon="4.68858">
        <ele>245.620300293</ele>
        <time>2016-01-14T13:02:41.425Z</time>
      </trkpt>
      <trkpt lat="46.02489" lon="4.68858">
        <ele>245.643035889</ele>
        <time>2016-01-14T13:02:42.411Z</time>
      </trkpt>
      <trkpt lat="46.02482" lon="4.68857">
        <ele>245.658660889</ele>
        <time>2016-01-14T13:02:46.463Z</time>
      </trkpt>
      <trkpt lat="46.0248" lon="4.68857">
        <ele>245.632369995</ele>
        <time>2016-01-14T13:02:47.41Z</time>
      </trkpt>
      <trkpt lat="46.02472" lon="4.68855">
        <ele>245.438903809</ele>
        <time>2016-01-14T13:02:54.444Z</time>
      </trkpt>
      <trkpt lat="46.02471" lon="4.68855">
        <ele>245.437057495</ele>
        <time>2016-01-14T13:02:55.428Z</time>
      </trkpt>
      <trkpt lat="46.02462" lon="4.68854">
        <ele>245.238967896</ele>
        <time>2016-01-14T13:03:02.43Z</time>
      </trkpt>
      <trkpt lat="46.02461" lon="4.68854">
        <ele>245.230651855</ele>
        <time>2016-01-14T13:03:03.411Z</time>
      </trkpt>
      <trkpt lat="46.02453" lon="4.68852">
        <ele>245.453399658</ele>
        <time>2016-01-14T13:03:10.428Z</time>
      </trkpt>
      <trkpt lat="46.02451" lon="4.68852">
        <ele>245.472442627</ele>
        <time>2016-01-14T13:03:11.409Z</time>
      </trkpt>
      <trkpt lat="46.02443" lon="4.6885">
        <ele>245.552520752</ele>
        <time>2016-01-14T13:03:17.453Z</time>
      </trkpt>
      <trkpt lat="46.02441" lon="4.6885">
        <ele>245.584854126</ele>
        <time>2016-01-14T13:03:18.415Z</time>
      </trkpt>
      <trkpt lat="46.02434" lon="4.68848">
        <ele>245.702285767</ele>
        <time>2016-01-14T13:03:23.434Z</time>
      </trkpt>
      <trkpt lat="46.02432" lon="4.68848">
        <ele>245.741210938</ele>
        <time>2016-01-14T13:03:24.421Z</time>
      </trkpt>
      <trkpt lat="46.02425" lon="4.68851">
        <ele>245.667984009</ele>
        <time>2016-01-14T13:03:30.43Z</time>
      </trkpt>
      <trkpt lat="46.02423" lon="4.68852">
        <ele>245.644607544</ele>
        <time>2016-01-14T13:03:31.415Z</time>
      </trkpt>
      <trkpt lat="46.02419" lon="4.68863">
        <ele>245.423782349</ele>
        <time>2016-01-14T13:03:36.451Z</time>
      </trkpt>
      <trkpt lat="46.02419" lon="4.68865">
        <ele>245.340560913</ele>
        <time>2016-01-14T13:03:37.421Z</time>
      </trkpt>
      <trkpt lat="46.02418" lon="4.68875">
        <ele>245.02911377</ele>
        <time>2016-01-14T13:03:43.428Z</time>
      </trkpt>
      <trkpt lat="46.02418" lon="4.68877">
        <ele>244.980102539</ele>
        <time>2016-01-14T13:03:44.412Z</time>
      </trkpt>
      <trkpt lat="46.02417" lon="4.68889">
        <ele>244.801757812</ele>
        <time>2016-01-14T13:03:50.436Z</time>
      </trkpt>
      <trkpt lat="46.02417" lon="4.68891">
        <ele>244.755935669</ele>
        <time>2016-01-14T13:03:51.412Z</time>
      </trkpt>
      <trkpt lat="46.02415" lon="4.68902">
        <ele>244.427734375</ele>
        <time>2016-01-14T13:03:57.442Z</time>
      </trkpt>
      <trkpt lat="46.02415" lon="4.68904">
        <ele>244.472869873</ele>
        <time>2016-01-14T13:03:58.412Z</time>
      </trkpt>
      <trkpt lat="46.02412" lon="4.68915">
        <ele>244.285888672</ele>
        <time>2016-01-14T13:04:04.439Z</time>
      </trkpt>
      <trkpt lat="46.02412" lon="4.68917">
        <ele>244.270492554</ele>
        <time>2016-01-14T13:04:05.434Z</time>
      </trkpt>
      <trkpt lat="46.02411" lon="4.68928">
        <ele>244.33102417</ele>
        <time>2016-01-14T13:04:11.452Z</time>
      </trkpt>
      <trkpt lat="46.02411" lon="4.68931">
        <ele>244.305953979</ele>
        <time>2016-01-14T13:04:12.423Z</time>
      </trkpt>
      <trkpt lat="46.02409" lon="4.68943">
        <ele>244.270904541</ele>
        <time>2016-01-14T13:04:18.451Z</time>
      </trkpt>
      <trkpt lat="46.02409" lon="4.68945">
        <ele>244.30581665</ele>
        <time>2016-01-14T13:04:19.422Z</time>
      </trkpt>
      <trkpt lat="46.02408" lon="4.68957">
        <ele>244.082473755</ele>
        <time>2016-01-14T13:04:25.443Z</time>
      </trkpt>
      <trkpt lat="46.02407" lon="4.68959">
        <ele>244.107849121</ele>
        <time>2016-01-14T13:04:26.416Z</time>
      </trkpt>
      <trkpt lat="46.02406" lon="4.68969">
        <ele>243.90737915</ele>
        <time>2016-01-14T13:04:32.445Z</time>
      </trkpt>
      <trkpt lat="46.02406" lon="4.68971">
        <ele>243.826812744</ele>
        <time>2016-01-14T13:04:33.417Z</time>
      </trkpt>
      <trkpt lat="46.02405" lon="4.68983">
        <ele>243.601211548</ele>
        <time>2016-01-14T13:04:38.453Z</time>
      </trkpt>
      <trkpt lat="46.02404" lon="4.68985">
        <ele>243.54258728</ele>
        <time>2016-01-14T13:04:39.425Z</time>
      </trkpt>
      <trkpt lat="46.02403" lon="4.68998">
        <ele>242.92855835</ele>
        <time>2016-01-14T13:04:46.472Z</time>
      </trkpt>
      <trkpt lat="46.02403" lon="4.68998">
        <ele>242.737945557</ele>
        <time>2016-01-14T13:04:47.422Z</time>
      </trkpt>
      <trkpt lat="46.02402" lon="4.6901">
        <ele>241.900024414</ele>
        <time>2016-01-14T13:04:53.478Z</time>
      </trkpt>
      <trkpt lat="46.02401" lon="4.69013">
        <ele>241.828140259</ele>
        <time>2016-01-14T13:04:54.427Z</time>
      </trkpt>
      <trkpt lat="46.024" lon="4.69024">
        <ele>241.560058594</ele>
        <time>2016-01-14T13:04:59.445Z</time>
      </trkpt>
      <trkpt lat="46.024" lon="4.69027">
        <ele>241.541595459</ele>
        <time>2016-01-14T13:05:00.429Z</time>
      </trkpt>
      <trkpt lat="46.02399" lon="4.69037">
        <ele>241.403167725</ele>
        <time>2016-01-14T13:05:05.437Z</time>
      </trkpt>
      <trkpt lat="46.02398" lon="4.69039">
        <ele>241.409072876</ele>
        <time>2016-01-14T13:05:06.424Z</time>
      </trkpt>
      <trkpt lat="46.02397" lon="4.6905">
        <ele>241.463973999</ele>
        <time>2016-01-14T13:05:12.469Z</time>
      </trkpt>
      <trkpt lat="46.02397" lon="4.69052">
        <ele>241.43019104</ele>
        <time>2016-01-14T13:05:13.422Z</time>
      </trkpt>
      <trkpt lat="46.02396" lon="4.69062">
        <ele>241.256912231</ele>
        <time>2016-01-14T13:05:19.466Z</time>
      </trkpt>
      <trkpt lat="46.02396" lon="4.69065">
        <ele>241.244689941</ele>
        <time>2016-01-14T13:05:20.429Z</time>
      </trkpt>
      <trkpt lat="46.02394" lon="4.69077">
        <ele>241.237365723</ele>
        <time>2016-01-14T13:05:27.448Z</time>
      </trkpt>
      <trkpt lat="46.02394" lon="4.6908">
        <ele>241.27003479</ele>
        <time>2016-01-14T13:05:28.421Z</time>
      </trkpt>
      <trkpt lat="46.02392" lon="4.69092">
        <ele>241.305786133</ele>
        <time>2016-01-14T13:05:34.465Z</time>
      </trkpt>
      <trkpt lat="46.02392" lon="4.69094">
        <ele>241.335632324</ele>
        <time>2016-01-14T13:05:35.422Z</time>
      </trkpt>
      <trkpt lat="46.0239" lon="4.69105">
        <ele>241.550949097</ele>
        <time>2016-01-14T13:05:41.462Z</time>
      </trkpt>
      <trkpt lat="46.0239" lon="4.69107">
        <ele>241.568435669</ele>
        <time>2016-01-14T13:05:42.425Z</time>
      </trkpt>
      <trkpt lat="46.02389" lon="4.69119">
        <ele>241.711975098</ele>
        <time>2016-01-14T13:05:48.461Z</time>
      </trkpt>
      <trkpt lat="46.02389" lon="4.69121">
        <ele>241.713165283</ele>
        <time>2016-01-14T13:05:49.431Z</time>
      </trkpt>
      <trkpt lat="46.02387" lon="4.69134">
        <ele>241.441757202</ele>
        <time>2016-01-14T13:05:55.458Z</time>
      </trkpt>
      <trkpt lat="46.02387" lon="4.69136">
        <ele>241.374099731</ele>
        <time>2016-01-14T13:05:56.408Z</time>
      </trkpt>
      <trkpt lat="46.02386" lon="4.69147">
        <ele>241.259033203</ele>
        <time>2016-01-14T13:06:03.481Z</time>
      </trkpt>
      <trkpt lat="46.02385" lon="4.69149">
        <ele>241.330093384</ele>
        <time>2016-01-14T13:06:04.433Z</time>
      </trkpt>
      <trkpt lat="46.02384" lon="4.69161">
        <ele>241.369018555</ele>
        <time>2016-01-14T13:06:09.459Z</time>
      </trkpt>
      <trkpt lat="46.02384" lon="4.69162">
        <ele>241.381484985</ele>
        <time>2016-01-14T13:06:10.423Z</time>
      </trkpt>
      <trkpt lat="46.02383" lon="4.69175">
        <ele>241.410202026</ele>
        <time>2016-01-14T13:06:16.462Z</time>
      </trkpt>
      <trkpt lat="46.02382" lon="4.69177">
        <ele>241.376861572</ele>
        <time>2016-01-14T13:06:17.429Z</time>
      </trkpt>
      <trkpt lat="46.0238" lon="4.69189">
        <ele>240.761474609</ele>
        <time>2016-01-14T13:06:24.445Z</time>
      </trkpt>
      <trkpt lat="46.02379" lon="4.69191">
        <ele>240.685058594</ele>
        <time>2016-01-14T13:06:25.424Z</time>
      </trkpt>
      <trkpt lat="46.02376" lon="4.69202">
        <ele>240.263961792</ele>
        <time>2016-01-14T13:06:31.449Z</time>
      </trkpt>
      <trkpt lat="46.02376" lon="4.69204">
        <ele>240.208969116</ele>
        <time>2016-01-14T13:06:32.428Z</time>
      </trkpt>
      <trkpt lat="46.0237" lon="4.69213">
        <ele>239.856750488</ele>
        <time>2016-01-14T13:06:39.459Z</time>
      </trkpt>
      <trkpt lat="46.02369" lon="4.69214">
        <ele>239.83152771</ele>
        <time>2016-01-14T13:06:40.435Z</time>
      </trkpt>
      <trkpt lat="46.02362" lon="4.69219">
        <ele>239.455795288</ele>
        <time>2016-01-14T13:06:46.447Z</time>
      </trkpt>
      <trkpt lat="46.02361" lon="4.6922">
        <ele>239.375228882</ele>
        <time>2016-01-14T13:06:47.428Z</time>
      </trkpt>
      <trkpt lat="46.02354" lon="4.69224">
        <ele>239.051651001</ele>
        <time>2016-01-14T13:06:53.465Z</time>
      </trkpt>
      <trkpt lat="46.02352" lon="4.69225">
        <ele>239.038543701</ele>
        <time>2016-01-14T13:06:54.439Z</time>
      </trkpt>
      <trkpt lat="46.02345" lon="4.69228">
        <ele>239.107955933</ele>
        <time>2016-01-14T13:06:59.452Z</time>
      </trkpt>
      <trkpt lat="46.02344" lon="4.69229">
        <ele>239.040527344</ele>
        <time>2016-01-14T13:07:00.427Z</time>
      </trkpt>
      <trkpt lat="46.02336" lon="4.69233">
        <ele>238.959823608</ele>
        <time>2016-01-14T13:07:06.457Z</time>
      </trkpt>
      <trkpt lat="46.02334" lon="4.69234">
        <ele>238.931427002</ele>
        <time>2016-01-14T13:07:07.433Z</time>
      </trkpt>
      <trkpt lat="46.02326" lon="4.69239">
        <ele>238.906738281</ele>
        <time>2016-01-14T13:07:14.477Z</time>
      </trkpt>
      <trkpt lat="46.02325" lon="4.69239">
        <ele>238.981842041</ele>
        <time>2016-01-14T13:07:15.437Z</time>
      </trkpt>
      <trkpt lat="46.02317" lon="4.69245">
        <ele>239.020935059</ele>
        <time>2016-01-14T13:07:22.473Z</time>
      </trkpt>
      <trkpt lat="46.02315" lon="4.69246">
        <ele>238.963241577</ele>
        <time>2016-01-14T13:07:23.435Z</time>
      </trkpt>
      <trkpt lat="46.02307" lon="4.69251">
        <ele>238.694992065</ele>
        <time>2016-01-14T13:07:28.448Z</time>
      </trkpt>
      <trkpt lat="46.02306" lon="4.69252">
        <ele>238.6144104</ele>
        <time>2016-01-14T13:07:29.408Z</time>
      </trkpt>
      <trkpt lat="46.02298" lon="4.69255">
        <ele>238.189590454</ele>
        <time>2016-01-14T13:07:35.427Z</time>
      </trkpt>
      <trkpt lat="46.02297" lon="4.69256">
        <ele>238.140838623</ele>
        <time>2016-01-14T13:07:36.414Z</time>
      </trkpt>
      <trkpt lat="46.0229" lon="4.6926">
        <ele>237.708877563</ele>
        <time>2016-01-14T13:07:41.412Z</time>
      </trkpt>
      <trkpt lat="46.02288" lon="4.6926">
        <ele>237.617584229</ele>
        <time>2016-01-14T13:07:42.418Z</time>
      </trkpt>
      <trkpt lat="46.0228" lon="4.69266">
        <ele>237.308990479</ele>
        <time>2016-01-14T13:07:49.43Z</time>
      </trkpt>
      <trkpt lat="46.02279" lon="4.69266">
        <ele>237.277694702</ele>
        <time>2016-01-14T13:07:50.425Z</time>
      </trkpt>
      <trkpt lat="46.02272" lon="4.69271">
        <ele>237.252227783</ele>
        <time>2016-01-14T13:07:55.425Z</time>
      </trkpt>
      <trkpt lat="46.0227" lon="4.69272">
        <ele>237.240905762</ele>
        <time>2016-01-14T13:07:56.415Z</time>
      </trkpt>
      <trkpt lat="46.02262" lon="4.69277">
        <ele>236.823883057</ele>
        <time>2016-01-14T13:08:02.428Z</time>
      </trkpt>
      <trkpt lat="46.02261" lon="4.69277">
        <ele>236.774337769</ele>
        <time>2016-01-14T13:08:03.417Z</time>
      </trkpt>
      <trkpt lat="46.02254" lon="4.69281">
        <ele>236.723205566</ele>
        <time>2016-01-14T13:08:09.462Z</time>
      </trkpt>
      <trkpt lat="46.02253" lon="4.69282">
        <ele>236.718215942</ele>
        <time>2016-01-14T13:08:10.416Z</time>
      </trkpt>
      <trkpt lat="46.02246" lon="4.69286">
        <ele>236.735900879</ele>
        <time>2016-01-14T13:08:16.452Z</time>
      </trkpt>
      <trkpt lat="46.02244" lon="4.69287">
        <ele>236.742828369</ele>
        <time>2016-01-14T13:08:17.42Z</time>
      </trkpt>
      <trkpt lat="46.02237" lon="4.69292">
        <ele>236.692550659</ele>
        <time>2016-01-14T13:08:23.433Z</time>
      </trkpt>
      <trkpt lat="46.02235" lon="4.69293">
        <ele>236.691955566</ele>
        <time>2016-01-14T13:08:24.415Z</time>
      </trkpt>
      <trkpt lat="46.02227" lon="4.69298">
        <ele>236.535934448</ele>
        <time>2016-01-14T13:08:30.427Z</time>
      </trkpt>
      <trkpt lat="46.02226" lon="4.69299">
        <ele>236.510650635</ele>
        <time>2016-01-14T13:08:31.415Z</time>
      </trkpt>
      <trkpt lat="46.0222" lon="4.69304">
        <ele>236.502410889</ele>
        <time>2016-01-14T13:08:37.503Z</time>
      </trkpt>
      <trkpt lat="46.02218" lon="4.69305">
        <ele>236.550354004</ele>
        <time>2016-01-14T13:08:38.423Z</time>
      </trkpt>
      <trkpt lat="46.02211" lon="4.6931">
        <ele>236.30317688</ele>
        <time>2016-01-14T13:08:44.448Z</time>
      </trkpt>
      <trkpt lat="46.0221" lon="4.69311">
        <ele>236.300674438</ele>
        <time>2016-01-14T13:08:45.413Z</time>
      </trkpt>
      <trkpt lat="46.02203" lon="4.69316">
        <ele>236.198364258</ele>
        <time>2016-01-14T13:08:51.465Z</time>
      </trkpt>
      <trkpt lat="46.02202" lon="4.69317">
        <ele>236.167022705</ele>
        <time>2016-01-14T13:08:52.415Z</time>
      </trkpt>
      <trkpt lat="46.02196" lon="4.69324">
        <ele>236.344909668</ele>
        <time>2016-01-14T13:09:00.454Z</time>
      </trkpt>
      <trkpt lat="46.02195" lon="4.69326">
        <ele>236.323455811</ele>
        <time>2016-01-14T13:09:01.417Z</time>
      </trkpt>
      <trkpt lat="46.0219" lon="4.69335">
        <ele>236.66557312</ele>
        <time>2016-01-14T13:09:07.437Z</time>
      </trkpt>
      <trkpt lat="46.02189" lon="4.69337">
        <ele>236.712158203</ele>
        <time>2016-01-14T13:09:08.416Z</time>
      </trkpt>
      <trkpt lat="46.02183" lon="4.69345">
        <ele>236.995956421</ele>
        <time>2016-01-14T13:09:15.431Z</time>
      </trkpt>
      <trkpt lat="46.02182" lon="4.69347">
        <ele>237.029663086</ele>
        <time>2016-01-14T13:09:16.418Z</time>
      </trkpt>
      <trkpt lat="46.02176" lon="4.69355">
        <ele>237.67024231</ele>
        <time>2016-01-14T13:09:24.43Z</time>
      </trkpt>
      <trkpt lat="46.02175" lon="4.69356">
        <ele>237.773529053</ele>
        <time>2016-01-14T13:09:25.42Z</time>
      </trkpt>
      <trkpt lat="46.0217" lon="4.69364">
        <ele>238.165756226</ele>
        <time>2016-01-14T13:09:32.448Z</time>
      </trkpt>
      <trkpt lat="46.02168" lon="4.69366">
        <ele>238.262924194</ele>
        <time>2016-01-14T13:09:33.417Z</time>
      </trkpt>
      <trkpt lat="46.02162" lon="4.69374">
        <ele>238.046585083</ele>
        <time>2016-01-14T13:09:40.436Z</time>
      </trkpt>
      <trkpt lat="46.02162" lon="4.69374">
        <ele>238.022949219</ele>
        <time>2016-01-14T13:09:41.418Z</time>
      </trkpt>
      <trkpt lat="46.02155" lon="4.69383">
        <ele>238.042663574</ele>
        <time>2016-01-14T13:09:48.433Z</time>
      </trkpt>
      <trkpt lat="46.02153" lon="4.69384">
        <ele>238.012008667</ele>
        <time>2016-01-14T13:09:49.418Z</time>
      </trkpt>
      <trkpt lat="46.02145" lon="4.6939">
        <ele>237.624191284</ele>
        <time>2016-01-14T13:09:55.456Z</time>
      </trkpt>
      <trkpt lat="46.02145" lon="4.69391">
        <ele>237.501983643</ele>
        <time>2016-01-14T13:09:56.434Z</time>
      </trkpt>
      <trkpt lat="46.02137" lon="4.69396">
        <ele>236.711303711</ele>
        <time>2016-01-14T13:10:03.47Z</time>
      </trkpt>
      <trkpt lat="46.02136" lon="4.69397">
        <ele>236.742645264</ele>
        <time>2016-01-14T13:10:04.42Z</time>
      </trkpt>
      <trkpt lat="46.02129" lon="4.69404">
        <ele>238.423370361</ele>
        <time>2016-01-14T13:14:30.43Z</time>
      </trkpt>
      <trkpt lat="46.02127" lon="4.69405">
        <ele>238.319030762</ele>
        <time>2016-01-14T13:14:31.411Z</time>
      </trkpt>
      <trkpt lat="46.0212" lon="4.69411">
        <ele>238.218688965</ele>
        <time>2016-01-14T13:14:38.43Z</time>
      </trkpt>
      <trkpt lat="46.02119" lon="4.69412">
        <ele>238.33203125</ele>
        <time>2016-01-14T13:14:39.411Z</time>
      </trkpt>
      <trkpt lat="46.02114" lon="4.69419">
        <ele>238.496002197</ele>
        <time>2016-01-14T13:14:47.45Z</time>
      </trkpt>
      <trkpt lat="46.02113" lon="4.69421">
        <ele>238.455245972</ele>
        <time>2016-01-14T13:14:48.427Z</time>
      </trkpt>
      <trkpt lat="46.02108" lon="4.69429">
        <ele>238.538040161</ele>
        <time>2016-01-14T13:14:54.449Z</time>
      </trkpt>
      <trkpt lat="46.02107" lon="4.69431">
        <ele>238.488586426</ele>
        <time>2016-01-14T13:14:55.433Z</time>
      </trkpt>
      <trkpt lat="46.02101" lon="4.6944">
        <ele>237.9402771</ele>
        <time>2016-01-14T13:15:01.439Z</time>
      </trkpt>
      <trkpt lat="46.021" lon="4.69442">
        <ele>237.893356323</ele>
        <time>2016-01-14T13:15:02.414Z</time>
      </trkpt>
      <trkpt lat="46.02096" lon="4.69453">
        <ele>237.440246582</ele>
        <time>2016-01-14T13:15:09.443Z</time>
      </trkpt>
      <trkpt lat="46.02095" lon="4.69454">
        <ele>237.383956909</ele>
        <time>2016-01-14T13:15:10.418Z</time>
      </trkpt>
      <trkpt lat="46.0209" lon="4.69465">
        <ele>237.499404907</ele>
        <time>2016-01-14T13:15:17.441Z</time>
      </trkpt>
      <trkpt lat="46.02089" lon="4.69466">
        <ele>237.635177612</ele>
        <time>2016-01-14T13:15:18.426Z</time>
      </trkpt>
      <trkpt lat="46.02084" lon="4.69475">
        <ele>238.085922241</ele>
        <time>2016-01-14T13:15:24.449Z</time>
      </trkpt>
      <trkpt lat="46.02083" lon="4.69477">
        <ele>238.054672241</ele>
        <time>2016-01-14T13:15:25.451Z</time>
      </trkpt>
      <trkpt lat="46.02078" lon="4.69486">
        <ele>237.511459351</ele>
        <time>2016-01-14T13:15:31.441Z</time>
      </trkpt>
      <trkpt lat="46.02077" lon="4.69488">
        <ele>237.418884277</ele>
        <time>2016-01-14T13:15:32.414Z</time>
      </trkpt>
      <trkpt lat="46.02073" lon="4.69497">
        <ele>237.269485474</ele>
        <time>2016-01-14T13:15:39.433Z</time>
      </trkpt>
      <trkpt lat="46.02072" lon="4.69499">
        <ele>237.266235352</ele>
        <time>2016-01-14T13:15:40.42Z</time>
      </trkpt>
      <trkpt lat="46.02068" lon="4.69509">
        <ele>237.274963379</ele>
        <time>2016-01-14T13:15:46.454Z</time>
      </trkpt>
      <trkpt lat="46.02067" lon="4.69511">
        <ele>237.254501343</ele>
        <time>2016-01-14T13:15:47.42Z</time>
      </trkpt>
      <trkpt lat="46.02061" lon="4.6952">
        <ele>237.009063721</ele>
        <time>2016-01-14T13:15:53.45Z</time>
      </trkpt>
      <trkpt lat="46.0206" lon="4.69522">
        <ele>236.981170654</ele>
        <time>2016-01-14T13:15:54.42Z</time>
      </trkpt>
      <trkpt lat="46.02056" lon="4.69531">
        <ele>236.708023071</ele>
        <time>2016-01-14T13:16:00.453Z</time>
      </trkpt>
      <trkpt lat="46.02055" lon="4.69532">
        <ele>236.668441772</ele>
        <time>2016-01-14T13:16:01.421Z</time>
      </trkpt>
      <trkpt lat="46.0205" lon="4.69543">
        <ele>236.411621094</ele>
        <time>2016-01-14T13:16:07.436Z</time>
      </trkpt>
      <trkpt lat="46.02049" lon="4.69545">
        <ele>236.39642334</ele>
        <time>2016-01-14T13:16:08.421Z</time>
      </trkpt>
      <trkpt lat="46.02045" lon="4.69554">
        <ele>236.421386719</ele>
        <time>2016-01-14T13:16:14.455Z</time>
      </trkpt>
      <trkpt lat="46.02044" lon="4.69556">
        <ele>236.501495361</ele>
        <time>2016-01-14T13:16:15.422Z</time>
      </trkpt>
      <trkpt lat="46.0204" lon="4.69565">
        <ele>236.358016968</ele>
        <time>2016-01-14T13:16:20.459Z</time>
      </trkpt>
      <trkpt lat="46.02039" lon="4.69567">
        <ele>236.311553955</ele>
        <time>2016-01-14T13:16:21.421Z</time>
      </trkpt>
      <trkpt lat="46.02033" lon="4.69577">
        <ele>236.167251587</ele>
        <time>2016-01-14T13:16:28.456Z</time>
      </trkpt>
      <trkpt lat="46.02032" lon="4.69579">
        <ele>236.163101196</ele>
        <time>2016-01-14T13:16:29.435Z</time>
      </trkpt>
      <trkpt lat="46.02027" lon="4.69589">
        <ele>235.91355896</ele>
        <time>2016-01-14T13:16:36.455Z</time>
      </trkpt>
      <trkpt lat="46.02026" lon="4.6959">
        <ele>235.911636353</ele>
        <time>2016-01-14T13:16:37.428Z</time>
      </trkpt>
      <trkpt lat="46.0202" lon="4.69599">
        <ele>235.746704102</ele>
        <time>2016-01-14T13:16:43.455Z</time>
      </trkpt>
      <trkpt lat="46.0202" lon="4.696">
        <ele>235.7059021</ele>
        <time>2016-01-14T13:16:44.434Z</time>
      </trkpt>
      <trkpt lat="46.02015" lon="4.69609">
        <ele>235.241149902</ele>
        <time>2016-01-14T13:16:50.547Z</time>
      </trkpt>
      <trkpt lat="46.02014" lon="4.69611">
        <ele>235.151657104</ele>
        <time>2016-01-14T13:16:51.409Z</time>
      </trkpt>
      <trkpt lat="46.0201" lon="4.6962">
        <ele>234.662902832</ele>
        <time>2016-01-14T13:16:57.456Z</time>
      </trkpt>
      <trkpt lat="46.02009" lon="4.69622">
        <ele>234.585357666</ele>
        <time>2016-01-14T13:16:58.433Z</time>
      </trkpt>
      <trkpt lat="46.02005" lon="4.69632">
        <ele>233.971939087</ele>
        <time>2016-01-14T13:17:04.462Z</time>
      </trkpt>
      <trkpt lat="46.02004" lon="4.69633">
        <ele>233.913070679</ele>
        <time>2016-01-14T13:17:05.439Z</time>
      </trkpt>
      <trkpt lat="46.01999" lon="4.69643">
        <ele>234.069366455</ele>
        <time>2016-01-14T13:17:11.465Z</time>
      </trkpt>
      <trkpt lat="46.01999" lon="4.69644">
        <ele>234.046234131</ele>
        <time>2016-01-14T13:17:12.435Z</time>
      </trkpt>
      <trkpt lat="46.01994" lon="4.69654">
        <ele>234.080078125</ele>
        <time>2016-01-14T13:17:18.466Z</time>
      </trkpt>
      <trkpt lat="46.01993" lon="4.69656">
        <ele>234.123168945</ele>
        <time>2016-01-14T13:17:19.423Z</time>
      </trkpt>
      <trkpt lat="46.01988" lon="4.69665">
        <ele>233.866607666</ele>
        <time>2016-01-14T13:17:31.433Z</time>
      </trkpt>
      <trkpt lat="46.01988" lon="4.69666">
        <ele>233.852844238</ele>
        <time>2016-01-14T13:17:32.437Z</time>
      </trkpt>
      <trkpt lat="46.01984" lon="4.69656">
        <ele>234.713012695</ele>
        <time>2016-01-14T13:17:53.457Z</time>
      </trkpt>
      <trkpt lat="46.01983" lon="4.69655">
        <ele>234.863449097</ele>
        <time>2016-01-14T13:17:54.438Z</time>
      </trkpt>
      <trkpt lat="46.01979" lon="4.69644">
        <ele>235.354644775</ele>
        <time>2016-01-14T13:18:01.46Z</time>
      </trkpt>
      <trkpt lat="46.01978" lon="4.69642">
        <ele>235.392608643</ele>
        <time>2016-01-14T13:18:02.414Z</time>
      </trkpt>
      <trkpt lat="46.01974" lon="4.69632">
        <ele>235.698150635</ele>
        <time>2016-01-14T13:18:09.489Z</time>
      </trkpt>
      <trkpt lat="46.01974" lon="4.6963">
        <ele>235.70161438</ele>
        <time>2016-01-14T13:18:10.422Z</time>
      </trkpt>
      <trkpt lat="46.01971" lon="4.69618">
        <ele>236.139419556</ele>
        <time>2016-01-14T13:18:18.43Z</time>
      </trkpt>
      <trkpt lat="46.0197" lon="4.69617">
        <ele>236.224060059</ele>
        <time>2016-01-14T13:18:19.417Z</time>
      </trkpt>
      <trkpt lat="46.01966" lon="4.69607">
        <ele>236.779220581</ele>
        <time>2016-01-14T13:18:25.418Z</time>
      </trkpt>
      <trkpt lat="46.01965" lon="4.69605">
        <ele>236.841369629</ele>
        <time>2016-01-14T13:18:26.41Z</time>
      </trkpt>
      <trkpt lat="46.0196" lon="4.69595">
        <ele>237.404129028</ele>
        <time>2016-01-14T13:18:33.426Z</time>
      </trkpt>
      <trkpt lat="46.0196" lon="4.69595">
        <ele>237.538986206</ele>
        <time>2016-01-14T13:18:34.409Z</time>
      </trkpt>
      <trkpt lat="46.01955" lon="4.69585">
        <ele>238.225234985</ele>
        <time>2016-01-14T13:18:40.423Z</time>
      </trkpt>
      <trkpt lat="46.01955" lon="4.69584">
        <ele>238.313278198</ele>
        <time>2016-01-14T13:18:41.418Z</time>
      </trkpt>
      <trkpt lat="46.0195" lon="4.69574">
        <ele>238.875213623</ele>
        <time>2016-01-14T13:18:48.436Z</time>
      </trkpt>
      <trkpt lat="46.01949" lon="4.69572">
        <ele>238.920547485</ele>
        <time>2016-01-14T13:18:49.418Z</time>
      </trkpt>
      <trkpt lat="46.01945" lon="4.69562">
        <ele>239.253097534</ele>
        <time>2016-01-14T13:18:55.448Z</time>
      </trkpt>
      <trkpt lat="46.01944" lon="4.69561">
        <ele>239.277496338</ele>
        <time>2016-01-14T13:18:56.433Z</time>
      </trkpt>
      <trkpt lat="46.01939" lon="4.69551">
        <ele>239.601150513</ele>
        <time>2016-01-14T13:19:02.431Z</time>
      </trkpt>
      <trkpt lat="46.01938" lon="4.6955">
        <ele>239.609725952</ele>
        <time>2016-01-14T13:19:03.416Z</time>
      </trkpt>
      <trkpt lat="46.01933" lon="4.6954">
        <ele>239.863861084</ele>
        <time>2016-01-14T13:19:09.429Z</time>
      </trkpt>
      <trkpt lat="46.01933" lon="4.69539">
        <ele>239.899551392</ele>
        <time>2016-01-14T13:19:10.41Z</time>
      </trkpt>
      <trkpt lat="46.01927" lon="4.69529">
        <ele>239.796234131</ele>
        <time>2016-01-14T13:19:16.435Z</time>
      </trkpt>
      <trkpt lat="46.01927" lon="4.69528">
        <ele>239.781188965</ele>
        <time>2016-01-14T13:19:17.409Z</time>
      </trkpt>
      <trkpt lat="46.01922" lon="4.69517">
        <ele>240.531478882</ele>
        <time>2016-01-14T13:19:25.437Z</time>
      </trkpt>
      <trkpt lat="46.01921" lon="4.69515">
        <ele>240.583343506</ele>
        <time>2016-01-14T13:19:26.41Z</time>
      </trkpt>
      <trkpt lat="46.01917" lon="4.69505">
        <ele>240.861312866</ele>
        <time>2016-01-14T13:19:32.453Z</time>
      </trkpt>
      <trkpt lat="46.01916" lon="4.69504">
        <ele>240.892852783</ele>
        <time>2016-01-14T13:19:33.425Z</time>
      </trkpt>
      <trkpt lat="46.0191" lon="4.69494">
        <ele>240.837661743</ele>
        <time>2016-01-14T13:19:40.441Z</time>
      </trkpt>
      <trkpt lat="46.01909" lon="4.69492">
        <ele>240.844970703</ele>
        <time>2016-01-14T13:19:41.411Z</time>
      </trkpt>
      <trkpt lat="46.01904" lon="4.69483">
        <ele>240.648803711</ele>
        <time>2016-01-14T13:19:47.436Z</time>
      </trkpt>
      <trkpt lat="46.01904" lon="4.69482">
        <ele>240.618179321</ele>
        <time>2016-01-14T13:19:48.424Z</time>
      </trkpt>
      <trkpt lat="46.01899" lon="4.69472">
        <ele>240.486984253</ele>
        <time>2016-01-14T13:19:54.438Z</time>
      </trkpt>
      <trkpt lat="46.01898" lon="4.69471">
        <ele>240.519546509</ele>
        <time>2016-01-14T13:19:55.412Z</time>
      </trkpt>
      <trkpt lat="46.01893" lon="4.69461">
        <ele>240.500228882</ele>
        <time>2016-01-14T13:20:02.444Z</time>
      </trkpt>
      <trkpt lat="46.01893" lon="4.69459">
        <ele>240.424972534</ele>
        <time>2016-01-14T13:20:03.43Z</time>
      </trkpt>
      <trkpt lat="46.01888" lon="4.69449">
        <ele>240.516769409</ele>
        <time>2016-01-14T13:20:11.455Z</time>
      </trkpt>
      <trkpt lat="46.01887" lon="4.69448">
        <ele>240.602493286</ele>
        <time>2016-01-14T13:20:12.412Z</time>
      </trkpt>
      <trkpt lat="46.01882" lon="4.69438">
        <ele>240.989379883</ele>
        <time>2016-01-14T13:20:18.456Z</time>
      </trkpt>
      <trkpt lat="46.01882" lon="4.69436">
        <ele>240.982345581</ele>
        <time>2016-01-14T13:20:19.412Z</time>
      </trkpt>
      <trkpt lat="46.01877" lon="4.69426">
        <ele>240.892105103</ele>
        <time>2016-01-14T13:20:25.44Z</time>
      </trkpt>
      <trkpt lat="46.01876" lon="4.69424">
        <ele>240.914306641</ele>
        <time>2016-01-14T13:20:26.414Z</time>
      </trkpt>
      <trkpt lat="46.01872" lon="4.69415">
        <ele>240.905654907</ele>
        <time>2016-01-14T13:20:32.439Z</time>
      </trkpt>
      <trkpt lat="46.01871" lon="4.69413">
        <ele>240.880050659</ele>
        <time>2016-01-14T13:20:33.414Z</time>
      </trkpt>
      <trkpt lat="46.01866" lon="4.69402">
        <ele>240.893676758</ele>
        <time>2016-01-14T13:20:40.5Z</time>
      </trkpt>
      <trkpt lat="46.01865" lon="4.694">
        <ele>240.911148071</ele>
        <time>2016-01-14T13:20:41.43Z</time>
      </trkpt>
      <trkpt lat="46.01861" lon="4.69389">
        <ele>240.660598755</ele>
        <time>2016-01-14T13:20:49.453Z</time>
      </trkpt>
      <trkpt lat="46.0186" lon="4.69388">
        <ele>240.585617065</ele>
        <time>2016-01-14T13:20:50.417Z</time>
      </trkpt>
      <trkpt lat="46.01855" lon="4.6938">
        <ele>240.372772217</ele>
        <time>2016-01-14T13:20:56.447Z</time>
      </trkpt>
      <trkpt lat="46.01854" lon="4.69378">
        <ele>240.31149292</ele>
        <time>2016-01-14T13:20:57.435Z</time>
      </trkpt>
      <trkpt lat="46.0185" lon="4.69367">
        <ele>240.486160278</ele>
        <time>2016-01-14T13:21:05.441Z</time>
      </trkpt>
      <trkpt lat="46.01849" lon="4.69366">
        <ele>240.498931885</ele>
        <time>2016-01-14T13:21:06.415Z</time>
      </trkpt>
      <trkpt lat="46.01845" lon="4.69356">
        <ele>240.63041687</ele>
        <time>2016-01-14T13:21:12.454Z</time>
      </trkpt>
      <trkpt lat="46.01844" lon="4.69354">
        <ele>240.666320801</ele>
        <time>2016-01-14T13:21:13.416Z</time>
      </trkpt>
      <trkpt lat="46.01838" lon="4.69345">
        <ele>241.262786865</ele>
        <time>2016-01-14T13:21:21.454Z</time>
      </trkpt>
      <trkpt lat="46.01838" lon="4.69344">
        <ele>241.343444824</ele>
        <time>2016-01-14T13:21:22.422Z</time>
      </trkpt>
      <trkpt lat="46.01831" lon="4.69338">
        <ele>241.833053589</ele>
        <time>2016-01-14T13:21:28.455Z</time>
      </trkpt>
      <trkpt lat="46.01829" lon="4.69337">
        <ele>241.874725342</ele>
        <time>2016-01-14T13:21:29.43Z</time>
      </trkpt>
      <trkpt lat="46.01822" lon="4.69331">
        <ele>242.096969604</ele>
        <time>2016-01-14T13:21:36.456Z</time>
      </trkpt>
      <trkpt lat="46.01821" lon="4.6933">
        <ele>242.165344238</ele>
        <time>2016-01-14T13:21:37.423Z</time>
      </trkpt>
      <trkpt lat="46.01813" lon="4.69327">
        <ele>242.321456909</ele>
        <time>2016-01-14T13:21:44.421Z</time>
      </trkpt>
      <trkpt lat="46.01812" lon="4.69326">
        <ele>242.310958862</ele>
        <time>2016-01-14T13:21:45.435Z</time>
      </trkpt>
      <trkpt lat="46.01803" lon="4.69322">
        <ele>243.209487915</ele>
        <time>2016-01-14T13:21:54.463Z</time>
      </trkpt>
      <trkpt lat="46.01802" lon="4.69322">
        <ele>243.338348389</ele>
        <time>2016-01-14T13:21:55.423Z</time>
      </trkpt>
      <trkpt lat="46.01794" lon="4.69315">
        <ele>243.864395142</ele>
        <time>2016-01-14T13:22:01.46Z</time>
      </trkpt>
      <trkpt lat="46.01793" lon="4.69315">
        <ele>243.947433472</ele>
        <time>2016-01-14T13:22:02.422Z</time>
      </trkpt>
      <trkpt lat="46.01785" lon="4.69311">
        <ele>244.351638794</ele>
        <time>2016-01-14T13:22:08.454Z</time>
      </trkpt>
      <trkpt lat="46.01783" lon="4.6931">
        <ele>244.390380859</ele>
        <time>2016-01-14T13:22:09.434Z</time>
      </trkpt>
      <trkpt lat="46.01776" lon="4.69306">
        <ele>244.702255249</ele>
        <time>2016-01-14T13:22:15.446Z</time>
      </trkpt>
      <trkpt lat="46.01775" lon="4.69306">
        <ele>244.794662476</ele>
        <time>2016-01-14T13:22:16.423Z</time>
      </trkpt>
      <trkpt lat="46.01767" lon="4.69301">
        <ele>245.195617676</ele>
        <time>2016-01-14T13:22:22.455Z</time>
      </trkpt>
      <trkpt lat="46.01766" lon="4.693">
        <ele>245.240615845</ele>
        <time>2016-01-14T13:22:23.43Z</time>
      </trkpt>
      <trkpt lat="46.01759" lon="4.69293">
        <ele>245.649688721</ele>
        <time>2016-01-14T13:22:30.465Z</time>
      </trkpt>
      <trkpt lat="46.01758" lon="4.69293">
        <ele>245.749420166</ele>
        <time>2016-01-14T13:22:31.442Z</time>
      </trkpt>
      <trkpt lat="46.0175" lon="4.6929">
        <ele>246.25428772</ele>
        <time>2016-01-14T13:22:37.455Z</time>
      </trkpt>
      <trkpt lat="46.01749" lon="4.69289">
        <ele>246.312973022</ele>
        <time>2016-01-14T13:22:38.428Z</time>
      </trkpt>
      <trkpt lat="46.0174" lon="4.69287">
        <ele>246.73399353</ele>
        <time>2016-01-14T13:22:44.477Z</time>
      </trkpt>
      <trkpt lat="46.01739" lon="4.69286">
        <ele>246.773880005</ele>
        <time>2016-01-14T13:22:45.435Z</time>
      </trkpt>
      <trkpt lat="46.01731" lon="4.69283">
        <ele>246.910049438</ele>
        <time>2016-01-14T13:22:50.453Z</time>
      </trkpt>
      <trkpt lat="46.01729" lon="4.69283">
        <ele>246.949707031</ele>
        <time>2016-01-14T13:22:51.425Z</time>
      </trkpt>
      <trkpt lat="46.01721" lon="4.69279">
        <ele>247.653701782</ele>
        <time>2016-01-14T13:22:59.532Z</time>
      </trkpt>
      <trkpt lat="46.0172" lon="4.69278">
        <ele>247.750946045</ele>
        <time>2016-01-14T13:23:00.433Z</time>
      </trkpt>
      <trkpt lat="46.01712" lon="4.69273">
        <ele>248.318023682</ele>
        <time>2016-01-14T13:23:06.455Z</time>
      </trkpt>
      <trkpt lat="46.01711" lon="4.69272">
        <ele>248.425827026</ele>
        <time>2016-01-14T13:23:07.415Z</time>
      </trkpt>
      <trkpt lat="46.01702" lon="4.69267">
        <ele>248.920944214</ele>
        <time>2016-01-14T13:23:13.446Z</time>
      </trkpt>
      <trkpt lat="46.01701" lon="4.69267">
        <ele>248.990905762</ele>
        <time>2016-01-14T13:23:14.407Z</time>
      </trkpt>
      <trkpt lat="46.01694" lon="4.69262">
        <ele>249.66178894</ele>
        <time>2016-01-14T13:23:21.43Z</time>
      </trkpt>
      <trkpt lat="46.01692" lon="4.69262">
        <ele>249.720535278</ele>
        <time>2016-01-14T13:23:22.39Z</time>
      </trkpt>
      <trkpt lat="46.01685" lon="4.69256">
        <ele>250.797943115</ele>
        <time>2016-01-14T13:23:31.422Z</time>
      </trkpt>
      <trkpt lat="46.01684" lon="4.69255">
        <ele>250.880554199</ele>
        <time>2016-01-14T13:23:32.407Z</time>
      </trkpt>
      <trkpt lat="46.01675" lon="4.69252">
        <ele>251.236618042</ele>
        <time>2016-01-14T13:23:39.536Z</time>
      </trkpt>
      <trkpt lat="46.01674" lon="4.69251">
        <ele>251.239929199</ele>
        <time>2016-01-14T13:23:40.422Z</time>
      </trkpt>
      <trkpt lat="46.01667" lon="4.69246">
        <ele>251.782852173</ele>
        <time>2016-01-14T13:23:47.437Z</time>
      </trkpt>
      <trkpt lat="46.01666" lon="4.69246">
        <ele>251.86505127</ele>
        <time>2016-01-14T13:23:48.408Z</time>
      </trkpt>
      <trkpt lat="46.01658" lon="4.69242">
        <ele>252.332122803</ele>
        <time>2016-01-14T13:23:54.44Z</time>
      </trkpt>
      <trkpt lat="46.01657" lon="4.69241">
        <ele>252.41545105</ele>
        <time>2016-01-14T13:23:55.418Z</time>
      </trkpt>
      <trkpt lat="46.01649" lon="4.69239">
        <ele>252.889434814</ele>
        <time>2016-01-14T13:24:01.432Z</time>
      </trkpt>
      <trkpt lat="46.01648" lon="4.69239">
        <ele>252.97883606</ele>
        <time>2016-01-14T13:24:02.408Z</time>
      </trkpt>
      <trkpt lat="46.0164" lon="4.69235">
        <ele>253.607208252</ele>
        <time>2016-01-14T13:24:09.425Z</time>
      </trkpt>
      <trkpt lat="46.01638" lon="4.69234">
        <ele>253.715621948</ele>
        <time>2016-01-14T13:24:10.409Z</time>
      </trkpt>
      <trkpt lat="46.01631" lon="4.69228">
        <ele>254.403884888</ele>
        <time>2016-01-14T13:24:16.428Z</time>
      </trkpt>
      <trkpt lat="46.0163" lon="4.69227">
        <ele>254.480926514</ele>
        <time>2016-01-14T13:24:17.419Z</time>
      </trkpt>
      <trkpt lat="46.01622" lon="4.69223">
        <ele>254.914154053</ele>
        <time>2016-01-14T13:24:23.424Z</time>
      </trkpt>
      <trkpt lat="46.01621" lon="4.69222">
        <ele>254.952835083</ele>
        <time>2016-01-14T13:24:24.418Z</time>
      </trkpt>
      <trkpt lat="46.01613" lon="4.69218">
        <ele>255.004196167</ele>
        <time>2016-01-14T13:24:30.46Z</time>
      </trkpt>
      <trkpt lat="46.01612" lon="4.69218">
        <ele>255.071304321</ele>
        <time>2016-01-14T13:24:31.411Z</time>
      </trkpt>
      <trkpt lat="46.01604" lon="4.69214">
        <ele>255.397476196</ele>
        <time>2016-01-14T13:24:37.427Z</time>
      </trkpt>
      <trkpt lat="46.01603" lon="4.69214">
        <ele>255.445297241</ele>
        <time>2016-01-14T13:24:38.412Z</time>
      </trkpt>
      <trkpt lat="46.01595" lon="4.6921">
        <ele>256.100708008</ele>
        <time>2016-01-14T13:24:45.428Z</time>
      </trkpt>
      <trkpt lat="46.01594" lon="4.69209">
        <ele>256.189056396</ele>
        <time>2016-01-14T13:24:46.411Z</time>
      </trkpt>
      <trkpt lat="46.01586" lon="4.69205">
        <ele>256.493560791</ele>
        <time>2016-01-14T13:24:51.442Z</time>
      </trkpt>
      <trkpt lat="46.01585" lon="4.69205">
        <ele>256.515533447</ele>
        <time>2016-01-14T13:24:52.41Z</time>
      </trkpt>
      <trkpt lat="46.01576" lon="4.69203">
        <ele>257.176147461</ele>
        <time>2016-01-14T13:25:00.441Z</time>
      </trkpt>
      <trkpt lat="46.01575" lon="4.69202">
        <ele>257.297210693</ele>
        <time>2016-01-14T13:25:01.422Z</time>
      </trkpt>
      <trkpt lat="46.01568" lon="4.69198">
        <ele>257.818664551</ele>
        <time>2016-01-14T13:25:06.525Z</time>
      </trkpt>
      <trkpt lat="46.01566" lon="4.69197">
        <ele>257.885955811</ele>
        <time>2016-01-14T13:25:07.421Z</time>
      </trkpt>
      <trkpt lat="46.01559" lon="4.69192">
        <ele>258.375366211</ele>
        <time>2016-01-14T13:25:13.468Z</time>
      </trkpt>
      <trkpt lat="46.01558" lon="4.69191">
        <ele>258.434753418</ele>
        <time>2016-01-14T13:25:14.417Z</time>
      </trkpt>
      <trkpt lat="46.01551" lon="4.69185">
        <ele>259.252838135</ele>
        <time>2016-01-14T13:25:23.452Z</time>
      </trkpt>
      <trkpt lat="46.0155" lon="4.69183">
        <ele>259.256072998</ele>
        <time>2016-01-14T13:25:24.42Z</time>
      </trkpt>
      <trkpt lat="46.01544" lon="4.69176">
        <ele>259.079345703</ele>
        <time>2016-01-14T13:25:31.454Z</time>
      </trkpt>
      <trkpt lat="46.01543" lon="4.69176">
        <ele>259.133239746</ele>
        <time>2016-01-14T13:25:32.414Z</time>
      </trkpt>
      <trkpt lat="46.01535" lon="4.69169">
        <ele>259.467956543</ele>
        <time>2016-01-14T13:25:40.429Z</time>
      </trkpt>
      <trkpt lat="46.01534" lon="4.69168">
        <ele>259.529998779</ele>
        <time>2016-01-14T13:25:41.417Z</time>
      </trkpt>
      <trkpt lat="46.01527" lon="4.69161">
        <ele>259.630401611</ele>
        <time>2016-01-14T13:25:48.441Z</time>
      </trkpt>
      <trkpt lat="46.01527" lon="4.69161">
        <ele>259.629333496</ele>
        <time>2016-01-14T13:25:49.414Z</time>
      </trkpt>
      <trkpt lat="46.0152" lon="4.69153">
        <ele>261.033355713</ele>
        <time>2016-01-14T13:25:56.457Z</time>
      </trkpt>
      <trkpt lat="46.01518" lon="4.69152">
        <ele>261.344451904</ele>
        <time>2016-01-14T13:25:57.425Z</time>
      </trkpt>
      <trkpt lat="46.0151" lon="4.69148">
        <ele>264.112457275</ele>
        <time>2016-01-14T13:26:07.44Z</time>
      </trkpt>
      <trkpt lat="46.01509" lon="4.69148">
        <ele>264.194824219</ele>
        <time>2016-01-14T13:26:08.403Z</time>
      </trkpt>
      <trkpt lat="46.015" lon="4.69148">
        <ele>264.350463867</ele>
        <time>2016-01-14T13:26:15.456Z</time>
      </trkpt>
      <trkpt lat="46.01498" lon="4.69148">
        <ele>264.228637695</ele>
        <time>2016-01-14T13:26:16.424Z</time>
      </trkpt>
      <trkpt lat="46.0149" lon="4.69148">
        <ele>263.601074219</ele>
        <time>2016-01-14T13:26:21.435Z</time>
      </trkpt>
      <trkpt lat="46.01489" lon="4.69148">
        <ele>263.506072998</ele>
        <time>2016-01-14T13:26:22.425Z</time>
      </trkpt>
      <trkpt lat="46.01481" lon="4.69147">
        <ele>262.898254395</ele>
        <time>2016-01-14T13:26:27.565Z</time>
      </trkpt>
      <trkpt lat="46.01479" lon="4.69146">
        <ele>262.804138184</ele>
        <time>2016-01-14T13:26:28.431Z</time>
      </trkpt>
      <trkpt lat="46.01471" lon="4.69145">
        <ele>262.35748291</ele>
        <time>2016-01-14T13:26:34.486Z</time>
      </trkpt>
      <trkpt lat="46.0147" lon="4.69144">
        <ele>262.234649658</ele>
        <time>2016-01-14T13:26:35.429Z</time>
      </trkpt>
      <trkpt lat="46.01461" lon="4.69143">
        <ele>261.6434021</ele>
        <time>2016-01-14T13:26:42.447Z</time>
      </trkpt>
      <trkpt lat="46.0146" lon="4.69143">
        <ele>261.641723633</ele>
        <time>2016-01-14T13:26:43.426Z</time>
      </trkpt>
      <trkpt lat="46.01452" lon="4.69142">
        <ele>261.684020996</ele>
        <time>2016-01-14T13:26:48.449Z</time>
      </trkpt>
      <trkpt lat="46.0145" lon="4.69142">
        <ele>261.696960449</ele>
        <time>2016-01-14T13:26:49.43Z</time>
      </trkpt>
      <trkpt lat="46.01441" lon="4.6914">
        <ele>261.929229736</ele>
        <time>2016-01-14T13:26:55.478Z</time>
      </trkpt>
      <trkpt lat="46.0144" lon="4.6914">
        <ele>261.991729736</ele>
        <time>2016-01-14T13:26:56.422Z</time>
      </trkpt>
      <trkpt lat="46.01432" lon="4.69135">
        <ele>261.826599121</ele>
        <time>2016-01-14T13:27:02.436Z</time>
      </trkpt>
      <trkpt lat="46.01431" lon="4.69135">
        <ele>261.755340576</ele>
        <time>2016-01-14T13:27:03.424Z</time>
      </trkpt>
      <trkpt lat="46.01422" lon="4.69132">
        <ele>261.374755859</ele>
        <time>2016-01-14T13:27:11.452Z</time>
      </trkpt>
      <trkpt lat="46.01422" lon="4.69132">
        <ele>261.371551514</ele>
        <time>2016-01-14T13:27:12.428Z</time>
      </trkpt>
      <trkpt lat="46.01415" lon="4.6913">
        <ele>260.887084961</ele>
        <time>2016-01-14T13:27:18.456Z</time>
      </trkpt>
      <trkpt lat="46.01413" lon="4.69129">
        <ele>260.825805664</ele>
        <time>2016-01-14T13:27:19.415Z</time>
      </trkpt>
      <trkpt lat="46.01405" lon="4.69128">
        <ele>260.703796387</ele>
        <time>2016-01-14T13:27:25.45Z</time>
      </trkpt>
      <trkpt lat="46.01404" lon="4.69128">
        <ele>260.659698486</ele>
        <time>2016-01-14T13:27:26.425Z</time>
      </trkpt>
      <trkpt lat="46.01396" lon="4.69125">
        <ele>260.395965576</ele>
        <time>2016-01-14T13:27:31.465Z</time>
      </trkpt>
      <trkpt lat="46.01395" lon="4.69125">
        <ele>260.298217773</ele>
        <time>2016-01-14T13:27:32.434Z</time>
      </trkpt>
      <trkpt lat="46.01387" lon="4.69123">
        <ele>260.093414307</ele>
        <time>2016-01-14T13:27:37.456Z</time>
      </trkpt>
      <trkpt lat="46.01385" lon="4.69123">
        <ele>260.081542969</ele>
        <time>2016-01-14T13:27:38.419Z</time>
      </trkpt>
      <trkpt lat="46.01377" lon="4.69121">
        <ele>259.904907227</ele>
        <time>2016-01-14T13:27:45.446Z</time>
      </trkpt>
      <trkpt lat="46.01376" lon="4.69121">
        <ele>259.867675781</ele>
        <time>2016-01-14T13:27:46.435Z</time>
      </trkpt>
      <trkpt lat="46.01368" lon="4.69119">
        <ele>259.694366455</ele>
        <time>2016-01-14T13:27:52.46Z</time>
      </trkpt>
      <trkpt lat="46.01367" lon="4.69119">
        <ele>259.683807373</ele>
        <time>2016-01-14T13:27:53.436Z</time>
      </trkpt>
      <trkpt lat="46.01358" lon="4.69117">
        <ele>259.472839355</ele>
        <time>2016-01-14T13:28:00.459Z</time>
      </trkpt>
      <trkpt lat="46.01357" lon="4.69117">
        <ele>259.41116333</ele>
        <time>2016-01-14T13:28:01.434Z</time>
      </trkpt>
      <trkpt lat="46.01348" lon="4.69116">
        <ele>259.501251221</ele>
        <time>2016-01-14T13:28:07.475Z</time>
      </trkpt>
      <trkpt lat="46.01347" lon="4.69115">
        <ele>259.499542236</ele>
        <time>2016-01-14T13:28:08.436Z</time>
      </trkpt>
      <trkpt lat="46.01339" lon="4.69114">
        <ele>259.653900146</ele>
        <time>2016-01-14T13:28:14.463Z</time>
      </trkpt>
      <trkpt lat="46.01338" lon="4.69113">
        <ele>259.696166992</ele>
        <time>2016-01-14T13:28:15.432Z</time>
      </trkpt>
      <trkpt lat="46.01329" lon="4.69112">
        <ele>259.849975586</ele>
        <time>2016-01-14T13:28:22.563Z</time>
      </trkpt>
      <trkpt lat="46.01328" lon="4.69112">
        <ele>259.873352051</ele>
        <time>2016-01-14T13:28:23.438Z</time>
      </trkpt>
      <trkpt lat="46.0132" lon="4.6911">
        <ele>260.088470459</ele>
        <time>2016-01-14T13:28:29.423Z</time>
      </trkpt>
      <trkpt lat="46.01318" lon="4.69109">
        <ele>260.103759766</ele>
        <time>2016-01-14T13:28:30.406Z</time>
      </trkpt>
      <trkpt lat="46.0131" lon="4.69108">
        <ele>260.321166992</ele>
        <time>2016-01-14T13:28:36.429Z</time>
      </trkpt>
      <trkpt lat="46.01308" lon="4.69108">
        <ele>260.363311768</ele>
        <time>2016-01-14T13:28:37.424Z</time>
      </trkpt>
      <trkpt lat="46.013" lon="4.69106">
        <ele>260.568969727</ele>
        <time>2016-01-14T13:28:43.428Z</time>
      </trkpt>
      <trkpt lat="46.01299" lon="4.69106">
        <ele>260.596069336</ele>
        <time>2016-01-14T13:28:44.406Z</time>
      </trkpt>
      <trkpt lat="46.0129" lon="4.69104">
        <ele>260.468841553</ele>
        <time>2016-01-14T13:28:51.422Z</time>
      </trkpt>
      <trkpt lat="46.01289" lon="4.69103">
        <ele>260.431335449</ele>
        <time>2016-01-14T13:28:52.407Z</time>
      </trkpt>
      <trkpt lat="46.0128" lon="4.69102">
        <ele>260.493896484</ele>
        <time>2016-01-14T13:28:58.443Z</time>
      </trkpt>
      <trkpt lat="46.01279" lon="4.69101">
        <ele>260.533569336</ele>
        <time>2016-01-14T13:28:59.408Z</time>
      </trkpt>
      <trkpt lat="46.0127" lon="4.691">
        <ele>260.561126709</ele>
        <time>2016-01-14T13:29:06.491Z</time>
      </trkpt>
      <trkpt lat="46.01268" lon="4.69099">
        <ele>260.570709229</ele>
        <time>2016-01-14T13:29:07.414Z</time>
      </trkpt>
      <trkpt lat="46.0126" lon="4.69097">
        <ele>260.664306641</ele>
        <time>2016-01-14T13:29:13.567Z</time>
      </trkpt>
      <trkpt lat="46.01259" lon="4.69097">
        <ele>260.688690186</ele>
        <time>2016-01-14T13:29:14.409Z</time>
      </trkpt>
      <trkpt lat="46.01252" lon="4.69095">
        <ele>260.901092529</ele>
        <time>2016-01-14T13:29:20.425Z</time>
      </trkpt>
      <trkpt lat="46.0125" lon="4.69095">
        <ele>260.953826904</ele>
        <time>2016-01-14T13:29:21.409Z</time>
      </trkpt>
      <trkpt lat="46.01242" lon="4.69093">
        <ele>261.345458984</ele>
        <time>2016-01-14T13:29:27.46Z</time>
      </trkpt>
      <trkpt lat="46.0124" lon="4.69093">
        <ele>261.380218506</ele>
        <time>2016-01-14T13:29:28.418Z</time>
      </trkpt>
      <trkpt lat="46.01232" lon="4.69091">
        <ele>261.755279541</ele>
        <time>2016-01-14T13:29:35.445Z</time>
      </trkpt>
      <trkpt lat="46.01231" lon="4.69091">
        <ele>261.806152344</ele>
        <time>2016-01-14T13:29:36.417Z</time>
      </trkpt>
      <trkpt lat="46.01223" lon="4.69088">
        <ele>261.987548828</ele>
        <time>2016-01-14T13:29:43.425Z</time>
      </trkpt>
      <trkpt lat="46.01222" lon="4.69088">
        <ele>262.002166748</ele>
        <time>2016-01-14T13:29:44.419Z</time>
      </trkpt>
      <trkpt lat="46.01214" lon="4.69086">
        <ele>261.976257324</ele>
        <time>2016-01-14T13:29:52.428Z</time>
      </trkpt>
      <trkpt lat="46.01212" lon="4.69085">
        <ele>261.963897705</ele>
        <time>2016-01-14T13:29:53.415Z</time>
      </trkpt>
      <trkpt lat="46.01204" lon="4.69083">
        <ele>262.062683105</ele>
        <time>2016-01-14T13:29:59.437Z</time>
      </trkpt>
      <trkpt lat="46.01203" lon="4.69083">
        <ele>262.089080811</ele>
        <time>2016-01-14T13:30:00.41Z</time>
      </trkpt>
      <trkpt lat="46.01194" lon="4.69082">
        <ele>262.386352539</ele>
        <time>2016-01-14T13:30:07.428Z</time>
      </trkpt>
      <trkpt lat="46.01193" lon="4.69081">
        <ele>262.449859619</ele>
        <time>2016-01-14T13:30:08.427Z</time>
      </trkpt>
      <trkpt lat="46.01185" lon="4.6908">
        <ele>262.68951416</ele>
        <time>2016-01-14T13:30:14.432Z</time>
      </trkpt>
      <trkpt lat="46.01184" lon="4.69079">
        <ele>262.715362549</ele>
        <time>2016-01-14T13:30:15.425Z</time>
      </trkpt>
      <trkpt lat="46.01175" lon="4.69077">
        <ele>262.817443848</ele>
        <time>2016-01-14T13:30:21.409Z</time>
      </trkpt>
      <trkpt lat="46.01174" lon="4.69077">
        <ele>262.841094971</ele>
        <time>2016-01-14T13:30:22.411Z</time>
      </trkpt>
      <trkpt lat="46.01165" lon="4.69074">
        <ele>262.834259033</ele>
        <time>2016-01-14T13:30:29.432Z</time>
      </trkpt>
      <trkpt lat="46.01164" lon="4.69074">
        <ele>262.862915039</ele>
        <time>2016-01-14T13:30:30.411Z</time>
      </trkpt>
      <trkpt lat="46.01156" lon="4.69073">
        <ele>262.961761475</ele>
        <time>2016-01-14T13:30:36.431Z</time>
      </trkpt>
      <trkpt lat="46.01155" lon="4.69072">
        <ele>263.009185791</ele>
        <time>2016-01-14T13:30:37.411Z</time>
      </trkpt>
      <trkpt lat="46.01146" lon="4.69071">
        <ele>263.174163818</ele>
        <time>2016-01-14T13:30:43.456Z</time>
      </trkpt>
      <trkpt lat="46.01144" lon="4.6907">
        <ele>263.186950684</ele>
        <time>2016-01-14T13:30:44.418Z</time>
      </trkpt>
      <trkpt lat="46.01136" lon="4.69068">
        <ele>263.160980225</ele>
        <time>2016-01-14T13:30:49.442Z</time>
      </trkpt>
      <trkpt lat="46.01135" lon="4.69067">
        <ele>263.14151001</ele>
        <time>2016-01-14T13:30:50.412Z</time>
      </trkpt>
      <trkpt lat="46.01127" lon="4.69065">
        <ele>263.066772461</ele>
        <time>2016-01-14T13:30:55.453Z</time>
      </trkpt>
      <trkpt lat="46.01126" lon="4.69065">
        <ele>263.049804688</ele>
        <time>2016-01-14T13:30:56.418Z</time>
      </trkpt>
      <trkpt lat="46.01117" lon="4.69064">
        <ele>263.083343506</ele>
        <time>2016-01-14T13:31:02.566Z</time>
      </trkpt>
      <trkpt lat="46.01116" lon="4.69063">
        <ele>263.093536377</ele>
        <time>2016-01-14T13:31:03.431Z</time>
      </trkpt>
      <trkpt lat="46.01108" lon="4.69062">
        <ele>263.094970703</ele>
        <time>2016-01-14T13:31:10.455Z</time>
      </trkpt>
      <trkpt lat="46.01107" lon="4.69062">
        <ele>263.116363525</ele>
        <time>2016-01-14T13:31:11.415Z</time>
      </trkpt>
      <trkpt lat="46.01099" lon="4.6906">
        <ele>263.116424561</ele>
        <time>2016-01-14T13:31:17.463Z</time>
      </trkpt>
      <trkpt lat="46.01098" lon="4.6906">
        <ele>263.141906738</ele>
        <time>2016-01-14T13:31:18.416Z</time>
      </trkpt>
      <trkpt lat="46.01089" lon="4.69058">
        <ele>263.465057373</ele>
        <time>2016-01-14T13:31:25.439Z</time>
      </trkpt>
      <trkpt lat="46.01088" lon="4.69058">
        <ele>263.510406494</ele>
        <time>2016-01-14T13:31:26.416Z</time>
      </trkpt>
      <trkpt lat="46.01079" lon="4.69056">
        <ele>263.858734131</ele>
        <time>2016-01-14T13:31:33.455Z</time>
      </trkpt>
      <trkpt lat="46.01077" lon="4.69056">
        <ele>263.93939209</ele>
        <time>2016-01-14T13:31:34.42Z</time>
      </trkpt>
      <trkpt lat="46.01069" lon="4.69054">
        <ele>264.156188965</ele>
        <time>2016-01-14T13:31:40.439Z</time>
      </trkpt>
      <trkpt lat="46.01068" lon="4.69054">
        <ele>264.219146729</ele>
        <time>2016-01-14T13:31:41.424Z</time>
      </trkpt>
      <trkpt lat="46.0106" lon="4.69052">
        <ele>264.523223877</ele>
        <time>2016-01-14T13:31:48.453Z</time>
      </trkpt>
      <trkpt lat="46.01059" lon="4.69052">
        <ele>264.568115234</ele>
        <time>2016-01-14T13:31:49.422Z</time>
      </trkpt>
      <trkpt lat="46.01051" lon="4.6905">
        <ele>264.784301758</ele>
        <time>2016-01-14T13:31:56.431Z</time>
      </trkpt>
      <trkpt lat="46.01049" lon="4.6905">
        <ele>264.84777832</ele>
        <time>2016-01-14T13:31:57.422Z</time>
      </trkpt>
      <trkpt lat="46.01041" lon="4.69048">
        <ele>265.303588867</ele>
        <time>2016-01-14T13:32:04.454Z</time>
      </trkpt>
      <trkpt lat="46.0104" lon="4.69048">
        <ele>265.36541748</ele>
        <time>2016-01-14T13:32:05.422Z</time>
      </trkpt>
      <trkpt lat="46.01031" lon="4.69046">
        <ele>265.879852295</ele>
        <time>2016-01-14T13:32:12.452Z</time>
      </trkpt>
      <trkpt lat="46.01031" lon="4.69046">
        <ele>265.931976318</ele>
        <time>2016-01-14T13:32:13.441Z</time>
      </trkpt>
      <trkpt lat="46.01022" lon="4.69044">
        <ele>266.657440186</ele>
        <time>2016-01-14T13:32:22.448Z</time>
      </trkpt>
      <trkpt lat="46.01021" lon="4.69044">
        <ele>266.744018555</ele>
        <time>2016-01-14T13:32:23.418Z</time>
      </trkpt>
      <trkpt lat="46.01013" lon="4.69042">
        <ele>267.186035156</ele>
        <time>2016-01-14T13:32:29.509Z</time>
      </trkpt>
      <trkpt lat="46.01011" lon="4.69042">
        <ele>267.268798828</ele>
        <time>2016-01-14T13:32:30.434Z</time>
      </trkpt>
      <trkpt lat="46.01003" lon="4.69041">
        <ele>267.869384766</ele>
        <time>2016-01-14T13:32:37.469Z</time>
      </trkpt>
      <trkpt lat="46.01001" lon="4.6904">
        <ele>267.9921875</ele>
        <time>2016-01-14T13:32:38.427Z</time>
      </trkpt>
      <trkpt lat="46.00993" lon="4.69038">
        <ele>268.62713623</ele>
        <time>2016-01-14T13:32:45.453Z</time>
      </trkpt>
      <trkpt lat="46.00992" lon="4.69038">
        <ele>268.685455322</ele>
        <time>2016-01-14T13:32:46.419Z</time>
      </trkpt>
      <trkpt lat="46.00984" lon="4.69036">
        <ele>269.070922852</ele>
        <time>2016-01-14T13:32:53.462Z</time>
      </trkpt>
      <trkpt lat="46.00982" lon="4.69036">
        <ele>269.157775879</ele>
        <time>2016-01-14T13:32:54.435Z</time>
      </trkpt>
      <trkpt lat="46.00973" lon="4.69034">
        <ele>269.81036377</ele>
        <time>2016-01-14T13:33:02.452Z</time>
      </trkpt>
      <trkpt lat="46.00972" lon="4.69034">
        <ele>269.864685059</ele>
        <time>2016-01-14T13:33:03.425Z</time>
      </trkpt>
      <trkpt lat="46.00964" lon="4.69032">
        <ele>270.47869873</ele>
        <time>2016-01-14T13:33:09.464Z</time>
      </trkpt>
      <trkpt lat="46.00963" lon="4.69032">
        <ele>270.631469727</ele>
        <time>2016-01-14T13:33:10.424Z</time>
      </trkpt>
      <trkpt lat="46.00954" lon="4.6903">
        <ele>271.5625</ele>
        <time>2016-01-14T13:33:17.473Z</time>
      </trkpt>
      <trkpt lat="46.00953" lon="4.6903">
        <ele>271.698303223</ele>
        <time>2016-01-14T13:33:18.449Z</time>
      </trkpt>
      <trkpt lat="46.00945" lon="4.69025">
        <ele>273.085632324</ele>
        <time>2016-01-14T13:33:28.462Z</time>
      </trkpt>
      <trkpt lat="46.00945" lon="4.69024">
        <ele>273.155334473</ele>
        <time>2016-01-14T13:33:29.425Z</time>
      </trkpt>
      <trkpt lat="46.00945" lon="4.69012">
        <ele>273.724060059</ele>
        <time>2016-01-14T13:33:38.429Z</time>
      </trkpt>
      <trkpt lat="46.00946" lon="4.6901">
        <ele>273.776123047</ele>
        <time>2016-01-14T13:33:39.436Z</time>
      </trkpt>
      <trkpt lat="46.00951" lon="4.69001">
        <ele>274.130401611</ele>
        <time>2016-01-14T13:33:45.488Z</time>
      </trkpt>
      <trkpt lat="46.00952" lon="4.69">
        <ele>274.198425293</ele>
        <time>2016-01-14T13:33:46.413Z</time>
      </trkpt>
      <trkpt lat="46.00956" lon="4.68989">
        <ele>275.259124756</ele>
        <time>2016-01-14T13:33:55.427Z</time>
      </trkpt>
      <trkpt lat="46.00957" lon="4.68988">
        <ele>275.367675781</ele>
        <time>2016-01-14T13:33:56.404Z</time>
      </trkpt>
      <trkpt lat="46.00962" lon="4.68978">
        <ele>275.706390381</ele>
        <time>2016-01-14T13:34:03.461Z</time>
      </trkpt>
      <trkpt lat="46.00963" lon="4.68975">
        <ele>275.713348389</ele>
        <time>2016-01-14T13:34:04.408Z</time>
      </trkpt>
      <trkpt lat="46.00968" lon="4.68967">
        <ele>275.834899902</ele>
        <time>2016-01-14T13:34:11.427Z</time>
      </trkpt>
      <trkpt lat="46.00969" lon="4.68965">
        <ele>275.910461426</ele>
        <time>2016-01-14T13:34:12.444Z</time>
      </trkpt>
      <trkpt lat="46.00975" lon="4.68956">
        <ele>276.437866211</ele>
        <time>2016-01-14T13:34:19.425Z</time>
      </trkpt>
      <trkpt lat="46.00975" lon="4.68955">
        <ele>276.473815918</ele>
        <time>2016-01-14T13:34:20.408Z</time>
      </trkpt>
      <trkpt lat="46.00981" lon="4.68945">
        <ele>276.669799805</ele>
        <time>2016-01-14T13:34:27.443Z</time>
      </trkpt>
      <trkpt lat="46.00982" lon="4.68942">
        <ele>276.699615479</ele>
        <time>2016-01-14T13:34:28.406Z</time>
      </trkpt>
      <trkpt lat="46.00987" lon="4.68932">
        <ele>276.719177246</ele>
        <time>2016-01-14T13:34:33.421Z</time>
      </trkpt>
      <trkpt lat="46.00988" lon="4.6893">
        <ele>276.703155518</ele>
        <time>2016-01-14T13:34:34.412Z</time>
      </trkpt>
      <trkpt lat="46.00993" lon="4.68923">
        <ele>276.676727295</ele>
        <time>2016-01-14T13:34:39.439Z</time>
      </trkpt>
      <trkpt lat="46.00994" lon="4.68921">
        <ele>276.715881348</ele>
        <time>2016-01-14T13:34:40.417Z</time>
      </trkpt>
      <trkpt lat="46.01" lon="4.68913">
        <ele>276.606201172</ele>
        <time>2016-01-14T13:34:45.502Z</time>
      </trkpt>
      <trkpt lat="46.01001" lon="4.68911">
        <ele>276.554382324</ele>
        <time>2016-01-14T13:34:46.405Z</time>
      </trkpt>
      <trkpt lat="46.01004" lon="4.68903">
        <ele>276.180725098</ele>
        <time>2016-01-14T13:34:52.432Z</time>
      </trkpt>
      <trkpt lat="46.01005" lon="4.689">
        <ele>276.151885986</ele>
        <time>2016-01-14T13:34:53.409Z</time>
      </trkpt>
      <trkpt lat="46.01011" lon="4.68891">
        <ele>275.942749023</ele>
        <time>2016-01-14T13:35:02.434Z</time>
      </trkpt>
      <trkpt lat="46.01012" lon="4.68889">
        <ele>275.951263428</ele>
        <time>2016-01-14T13:35:03.413Z</time>
      </trkpt>
      <trkpt lat="46.01016" lon="4.68878">
        <ele>275.774383545</ele>
        <time>2016-01-14T13:35:07.439Z</time>
      </trkpt>
      <trkpt lat="46.01016" lon="4.68876">
        <ele>275.689453125</ele>
        <time>2016-01-14T13:35:08.409Z</time>
      </trkpt>
      <trkpt lat="46.01015" lon="4.68864">
        <ele>276.119934082</ele>
        <time>2016-01-14T13:35:20.445Z</time>
      </trkpt>
      <trkpt lat="46.01014" lon="4.68861">
        <ele>276.177001953</ele>
        <time>2016-01-14T13:35:21.411Z</time>
      </trkpt>
      <trkpt lat="46.01016" lon="4.6885">
        <ele>276.328308105</ele>
        <time>2016-01-14T13:35:26.443Z</time>
      </trkpt>
      <trkpt lat="46.01016" lon="4.68847">
        <ele>276.31137085</ele>
        <time>2016-01-14T13:35:27.412Z</time>
      </trkpt>
      <trkpt lat="46.01017" lon="4.68835">
        <ele>276.412414551</ele>
        <time>2016-01-14T13:35:34.456Z</time>
      </trkpt>
      <trkpt lat="46.01018" lon="4.68832">
        <ele>276.490509033</ele>
        <time>2016-01-14T13:35:35.424Z</time>
      </trkpt>
      <trkpt lat="46.01018" lon="4.6882">
        <ele>276.633758545</ele>
        <time>2016-01-14T13:35:40.45Z</time>
      </trkpt>
      <trkpt lat="46.01018" lon="4.68818">
        <ele>276.664825439</ele>
        <time>2016-01-14T13:35:41.417Z</time>
      </trkpt>
      <trkpt lat="46.01018" lon="4.68805">
        <ele>276.785064697</ele>
        <time>2016-01-14T13:35:48.455Z</time>
      </trkpt>
      <trkpt lat="46.01019" lon="4.68802">
        <ele>276.781524658</ele>
        <time>2016-01-14T13:35:49.423Z</time>
      </trkpt>
      <trkpt lat="46.0102" lon="4.6879">
        <ele>276.917694092</ele>
        <time>2016-01-14T13:35:55.451Z</time>
      </trkpt>
      <trkpt lat="46.0102" lon="4.68789">
        <ele>276.945495605</ele>
        <time>2016-01-14T13:35:56.423Z</time>
      </trkpt>
      <trkpt lat="46.01022" lon="4.68778">
        <ele>276.87109375</ele>
        <time>2016-01-14T13:36:01.466Z</time>
      </trkpt>
      <trkpt lat="46.01023" lon="4.68775">
        <ele>276.815948486</ele>
        <time>2016-01-14T13:36:02.416Z</time>
      </trkpt>
      <trkpt lat="46.01026" lon="4.68765">
        <ele>276.749450684</ele>
        <time>2016-01-14T13:36:07.428Z</time>
      </trkpt>
      <trkpt lat="46.01027" lon="4.68762">
        <ele>276.745025635</ele>
        <time>2016-01-14T13:36:08.414Z</time>
      </trkpt>
      <trkpt lat="46.01032" lon="4.68754">
        <ele>276.814086914</ele>
        <time>2016-01-14T13:36:15.437Z</time>
      </trkpt>
      <trkpt lat="46.01034" lon="4.68752">
        <ele>276.777923584</ele>
        <time>2016-01-14T13:36:16.419Z</time>
      </trkpt>
      <trkpt lat="46.01039" lon="4.68743">
        <ele>276.640075684</ele>
        <time>2016-01-14T13:36:21.438Z</time>
      </trkpt>
      <trkpt lat="46.0104" lon="4.68742">
        <ele>276.628570557</ele>
        <time>2016-01-14T13:36:22.414Z</time>
      </trkpt>
      <trkpt lat="46.01048" lon="4.68735">
        <ele>276.415771484</ele>
        <time>2016-01-14T13:36:28.456Z</time>
      </trkpt>
      <trkpt lat="46.01049" lon="4.68734">
        <ele>276.365783691</ele>
        <time>2016-01-14T13:36:29.457Z</time>
      </trkpt>
      <trkpt lat="46.01056" lon="4.68727">
        <ele>276.293395996</ele>
        <time>2016-01-14T13:36:35.45Z</time>
      </trkpt>
      <trkpt lat="46.01057" lon="4.68725">
        <ele>276.277374268</ele>
        <time>2016-01-14T13:36:36.426Z</time>
      </trkpt>
      <trkpt lat="46.01063" lon="4.68719">
        <ele>276.320465088</ele>
        <time>2016-01-14T13:36:42.447Z</time>
      </trkpt>
      <trkpt lat="46.01064" lon="4.68718">
        <ele>276.335784912</ele>
        <time>2016-01-14T13:36:43.426Z</time>
      </trkpt>
      <trkpt lat="46.01071" lon="4.6871">
        <ele>276.34161377</ele>
        <time>2016-01-14T13:36:50.473Z</time>
      </trkpt>
      <trkpt lat="46.01072" lon="4.68709">
        <ele>276.375396729</ele>
        <time>2016-01-14T13:36:51.43Z</time>
      </trkpt>
      <trkpt lat="46.01078" lon="4.68701">
        <ele>276.598876953</ele>
        <time>2016-01-14T13:36:56.452Z</time>
      </trkpt>
      <trkpt lat="46.01079" lon="4.68699">
        <ele>276.664001465</ele>
        <time>2016-01-14T13:36:57.442Z</time>
      </trkpt>
      <trkpt lat="46.01085" lon="4.68691">
        <ele>277.031707764</ele>
        <time>2016-01-14T13:37:04.457Z</time>
      </trkpt>
      <trkpt lat="46.01086" lon="4.68689">
        <ele>277.087158203</ele>
        <time>2016-01-14T13:37:05.419Z</time>
      </trkpt>
      <trkpt lat="46.0109" lon="4.68678">
        <ele>277.361938477</ele>
        <time>2016-01-14T13:37:11.446Z</time>
      </trkpt>
      <trkpt lat="46.01091" lon="4.68676">
        <ele>277.38760376</ele>
        <time>2016-01-14T13:37:12.421Z</time>
      </trkpt>
      <trkpt lat="46.01092" lon="4.68665">
        <ele>277.559387207</ele>
        <time>2016-01-14T13:37:19.447Z</time>
      </trkpt>
      <trkpt lat="46.01093" lon="4.68663">
        <ele>277.605529785</ele>
        <time>2016-01-14T13:37:20.414Z</time>
      </trkpt>
      <trkpt lat="46.01095" lon="4.68652">
        <ele>277.810211182</ele>
        <time>2016-01-14T13:37:25.443Z</time>
      </trkpt>
      <trkpt lat="46.01095" lon="4.6865">
        <ele>277.837646484</ele>
        <time>2016-01-14T13:37:26.42Z</time>
      </trkpt>
      <trkpt lat="46.01097" lon="4.68639">
        <ele>277.877227783</ele>
        <time>2016-01-14T13:37:32.583Z</time>
      </trkpt>
      <trkpt lat="46.01098" lon="4.68636">
        <ele>277.886901855</ele>
        <time>2016-01-14T13:37:33.434Z</time>
      </trkpt>
      <trkpt lat="46.011" lon="4.68624">
        <ele>278.35534668</ele>
        <time>2016-01-14T13:37:40.598Z</time>
      </trkpt>
      <trkpt lat="46.011" lon="4.68621">
        <ele>278.433563232</ele>
        <time>2016-01-14T13:37:41.425Z</time>
      </trkpt>
      <trkpt lat="46.01102" lon="4.6861">
        <ele>278.819793701</ele>
        <time>2016-01-14T13:37:47.46Z</time>
      </trkpt>
      <trkpt lat="46.01102" lon="4.68609">
        <ele>278.867797852</ele>
        <time>2016-01-14T13:37:48.407Z</time>
      </trkpt>
      <trkpt lat="46.01104" lon="4.68597">
        <ele>279.013031006</ele>
        <time>2016-01-14T13:37:53.457Z</time>
      </trkpt>
      <trkpt lat="46.01105" lon="4.68595">
        <ele>279.042816162</ele>
        <time>2016-01-14T13:37:54.433Z</time>
      </trkpt>
      <trkpt lat="46.01106" lon="4.68584">
        <ele>279.491577148</ele>
        <time>2016-01-14T13:38:01.464Z</time>
      </trkpt>
      <trkpt lat="46.01107" lon="4.68582">
        <ele>279.556030273</ele>
        <time>2016-01-14T13:38:02.421Z</time>
      </trkpt>
      <trkpt lat="46.01108" lon="4.6857">
        <ele>279.917816162</ele>
        <time>2016-01-14T13:38:08.459Z</time>
      </trkpt>
      <trkpt lat="46.01109" lon="4.68568">
        <ele>279.98828125</ele>
        <time>2016-01-14T13:38:09.43Z</time>
      </trkpt>
      <trkpt lat="46.0111" lon="4.68556">
        <ele>280.599212646</ele>
        <time>2016-01-14T13:38:16.468Z</time>
      </trkpt>
      <trkpt lat="46.0111" lon="4.68554">
        <ele>280.704681396</ele>
        <time>2016-01-14T13:38:17.435Z</time>
      </trkpt>
      <trkpt lat="46.01109" lon="4.68543">
        <ele>281.257629395</ele>
        <time>2016-01-14T13:38:23.475Z</time>
      </trkpt>
      <trkpt lat="46.01109" lon="4.68541">
        <ele>281.331604004</ele>
        <time>2016-01-14T13:38:24.431Z</time>
      </trkpt>
      <trkpt lat="46.01106" lon="4.68529">
        <ele>281.787811279</ele>
        <time>2016-01-14T13:38:30.455Z</time>
      </trkpt>
      <trkpt lat="46.01106" lon="4.68527">
        <ele>281.871887207</ele>
        <time>2016-01-14T13:38:31.435Z</time>
      </trkpt>
      <trkpt lat="46.01105" lon="4.68515">
        <ele>282.509979248</ele>
        <time>2016-01-14T13:38:38.457Z</time>
      </trkpt>
      <trkpt lat="46.01105" lon="4.68513">
        <ele>282.619842529</ele>
        <time>2016-01-14T13:38:39.436Z</time>
      </trkpt>
      <trkpt lat="46.01106" lon="4.68501">
        <ele>283.195495605</ele>
        <time>2016-01-14T13:38:45.481Z</time>
      </trkpt>
      <trkpt lat="46.01106" lon="4.68499">
        <ele>283.290740967</ele>
        <time>2016-01-14T13:38:46.423Z</time>
      </trkpt>
      <trkpt lat="46.01108" lon="4.68487">
        <ele>283.910736084</ele>
        <time>2016-01-14T13:38:53.463Z</time>
      </trkpt>
      <trkpt lat="46.01108" lon="4.68484">
        <ele>284.005767822</ele>
        <time>2016-01-14T13:38:54.439Z</time>
      </trkpt>
      <trkpt lat="46.01109" lon="4.68472">
        <ele>284.650817871</ele>
        <time>2016-01-14T13:39:01.431Z</time>
      </trkpt>
      <trkpt lat="46.01109" lon="4.68471">
        <ele>284.738464355</ele>
        <time>2016-01-14T13:39:02.405Z</time>
      </trkpt>
      <trkpt lat="46.01109" lon="4.68458">
        <ele>285.194854736</ele>
        <time>2016-01-14T13:39:09.421Z</time>
      </trkpt>
      <trkpt lat="46.01109" lon="4.68456">
        <ele>285.248199463</ele>
        <time>2016-01-14T13:39:10.41Z</time>
      </trkpt>
      <trkpt lat="46.0111" lon="4.68445">
        <ele>285.447235107</ele>
        <time>2016-01-14T13:39:15.43Z</time>
      </trkpt>
      <trkpt lat="46.0111" lon="4.68443">
        <ele>285.514831543</ele>
        <time>2016-01-14T13:39:16.414Z</time>
      </trkpt>
      <trkpt lat="46.0111" lon="4.6843">
        <ele>285.770904541</ele>
        <time>2016-01-14T13:39:22.426Z</time>
      </trkpt>
      <trkpt lat="46.0111" lon="4.68428">
        <ele>285.830200195</ele>
        <time>2016-01-14T13:39:23.416Z</time>
      </trkpt>
      <trkpt lat="46.01111" lon="4.68417">
        <ele>286.1328125</ele>
        <time>2016-01-14T13:39:28.44Z</time>
      </trkpt>
      <trkpt lat="46.01112" lon="4.68415">
        <ele>286.182006836</ele>
        <time>2016-01-14T13:39:29.414Z</time>
      </trkpt>
      <trkpt lat="46.01113" lon="4.68402">
        <ele>286.398101807</ele>
        <time>2016-01-14T13:39:36.434Z</time>
      </trkpt>
      <trkpt lat="46.01112" lon="4.68401">
        <ele>286.377227783</ele>
        <time>2016-01-14T13:39:37.406Z</time>
      </trkpt>
      <trkpt lat="46.0111" lon="4.68389">
        <ele>286.693572998</ele>
        <time>2016-01-14T13:39:44.446Z</time>
      </trkpt>
      <trkpt lat="46.0111" lon="4.68387">
        <ele>286.748168945</ele>
        <time>2016-01-14T13:39:45.415Z</time>
      </trkpt>
      <trkpt lat="46.0111" lon="4.68376">
        <ele>287.447174072</ele>
        <time>2016-01-14T13:39:52.44Z</time>
      </trkpt>
      <trkpt lat="46.0111" lon="4.68374">
        <ele>287.551086426</ele>
        <time>2016-01-14T13:39:53.408Z</time>
      </trkpt>
      <trkpt lat="46.0111" lon="4.68361">
        <ele>287.797302246</ele>
        <time>2016-01-14T13:39:58.445Z</time>
      </trkpt>
      <trkpt lat="46.0111" lon="4.68359">
        <ele>287.865478516</ele>
        <time>2016-01-14T13:39:59.406Z</time>
      </trkpt>
      <trkpt lat="46.01109" lon="4.68347">
        <ele>288.222259521</ele>
        <time>2016-01-14T13:40:05.479Z</time>
      </trkpt>
      <trkpt lat="46.01109" lon="4.68345">
        <ele>288.259735107</ele>
        <time>2016-01-14T13:40:06.41Z</time>
      </trkpt>
      <trkpt lat="46.0111" lon="4.68334">
        <ele>288.525909424</ele>
        <time>2016-01-14T13:40:13.431Z</time>
      </trkpt>
      <trkpt lat="46.0111" lon="4.68332">
        <ele>288.579467773</ele>
        <time>2016-01-14T13:40:14.424Z</time>
      </trkpt>
      <trkpt lat="46.01108" lon="4.68319">
        <ele>288.96774292</ele>
        <time>2016-01-14T13:40:23.446Z</time>
      </trkpt>
      <trkpt lat="46.01107" lon="4.68319">
        <ele>288.959899902</ele>
        <time>2016-01-14T13:40:24.418Z</time>
      </trkpt>
      <trkpt lat="46.01108" lon="4.68307">
        <ele>289.531890869</ele>
        <time>2016-01-14T13:41:02.431Z</time>
      </trkpt>
      <trkpt lat="46.01107" lon="4.68306">
        <ele>289.557800293</ele>
        <time>2016-01-14T13:41:03.413Z</time>
      </trkpt>
      <trkpt lat="46.01108" lon="4.68293">
        <ele>289.551330566</ele>
        <time>2016-01-14T13:41:12.466Z</time>
      </trkpt>
      <trkpt lat="46.01108" lon="4.68291">
        <ele>289.5078125</ele>
        <time>2016-01-14T13:41:13.418Z</time>
      </trkpt>
      <trkpt lat="46.0111" lon="4.68279">
        <ele>289.569763184</ele>
        <time>2016-01-14T13:41:22.439Z</time>
      </trkpt>
      <trkpt lat="46.0111" lon="4.68278">
        <ele>289.553161621</ele>
        <time>2016-01-14T13:41:23.425Z</time>
      </trkpt>
      <trkpt lat="46.01109" lon="4.68265">
        <ele>289.444091797</ele>
        <time>2016-01-14T13:41:31.453Z</time>
      </trkpt>
      <trkpt lat="46.01109" lon="4.68263">
        <ele>289.389190674</ele>
        <time>2016-01-14T13:41:32.424Z</time>
      </trkpt>
      <trkpt lat="46.0111" lon="4.68252">
        <ele>289.19128418</ele>
        <time>2016-01-14T13:41:40.453Z</time>
      </trkpt>
      <trkpt lat="46.0111" lon="4.6825">
        <ele>289.160095215</ele>
        <time>2016-01-14T13:41:41.424Z</time>
      </trkpt>
      <trkpt lat="46.01112" lon="4.68238">
        <ele>289.189178467</ele>
        <time>2016-01-14T13:41:49.439Z</time>
      </trkpt>
      <trkpt lat="46.01112" lon="4.68236">
        <ele>289.22064209</ele>
        <time>2016-01-14T13:41:50.42Z</time>
      </trkpt>
      <trkpt lat="46.01114" lon="4.68224">
        <ele>289.063598633</ele>
        <time>2016-01-14T13:42:16.452Z</time>
      </trkpt>
      <trkpt lat="46.01115" lon="4.68224">
        <ele>289.061309814</ele>
        <time>2016-01-14T13:42:17.44Z</time>
      </trkpt>
      <trkpt lat="46.01118" lon="4.68212">
        <ele>289.170471191</ele>
        <time>2016-01-14T13:42:36.456Z</time>
      </trkpt>
      <trkpt lat="46.01118" lon="4.68211">
        <ele>289.141784668</ele>
        <time>2016-01-14T13:42:37.423Z</time>
      </trkpt>
      <trkpt lat="46.01121" lon="4.682">
        <ele>288.905212402</ele>
        <time>2016-01-14T13:42:46.437Z</time>
      </trkpt>
      <trkpt lat="46.01122" lon="4.68198">
        <ele>288.932678223</ele>
        <time>2016-01-14T13:42:47.421Z</time>
      </trkpt>
      <trkpt lat="46.01124" lon="4.68185">
        <ele>289.175170898</ele>
        <time>2016-01-14T13:42:55.47Z</time>
      </trkpt>
      <trkpt lat="46.01124" lon="4.68184">
        <ele>289.22354126</ele>
        <time>2016-01-14T13:42:56.422Z</time>
      </trkpt>
      <trkpt lat="46.01128" lon="4.68173">
        <ele>289.352081299</ele>
        <time>2016-01-14T13:43:09.456Z</time>
      </trkpt>
      <trkpt lat="46.01129" lon="4.68173">
        <ele>289.389709473</ele>
        <time>2016-01-14T13:43:10.439Z</time>
      </trkpt>
      <trkpt lat="46.01138" lon="4.68173">
        <ele>289.408050537</ele>
        <time>2016-01-14T13:43:17.466Z</time>
      </trkpt>
      <trkpt lat="46.01139" lon="4.68174">
        <ele>289.410675049</ele>
        <time>2016-01-14T13:43:18.432Z</time>
      </trkpt>
      <trkpt lat="46.0113" lon="4.68172">
        <ele>288.856323242</ele>
        <time>2016-01-14T13:43:41.48Z</time>
      </trkpt>
      <trkpt lat="46.01129" lon="4.68171">
        <ele>288.817962646</ele>
        <time>2016-01-14T13:43:42.435Z</time>
      </trkpt>
      <trkpt lat="46.01127" lon="4.68159">
        <ele>288.453765869</ele>
        <time>2016-01-14T13:43:50.504Z</time>
      </trkpt>
      <trkpt lat="46.01128" lon="4.68157">
        <ele>288.384918213</ele>
        <time>2016-01-14T13:43:51.434Z</time>
      </trkpt>
      <trkpt lat="46.01132" lon="4.68146">
        <ele>287.894348145</ele>
        <time>2016-01-14T13:43:57.464Z</time>
      </trkpt>
      <trkpt lat="46.01132" lon="4.68144">
        <ele>287.801971436</ele>
        <time>2016-01-14T13:43:58.434Z</time>
      </trkpt>
      <trkpt lat="46.01137" lon="4.68133">
        <ele>287.440826416</ele>
        <time>2016-01-14T13:44:04.475Z</time>
      </trkpt>
      <trkpt lat="46.01138" lon="4.68132">
        <ele>287.40045166</ele>
        <time>2016-01-14T13:44:05.436Z</time>
      </trkpt>
      <trkpt lat="46.01145" lon="4.68123">
        <ele>287.003601074</ele>
        <time>2016-01-14T13:44:12.462Z</time>
      </trkpt>
      <trkpt lat="46.01146" lon="4.68121">
        <ele>286.959503174</ele>
        <time>2016-01-14T13:44:13.401Z</time>
      </trkpt>
      <trkpt lat="46.01152" lon="4.68113">
        <ele>286.732025146</ele>
        <time>2016-01-14T13:44:19.445Z</time>
      </trkpt>
      <trkpt lat="46.01153" lon="4.68112">
        <ele>286.699645996</ele>
        <time>2016-01-14T13:44:20.4Z</time>
      </trkpt>
      <trkpt lat="46.0116" lon="4.68106">
        <ele>286.362945557</ele>
        <time>2016-01-14T13:44:26.422Z</time>
      </trkpt>
      <trkpt lat="46.01161" lon="4.68105">
        <ele>286.295135498</ele>
        <time>2016-01-14T13:44:27.406Z</time>
      </trkpt>
      <trkpt lat="46.01168" lon="4.68101">
        <ele>285.921966553</ele>
        <time>2016-01-14T13:44:33.435Z</time>
      </trkpt>
      <trkpt lat="46.01169" lon="4.681">
        <ele>285.864807129</ele>
        <time>2016-01-14T13:44:34.406Z</time>
      </trkpt>
      <trkpt lat="46.01178" lon="4.68097">
        <ele>285.1925354</ele>
        <time>2016-01-14T13:44:41.442Z</time>
      </trkpt>
      <trkpt lat="46.01179" lon="4.68096">
        <ele>285.156616211</ele>
        <time>2016-01-14T13:44:42.403Z</time>
      </trkpt>
      <trkpt lat="46.01186" lon="4.68093">
        <ele>284.907653809</ele>
        <time>2016-01-14T13:44:48.438Z</time>
      </trkpt>
      <trkpt lat="46.01188" lon="4.68093">
        <ele>284.858642578</ele>
        <time>2016-01-14T13:44:49.414Z</time>
      </trkpt>
      <trkpt lat="46.01196" lon="4.68091">
        <ele>284.664916992</ele>
        <time>2016-01-14T13:44:54.425Z</time>
      </trkpt>
      <trkpt lat="46.01197" lon="4.6809">
        <ele>284.566375732</ele>
        <time>2016-01-14T13:44:55.406Z</time>
      </trkpt>
      <trkpt lat="46.01203" lon="4.68081">
        <ele>284.322235107</ele>
        <time>2016-01-14T13:45:04.435Z</time>
      </trkpt>
      <trkpt lat="46.01203" lon="4.68079">
        <ele>284.337738037</ele>
        <time>2016-01-14T13:45:05.416Z</time>
      </trkpt>
      <trkpt lat="46.01203" lon="4.68067">
        <ele>284.07989502</ele>
        <time>2016-01-14T13:45:12.427Z</time>
      </trkpt>
      <trkpt lat="46.01202" lon="4.68065">
        <ele>284.061340332</ele>
        <time>2016-01-14T13:45:13.408Z</time>
      </trkpt>
      <trkpt lat="46.012" lon="4.68054">
        <ele>283.87802124</ele>
        <time>2016-01-14T13:45:19.431Z</time>
      </trkpt>
      <trkpt lat="46.012" lon="4.68052">
        <ele>283.841796875</ele>
        <time>2016-01-14T13:45:20.408Z</time>
      </trkpt>
      <trkpt lat="46.01199" lon="4.6804">
        <ele>283.491943359</ele>
        <time>2016-01-14T13:45:27.474Z</time>
      </trkpt>
      <trkpt lat="46.01199" lon="4.68038">
        <ele>283.474029541</ele>
        <time>2016-01-14T13:45:28.419Z</time>
      </trkpt>
      <trkpt lat="46.01198" lon="4.68027">
        <ele>283.16418457</ele>
        <time>2016-01-14T13:45:34.432Z</time>
      </trkpt>
      <trkpt lat="46.01198" lon="4.68025">
        <ele>283.088195801</ele>
        <time>2016-01-14T13:45:35.415Z</time>
      </trkpt>
      <trkpt lat="46.01197" lon="4.68012">
        <ele>282.777862549</ele>
        <time>2016-01-14T13:45:41.43Z</time>
      </trkpt>
      <trkpt lat="46.01197" lon="4.68011">
        <ele>282.741119385</ele>
        <time>2016-01-14T13:45:42.41Z</time>
      </trkpt>
      <trkpt lat="46.01195" lon="4.67999">
        <ele>282.590087891</ele>
        <time>2016-01-14T13:45:48.49Z</time>
      </trkpt>
      <trkpt lat="46.01195" lon="4.67998">
        <ele>282.567260742</ele>
        <time>2016-01-14T13:45:49.416Z</time>
      </trkpt>
      <trkpt lat="46.01194" lon="4.67985">
        <ele>282.247680664</ele>
        <time>2016-01-14T13:45:56.424Z</time>
      </trkpt>
      <trkpt lat="46.01194" lon="4.67983">
        <ele>282.179931641</ele>
        <time>2016-01-14T13:45:57.397Z</time>
      </trkpt>
      <trkpt lat="46.0119" lon="4.67972">
        <ele>281.737823486</ele>
        <time>2016-01-14T13:46:04.463Z</time>
      </trkpt>
      <trkpt lat="46.0119" lon="4.6797">
        <ele>281.634246826</ele>
        <time>2016-01-14T13:46:05.424Z</time>
      </trkpt>
      <trkpt lat="46.01188" lon="4.67958">
        <ele>281.345458984</ele>
        <time>2016-01-14T13:46:11.427Z</time>
      </trkpt>
      <trkpt lat="46.01188" lon="4.67956">
        <ele>281.323577881</ele>
        <time>2016-01-14T13:46:12.422Z</time>
      </trkpt>
      <trkpt lat="46.01187" lon="4.67944">
        <ele>281.245422363</ele>
        <time>2016-01-14T13:46:18.43Z</time>
      </trkpt>
      <trkpt lat="46.01187" lon="4.67942">
        <ele>281.219787598</ele>
        <time>2016-01-14T13:46:19.415Z</time>
      </trkpt>
      <trkpt lat="46.01188" lon="4.67931">
        <ele>281.327484131</ele>
        <time>2016-01-14T13:46:25.429Z</time>
      </trkpt>
      <trkpt lat="46.01188" lon="4.67929">
        <ele>281.431427002</ele>
        <time>2016-01-14T13:46:26.414Z</time>
      </trkpt>
      <trkpt lat="46.01187" lon="4.67916">
        <ele>281.928039551</ele>
        <time>2016-01-14T13:46:32.487Z</time>
      </trkpt>
      <trkpt lat="46.01186" lon="4.67915">
        <ele>282.012390137</ele>
        <time>2016-01-14T13:46:33.418Z</time>
      </trkpt>
      <trkpt lat="46.01183" lon="4.67903">
        <ele>281.94720459</ele>
        <time>2016-01-14T13:46:41.46Z</time>
      </trkpt>
      <trkpt lat="46.01183" lon="4.67902">
        <ele>281.934661865</ele>
        <time>2016-01-14T13:46:42.414Z</time>
      </trkpt>
      <trkpt lat="46.01181" lon="4.67889">
        <ele>281.888458252</ele>
        <time>2016-01-14T13:46:48.45Z</time>
      </trkpt>
      <trkpt lat="46.01181" lon="4.67887">
        <ele>281.898620605</ele>
        <time>2016-01-14T13:46:49.414Z</time>
      </trkpt>
      <trkpt lat="46.01179" lon="4.67875">
        <ele>282.536254883</ele>
        <time>2016-01-14T13:46:56.457Z</time>
      </trkpt>
      <trkpt lat="46.01178" lon="4.67872">
        <ele>282.61239624</ele>
        <time>2016-01-14T13:46:57.413Z</time>
      </trkpt>
      <trkpt lat="46.01174" lon="4.67862">
        <ele>282.791473389</ele>
        <time>2016-01-14T13:47:03.44Z</time>
      </trkpt>
      <trkpt lat="46.01174" lon="4.6786">
        <ele>282.832061768</ele>
        <time>2016-01-14T13:47:04.413Z</time>
      </trkpt>
      <trkpt lat="46.01171" lon="4.67849">
        <ele>283.017944336</ele>
        <time>2016-01-14T13:47:11.443Z</time>
      </trkpt>
      <trkpt lat="46.01171" lon="4.67847">
        <ele>283.068206787</ele>
        <time>2016-01-14T13:47:12.419Z</time>
      </trkpt>
      <trkpt lat="46.01169" lon="4.67835">
        <ele>283.002807617</ele>
        <time>2016-01-14T13:47:18.46Z</time>
      </trkpt>
      <trkpt lat="46.01169" lon="4.67834">
        <ele>282.958007812</ele>
        <time>2016-01-14T13:47:19.419Z</time>
      </trkpt>
      <trkpt lat="46.01166" lon="4.67822">
        <ele>282.79284668</ele>
        <time>2016-01-14T13:47:25.435Z</time>
      </trkpt>
      <trkpt lat="46.01166" lon="4.6782">
        <ele>282.802124023</ele>
        <time>2016-01-14T13:47:26.403Z</time>
      </trkpt>
      <trkpt lat="46.01163" lon="4.67811">
        <ele>282.956542969</ele>
        <time>2016-01-14T13:47:30.447Z</time>
      </trkpt>
      <trkpt lat="46.01163" lon="4.67808">
        <ele>282.992156982</ele>
        <time>2016-01-14T13:47:31.422Z</time>
      </trkpt>
      <trkpt lat="46.01161" lon="4.67796">
        <ele>282.854888916</ele>
        <time>2016-01-14T13:47:38.459Z</time>
      </trkpt>
      <trkpt lat="46.01161" lon="4.67794">
        <ele>282.826049805</ele>
        <time>2016-01-14T13:47:39.423Z</time>
      </trkpt>
      <trkpt lat="46.01157" lon="4.67783">
        <ele>282.93951416</ele>
        <time>2016-01-14T13:47:45.449Z</time>
      </trkpt>
      <trkpt lat="46.01156" lon="4.67781">
        <ele>282.957427979</ele>
        <time>2016-01-14T13:47:46.434Z</time>
      </trkpt>
      <trkpt lat="46.01154" lon="4.67769">
        <ele>282.953277588</ele>
        <time>2016-01-14T13:47:54.423Z</time>
      </trkpt>
      <trkpt lat="46.01154" lon="4.67768">
        <ele>282.972869873</ele>
        <time>2016-01-14T13:47:55.418Z</time>
      </trkpt>
      <trkpt lat="46.01151" lon="4.67758">
        <ele>283.090515137</ele>
        <time>2016-01-14T13:48:00.455Z</time>
      </trkpt>
      <trkpt lat="46.0115" lon="4.67755">
        <ele>283.146026611</ele>
        <time>2016-01-14T13:48:01.43Z</time>
      </trkpt>
      <trkpt lat="46.01148" lon="4.67744">
        <ele>283.525848389</ele>
        <time>2016-01-14T13:48:07.438Z</time>
      </trkpt>
      <trkpt lat="46.01147" lon="4.67743">
        <ele>283.604187012</ele>
        <time>2016-01-14T13:48:08.42Z</time>
      </trkpt>
      <trkpt lat="46.01143" lon="4.67731">
        <ele>283.782684326</ele>
        <time>2016-01-14T13:48:16.453Z</time>
      </trkpt>
      <trkpt lat="46.01143" lon="4.6773">
        <ele>283.777618408</ele>
        <time>2016-01-14T13:48:17.421Z</time>
      </trkpt>
      <trkpt lat="46.0114" lon="4.67718">
        <ele>283.58682251</ele>
        <time>2016-01-14T13:48:24.446Z</time>
      </trkpt>
      <trkpt lat="46.01139" lon="4.67715">
        <ele>283.567687988</ele>
        <time>2016-01-14T13:48:25.422Z</time>
      </trkpt>
      <trkpt lat="46.01137" lon="4.67705">
        <ele>283.69241333</ele>
        <time>2016-01-14T13:48:29.465Z</time>
      </trkpt>
      <trkpt lat="46.01136" lon="4.67703">
        <ele>283.765319824</ele>
        <time>2016-01-14T13:48:30.419Z</time>
      </trkpt>
      <trkpt lat="46.01133" lon="4.67693">
        <ele>284.191467285</ele>
        <time>2016-01-14T13:48:38.456Z</time>
      </trkpt>
      <trkpt lat="46.01132" lon="4.67691">
        <ele>284.232269287</ele>
        <time>2016-01-14T13:48:39.425Z</time>
      </trkpt>
      <trkpt lat="46.01126" lon="4.67682">
        <ele>284.471099854</ele>
        <time>2016-01-14T13:48:45.454Z</time>
      </trkpt>
      <trkpt lat="46.01126" lon="4.67682">
        <ele>284.573120117</ele>
        <time>2016-01-14T13:48:46.438Z</time>
      </trkpt>
      <trkpt lat="46.01117" lon="4.67683">
        <ele>285.640655518</ele>
        <time>2016-01-14T13:48:54.455Z</time>
      </trkpt>
      <trkpt lat="46.01116" lon="4.67684">
        <ele>285.746307373</ele>
        <time>2016-01-14T13:48:55.435Z</time>
      </trkpt>
      <trkpt lat="46.01108" lon="4.67689">
        <ele>286.377624512</ele>
        <time>2016-01-14T13:49:02.457Z</time>
      </trkpt>
      <trkpt lat="46.01107" lon="4.6769">
        <ele>286.45791626</ele>
        <time>2016-01-14T13:49:03.434Z</time>
      </trkpt>
      <trkpt lat="46.011" lon="4.67695">
        <ele>286.779571533</ele>
        <time>2016-01-14T13:49:09.471Z</time>
      </trkpt>
      <trkpt lat="46.01099" lon="4.67695">
        <ele>286.851226807</ele>
        <time>2016-01-14T13:49:10.435Z</time>
      </trkpt>
      <trkpt lat="46.0109" lon="4.67698">
        <ele>287.658599854</ele>
        <time>2016-01-14T13:49:17.461Z</time>
      </trkpt>
      <trkpt lat="46.01089" lon="4.67698">
        <ele>287.761199951</ele>
        <time>2016-01-14T13:49:18.446Z</time>
      </trkpt>
      <trkpt lat="46.01082" lon="4.67704">
        <ele>288.271270752</ele>
        <time>2016-01-14T13:49:25.463Z</time>
      </trkpt>
      <trkpt lat="46.01081" lon="4.67705">
        <ele>288.300323486</ele>
        <time>2016-01-14T13:49:26.436Z</time>
      </trkpt>
      <trkpt lat="46.01073" lon="4.67709">
        <ele>288.624786377</ele>
        <time>2016-01-14T13:49:32.441Z</time>
      </trkpt>
      <trkpt lat="46.01072" lon="4.6771">
        <ele>288.682800293</ele>
        <time>2016-01-14T13:49:33.406Z</time>
      </trkpt>
      <trkpt lat="46.01064" lon="4.67715">
        <ele>289.015014648</ele>
        <time>2016-01-14T13:49:40.421Z</time>
      </trkpt>
      <trkpt lat="46.01063" lon="4.67715">
        <ele>289.081726074</ele>
        <time>2016-01-14T13:49:41.406Z</time>
      </trkpt>
      <trkpt lat="46.01056" lon="4.67717">
        <ele>289.598754883</ele>
        <time>2016-01-14T13:49:49.426Z</time>
      </trkpt>
      <trkpt lat="46.01054" lon="4.67718">
        <ele>289.717346191</ele>
        <time>2016-01-14T13:49:50.402Z</time>
      </trkpt>
      <trkpt lat="46.01047" lon="4.6772">
        <ele>290.488769531</ele>
        <time>2016-01-14T13:49:56.425Z</time>
      </trkpt>
      <trkpt lat="46.01045" lon="4.67721">
        <ele>290.655975342</ele>
        <time>2016-01-14T13:49:57.407Z</time>
      </trkpt>
      <trkpt lat="46.01038" lon="4.67725">
        <ele>291.533721924</ele>
        <time>2016-01-14T13:50:03.436Z</time>
      </trkpt>
      <trkpt lat="46.01037" lon="4.67726">
        <ele>291.722503662</ele>
        <time>2016-01-14T13:50:04.403Z</time>
      </trkpt>
      <trkpt lat="46.01029" lon="4.67731">
        <ele>292.399353027</ele>
        <time>2016-01-14T13:50:10.466Z</time>
      </trkpt>
      <trkpt lat="46.01027" lon="4.67732">
        <ele>292.49105835</ele>
        <time>2016-01-14T13:50:11.413Z</time>
      </trkpt>
      <trkpt lat="46.01022" lon="4.67739">
        <ele>292.639129639</ele>
        <time>2016-01-14T13:50:16.431Z</time>
      </trkpt>
      <trkpt lat="46.01021" lon="4.67741">
        <ele>292.673583984</ele>
        <time>2016-01-14T13:50:17.406Z</time>
      </trkpt>
      <trkpt lat="46.01014" lon="4.67749">
        <ele>292.774993896</ele>
        <time>2016-01-14T13:50:23.445Z</time>
      </trkpt>
      <trkpt lat="46.01013" lon="4.6775">
        <ele>292.821838379</ele>
        <time>2016-01-14T13:50:24.408Z</time>
      </trkpt>
      <trkpt lat="46.01007" lon="4.67759">
        <ele>292.86315918</ele>
        <time>2016-01-14T13:50:30.445Z</time>
      </trkpt>
      <trkpt lat="46.01006" lon="4.6776">
        <ele>292.931091309</ele>
        <time>2016-01-14T13:50:31.415Z</time>
      </trkpt>
      <trkpt lat="46.00999" lon="4.67766">
        <ele>293.104949951</ele>
        <time>2016-01-14T13:50:38.446Z</time>
      </trkpt>
      <trkpt lat="46.00998" lon="4.67767">
        <ele>293.157409668</ele>
        <time>2016-01-14T13:50:39.409Z</time>
      </trkpt>
      <trkpt lat="46.0099" lon="4.67771">
        <ele>293.538513184</ele>
        <time>2016-01-14T13:50:46.434Z</time>
      </trkpt>
      <trkpt lat="46.00989" lon="4.67772">
        <ele>293.558532715</ele>
        <time>2016-01-14T13:50:47.408Z</time>
      </trkpt>
      <trkpt lat="46.0098" lon="4.67773">
        <ele>293.652801514</ele>
        <time>2016-01-14T13:50:55.446Z</time>
      </trkpt>
      <trkpt lat="46.00979" lon="4.67773">
        <ele>293.676574707</ele>
        <time>2016-01-14T13:50:56.418Z</time>
      </trkpt>
      <trkpt lat="46.00971" lon="4.67774">
        <ele>293.862518311</ele>
        <time>2016-01-14T13:51:03.429Z</time>
      </trkpt>
      <trkpt lat="46.0097" lon="4.67774">
        <ele>293.904174805</ele>
        <time>2016-01-14T13:51:04.408Z</time>
      </trkpt>
      <trkpt lat="46.00961" lon="4.67776">
        <ele>294.117919922</ele>
        <time>2016-01-14T13:51:11.441Z</time>
      </trkpt>
      <trkpt lat="46.0096" lon="4.67777">
        <ele>294.127258301</ele>
        <time>2016-01-14T13:51:12.415Z</time>
      </trkpt>
      <trkpt lat="46.00951" lon="4.6778">
        <ele>294.038482666</ele>
        <time>2016-01-14T13:51:19.429Z</time>
      </trkpt>
      <trkpt lat="46.0095" lon="4.67781">
        <ele>293.993865967</ele>
        <time>2016-01-14T13:51:20.416Z</time>
      </trkpt>
      <trkpt lat="46.00945" lon="4.67772">
        <ele>295.762542725</ele>
        <time>2016-01-14T13:52:07.451Z</time>
      </trkpt>
      <trkpt lat="46.00944" lon="4.6777">
        <ele>296.011901855</ele>
        <time>2016-01-14T13:52:08.418Z</time>
      </trkpt>
      <trkpt lat="46.00946" lon="4.67757">
        <ele>296.719085693</ele>
        <time>2016-01-14T13:52:13.437Z</time>
      </trkpt>
      <trkpt lat="46.00946" lon="4.67755">
        <ele>296.807281494</ele>
        <time>2016-01-14T13:52:14.423Z</time>
      </trkpt>
      <trkpt lat="46.00948" lon="4.67744">
        <ele>297.302734375</ele>
        <time>2016-01-14T13:52:20.441Z</time>
      </trkpt>
      <trkpt lat="46.00948" lon="4.67742">
        <ele>297.364776611</ele>
        <time>2016-01-14T13:52:21.413Z</time>
      </trkpt>
      <trkpt lat="46.00948" lon="4.67731">
        <ele>297.763641357</ele>
        <time>2016-01-14T13:52:27.448Z</time>
      </trkpt>
      <trkpt lat="46.00948" lon="4.67729">
        <ele>297.838195801</ele>
        <time>2016-01-14T13:52:28.417Z</time>
      </trkpt>
      <trkpt lat="46.00948" lon="4.67716">
        <ele>298.237426758</ele>
        <time>2016-01-14T13:52:34.451Z</time>
      </trkpt>
      <trkpt lat="46.00947" lon="4.67714">
        <ele>298.292694092</ele>
        <time>2016-01-14T13:52:35.418Z</time>
      </trkpt>
      <trkpt lat="46.00946" lon="4.67703">
        <ele>298.677368164</ele>
        <time>2016-01-14T13:52:42.449Z</time>
      </trkpt>
      <trkpt lat="46.00946" lon="4.67701">
        <ele>298.734039307</ele>
        <time>2016-01-14T13:52:43.417Z</time>
      </trkpt>
      <trkpt lat="46.00947" lon="4.67689">
        <ele>299.245269775</ele>
        <time>2016-01-14T13:52:50.45Z</time>
      </trkpt>
      <trkpt lat="46.00947" lon="4.67687">
        <ele>299.315704346</ele>
        <time>2016-01-14T13:52:51.418Z</time>
      </trkpt>
      <trkpt lat="46.00945" lon="4.67674">
        <ele>299.659118652</ele>
        <time>2016-01-14T13:52:58.451Z</time>
      </trkpt>
      <trkpt lat="46.00945" lon="4.67672">
        <ele>299.702301025</ele>
        <time>2016-01-14T13:52:59.42Z</time>
      </trkpt>
      <trkpt lat="46.00945" lon="4.67661">
        <ele>300.028625488</ele>
        <time>2016-01-14T13:53:06.451Z</time>
      </trkpt>
      <trkpt lat="46.00945" lon="4.67659">
        <ele>300.078704834</ele>
        <time>2016-01-14T13:53:07.42Z</time>
      </trkpt>
      <trkpt lat="46.00945" lon="4.67646">
        <ele>300.550628662</ele>
        <time>2016-01-14T13:53:15.467Z</time>
      </trkpt>
      <trkpt lat="46.00945" lon="4.67645">
        <ele>300.603424072</ele>
        <time>2016-01-14T13:53:16.42Z</time>
      </trkpt>
      <trkpt lat="46.00944" lon="4.67633">
        <ele>300.879516602</ele>
        <time>2016-01-14T13:53:22.471Z</time>
      </trkpt>
      <trkpt lat="46.00944" lon="4.67631">
        <ele>300.935302734</ele>
        <time>2016-01-14T13:53:23.42Z</time>
      </trkpt>
      <trkpt lat="46.00943" lon="4.67619">
        <ele>301.297271729</ele>
        <time>2016-01-14T13:53:30.464Z</time>
      </trkpt>
      <trkpt lat="46.00943" lon="4.67617">
        <ele>301.330505371</ele>
        <time>2016-01-14T13:53:31.43Z</time>
      </trkpt>
      <trkpt lat="46.00942" lon="4.67606">
        <ele>301.382080078</ele>
        <time>2016-01-14T13:53:37.461Z</time>
      </trkpt>
      <trkpt lat="46.00942" lon="4.67604">
        <ele>301.377807617</ele>
        <time>2016-01-14T13:53:38.43Z</time>
      </trkpt>
      <trkpt lat="46.0094" lon="4.67592">
        <ele>301.733276367</ele>
        <time>2016-01-14T13:53:45.453Z</time>
      </trkpt>
      <trkpt lat="46.00939" lon="4.6759">
        <ele>301.830169678</ele>
        <time>2016-01-14T13:53:46.44Z</time>
      </trkpt>
      <trkpt lat="46.00936" lon="4.67578">
        <ele>302.322113037</ele>
        <time>2016-01-14T13:53:53.461Z</time>
      </trkpt>
      <trkpt lat="46.00935" lon="4.67577">
        <ele>302.357208252</ele>
        <time>2016-01-14T13:53:54.433Z</time>
      </trkpt>
      <trkpt lat="46.00931" lon="4.67567">
        <ele>302.702362061</ele>
        <time>2016-01-14T13:54:01.47Z</time>
      </trkpt>
      <trkpt lat="46.0093" lon="4.67565">
        <ele>302.727935791</ele>
        <time>2016-01-14T13:54:02.423Z</time>
      </trkpt>
      <trkpt lat="46.00926" lon="4.67555">
        <ele>302.900054932</ele>
        <time>2016-01-14T13:54:08.462Z</time>
      </trkpt>
      <trkpt lat="46.00925" lon="4.67553">
        <ele>302.917266846</ele>
        <time>2016-01-14T13:54:09.423Z</time>
      </trkpt>
      <trkpt lat="46.00919" lon="4.67544">
        <ele>302.952209473</ele>
        <time>2016-01-14T13:54:16.445Z</time>
      </trkpt>
      <trkpt lat="46.00918" lon="4.67543">
        <ele>302.940643311</ele>
        <time>2016-01-14T13:54:17.423Z</time>
      </trkpt>
      <trkpt lat="46.00911" lon="4.67535">
        <ele>303.186737061</ele>
        <time>2016-01-14T13:54:26.453Z</time>
      </trkpt>
      <trkpt lat="46.0091" lon="4.67534">
        <ele>303.189300537</ele>
        <time>2016-01-14T13:54:27.428Z</time>
      </trkpt>
      <trkpt lat="46.00902" lon="4.6753">
        <ele>303.017974854</ele>
        <time>2016-01-14T13:54:35.464Z</time>
      </trkpt>
      <trkpt lat="46.009" lon="4.6753">
        <ele>303.004058838</ele>
        <time>2016-01-14T13:54:36.428Z</time>
      </trkpt>
      <trkpt lat="46.00892" lon="4.67533">
        <ele>303.131347656</ele>
        <time>2016-01-14T13:54:43.49Z</time>
      </trkpt>
      <trkpt lat="46.00891" lon="4.67534">
        <ele>303.183288574</ele>
        <time>2016-01-14T13:54:44.411Z</time>
      </trkpt>
      <trkpt lat="46.00883" lon="4.6754">
        <ele>303.3175354</ele>
        <time>2016-01-14T13:54:52.421Z</time>
      </trkpt>
      <trkpt lat="46.00881" lon="4.67541">
        <ele>303.359863281</ele>
        <time>2016-01-14T13:54:53.418Z</time>
      </trkpt>
      <trkpt lat="46.00873" lon="4.67542">
        <ele>303.212860107</ele>
        <time>2016-01-14T13:54:59.401Z</time>
      </trkpt>
      <trkpt lat="46.00871" lon="4.67542">
        <ele>303.211669922</ele>
        <time>2016-01-14T13:55:00.417Z</time>
      </trkpt>
      <trkpt lat="46.00864" lon="4.67545">
        <ele>303.227508545</ele>
        <time>2016-01-14T13:55:06.425Z</time>
      </trkpt>
      <trkpt lat="46.00862" lon="4.67546">
        <ele>303.222900391</ele>
        <time>2016-01-14T13:55:07.414Z</time>
      </trkpt>
      <trkpt lat="46.00854" lon="4.6755">
        <ele>303.165466309</ele>
        <time>2016-01-14T13:55:14.45Z</time>
      </trkpt>
      <trkpt lat="46.00853" lon="4.67551">
        <ele>303.162872314</ele>
        <time>2016-01-14T13:55:15.414Z</time>
      </trkpt>
      <trkpt lat="46.00846" lon="4.67558">
        <ele>303.192260742</ele>
        <time>2016-01-14T13:55:22.423Z</time>
      </trkpt>
      <trkpt lat="46.00845" lon="4.67559">
        <ele>303.199676514</ele>
        <time>2016-01-14T13:55:23.414Z</time>
      </trkpt>
      <trkpt lat="46.00837" lon="4.67563">
        <ele>303.462341309</ele>
        <time>2016-01-14T13:55:29.45Z</time>
      </trkpt>
      <trkpt lat="46.00836" lon="4.67563">
        <ele>303.589172363</ele>
        <time>2016-01-14T13:55:30.405Z</time>
      </trkpt>
      <trkpt lat="46.00829" lon="4.67561">
        <ele>304.017669678</ele>
        <time>2016-01-14T13:55:38.464Z</time>
      </trkpt>
      <trkpt lat="46.00827" lon="4.6756">
        <ele>304.003723145</ele>
        <time>2016-01-14T13:55:39.416Z</time>
      </trkpt>
      <trkpt lat="46.00822" lon="4.6755">
        <ele>304.29598999</ele>
        <time>2016-01-14T13:55:44.421Z</time>
      </trkpt>
      <trkpt lat="46.00821" lon="4.67549">
        <ele>304.369140625</ele>
        <time>2016-01-14T13:55:45.41Z</time>
      </trkpt>
      <trkpt lat="46.00817" lon="4.67539">
        <ele>304.742584229</ele>
        <time>2016-01-14T13:55:52.426Z</time>
      </trkpt>
      <trkpt lat="46.00816" lon="4.67537">
        <ele>304.840454102</ele>
        <time>2016-01-14T13:55:53.409Z</time>
      </trkpt>
      <trkpt lat="46.00814" lon="4.67526">
        <ele>305.239562988</ele>
        <time>2016-01-14T13:55:59.425Z</time>
      </trkpt>
      <trkpt lat="46.00814" lon="4.67524">
        <ele>305.297424316</ele>
        <time>2016-01-14T13:56:00.408Z</time>
      </trkpt>
      <trkpt lat="46.00811" lon="4.67514">
        <ele>305.459777832</ele>
        <time>2016-01-14T13:56:06.432Z</time>
      </trkpt>
      <trkpt lat="46.0081" lon="4.67512">
        <ele>305.458251953</ele>
        <time>2016-01-14T13:56:07.408Z</time>
      </trkpt>
      <trkpt lat="46.00806" lon="4.67503">
        <ele>305.541229248</ele>
        <time>2016-01-14T13:56:13.434Z</time>
      </trkpt>
      <trkpt lat="46.00805" lon="4.67501">
        <ele>305.555664062</ele>
        <time>2016-01-14T13:56:14.413Z</time>
      </trkpt>
      <trkpt lat="46.00799" lon="4.67492">
        <ele>305.824188232</ele>
        <time>2016-01-14T13:56:21.429Z</time>
      </trkpt>
      <trkpt lat="46.00798" lon="4.6749">
        <ele>305.873748779</ele>
        <time>2016-01-14T13:56:22.411Z</time>
      </trkpt>
      <trkpt lat="46.00792" lon="4.67483">
        <ele>305.726776123</ele>
        <time>2016-01-14T13:56:29.431Z</time>
      </trkpt>
      <trkpt lat="46.0079" lon="4.67482">
        <ele>305.714477539</ele>
        <time>2016-01-14T13:56:30.416Z</time>
      </trkpt>
      <trkpt lat="46.00782" lon="4.67478">
        <ele>306.164855957</ele>
        <time>2016-01-14T13:56:38.427Z</time>
      </trkpt>
      <trkpt lat="46.00781" lon="4.67477">
        <ele>306.267181396</ele>
        <time>2016-01-14T13:56:39.412Z</time>
      </trkpt>
      <trkpt lat="46.00774" lon="4.67476">
        <ele>306.669555664</ele>
        <time>2016-01-14T13:56:45.539Z</time>
      </trkpt>
      <trkpt lat="46.00772" lon="4.67476">
        <ele>306.740020752</ele>
        <time>2016-01-14T13:56:46.419Z</time>
      </trkpt>
      <trkpt lat="46.00764" lon="4.67477">
        <ele>307.080841064</ele>
        <time>2016-01-14T13:56:51.425Z</time>
      </trkpt>
      <trkpt lat="46.00762" lon="4.67477">
        <ele>307.153320312</ele>
        <time>2016-01-14T13:56:52.412Z</time>
      </trkpt>
      <trkpt lat="46.00754" lon="4.67478">
        <ele>307.412017822</ele>
        <time>2016-01-14T13:56:58.445Z</time>
      </trkpt>
      <trkpt lat="46.00753" lon="4.67478">
        <ele>307.448730469</ele>
        <time>2016-01-14T13:56:59.41Z</time>
      </trkpt>
      <trkpt lat="46.00745" lon="4.67478">
        <ele>307.649475098</ele>
        <time>2016-01-14T13:57:05.44Z</time>
      </trkpt>
      <trkpt lat="46.00744" lon="4.67478">
        <ele>307.696685791</ele>
        <time>2016-01-14T13:57:06.411Z</time>
      </trkpt>
      <trkpt lat="46.00735" lon="4.6748">
        <ele>307.6953125</ele>
        <time>2016-01-14T13:57:12.439Z</time>
      </trkpt>
      <trkpt lat="46.00733" lon="4.6748">
        <ele>307.703125</ele>
        <time>2016-01-14T13:57:13.411Z</time>
      </trkpt>
      <trkpt lat="46.00725" lon="4.6748">
        <ele>307.495574951</ele>
        <time>2016-01-14T13:57:19.434Z</time>
      </trkpt>
      <trkpt lat="46.00724" lon="4.6748">
        <ele>307.450744629</ele>
        <time>2016-01-14T13:57:20.417Z</time>
      </trkpt>
      <trkpt lat="46.00715" lon="4.67481">
        <ele>307.14553833</ele>
        <time>2016-01-14T13:57:26.441Z</time>
      </trkpt>
      <trkpt lat="46.00714" lon="4.67481">
        <ele>307.078460693</ele>
        <time>2016-01-14T13:57:27.427Z</time>
      </trkpt>
      <trkpt lat="46.00705" lon="4.67482">
        <ele>306.605957031</ele>
        <time>2016-01-14T13:57:34.445Z</time>
      </trkpt>
      <trkpt lat="46.00704" lon="4.67483">
        <ele>306.546386719</ele>
        <time>2016-01-14T13:57:35.413Z</time>
      </trkpt>
      <trkpt lat="46.00696" lon="4.67482">
        <ele>306.308135986</ele>
        <time>2016-01-14T13:57:41.446Z</time>
      </trkpt>
      <trkpt lat="46.00694" lon="4.67481">
        <ele>306.289581299</ele>
        <time>2016-01-14T13:57:42.427Z</time>
      </trkpt>
      <trkpt lat="46.00686" lon="4.67479">
        <ele>306.003448486</ele>
        <time>2016-01-14T13:57:49.438Z</time>
      </trkpt>
      <trkpt lat="46.00684" lon="4.67477">
        <ele>305.976104736</ele>
        <time>2016-01-14T13:57:50.418Z</time>
      </trkpt>
      <trkpt lat="46.00678" lon="4.67468">
        <ele>306.0987854</ele>
        <time>2016-01-14T13:57:56.474Z</time>
      </trkpt>
      <trkpt lat="46.00677" lon="4.67466">
        <ele>306.148956299</ele>
        <time>2016-01-14T13:57:57.426Z</time>
      </trkpt>
      <trkpt lat="46.00675" lon="4.67454">
        <ele>306.406097412</ele>
        <time>2016-01-14T13:58:03.44Z</time>
      </trkpt>
      <trkpt lat="46.00674" lon="4.67452">
        <ele>306.408172607</ele>
        <time>2016-01-14T13:58:04.42Z</time>
      </trkpt>
      <trkpt lat="46.00672" lon="4.67441">
        <ele>306.615631104</ele>
        <time>2016-01-14T13:58:10.438Z</time>
      </trkpt>
      <trkpt lat="46.00671" lon="4.67439">
        <ele>306.69329834</ele>
        <time>2016-01-14T13:58:11.423Z</time>
      </trkpt>
      <trkpt lat="46.00669" lon="4.67428">
        <ele>306.783538818</ele>
        <time>2016-01-14T13:58:18.461Z</time>
      </trkpt>
      <trkpt lat="46.00668" lon="4.67425">
        <ele>306.794525146</ele>
        <time>2016-01-14T13:58:19.42Z</time>
      </trkpt>
      <trkpt lat="46.00666" lon="4.67414">
        <ele>306.995574951</ele>
        <time>2016-01-14T13:58:25.428Z</time>
      </trkpt>
      <trkpt lat="46.00665" lon="4.67412">
        <ele>307.040100098</ele>
        <time>2016-01-14T13:58:26.416Z</time>
      </trkpt>
      <trkpt lat="46.00663" lon="4.674">
        <ele>307.452087402</ele>
        <time>2016-01-14T13:58:33.441Z</time>
      </trkpt>
      <trkpt lat="46.00663" lon="4.67399">
        <ele>307.598022461</ele>
        <time>2016-01-14T13:58:34.416Z</time>
      </trkpt>
      <trkpt lat="46.00661" lon="4.67387">
        <ele>308.514831543</ele>
        <time>2016-01-14T13:58:41.455Z</time>
      </trkpt>
      <trkpt lat="46.00661" lon="4.67385">
        <ele>308.614471436</ele>
        <time>2016-01-14T13:58:42.42Z</time>
      </trkpt>
      <trkpt lat="46.00656" lon="4.67374">
        <ele>309.16784668</ele>
        <time>2016-01-14T13:58:49.437Z</time>
      </trkpt>
      <trkpt lat="46.00656" lon="4.67372">
        <ele>309.188262939</ele>
        <time>2016-01-14T13:58:50.42Z</time>
      </trkpt>
      <trkpt lat="46.00652" lon="4.67361">
        <ele>309.603637695</ele>
        <time>2016-01-14T13:58:56.478Z</time>
      </trkpt>
      <trkpt lat="46.00652" lon="4.6736">
        <ele>309.636352539</ele>
        <time>2016-01-14T13:58:57.433Z</time>
      </trkpt>
      <trkpt lat="46.00655" lon="4.67348">
        <ele>307.996002197</ele>
        <time>2016-01-14T14:00:03.435Z</time>
      </trkpt>
      <trkpt lat="46.00654" lon="4.67347">
        <ele>308.077880859</ele>
        <time>2016-01-14T14:00:04.406Z</time>
      </trkpt>
      <trkpt lat="46.00651" lon="4.67338">
        <ele>308.487976074</ele>
        <time>2016-01-14T14:00:08.418Z</time>
      </trkpt>
      <trkpt lat="46.00651" lon="4.67335">
        <ele>308.584991455</ele>
        <time>2016-01-14T14:00:09.413Z</time>
      </trkpt>
      <trkpt lat="46.00649" lon="4.67322">
        <ele>309.024841309</ele>
        <time>2016-01-14T14:00:15.421Z</time>
      </trkpt>
      <trkpt lat="46.00649" lon="4.6732">
        <ele>309.066497803</ele>
        <time>2016-01-14T14:00:16.409Z</time>
      </trkpt>
      <trkpt lat="46.00646" lon="4.67309">
        <ele>309.433013916</ele>
        <time>2016-01-14T14:00:23.423Z</time>
      </trkpt>
      <trkpt lat="46.00646" lon="4.67307">
        <ele>309.467315674</ele>
        <time>2016-01-14T14:00:24.406Z</time>
      </trkpt>
      <trkpt lat="46.00644" lon="4.67296">
        <ele>309.626831055</ele>
        <time>2016-01-14T14:00:30.435Z</time>
      </trkpt>
      <trkpt lat="46.00644" lon="4.67294">
        <ele>309.641876221</ele>
        <time>2016-01-14T14:00:31.406Z</time>
      </trkpt>
      <trkpt lat="46.00643" lon="4.67283">
        <ele>309.804901123</ele>
        <time>2016-01-14T14:00:37.422Z</time>
      </trkpt>
      <trkpt lat="46.00643" lon="4.67281">
        <ele>309.83480835</ele>
        <time>2016-01-14T14:00:38.406Z</time>
      </trkpt>
      <trkpt lat="46.00642" lon="4.67269">
        <ele>309.733551025</ele>
        <time>2016-01-14T14:00:44.445Z</time>
      </trkpt>
      <trkpt lat="46.00642" lon="4.67268">
        <ele>309.649871826</ele>
        <time>2016-01-14T14:00:45.414Z</time>
      </trkpt>
      <trkpt lat="46.0064" lon="4.67255">
        <ele>309.607574463</ele>
        <time>2016-01-14T14:00:52.425Z</time>
      </trkpt>
      <trkpt lat="46.00639" lon="4.67253">
        <ele>309.676391602</ele>
        <time>2016-01-14T14:00:53.408Z</time>
      </trkpt>
      <trkpt lat="46.00638" lon="4.67242">
        <ele>309.897644043</ele>
        <time>2016-01-14T14:00:59.439Z</time>
      </trkpt>
      <trkpt lat="46.00637" lon="4.6724">
        <ele>309.914916992</ele>
        <time>2016-01-14T14:01:00.42Z</time>
      </trkpt>
      <trkpt lat="46.00635" lon="4.67228">
        <ele>310.059173584</ele>
        <time>2016-01-14T14:01:06.513Z</time>
      </trkpt>
      <trkpt lat="46.00634" lon="4.67226">
        <ele>310.128479004</ele>
        <time>2016-01-14T14:01:07.408Z</time>
      </trkpt>
      <trkpt lat="46.00632" lon="4.67214">
        <ele>310.32901001</ele>
        <time>2016-01-14T14:01:13.425Z</time>
      </trkpt>
      <trkpt lat="46.00632" lon="4.67213">
        <ele>310.327972412</ele>
        <time>2016-01-14T14:01:14.41Z</time>
      </trkpt>
      <trkpt lat="46.00629" lon="4.67202">
        <ele>310.289001465</ele>
        <time>2016-01-14T14:01:21.472Z</time>
      </trkpt>
      <trkpt lat="46.00629" lon="4.672">
        <ele>310.250640869</ele>
        <time>2016-01-14T14:01:22.423Z</time>
      </trkpt>
      <trkpt lat="46.00628" lon="4.67187">
        <ele>310.107452393</ele>
        <time>2016-01-14T14:01:28.427Z</time>
      </trkpt>
      <trkpt lat="46.00627" lon="4.67185">
        <ele>310.072509766</ele>
        <time>2016-01-14T14:01:29.41Z</time>
      </trkpt>
      <trkpt lat="46.00626" lon="4.67175">
        <ele>310.055755615</ele>
        <time>2016-01-14T14:01:35.425Z</time>
      </trkpt>
      <trkpt lat="46.00626" lon="4.67173">
        <ele>310.071502686</ele>
        <time>2016-01-14T14:01:36.416Z</time>
      </trkpt>
      <trkpt lat="46.00624" lon="4.67162">
        <ele>310.330657959</ele>
        <time>2016-01-14T14:01:42.424Z</time>
      </trkpt>
      <trkpt lat="46.00623" lon="4.67159">
        <ele>310.344268799</ele>
        <time>2016-01-14T14:01:43.408Z</time>
      </trkpt>
      <trkpt lat="46.00622" lon="4.67148">
        <ele>310.490112305</ele>
        <time>2016-01-14T14:01:49.447Z</time>
      </trkpt>
      <trkpt lat="46.00622" lon="4.67146">
        <ele>310.530548096</ele>
        <time>2016-01-14T14:01:50.434Z</time>
      </trkpt>
      <trkpt lat="46.00621" lon="4.67135">
        <ele>310.599822998</ele>
        <time>2016-01-14T14:01:56.44Z</time>
      </trkpt>
      <trkpt lat="46.00621" lon="4.67133">
        <ele>310.633514404</ele>
        <time>2016-01-14T14:01:57.428Z</time>
      </trkpt>
      <trkpt lat="46.00617" lon="4.67122">
        <ele>310.782165527</ele>
        <time>2016-01-14T14:02:03.433Z</time>
      </trkpt>
      <trkpt lat="46.00617" lon="4.6712">
        <ele>310.816497803</ele>
        <time>2016-01-14T14:02:04.41Z</time>
      </trkpt>
      <trkpt lat="46.00613" lon="4.67108">
        <ele>310.847290039</ele>
        <time>2016-01-14T14:02:11.435Z</time>
      </trkpt>
      <trkpt lat="46.00613" lon="4.67107">
        <ele>310.932739258</ele>
        <time>2016-01-14T14:02:12.424Z</time>
      </trkpt>
      <trkpt lat="46.0061" lon="4.67095">
        <ele>311.439331055</ele>
        <time>2016-01-14T14:02:18.435Z</time>
      </trkpt>
      <trkpt lat="46.0061" lon="4.67094">
        <ele>311.554534912</ele>
        <time>2016-01-14T14:02:19.459Z</time>
      </trkpt>
      <trkpt lat="46.00606" lon="4.67082">
        <ele>311.911376953</ele>
        <time>2016-01-14T14:02:25.435Z</time>
      </trkpt>
      <trkpt lat="46.00606" lon="4.6708">
        <ele>311.910491943</ele>
        <time>2016-01-14T14:02:26.414Z</time>
      </trkpt>
      <trkpt lat="46.00602" lon="4.67068">
        <ele>312.080291748</ele>
        <time>2016-01-14T14:02:32.545Z</time>
      </trkpt>
      <trkpt lat="46.00602" lon="4.67066">
        <ele>312.152191162</ele>
        <time>2016-01-14T14:02:33.412Z</time>
      </trkpt>
      <trkpt lat="46.00598" lon="4.67055">
        <ele>312.531097412</ele>
        <time>2016-01-14T14:02:41.432Z</time>
      </trkpt>
      <trkpt lat="46.00597" lon="4.67053">
        <ele>312.561431885</ele>
        <time>2016-01-14T14:02:42.415Z</time>
      </trkpt>
      <trkpt lat="46.00593" lon="4.67044">
        <ele>312.74887085</ele>
        <time>2016-01-14T14:02:47.469Z</time>
      </trkpt>
      <trkpt lat="46.00592" lon="4.67042">
        <ele>312.794555664</ele>
        <time>2016-01-14T14:02:48.43Z</time>
      </trkpt>
      <trkpt lat="46.00588" lon="4.67032">
        <ele>312.995147705</ele>
        <time>2016-01-14T14:02:54.418Z</time>
      </trkpt>
      <trkpt lat="46.00587" lon="4.6703">
        <ele>313.018493652</ele>
        <time>2016-01-14T14:02:55.42Z</time>
      </trkpt>
      <trkpt lat="46.00582" lon="4.6702">
        <ele>313.320922852</ele>
        <time>2016-01-14T14:03:03.431Z</time>
      </trkpt>
      <trkpt lat="46.00582" lon="4.67018">
        <ele>313.353607178</ele>
        <time>2016-01-14T14:03:04.417Z</time>
      </trkpt>
      <trkpt lat="46.00579" lon="4.67007">
        <ele>313.475250244</ele>
        <time>2016-01-14T14:03:11.437Z</time>
      </trkpt>
      <trkpt lat="46.00578" lon="4.67005">
        <ele>313.49395752</ele>
        <time>2016-01-14T14:03:12.418Z</time>
      </trkpt>
      <trkpt lat="46.00575" lon="4.66994">
        <ele>313.76260376</ele>
        <time>2016-01-14T14:03:19.439Z</time>
      </trkpt>
      <trkpt lat="46.00574" lon="4.66992">
        <ele>313.803070068</ele>
        <time>2016-01-14T14:03:20.433Z</time>
      </trkpt>
      <trkpt lat="46.0057" lon="4.66983">
        <ele>313.989105225</ele>
        <time>2016-01-14T14:03:26.459Z</time>
      </trkpt>
      <trkpt lat="46.00569" lon="4.66981">
        <ele>314.019073486</ele>
        <time>2016-01-14T14:03:27.42Z</time>
      </trkpt>
      <trkpt lat="46.00565" lon="4.66971">
        <ele>313.93951416</ele>
        <time>2016-01-14T14:03:33.431Z</time>
      </trkpt>
      <trkpt lat="46.00564" lon="4.66969">
        <ele>313.93939209</ele>
        <time>2016-01-14T14:03:34.429Z</time>
      </trkpt>
      <trkpt lat="46.0056" lon="4.66958">
        <ele>313.912078857</ele>
        <time>2016-01-14T14:03:41.445Z</time>
      </trkpt>
      <trkpt lat="46.00559" lon="4.66956">
        <ele>313.927398682</ele>
        <time>2016-01-14T14:03:42.42Z</time>
      </trkpt>
      <trkpt lat="46.00556" lon="4.66947">
        <ele>313.811004639</ele>
        <time>2016-01-14T14:03:47.456Z</time>
      </trkpt>
      <trkpt lat="46.00555" lon="4.66944">
        <ele>313.774475098</ele>
        <time>2016-01-14T14:03:48.44Z</time>
      </trkpt>
      <trkpt lat="46.00553" lon="4.66932">
        <ele>313.833343506</ele>
        <time>2016-01-14T14:03:55.457Z</time>
      </trkpt>
      <trkpt lat="46.00552" lon="4.6693">
        <ele>313.823852539</ele>
        <time>2016-01-14T14:03:56.427Z</time>
      </trkpt>
      <trkpt lat="46.00548" lon="4.66919">
        <ele>313.62890625</ele>
        <time>2016-01-14T14:04:02.536Z</time>
      </trkpt>
      <trkpt lat="46.00547" lon="4.66918">
        <ele>313.601959229</ele>
        <time>2016-01-14T14:04:03.424Z</time>
      </trkpt>
      <trkpt lat="46.00543" lon="4.66908">
        <ele>314.005187988</ele>
        <time>2016-01-14T14:04:10.453Z</time>
      </trkpt>
      <trkpt lat="46.00542" lon="4.66906">
        <ele>314.053955078</ele>
        <time>2016-01-14T14:04:11.421Z</time>
      </trkpt>
      <trkpt lat="46.00539" lon="4.66894">
        <ele>314.142883301</ele>
        <time>2016-01-14T14:04:18.443Z</time>
      </trkpt>
      <trkpt lat="46.00538" lon="4.66893">
        <ele>314.181671143</ele>
        <time>2016-01-14T14:04:19.422Z</time>
      </trkpt>
      <trkpt lat="46.00535" lon="4.66881">
        <ele>313.802947998</ele>
        <time>2016-01-14T14:04:34.456Z</time>
      </trkpt>
      <trkpt lat="46.00535" lon="4.6688">
        <ele>313.694732666</ele>
        <time>2016-01-14T14:04:35.43Z</time>
      </trkpt>
      <trkpt lat="46.00539" lon="4.66869">
        <ele>313.452178955</ele>
        <time>2016-01-14T14:04:44.469Z</time>
      </trkpt>
      <trkpt lat="46.00539" lon="4.66868">
        <ele>313.475799561</ele>
        <time>2016-01-14T14:04:45.425Z</time>
      </trkpt>
      <trkpt lat="46.00543" lon="4.66856">
        <ele>313.563537598</ele>
        <time>2016-01-14T14:04:53.475Z</time>
      </trkpt>
      <trkpt lat="46.00543" lon="4.66854">
        <ele>313.561218262</ele>
        <time>2016-01-14T14:04:54.439Z</time>
      </trkpt>
      <trkpt lat="46.00548" lon="4.66843">
        <ele>313.516143799</ele>
        <time>2016-01-14T14:05:01.464Z</time>
      </trkpt>
      <trkpt lat="46.00549" lon="4.66842">
        <ele>313.511474609</ele>
        <time>2016-01-14T14:05:02.424Z</time>
      </trkpt>
      <trkpt lat="46.00553" lon="4.66832">
        <ele>313.45098877</ele>
        <time>2016-01-14T14:05:08.447Z</time>
      </trkpt>
      <trkpt lat="46.00553" lon="4.6683">
        <ele>313.385772705</ele>
        <time>2016-01-14T14:05:09.424Z</time>
      </trkpt>
      <trkpt lat="46.00558" lon="4.6682">
        <ele>313.156616211</ele>
        <time>2016-01-14T14:05:16.418Z</time>
      </trkpt>
      <trkpt lat="46.00559" lon="4.66819">
        <ele>313.11114502</ele>
        <time>2016-01-14T14:05:17.407Z</time>
      </trkpt>
      <trkpt lat="46.00563" lon="4.66809">
        <ele>312.908325195</ele>
        <time>2016-01-14T14:05:23.42Z</time>
      </trkpt>
      <trkpt lat="46.00563" lon="4.66807">
        <ele>312.922241211</ele>
        <time>2016-01-14T14:05:24.416Z</time>
      </trkpt>
      <trkpt lat="46.00567" lon="4.66797">
        <ele>313.24697876</ele>
        <time>2016-01-14T14:05:31.533Z</time>
      </trkpt>
      <trkpt lat="46.00568" lon="4.66795">
        <ele>313.305908203</ele>
        <time>2016-01-14T14:05:32.412Z</time>
      </trkpt>
      <trkpt lat="46.00574" lon="4.66786">
        <ele>313.5965271</ele>
        <time>2016-01-14T14:05:38.428Z</time>
      </trkpt>
      <trkpt lat="46.00575" lon="4.66784">
        <ele>313.621246338</ele>
        <time>2016-01-14T14:05:39.406Z</time>
      </trkpt>
      <trkpt lat="46.0058" lon="4.66776">
        <ele>313.668426514</ele>
        <time>2016-01-14T14:05:44.544Z</time>
      </trkpt>
      <trkpt lat="46.00581" lon="4.66774">
        <ele>313.632476807</ele>
        <time>2016-01-14T14:05:45.401Z</time>
      </trkpt>
      <trkpt lat="46.00588" lon="4.66766">
        <ele>313.40725708</ele>
        <time>2016-01-14T14:06:07.425Z</time>
      </trkpt>
      <trkpt lat="46.00589" lon="4.66765">
        <ele>313.385406494</ele>
        <time>2016-01-14T14:06:08.415Z</time>
      </trkpt>
      <trkpt lat="46.00595" lon="4.66756">
        <ele>313.391082764</ele>
        <time>2016-01-14T14:06:15.435Z</time>
      </trkpt>
      <trkpt lat="46.00596" lon="4.66755">
        <ele>313.397125244</ele>
        <time>2016-01-14T14:06:16.408Z</time>
      </trkpt>
      <trkpt lat="46.00602" lon="4.66747">
        <ele>313.371917725</ele>
        <time>2016-01-14T14:06:22.423Z</time>
      </trkpt>
      <trkpt lat="46.00603" lon="4.66746">
        <ele>313.350860596</ele>
        <time>2016-01-14T14:06:23.41Z</time>
      </trkpt>
      <trkpt lat="46.00608" lon="4.66735">
        <ele>313.763366699</ele>
        <time>2016-01-14T14:06:48.461Z</time>
      </trkpt>
      <trkpt lat="46.00608" lon="4.66732">
        <ele>313.844238281</ele>
        <time>2016-01-14T14:06:49.421Z</time>
      </trkpt>
      <trkpt lat="46.0061" lon="4.66721">
        <ele>313.920471191</ele>
        <time>2016-01-14T14:07:35.445Z</time>
      </trkpt>
      <trkpt lat="46.00611" lon="4.66719">
        <ele>313.97644043</ele>
        <time>2016-01-14T14:07:36.411Z</time>
      </trkpt>
      <trkpt lat="46.00615" lon="4.66709">
        <ele>313.891906738</ele>
        <time>2016-01-14T14:07:42.536Z</time>
      </trkpt>
      <trkpt lat="46.00616" lon="4.66707">
        <ele>313.866485596</ele>
        <time>2016-01-14T14:07:43.428Z</time>
      </trkpt>
      <trkpt lat="46.0062" lon="4.66697">
        <ele>313.818511963</ele>
        <time>2016-01-14T14:07:51.436Z</time>
      </trkpt>
      <trkpt lat="46.0062" lon="4.66695">
        <ele>313.820129395</ele>
        <time>2016-01-14T14:07:52.416Z</time>
      </trkpt>
      <trkpt lat="46.00624" lon="4.66684">
        <ele>313.946685791</ele>
        <time>2016-01-14T14:07:59.43Z</time>
      </trkpt>
      <trkpt lat="46.00625" lon="4.66682">
        <ele>313.954467773</ele>
        <time>2016-01-14T14:08:00.417Z</time>
      </trkpt>
      <trkpt lat="46.00626" lon="4.66669">
        <ele>314.313812256</ele>
        <time>2016-01-14T14:08:10.443Z</time>
      </trkpt>
      <trkpt lat="46.00626" lon="4.66668">
        <ele>314.333709717</ele>
        <time>2016-01-14T14:08:11.417Z</time>
      </trkpt>
      <trkpt lat="46.00628" lon="4.66656">
        <ele>314.898071289</ele>
        <time>2016-01-14T14:08:18.459Z</time>
      </trkpt>
      <trkpt lat="46.00628" lon="4.66653">
        <ele>314.940917969</ele>
        <time>2016-01-14T14:08:19.419Z</time>
      </trkpt>
      <trkpt lat="46.00625" lon="4.66641">
        <ele>315.198608398</ele>
        <time>2016-01-14T14:08:32.446Z</time>
      </trkpt>
      <trkpt lat="46.00625" lon="4.6664">
        <ele>315.157745361</ele>
        <time>2016-01-14T14:08:33.415Z</time>
      </trkpt>
      <trkpt lat="46.00619" lon="4.66631">
        <ele>314.875640869</ele>
        <time>2016-01-14T14:08:40.415Z</time>
      </trkpt>
      <trkpt lat="46.00619" lon="4.66629">
        <ele>314.885437012</ele>
        <time>2016-01-14T14:08:41.418Z</time>
      </trkpt>
      <trkpt lat="46.00613" lon="4.6662">
        <ele>314.946502686</ele>
        <time>2016-01-14T14:08:49.444Z</time>
      </trkpt>
      <trkpt lat="46.00613" lon="4.66619">
        <ele>314.924621582</ele>
        <time>2016-01-14T14:08:50.419Z</time>
      </trkpt>
      <trkpt lat="46.00607" lon="4.66612">
        <ele>314.941375732</ele>
        <time>2016-01-14T14:08:57.448Z</time>
      </trkpt>
      <trkpt lat="46.00606" lon="4.66611">
        <ele>314.989196777</ele>
        <time>2016-01-14T14:08:58.435Z</time>
      </trkpt>
      <trkpt lat="46.006" lon="4.66601">
        <ele>315.275390625</ele>
        <time>2016-01-14T14:09:05.437Z</time>
      </trkpt>
      <trkpt lat="46.00599" lon="4.666">
        <ele>315.288238525</ele>
        <time>2016-01-14T14:09:06.42Z</time>
      </trkpt>
      <trkpt lat="46.00593" lon="4.66592">
        <ele>315.344787598</ele>
        <time>2016-01-14T14:09:12.448Z</time>
      </trkpt>
      <trkpt lat="46.00592" lon="4.66591">
        <ele>315.354095459</ele>
        <time>2016-01-14T14:09:13.416Z</time>
      </trkpt>
      <trkpt lat="46.00587" lon="4.66584">
        <ele>315.497619629</ele>
        <time>2016-01-14T14:09:19.449Z</time>
      </trkpt>
      <trkpt lat="46.00585" lon="4.66582">
        <ele>315.50088501</ele>
        <time>2016-01-14T14:09:20.42Z</time>
      </trkpt>
      <trkpt lat="46.00579" lon="4.66573">
        <ele>315.496307373</ele>
        <time>2016-01-14T14:09:28.495Z</time>
      </trkpt>
      <trkpt lat="46.00578" lon="4.66572">
        <ele>315.540222168</ele>
        <time>2016-01-14T14:09:29.433Z</time>
      </trkpt>
      <trkpt lat="46.00571" lon="4.66564">
        <ele>315.632781982</ele>
        <time>2016-01-14T14:09:37.453Z</time>
      </trkpt>
      <trkpt lat="46.00571" lon="4.66562">
        <ele>315.657928467</ele>
        <time>2016-01-14T14:09:38.433Z</time>
      </trkpt>
      <trkpt lat="46.00565" lon="4.66553">
        <ele>315.818786621</ele>
        <time>2016-01-14T14:09:45.455Z</time>
      </trkpt>
      <trkpt lat="46.00564" lon="4.66552">
        <ele>315.864135742</ele>
        <time>2016-01-14T14:09:46.422Z</time>
      </trkpt>
      <trkpt lat="46.00558" lon="4.66544">
        <ele>316.031646729</ele>
        <time>2016-01-14T14:09:52.472Z</time>
      </trkpt>
      <trkpt lat="46.00557" lon="4.66542">
        <ele>316.075958252</ele>
        <time>2016-01-14T14:09:53.424Z</time>
      </trkpt>
      <trkpt lat="46.00553" lon="4.66533">
        <ele>316.132049561</ele>
        <time>2016-01-14T14:10:00.459Z</time>
      </trkpt>
      <trkpt lat="46.00552" lon="4.66531">
        <ele>316.105041504</ele>
        <time>2016-01-14T14:10:01.423Z</time>
      </trkpt>
      <trkpt lat="46.00548" lon="4.66522">
        <ele>315.91305542</ele>
        <time>2016-01-14T14:10:07.447Z</time>
      </trkpt>
      <trkpt lat="46.00547" lon="4.6652">
        <ele>315.839385986</ele>
        <time>2016-01-14T14:10:08.423Z</time>
      </trkpt>
      <trkpt lat="46.0054" lon="4.66511">
        <ele>315.394317627</ele>
        <time>2016-01-14T14:10:15.462Z</time>
      </trkpt>
      <trkpt lat="46.00539" lon="4.6651">
        <ele>315.357543945</ele>
        <time>2016-01-14T14:10:16.435Z</time>
      </trkpt>
      <trkpt lat="46.00533" lon="4.66503">
        <ele>315.448181152</ele>
        <time>2016-01-14T14:10:21.455Z</time>
      </trkpt>
      <trkpt lat="46.00532" lon="4.66502">
        <ele>315.456237793</ele>
        <time>2016-01-14T14:10:22.417Z</time>
      </trkpt>
      <trkpt lat="46.00526" lon="4.66495">
        <ele>315.570739746</ele>
        <time>2016-01-14T14:10:27.454Z</time>
      </trkpt>
      <trkpt lat="46.00525" lon="4.66493">
        <ele>315.60369873</ele>
        <time>2016-01-14T14:10:28.424Z</time>
      </trkpt>
      <trkpt lat="46.0052" lon="4.66482">
        <ele>315.414703369</ele>
        <time>2016-01-14T14:10:37.417Z</time>
      </trkpt>
      <trkpt lat="46.00519" lon="4.66481">
        <ele>315.410369873</ele>
        <time>2016-01-14T14:10:38.387Z</time>
      </trkpt>
      <trkpt lat="46.00513" lon="4.66473">
        <ele>315.396759033</ele>
        <time>2016-01-14T14:10:45.423Z</time>
      </trkpt>
      <trkpt lat="46.00511" lon="4.66472">
        <ele>315.395263672</ele>
        <time>2016-01-14T14:10:46.406Z</time>
      </trkpt>
      <trkpt lat="46.00504" lon="4.66465">
        <ele>315.316375732</ele>
        <time>2016-01-14T14:10:54.418Z</time>
      </trkpt>
      <trkpt lat="46.00503" lon="4.66464">
        <ele>315.330932617</ele>
        <time>2016-01-14T14:10:55.406Z</time>
      </trkpt>
      <trkpt lat="46.00496" lon="4.66458">
        <ele>315.32321167</ele>
        <time>2016-01-14T14:11:02.421Z</time>
      </trkpt>
      <trkpt lat="46.00495" lon="4.66457">
        <ele>315.322814941</ele>
        <time>2016-01-14T14:11:03.413Z</time>
      </trkpt>
      <trkpt lat="46.00488" lon="4.66451">
        <ele>315.331604004</ele>
        <time>2016-01-14T14:11:10.43Z</time>
      </trkpt>
      <trkpt lat="46.00487" lon="4.6645">
        <ele>315.369812012</ele>
        <time>2016-01-14T14:11:11.406Z</time>
      </trkpt>
      <trkpt lat="46.0048" lon="4.66443">
        <ele>315.495635986</ele>
        <time>2016-01-14T14:11:18.434Z</time>
      </trkpt>
      <trkpt lat="46.00479" lon="4.66442">
        <ele>315.525543213</ele>
        <time>2016-01-14T14:11:19.408Z</time>
      </trkpt>
      <trkpt lat="46.00474" lon="4.66434">
        <ele>315.780059814</ele>
        <time>2016-01-14T14:11:26.424Z</time>
      </trkpt>
      <trkpt lat="46.00473" lon="4.66432">
        <ele>315.861907959</ele>
        <time>2016-01-14T14:11:27.407Z</time>
      </trkpt>
      <trkpt lat="46.00466" lon="4.66425">
        <ele>316.345794678</ele>
        <time>2016-01-14T14:11:33.454Z</time>
      </trkpt>
      <trkpt lat="46.00465" lon="4.66424">
        <ele>316.371154785</ele>
        <time>2016-01-14T14:11:34.406Z</time>
      </trkpt>
      <trkpt lat="46.0046" lon="4.66415">
        <ele>316.635467529</ele>
        <time>2016-01-14T14:11:40.425Z</time>
      </trkpt>
      <trkpt lat="46.0046" lon="4.66413">
        <ele>316.623748779</ele>
        <time>2016-01-14T14:11:41.405Z</time>
      </trkpt>
      <trkpt lat="46.00455" lon="4.66404">
        <ele>316.878082275</ele>
        <time>2016-01-14T14:11:48.421Z</time>
      </trkpt>
      <trkpt lat="46.00454" lon="4.66402">
        <ele>316.898468018</ele>
        <time>2016-01-14T14:11:49.408Z</time>
      </trkpt>
      <trkpt lat="46.00451" lon="4.66391">
        <ele>316.881622314</ele>
        <time>2016-01-14T14:11:56.422Z</time>
      </trkpt>
      <trkpt lat="46.0045" lon="4.66389">
        <ele>316.886810303</ele>
        <time>2016-01-14T14:11:57.411Z</time>
      </trkpt>
      <trkpt lat="46.00445" lon="4.66379">
        <ele>317.27923584</ele>
        <time>2016-01-14T14:12:04.43Z</time>
      </trkpt>
      <trkpt lat="46.00444" lon="4.66379">
        <ele>317.318908691</ele>
        <time>2016-01-14T14:12:05.408Z</time>
      </trkpt>
      <trkpt lat="46.00437" lon="4.66373">
        <ele>317.373260498</ele>
        <time>2016-01-14T14:12:12.459Z</time>
      </trkpt>
      <trkpt lat="46.00436" lon="4.66372">
        <ele>317.40814209</ele>
        <time>2016-01-14T14:12:13.41Z</time>
      </trkpt>
      <trkpt lat="46.00429" lon="4.66368">
        <ele>317.596710205</ele>
        <time>2016-01-14T14:12:20.492Z</time>
      </trkpt>
      <trkpt lat="46.00428" lon="4.66368">
        <ele>317.563171387</ele>
        <time>2016-01-14T14:12:21.423Z</time>
      </trkpt>
      <trkpt lat="46.00419" lon="4.66364">
        <ele>317.200073242</ele>
        <time>2016-01-14T14:12:30.446Z</time>
      </trkpt>
      <trkpt lat="46.00419" lon="4.66364">
        <ele>317.208679199</ele>
        <time>2016-01-14T14:12:31.415Z</time>
      </trkpt>
      <trkpt lat="46.0041" lon="4.66363">
        <ele>317.128479004</ele>
        <time>2016-01-14T14:12:42.446Z</time>
      </trkpt>
      <trkpt lat="46.0041" lon="4.66363">
        <ele>317.102783203</ele>
        <time>2016-01-14T14:12:43.42Z</time>
      </trkpt>
      <trkpt lat="46.00401" lon="4.6636">
        <ele>316.730194092</ele>
        <time>2016-01-14T14:13:38.462Z</time>
      </trkpt>
      <trkpt lat="46.004" lon="4.6636">
        <ele>316.66494751</ele>
        <time>2016-01-14T14:13:39.425Z</time>
      </trkpt>
      <trkpt lat="46.00409" lon="4.66363">
        <ele>316.884765625</ele>
        <time>2016-01-14T14:14:19.457Z</time>
      </trkpt>
      <trkpt lat="46.0041" lon="4.66364">
        <ele>316.917266846</ele>
        <time>2016-01-14T14:14:20.428Z</time>
      </trkpt>
      <trkpt lat="46.00418" lon="4.66365">
        <ele>317.234588623</ele>
        <time>2016-01-14T14:14:27.455Z</time>
      </trkpt>
      <trkpt lat="46.00419" lon="4.66365">
        <ele>317.295043945</ele>
        <time>2016-01-14T14:14:28.43Z</time>
      </trkpt>
      <trkpt lat="46.00428" lon="4.66368">
        <ele>317.801513672</ele>
        <time>2016-01-14T14:14:35.449Z</time>
      </trkpt>
      <trkpt lat="46.00429" lon="4.66368">
        <ele>317.845825195</ele>
        <time>2016-01-14T14:14:36.429Z</time>
      </trkpt>
      <trkpt lat="46.00437" lon="4.66372">
        <ele>318.060089111</ele>
        <time>2016-01-14T14:14:43.45Z</time>
      </trkpt>
      <trkpt lat="46.00438" lon="4.66373">
        <ele>318.054626465</ele>
        <time>2016-01-14T14:14:44.434Z</time>
      </trkpt>
      <trkpt lat="46.00447" lon="4.6637">
        <ele>317.886291504</ele>
        <time>2016-01-14T14:14:52.455Z</time>
      </trkpt>
      <trkpt lat="46.00447" lon="4.66369">
        <ele>317.852874756</ele>
        <time>2016-01-14T14:14:53.434Z</time>
      </trkpt>
      <trkpt lat="46.00452" lon="4.66359">
        <ele>317.990722656</ele>
        <time>2016-01-14T14:15:00.457Z</time>
      </trkpt>
      <trkpt lat="46.00453" lon="4.66358">
        <ele>317.929931641</ele>
        <time>2016-01-14T14:15:01.426Z</time>
      </trkpt>
      <trkpt lat="46.00458" lon="4.66349">
        <ele>318.009246826</ele>
        <time>2016-01-14T14:15:08.57Z</time>
      </trkpt>
      <trkpt lat="46.00458" lon="4.66348">
        <ele>318.028381348</ele>
        <time>2016-01-14T14:15:09.439Z</time>
      </trkpt>
      <trkpt lat="46.00463" lon="4.66338">
        <ele>318.233947754</ele>
        <time>2016-01-14T14:15:16.456Z</time>
      </trkpt>
      <trkpt lat="46.00464" lon="4.66336">
        <ele>318.250732422</ele>
        <time>2016-01-14T14:15:17.432Z</time>
      </trkpt>
      <trkpt lat="46.0047" lon="4.66326">
        <ele>318.481201172</ele>
        <time>2016-01-14T14:15:24.483Z</time>
      </trkpt>
      <trkpt lat="46.0047" lon="4.66325">
        <ele>318.557342529</ele>
        <time>2016-01-14T14:15:25.433Z</time>
      </trkpt>
      <trkpt lat="46.00475" lon="4.66315">
        <ele>318.871246338</ele>
        <time>2016-01-14T14:15:31.456Z</time>
      </trkpt>
      <trkpt lat="46.00476" lon="4.66314">
        <ele>318.895629883</ele>
        <time>2016-01-14T14:15:32.423Z</time>
      </trkpt>
      <trkpt lat="46.00481" lon="4.66304">
        <ele>318.977813721</ele>
        <time>2016-01-14T14:15:40.472Z</time>
      </trkpt>
      <trkpt lat="46.00482" lon="4.66303">
        <ele>318.977752686</ele>
        <time>2016-01-14T14:15:41.424Z</time>
      </trkpt>
      <trkpt lat="46.00487" lon="4.66293">
        <ele>319.185699463</ele>
        <time>2016-01-14T14:15:50.461Z</time>
      </trkpt>
      <trkpt lat="46.00488" lon="4.66292">
        <ele>319.232147217</ele>
        <time>2016-01-14T14:15:51.41Z</time>
      </trkpt>
      <trkpt lat="46.00493" lon="4.66282">
        <ele>319.314331055</ele>
        <time>2016-01-14T14:15:58.425Z</time>
      </trkpt>
      <trkpt lat="46.00493" lon="4.66281">
        <ele>319.315582275</ele>
        <time>2016-01-14T14:15:59.4Z</time>
      </trkpt>
      <trkpt lat="46.00496" lon="4.66271">
        <ele>319.487518311</ele>
        <time>2016-01-14T14:16:06.423Z</time>
      </trkpt>
      <trkpt lat="46.00497" lon="4.66269">
        <ele>319.505371094</ele>
        <time>2016-01-14T14:16:07.404Z</time>
      </trkpt>
      <trkpt lat="46.00502" lon="4.66259">
        <ele>319.609283447</ele>
        <time>2016-01-14T14:16:14.423Z</time>
      </trkpt>
      <trkpt lat="46.00503" lon="4.66258">
        <ele>319.648040771</ele>
        <time>2016-01-14T14:16:15.406Z</time>
      </trkpt>
      <trkpt lat="46.00508" lon="4.66249">
        <ele>319.73727417</ele>
        <time>2016-01-14T14:16:22.446Z</time>
      </trkpt>
      <trkpt lat="46.00509" lon="4.66248">
        <ele>319.754821777</ele>
        <time>2016-01-14T14:16:23.406Z</time>
      </trkpt>
      <trkpt lat="46.00513" lon="4.66238">
        <ele>319.831787109</ele>
        <time>2016-01-14T14:16:29.439Z</time>
      </trkpt>
      <trkpt lat="46.00513" lon="4.66236">
        <ele>319.839263916</ele>
        <time>2016-01-14T14:16:30.403Z</time>
      </trkpt>
      <trkpt lat="46.00516" lon="4.66224">
        <ele>320.069763184</ele>
        <time>2016-01-14T14:16:37.43Z</time>
      </trkpt>
      <trkpt lat="46.00516" lon="4.66222">
        <ele>320.060821533</ele>
        <time>2016-01-14T14:16:38.416Z</time>
      </trkpt>
      <trkpt lat="46.00514" lon="4.6621">
        <ele>320.207702637</ele>
        <time>2016-01-14T14:16:44.43Z</time>
      </trkpt>
      <trkpt lat="46.00513" lon="4.66208">
        <ele>320.226135254</ele>
        <time>2016-01-14T14:16:45.402Z</time>
      </trkpt>
      <trkpt lat="46.00509" lon="4.66199">
        <ele>320.603820801</ele>
        <time>2016-01-14T14:16:51.458Z</time>
      </trkpt>
      <trkpt lat="46.00508" lon="4.66197">
        <ele>320.654846191</ele>
        <time>2016-01-14T14:16:52.407Z</time>
      </trkpt>
      <trkpt lat="46.00505" lon="4.66186">
        <ele>320.908599854</ele>
        <time>2016-01-14T14:16:58.453Z</time>
      </trkpt>
      <trkpt lat="46.00504" lon="4.66185">
        <ele>320.944274902</ele>
        <time>2016-01-14T14:16:59.409Z</time>
      </trkpt>
      <trkpt lat="46.00501" lon="4.66173">
        <ele>321.276794434</ele>
        <time>2016-01-14T14:17:06.433Z</time>
      </trkpt>
      <trkpt lat="46.00501" lon="4.66172">
        <ele>321.300354004</ele>
        <time>2016-01-14T14:17:07.408Z</time>
      </trkpt>
      <trkpt lat="46.00499" lon="4.66159">
        <ele>321.63293457</ele>
        <time>2016-01-14T14:17:14.443Z</time>
      </trkpt>
      <trkpt lat="46.00499" lon="4.66158">
        <ele>321.647796631</ele>
        <time>2016-01-14T14:17:15.417Z</time>
      </trkpt>
      <trkpt lat="46.00496" lon="4.66146">
        <ele>321.90625</ele>
        <time>2016-01-14T14:17:22.42Z</time>
      </trkpt>
      <trkpt lat="46.00496" lon="4.66145">
        <ele>321.926330566</ele>
        <time>2016-01-14T14:17:23.408Z</time>
      </trkpt>
      <trkpt lat="46.00494" lon="4.66133">
        <ele>322.032989502</ele>
        <time>2016-01-14T14:17:30.434Z</time>
      </trkpt>
      <trkpt lat="46.00493" lon="4.66132">
        <ele>322.052307129</ele>
        <time>2016-01-14T14:17:31.405Z</time>
      </trkpt>
      <trkpt lat="46.00491" lon="4.6612">
        <ele>322.384735107</ele>
        <time>2016-01-14T14:17:38.439Z</time>
      </trkpt>
      <trkpt lat="46.00491" lon="4.66118">
        <ele>322.417358398</ele>
        <time>2016-01-14T14:17:39.416Z</time>
      </trkpt>
      <trkpt lat="46.00488" lon="4.66106">
        <ele>322.576751709</ele>
        <time>2016-01-14T14:17:46.447Z</time>
      </trkpt>
      <trkpt lat="46.00488" lon="4.66104">
        <ele>322.621520996</ele>
        <time>2016-01-14T14:17:47.407Z</time>
      </trkpt>
      <trkpt lat="46.00484" lon="4.66093">
        <ele>322.744415283</ele>
        <time>2016-01-14T14:17:54.443Z</time>
      </trkpt>
      <trkpt lat="46.00484" lon="4.66091">
        <ele>322.769287109</ele>
        <time>2016-01-14T14:17:55.42Z</time>
      </trkpt>
      <trkpt lat="46.00481" lon="4.6608">
        <ele>322.84173584</ele>
        <time>2016-01-14T14:18:02.436Z</time>
      </trkpt>
      <trkpt lat="46.0048" lon="4.66079">
        <ele>322.853118896</ele>
        <time>2016-01-14T14:18:03.418Z</time>
      </trkpt>
      <trkpt lat="46.00478" lon="4.66067">
        <ele>323.027374268</ele>
        <time>2016-01-14T14:18:09.452Z</time>
      </trkpt>
      <trkpt lat="46.00477" lon="4.66065">
        <ele>323.03994751</ele>
        <time>2016-01-14T14:18:10.429Z</time>
      </trkpt>
      <trkpt lat="46.00476" lon="4.66053">
        <ele>323.121734619</ele>
        <time>2016-01-14T14:18:16.498Z</time>
      </trkpt>
      <trkpt lat="46.00475" lon="4.66051">
        <ele>323.175506592</ele>
        <time>2016-01-14T14:18:17.421Z</time>
      </trkpt>
      <trkpt lat="46.00474" lon="4.66039">
        <ele>323.267730713</ele>
        <time>2016-01-14T14:18:24.455Z</time>
      </trkpt>
      <trkpt lat="46.00474" lon="4.66038">
        <ele>323.252075195</ele>
        <time>2016-01-14T14:18:25.422Z</time>
      </trkpt>
      <trkpt lat="46.00473" lon="4.66025">
        <ele>323.1925354</ele>
        <time>2016-01-14T14:18:32.559Z</time>
      </trkpt>
      <trkpt lat="46.00473" lon="4.66024">
        <ele>323.213623047</ele>
        <time>2016-01-14T14:18:33.399Z</time>
      </trkpt>
      <trkpt lat="46.00472" lon="4.66012">
        <ele>323.319061279</ele>
        <time>2016-01-14T14:18:40.444Z</time>
      </trkpt>
      <trkpt lat="46.00472" lon="4.6601">
        <ele>323.31729126</ele>
        <time>2016-01-14T14:18:41.419Z</time>
      </trkpt>
      <trkpt lat="46.0047" lon="4.65998">
        <ele>323.21206665</ele>
        <time>2016-01-14T14:18:49.444Z</time>
      </trkpt>
      <trkpt lat="46.00469" lon="4.65995">
        <ele>323.196990967</ele>
        <time>2016-01-14T14:18:50.409Z</time>
      </trkpt>
      <trkpt lat="46.00465" lon="4.65986">
        <ele>323.056182861</ele>
        <time>2016-01-14T14:18:55.454Z</time>
      </trkpt>
      <trkpt lat="46.00465" lon="4.65984">
        <ele>323.067199707</ele>
        <time>2016-01-14T14:18:56.421Z</time>
      </trkpt>
      <trkpt lat="46.00463" lon="4.65972">
        <ele>323.065338135</ele>
        <time>2016-01-14T14:19:02.457Z</time>
      </trkpt>
      <trkpt lat="46.00462" lon="4.6597">
        <ele>323.094238281</ele>
        <time>2016-01-14T14:19:03.426Z</time>
      </trkpt>
      <trkpt lat="46.00461" lon="4.65958">
        <ele>323.22265625</ele>
        <time>2016-01-14T14:19:10.451Z</time>
      </trkpt>
      <trkpt lat="46.00461" lon="4.65956">
        <ele>323.261138916</ele>
        <time>2016-01-14T14:19:11.432Z</time>
      </trkpt>
      <trkpt lat="46.00459" lon="4.65945">
        <ele>323.462615967</ele>
        <time>2016-01-14T14:19:17.454Z</time>
      </trkpt>
      <trkpt lat="46.00459" lon="4.65943">
        <ele>323.499053955</ele>
        <time>2016-01-14T14:19:18.426Z</time>
      </trkpt>
      <trkpt lat="46.00458" lon="4.65931">
        <ele>323.447601318</ele>
        <time>2016-01-14T14:19:25.448Z</time>
      </trkpt>
      <trkpt lat="46.00458" lon="4.65929">
        <ele>323.446044922</ele>
        <time>2016-01-14T14:19:26.407Z</time>
      </trkpt>
      <trkpt lat="46.00457" lon="4.65917">
        <ele>323.45098877</ele>
        <time>2016-01-14T14:19:32.469Z</time>
      </trkpt>
      <trkpt lat="46.00457" lon="4.65915">
        <ele>323.465423584</ele>
        <time>2016-01-14T14:19:33.429Z</time>
      </trkpt>
      <trkpt lat="46.00456" lon="4.65904">
        <ele>323.64831543</ele>
        <time>2016-01-14T14:19:39.452Z</time>
      </trkpt>
      <trkpt lat="46.00455" lon="4.65902">
        <ele>323.682250977</ele>
        <time>2016-01-14T14:19:40.428Z</time>
      </trkpt>
      <trkpt lat="46.00454" lon="4.65889">
        <ele>323.716278076</ele>
        <time>2016-01-14T14:19:47.456Z</time>
      </trkpt>
      <trkpt lat="46.00453" lon="4.65888">
        <ele>323.752868652</ele>
        <time>2016-01-14T14:19:48.429Z</time>
      </trkpt>
      <trkpt lat="46.00453" lon="4.65875">
        <ele>323.916931152</ele>
        <time>2016-01-14T14:19:56.448Z</time>
      </trkpt>
      <trkpt lat="46.00453" lon="4.65874">
        <ele>323.9715271</ele>
        <time>2016-01-14T14:19:57.428Z</time>
      </trkpt>
      <trkpt lat="46.00452" lon="4.65863">
        <ele>324.592651367</ele>
        <time>2016-01-14T14:20:04.456Z</time>
      </trkpt>
      <trkpt lat="46.00451" lon="4.65861">
        <ele>324.719818115</ele>
        <time>2016-01-14T14:20:05.438Z</time>
      </trkpt>
      <trkpt lat="46.00451" lon="4.65848">
        <ele>325.259155273</ele>
        <time>2016-01-14T14:20:11.45Z</time>
      </trkpt>
      <trkpt lat="46.00451" lon="4.65846">
        <ele>325.309356689</ele>
        <time>2016-01-14T14:20:12.434Z</time>
      </trkpt>
      <trkpt lat="46.00453" lon="4.65835">
        <ele>325.141143799</ele>
        <time>2016-01-14T14:20:18.475Z</time>
      </trkpt>
      <trkpt lat="46.00453" lon="4.65833">
        <ele>325.163543701</ele>
        <time>2016-01-14T14:20:19.432Z</time>
      </trkpt>
      <trkpt lat="46.00453" lon="4.65822">
        <ele>325.20513916</ele>
        <time>2016-01-14T14:20:24.46Z</time>
      </trkpt>
      <trkpt lat="46.00453" lon="4.65819">
        <ele>325.208984375</ele>
        <time>2016-01-14T14:20:25.437Z</time>
      </trkpt>
      <trkpt lat="46.00454" lon="4.65807">
        <ele>325.171386719</ele>
        <time>2016-01-14T14:20:33.456Z</time>
      </trkpt>
      <trkpt lat="46.00455" lon="4.65805">
        <ele>325.194854736</ele>
        <time>2016-01-14T14:20:34.41Z</time>
      </trkpt>
      <trkpt lat="46.00454" lon="4.65793">
        <ele>325.288970947</ele>
        <time>2016-01-14T14:20:40.464Z</time>
      </trkpt>
      <trkpt lat="46.00454" lon="4.65791">
        <ele>325.332305908</ele>
        <time>2016-01-14T14:20:41.434Z</time>
      </trkpt>
      <trkpt lat="46.00454" lon="4.65778">
        <ele>325.454345703</ele>
        <time>2016-01-14T14:20:49.475Z</time>
      </trkpt>
      <trkpt lat="46.00454" lon="4.65777">
        <ele>325.453216553</ele>
        <time>2016-01-14T14:20:50.43Z</time>
      </trkpt>
      <trkpt lat="46.00452" lon="4.65764">
        <ele>325.301116943</ele>
        <time>2016-01-14T14:20:57.457Z</time>
      </trkpt>
      <trkpt lat="46.00452" lon="4.65763">
        <ele>325.25881958</ele>
        <time>2016-01-14T14:20:58.448Z</time>
      </trkpt>
      <trkpt lat="46.00451" lon="4.65752">
        <ele>325.133972168</ele>
        <time>2016-01-14T14:21:05.431Z</time>
      </trkpt>
      <trkpt lat="46.00451" lon="4.6575">
        <ele>325.137207031</ele>
        <time>2016-01-14T14:21:06.407Z</time>
      </trkpt>
      <trkpt lat="46.00451" lon="4.65737">
        <ele>325.244628906</ele>
        <time>2016-01-14T14:21:13.427Z</time>
      </trkpt>
      <trkpt lat="46.00451" lon="4.65735">
        <ele>325.281921387</ele>
        <time>2016-01-14T14:21:14.401Z</time>
      </trkpt>
      <trkpt lat="46.0045" lon="4.65722">
        <ele>325.599578857</ele>
        <time>2016-01-14T14:21:21.428Z</time>
      </trkpt>
      <trkpt lat="46.0045" lon="4.6572">
        <ele>325.629638672</ele>
        <time>2016-01-14T14:21:22.412Z</time>
      </trkpt>
      <trkpt lat="46.0045" lon="4.65708">
        <ele>325.83001709</ele>
        <time>2016-01-14T14:21:29.433Z</time>
      </trkpt>
      <trkpt lat="46.0045" lon="4.65706">
        <ele>325.87979126</ele>
        <time>2016-01-14T14:21:30.412Z</time>
      </trkpt>
      <trkpt lat="46.00449" lon="4.65694">
        <ele>326.213531494</ele>
        <time>2016-01-14T14:21:36.415Z</time>
      </trkpt>
      <trkpt lat="46.00448" lon="4.65692">
        <ele>326.243865967</ele>
        <time>2016-01-14T14:21:37.406Z</time>
      </trkpt>
      <trkpt lat="46.00448" lon="4.65679">
        <ele>326.330688477</ele>
        <time>2016-01-14T14:21:44.444Z</time>
      </trkpt>
      <trkpt lat="46.00447" lon="4.65678">
        <ele>326.330596924</ele>
        <time>2016-01-14T14:21:45.4Z</time>
      </trkpt>
      <trkpt lat="46.00446" lon="4.65666">
        <ele>326.398834229</ele>
        <time>2016-01-14T14:21:51.445Z</time>
      </trkpt>
      <trkpt lat="46.00446" lon="4.65664">
        <ele>326.41595459</ele>
        <time>2016-01-14T14:21:52.404Z</time>
      </trkpt>
      <trkpt lat="46.00445" lon="4.65652">
        <ele>326.522918701</ele>
        <time>2016-01-14T14:21:59.443Z</time>
      </trkpt>
      <trkpt lat="46.00444" lon="4.6565">
        <ele>326.513092041</ele>
        <time>2016-01-14T14:22:00.413Z</time>
      </trkpt>
      <trkpt lat="46.00444" lon="4.65639">
        <ele>326.220153809</ele>
        <time>2016-01-14T14:22:08.444Z</time>
      </trkpt>
      <trkpt lat="46.00444" lon="4.65637">
        <ele>326.181243896</ele>
        <time>2016-01-14T14:22:09.415Z</time>
      </trkpt>
      <trkpt lat="46.00446" lon="4.65625">
        <ele>326.106262207</ele>
        <time>2016-01-14T14:22:16.439Z</time>
      </trkpt>
      <trkpt lat="46.00446" lon="4.65624">
        <ele>326.097595215</ele>
        <time>2016-01-14T14:22:17.411Z</time>
      </trkpt>
      <trkpt lat="46.00446" lon="4.65611">
        <ele>325.820129395</ele>
        <time>2016-01-14T14:22:25.442Z</time>
      </trkpt>
      <trkpt lat="46.00446" lon="4.6561">
        <ele>325.784912109</ele>
        <time>2016-01-14T14:22:26.424Z</time>
      </trkpt>
      <trkpt lat="46.00445" lon="4.65597">
        <ele>326.147857666</ele>
        <time>2016-01-14T14:22:34.44Z</time>
      </trkpt>
      <trkpt lat="46.00445" lon="4.65596">
        <ele>326.168487549</ele>
        <time>2016-01-14T14:22:35.396Z</time>
      </trkpt>
      <trkpt lat="46.00447" lon="4.65586">
        <ele>326.337677002</ele>
        <time>2016-01-14T14:22:42.443Z</time>
      </trkpt>
      <trkpt lat="46.00447" lon="4.65584">
        <ele>326.374786377</ele>
        <time>2016-01-14T14:22:43.422Z</time>
      </trkpt>
      <trkpt lat="46.00451" lon="4.65572">
        <ele>326.48449707</ele>
        <time>2016-01-14T14:22:50.445Z</time>
      </trkpt>
      <trkpt lat="46.00452" lon="4.6557">
        <ele>326.498077393</ele>
        <time>2016-01-14T14:22:51.418Z</time>
      </trkpt>
      <trkpt lat="46.00454" lon="4.65559">
        <ele>326.589416504</ele>
        <time>2016-01-14T14:22:57.557Z</time>
      </trkpt>
      <trkpt lat="46.00454" lon="4.65557">
        <ele>326.593994141</ele>
        <time>2016-01-14T14:22:58.419Z</time>
      </trkpt>
      <trkpt lat="46.00457" lon="4.65547">
        <ele>326.690155029</ele>
        <time>2016-01-14T14:23:04.444Z</time>
      </trkpt>
      <trkpt lat="46.00457" lon="4.65545">
        <ele>326.680877686</ele>
        <time>2016-01-14T14:23:05.419Z</time>
      </trkpt>
      <trkpt lat="46.0046" lon="4.65534">
        <ele>326.782684326</ele>
        <time>2016-01-14T14:23:12.461Z</time>
      </trkpt>
      <trkpt lat="46.0046" lon="4.65532">
        <ele>326.844848633</ele>
        <time>2016-01-14T14:23:13.423Z</time>
      </trkpt>
      <trkpt lat="46.00464" lon="4.65522">
        <ele>327.222717285</ele>
        <time>2016-01-14T14:23:20.456Z</time>
      </trkpt>
      <trkpt lat="46.00465" lon="4.6552">
        <ele>327.295776367</ele>
        <time>2016-01-14T14:23:21.42Z</time>
      </trkpt>
      <trkpt lat="46.00466" lon="4.65509">
        <ele>327.756469727</ele>
        <time>2016-01-14T14:23:29.434Z</time>
      </trkpt>
      <trkpt lat="46.00467" lon="4.65507">
        <ele>327.880340576</ele>
        <time>2016-01-14T14:23:30.425Z</time>
      </trkpt>
      <trkpt lat="46.00469" lon="4.65496">
        <ele>328.576080322</ele>
        <time>2016-01-14T14:23:36.447Z</time>
      </trkpt>
      <trkpt lat="46.00469" lon="4.65493">
        <ele>328.663146973</ele>
        <time>2016-01-14T14:23:37.416Z</time>
      </trkpt>
      <trkpt lat="46.00471" lon="4.65482">
        <ele>329.200256348</ele>
        <time>2016-01-14T14:23:43.447Z</time>
      </trkpt>
      <trkpt lat="46.00471" lon="4.6548">
        <ele>329.273132324</ele>
        <time>2016-01-14T14:23:44.425Z</time>
      </trkpt>
      <trkpt lat="46.00472" lon="4.65468">
        <ele>329.692474365</ele>
        <time>2016-01-14T14:23:51.444Z</time>
      </trkpt>
      <trkpt lat="46.00472" lon="4.65466">
        <ele>329.732696533</ele>
        <time>2016-01-14T14:23:52.424Z</time>
      </trkpt>
      <trkpt lat="46.00473" lon="4.65454">
        <ele>330.155700684</ele>
        <time>2016-01-14T14:24:00.449Z</time>
      </trkpt>
      <trkpt lat="46.00473" lon="4.65452">
        <ele>330.177947998</ele>
        <time>2016-01-14T14:24:01.423Z</time>
      </trkpt>
      <trkpt lat="46.00473" lon="4.65441">
        <ele>330.202362061</ele>
        <time>2016-01-14T14:24:07.467Z</time>
      </trkpt>
      <trkpt lat="46.00472" lon="4.65438">
        <ele>330.183624268</ele>
        <time>2016-01-14T14:24:08.444Z</time>
      </trkpt>
      <trkpt lat="46.00474" lon="4.65427">
        <ele>330.377685547</ele>
        <time>2016-01-14T14:24:15.569Z</time>
      </trkpt>
      <trkpt lat="46.00474" lon="4.65424">
        <ele>330.412506104</ele>
        <time>2016-01-14T14:24:16.424Z</time>
      </trkpt>
      <trkpt lat="46.00475" lon="4.65413">
        <ele>330.37008667</ele>
        <time>2016-01-14T14:24:22.451Z</time>
      </trkpt>
      <trkpt lat="46.00475" lon="4.65411">
        <ele>330.401519775</ele>
        <time>2016-01-14T14:24:23.424Z</time>
      </trkpt>
      <trkpt lat="46.00474" lon="4.654">
        <ele>330.45715332</ele>
        <time>2016-01-14T14:24:29.458Z</time>
      </trkpt>
      <trkpt lat="46.00474" lon="4.65398">
        <ele>330.464691162</ele>
        <time>2016-01-14T14:24:30.427Z</time>
      </trkpt>
      <trkpt lat="46.00473" lon="4.65387">
        <ele>330.663818359</ele>
        <time>2016-01-14T14:24:37.468Z</time>
      </trkpt>
      <trkpt lat="46.00473" lon="4.65385">
        <ele>330.71496582</ele>
        <time>2016-01-14T14:24:38.425Z</time>
      </trkpt>
      <trkpt lat="46.00475" lon="4.65372">
        <ele>330.651702881</ele>
        <time>2016-01-14T14:24:47.45Z</time>
      </trkpt>
      <trkpt lat="46.00475" lon="4.65371">
        <ele>330.601379395</ele>
        <time>2016-01-14T14:24:48.432Z</time>
      </trkpt>
      <trkpt lat="46.00476" lon="4.65358">
        <ele>330.424072266</ele>
        <time>2016-01-14T14:24:54.49Z</time>
      </trkpt>
      <trkpt lat="46.00476" lon="4.65357">
        <ele>330.425262451</ele>
        <time>2016-01-14T14:24:55.429Z</time>
      </trkpt>
      <trkpt lat="46.00476" lon="4.65345">
        <ele>330.746337891</ele>
        <time>2016-01-14T14:25:04.458Z</time>
      </trkpt>
      <trkpt lat="46.00476" lon="4.65343">
        <ele>330.79510498</ele>
        <time>2016-01-14T14:25:05.429Z</time>
      </trkpt>
      <trkpt lat="46.00478" lon="4.65331">
        <ele>331.540100098</ele>
        <time>2016-01-14T14:25:13.45Z</time>
      </trkpt>
      <trkpt lat="46.00478" lon="4.65329">
        <ele>331.529083252</ele>
        <time>2016-01-14T14:25:14.43Z</time>
      </trkpt>
      <trkpt lat="46.0048" lon="4.65316">
        <ele>331.336669922</ele>
        <time>2016-01-14T14:25:20.454Z</time>
      </trkpt>
      <trkpt lat="46.00481" lon="4.65315">
        <ele>331.369476318</ele>
        <time>2016-01-14T14:25:21.414Z</time>
      </trkpt>
      <trkpt lat="46.00482" lon="4.65303">
        <ele>331.533966064</ele>
        <time>2016-01-14T14:25:27.469Z</time>
      </trkpt>
      <trkpt lat="46.00483" lon="4.65301">
        <ele>331.550109863</ele>
        <time>2016-01-14T14:25:28.411Z</time>
      </trkpt>
      <trkpt lat="46.00485" lon="4.65289">
        <ele>331.696777344</ele>
        <time>2016-01-14T14:25:35.457Z</time>
      </trkpt>
      <trkpt lat="46.00485" lon="4.65287">
        <ele>331.715362549</ele>
        <time>2016-01-14T14:25:36.431Z</time>
      </trkpt>
      <trkpt lat="46.00487" lon="4.65275">
        <ele>331.835662842</ele>
        <time>2016-01-14T14:25:43.457Z</time>
      </trkpt>
      <trkpt lat="46.00487" lon="4.65273">
        <ele>331.84375</ele>
        <time>2016-01-14T14:25:44.431Z</time>
      </trkpt>
      <trkpt lat="46.00489" lon="4.65262">
        <ele>331.914031982</ele>
        <time>2016-01-14T14:25:51.461Z</time>
      </trkpt>
      <trkpt lat="46.00489" lon="4.65259">
        <ele>331.886810303</ele>
        <time>2016-01-14T14:25:52.434Z</time>
      </trkpt>
      <trkpt lat="46.00489" lon="4.65247">
        <ele>331.822021484</ele>
        <time>2016-01-14T14:25:58.452Z</time>
      </trkpt>
      <trkpt lat="46.00489" lon="4.65245">
        <ele>331.796630859</ele>
        <time>2016-01-14T14:25:59.408Z</time>
      </trkpt>
      <trkpt lat="46.00481" lon="4.6524">
        <ele>332.065612793</ele>
        <time>2016-01-14T14:27:03.447Z</time>
      </trkpt>
      <trkpt lat="46.0048" lon="4.65239">
        <ele>332.100738525</ele>
        <time>2016-01-14T14:27:04.408Z</time>
      </trkpt>
      <trkpt lat="46.00472" lon="4.65235">
        <ele>331.597015381</ele>
        <time>2016-01-14T14:27:11.445Z</time>
      </trkpt>
      <trkpt lat="46.0047" lon="4.65234">
        <ele>331.543365479</ele>
        <time>2016-01-14T14:27:12.414Z</time>
      </trkpt>
      <trkpt lat="46.00462" lon="4.6523">
        <ele>330.6953125</ele>
        <time>2016-01-14T14:27:19.446Z</time>
      </trkpt>
      <trkpt lat="46.00462" lon="4.6523">
        <ele>330.601654053</ele>
        <time>2016-01-14T14:27:20.41Z</time>
      </trkpt>
      <trkpt lat="46.00454" lon="4.65226">
        <ele>329.603363037</ele>
        <time>2016-01-14T14:27:28.555Z</time>
      </trkpt>
      <trkpt lat="46.00453" lon="4.65225">
        <ele>329.470336914</ele>
        <time>2016-01-14T14:27:29.414Z</time>
      </trkpt>
      <trkpt lat="46.00446" lon="4.65217">
        <ele>328.520446777</ele>
        <time>2016-01-14T14:27:38.44Z</time>
      </trkpt>
      <trkpt lat="46.00446" lon="4.65216">
        <ele>328.500762939</ele>
        <time>2016-01-14T14:27:39.415Z</time>
      </trkpt>
      <trkpt lat="46.00445" lon="4.65203">
        <ele>327.771820068</ele>
        <time>2016-01-14T14:27:47.449Z</time>
      </trkpt>
      <trkpt lat="46.00445" lon="4.65202">
        <ele>327.663970947</ele>
        <time>2016-01-14T14:27:48.43Z</time>
      </trkpt>
      <trkpt lat="46.00443" lon="4.6519">
        <ele>326.079101562</ele>
        <time>2016-01-14T14:28:02.43Z</time>
      </trkpt>
      <trkpt lat="46.00443" lon="4.65189">
        <ele>325.966766357</ele>
        <time>2016-01-14T14:28:03.408Z</time>
      </trkpt>
      <trkpt lat="46.00442" lon="4.65177">
        <ele>325.288604736</ele>
        <time>2016-01-14T14:28:12.458Z</time>
      </trkpt>
      <trkpt lat="46.00442" lon="4.65175">
        <ele>325.177612305</ele>
        <time>2016-01-14T14:28:13.411Z</time>
      </trkpt>
      <trkpt lat="46.00439" lon="4.65164">
        <ele>324.834442139</ele>
        <time>2016-01-14T14:28:22.449Z</time>
      </trkpt>
      <trkpt lat="46.00439" lon="4.65163">
        <ele>324.769989014</ele>
        <time>2016-01-14T14:28:23.41Z</time>
      </trkpt>
      <trkpt lat="46.00438" lon="4.6515">
        <ele>324.293640137</ele>
        <time>2016-01-14T14:28:31.473Z</time>
      </trkpt>
      <trkpt lat="46.00438" lon="4.65149">
        <ele>324.280059814</ele>
        <time>2016-01-14T14:28:32.421Z</time>
      </trkpt>
      <trkpt lat="46.00435" lon="4.65138">
        <ele>323.958740234</ele>
        <time>2016-01-14T14:28:44.435Z</time>
      </trkpt>
      <trkpt lat="46.00435" lon="4.65137">
        <ele>323.918212891</ele>
        <time>2016-01-14T14:28:45.41Z</time>
      </trkpt>
      <trkpt lat="46.00432" lon="4.65125">
        <ele>323.571472168</ele>
        <time>2016-01-14T14:28:53.455Z</time>
      </trkpt>
      <trkpt lat="46.00431" lon="4.65124">
        <ele>323.511657715</ele>
        <time>2016-01-14T14:28:54.421Z</time>
      </trkpt>
      <trkpt lat="46.00429" lon="4.65112">
        <ele>322.906341553</ele>
        <time>2016-01-14T14:29:03.453Z</time>
      </trkpt>
      <trkpt lat="46.00429" lon="4.65111">
        <ele>322.800354004</ele>
        <time>2016-01-14T14:29:04.422Z</time>
      </trkpt>
      <trkpt lat="46.00427" lon="4.65099">
        <ele>321.744445801</ele>
        <time>2016-01-14T14:29:13.436Z</time>
      </trkpt>
      <trkpt lat="46.00426" lon="4.65097">
        <ele>321.597503662</ele>
        <time>2016-01-14T14:29:14.423Z</time>
      </trkpt>
      <trkpt lat="46.00424" lon="4.65085">
        <ele>320.30456543</ele>
        <time>2016-01-14T14:29:22.454Z</time>
      </trkpt>
      <trkpt lat="46.00424" lon="4.65084">
        <ele>320.127075195</ele>
        <time>2016-01-14T14:29:23.42Z</time>
      </trkpt>
      <trkpt lat="46.00423" lon="4.65072">
        <ele>318.569702148</ele>
        <time>2016-01-14T14:29:31.454Z</time>
      </trkpt>
      <trkpt lat="46.00423" lon="4.65071">
        <ele>318.347839355</ele>
        <time>2016-01-14T14:29:32.408Z</time>
      </trkpt>
      <trkpt lat="46.0042" lon="4.65058">
        <ele>315.71774292</ele>
        <time>2016-01-14T14:29:43.456Z</time>
      </trkpt>
      <trkpt lat="46.0042" lon="4.65058">
        <ele>315.504608154</ele>
        <time>2016-01-14T14:29:44.421Z</time>
      </trkpt>
      <trkpt lat="46.00417" lon="4.65047">
        <ele>313.820922852</ele>
        <time>2016-01-14T14:29:53.447Z</time>
      </trkpt>
      <trkpt lat="46.00415" lon="4.65044">
        <ele>313.703765869</ele>
        <time>2016-01-14T14:29:54.427Z</time>
      </trkpt>
      <trkpt lat="46.00413" lon="4.65032">
        <ele>312.433624268</ele>
        <time>2016-01-14T14:30:03.416Z</time>
      </trkpt>
      <trkpt lat="46.00412" lon="4.65029">
        <ele>312.247802734</ele>
        <time>2016-01-14T14:30:04.429Z</time>
      </trkpt>
      <trkpt lat="46.0041" lon="4.65018">
        <ele>311.110534668</ele>
        <time>2016-01-14T14:30:09.477Z</time>
      </trkpt>
      <trkpt lat="46.00409" lon="4.65016">
        <ele>310.856628418</ele>
        <time>2016-01-14T14:30:10.423Z</time>
      </trkpt>
      <trkpt lat="46.00404" lon="4.65006">
        <ele>309.167663574</ele>
        <time>2016-01-14T14:30:17.458Z</time>
      </trkpt>
      <trkpt lat="46.00403" lon="4.65005">
        <ele>308.9402771</ele>
        <time>2016-01-14T14:30:18.433Z</time>
      </trkpt>
      <trkpt lat="46.00396" lon="4.64996">
        <ele>308.035583496</ele>
        <time>2016-01-14T14:30:24.454Z</time>
      </trkpt>
      <trkpt lat="46.00395" lon="4.64994">
        <ele>307.907318115</ele>
        <time>2016-01-14T14:30:25.433Z</time>
      </trkpt>
      <trkpt lat="46.00388" lon="4.64988">
        <ele>306.810699463</ele>
        <time>2016-01-14T14:30:31.46Z</time>
      </trkpt>
      <trkpt lat="46.00387" lon="4.64988">
        <ele>306.603149414</ele>
        <time>2016-01-14T14:30:32.43Z</time>
      </trkpt>
      <trkpt lat="46.00379" lon="4.64984">
        <ele>304.921508789</ele>
        <time>2016-01-14T14:30:39.46Z</time>
      </trkpt>
      <trkpt lat="46.00378" lon="4.64983">
        <ele>304.807769775</ele>
        <time>2016-01-14T14:30:40.433Z</time>
      </trkpt>
      <trkpt lat="46.0037" lon="4.64982">
        <ele>304.145019531</ele>
        <time>2016-01-14T14:30:46.454Z</time>
      </trkpt>
      <trkpt lat="46.00369" lon="4.64981">
        <ele>304.113922119</ele>
        <time>2016-01-14T14:30:47.431Z</time>
      </trkpt>
      <trkpt lat="46.00361" lon="4.64982">
        <ele>303.802978516</ele>
        <time>2016-01-14T14:30:54.457Z</time>
      </trkpt>
      <trkpt lat="46.0036" lon="4.64983">
        <ele>303.940032959</ele>
        <time>2016-01-14T14:30:55.442Z</time>
      </trkpt>
      <trkpt lat="46.00352" lon="4.64978">
        <ele>304.991729736</ele>
        <time>2016-01-14T14:31:03.482Z</time>
      </trkpt>
      <trkpt lat="46.00351" lon="4.64977">
        <ele>304.986602783</ele>
        <time>2016-01-14T14:31:04.439Z</time>
      </trkpt>
      <trkpt lat="46.00344" lon="4.64972">
        <ele>304.382598877</ele>
        <time>2016-01-14T14:31:13.461Z</time>
      </trkpt>
      <trkpt lat="46.00342" lon="4.64971">
        <ele>304.364227295</ele>
        <time>2016-01-14T14:31:14.433Z</time>
      </trkpt>
      <trkpt lat="46.00335" lon="4.64968">
        <ele>304.445831299</ele>
        <time>2016-01-14T14:31:18.455Z</time>
      </trkpt>
      <trkpt lat="46.00333" lon="4.64968">
        <ele>304.399261475</ele>
        <time>2016-01-14T14:31:19.458Z</time>
      </trkpt>
      <trkpt lat="46.00325" lon="4.64965">
        <ele>304.167907715</ele>
        <time>2016-01-14T14:31:24.458Z</time>
      </trkpt>
      <trkpt lat="46.00324" lon="4.64964">
        <ele>304.093566895</ele>
        <time>2016-01-14T14:31:25.433Z</time>
      </trkpt>
      <trkpt lat="46.00316" lon="4.64961">
        <ele>303.412353516</ele>
        <time>2016-01-14T14:31:32.433Z</time>
      </trkpt>
      <trkpt lat="46.00315" lon="4.6496">
        <ele>303.415618896</ele>
        <time>2016-01-14T14:31:33.399Z</time>
      </trkpt>
      <trkpt lat="46.00312" lon="4.6495">
        <ele>302.474609375</ele>
        <time>2016-01-14T14:31:45.433Z</time>
      </trkpt>
      <trkpt lat="46.00312" lon="4.64948">
        <ele>302.488128662</ele>
        <time>2016-01-14T14:31:46.409Z</time>
      </trkpt>
      <trkpt lat="46.00311" lon="4.64936">
        <ele>302.492279053</ele>
        <time>2016-01-14T14:31:50.429Z</time>
      </trkpt>
      <trkpt lat="46.00311" lon="4.64933">
        <ele>302.438720703</ele>
        <time>2016-01-14T14:31:51.41Z</time>
      </trkpt>
      <trkpt lat="46.00311" lon="4.64921">
        <ele>302.161132812</ele>
        <time>2016-01-14T14:31:57.45Z</time>
      </trkpt>
      <trkpt lat="46.00311" lon="4.6492">
        <ele>302.100585938</ele>
        <time>2016-01-14T14:31:58.408Z</time>
      </trkpt>
      <trkpt lat="46.00303" lon="4.64914">
        <ele>301.664245605</ele>
        <time>2016-01-14T14:32:07.435Z</time>
      </trkpt>
      <trkpt lat="46.00301" lon="4.64913">
        <ele>301.622161865</ele>
        <time>2016-01-14T14:32:08.4Z</time>
      </trkpt>
      <trkpt lat="46.00293" lon="4.64911">
        <ele>301.55456543</ele>
        <time>2016-01-14T14:32:19.454Z</time>
      </trkpt>
      <trkpt lat="46.00292" lon="4.64911">
        <ele>301.449523926</ele>
        <time>2016-01-14T14:32:20.414Z</time>
      </trkpt>
      <trkpt lat="46.00283" lon="4.64906">
        <ele>301.432769775</ele>
        <time>2016-01-14T14:32:29.456Z</time>
      </trkpt>
      <trkpt lat="46.00283" lon="4.64905">
        <ele>301.503326416</ele>
        <time>2016-01-14T14:32:30.414Z</time>
      </trkpt>
      <trkpt lat="46.00275" lon="4.64904">
        <ele>302.091369629</ele>
        <time>2016-01-14T14:32:40.467Z</time>
      </trkpt>
      <trkpt lat="46.00273" lon="4.64903">
        <ele>302.170928955</ele>
        <time>2016-01-14T14:32:41.414Z</time>
      </trkpt>
      <trkpt lat="46.00264" lon="4.64902">
        <ele>302.194549561</ele>
        <time>2016-01-14T14:32:45.437Z</time>
      </trkpt>
      <trkpt lat="46.00263" lon="4.64901">
        <ele>302.227386475</ele>
        <time>2016-01-14T14:32:46.415Z</time>
      </trkpt>
      <trkpt lat="46.00255" lon="4.64899">
        <ele>302.58782959</ele>
        <time>2016-01-14T14:32:51.442Z</time>
      </trkpt>
      <trkpt lat="46.00254" lon="4.64899">
        <ele>302.70513916</ele>
        <time>2016-01-14T14:32:52.423Z</time>
      </trkpt>
      <trkpt lat="46.00245" lon="4.64895">
        <ele>303.36328125</ele>
        <time>2016-01-14T14:33:02.445Z</time>
      </trkpt>
      <trkpt lat="46.00244" lon="4.64895">
        <ele>303.474884033</ele>
        <time>2016-01-14T14:33:03.416Z</time>
      </trkpt>
      <trkpt lat="46.00236" lon="4.64892">
        <ele>304.186553955</ele>
        <time>2016-01-14T14:33:11.545Z</time>
      </trkpt>
      <trkpt lat="46.00235" lon="4.64892">
        <ele>304.231262207</ele>
        <time>2016-01-14T14:33:12.422Z</time>
      </trkpt>
      <trkpt lat="46.00226" lon="4.64891">
        <ele>305.462615967</ele>
        <time>2016-01-14T14:33:20.439Z</time>
      </trkpt>
      <trkpt lat="46.00224" lon="4.64891">
        <ele>305.64465332</ele>
        <time>2016-01-14T14:33:21.424Z</time>
      </trkpt>
      <trkpt lat="46.00216" lon="4.6489">
        <ele>306.243133545</ele>
        <time>2016-01-14T14:33:30.44Z</time>
      </trkpt>
      <trkpt lat="46.00215" lon="4.64889">
        <ele>306.271087646</ele>
        <time>2016-01-14T14:33:31.417Z</time>
      </trkpt>
      <trkpt lat="46.00207" lon="4.64887">
        <ele>308.84765625</ele>
        <time>2016-01-14T14:33:47.441Z</time>
      </trkpt>
      <trkpt lat="46.00206" lon="4.64886">
        <ele>308.864837646</ele>
        <time>2016-01-14T14:33:48.419Z</time>
      </trkpt>
      <trkpt lat="46.00197" lon="4.64882">
        <ele>307.892822266</ele>
        <time>2016-01-14T14:34:04.412Z</time>
      </trkpt>
      <trkpt lat="46.00196" lon="4.64882">
        <ele>307.763519287</ele>
        <time>2016-01-14T14:34:05.423Z</time>
      </trkpt>
      <trkpt lat="46.00187" lon="4.64879">
        <ele>307.558166504</ele>
        <time>2016-01-14T14:34:09.454Z</time>
      </trkpt>
      <trkpt lat="46.00186" lon="4.64878">
        <ele>307.595703125</ele>
        <time>2016-01-14T14:34:10.421Z</time>
      </trkpt>
      <trkpt lat="46.00184" lon="4.64866">
        <ele>308.038970947</ele>
        <time>2016-01-14T14:34:30.455Z</time>
      </trkpt>
      <trkpt lat="46.00184" lon="4.64865">
        <ele>308.111358643</ele>
        <time>2016-01-14T14:34:31.423Z</time>
      </trkpt>
      <trkpt lat="46.00185" lon="4.64853">
        <ele>307.673187256</ele>
        <time>2016-01-14T14:34:39.457Z</time>
      </trkpt>
      <trkpt lat="46.00185" lon="4.64851">
        <ele>307.594238281</ele>
        <time>2016-01-14T14:34:40.424Z</time>
      </trkpt>
      <trkpt lat="46.00183" lon="4.64839">
        <ele>307.245880127</ele>
        <time>2016-01-14T14:34:44.442Z</time>
      </trkpt>
      <trkpt lat="46.00183" lon="4.64836">
        <ele>307.291168213</ele>
        <time>2016-01-14T14:34:45.424Z</time>
      </trkpt>
      <trkpt lat="46.00182" lon="4.64823">
        <ele>308.499389648</ele>
        <time>2016-01-14T14:34:58.451Z</time>
      </trkpt>
      <trkpt lat="46.00181" lon="4.64821">
        <ele>308.663299561</ele>
        <time>2016-01-14T14:34:59.433Z</time>
      </trkpt>
      <trkpt lat="46.00179" lon="4.64809">
        <ele>309.687561035</ele>
        <time>2016-01-14T14:35:06.46Z</time>
      </trkpt>
      <trkpt lat="46.00179" lon="4.64807">
        <ele>309.860839844</ele>
        <time>2016-01-14T14:35:07.429Z</time>
      </trkpt>
      <trkpt lat="46.00178" lon="4.64794">
        <ele>311.106872559</ele>
        <time>2016-01-14T14:35:15.452Z</time>
      </trkpt>
      <trkpt lat="46.00178" lon="4.64792">
        <ele>311.179718018</ele>
        <time>2016-01-14T14:35:16.429Z</time>
      </trkpt>
      <trkpt lat="46.00178" lon="4.64779">
        <ele>311.798522949</ele>
        <time>2016-01-14T14:35:25.447Z</time>
      </trkpt>
      <trkpt lat="46.00178" lon="4.64777">
        <ele>311.889312744</ele>
        <time>2016-01-14T14:35:26.426Z</time>
      </trkpt>
      <trkpt lat="46.00176" lon="4.64766">
        <ele>312.74786377</ele>
        <time>2016-01-14T14:35:32.451Z</time>
      </trkpt>
      <trkpt lat="46.00176" lon="4.64764">
        <ele>312.734344482</ele>
        <time>2016-01-14T14:35:33.427Z</time>
      </trkpt>
      <trkpt lat="46.00175" lon="4.64751">
        <ele>313.272857666</ele>
        <time>2016-01-14T14:35:40.445Z</time>
      </trkpt>
      <trkpt lat="46.00174" lon="4.6475">
        <ele>313.372070312</ele>
        <time>2016-01-14T14:35:41.426Z</time>
      </trkpt>
      <trkpt lat="46.00174" lon="4.64738">
        <ele>313.670532227</ele>
        <time>2016-01-14T14:35:48.454Z</time>
      </trkpt>
      <trkpt lat="46.00174" lon="4.64735">
        <ele>313.533782959</ele>
        <time>2016-01-14T14:35:49.43Z</time>
      </trkpt>
      <trkpt lat="46.00173" lon="4.64723">
        <ele>314.561676025</ele>
        <time>2016-01-14T14:35:59.581Z</time>
      </trkpt>
      <trkpt lat="46.00173" lon="4.64721">
        <ele>314.682312012</ele>
        <time>2016-01-14T14:36:00.436Z</time>
      </trkpt>
      <trkpt lat="46.00173" lon="4.6471">
        <ele>315.807556152</ele>
        <time>2016-01-14T14:36:07.453Z</time>
      </trkpt>
      <trkpt lat="46.00172" lon="4.64706">
        <ele>315.842437744</ele>
        <time>2016-01-14T14:36:08.433Z</time>
      </trkpt>
      <trkpt lat="46.00172" lon="4.64694">
        <ele>316.221588135</ele>
        <time>2016-01-14T14:36:13.457Z</time>
      </trkpt>
      <trkpt lat="46.00172" lon="4.64692">
        <ele>316.365234375</ele>
        <time>2016-01-14T14:36:14.429Z</time>
      </trkpt>
      <trkpt lat="46.00174" lon="4.64682">
        <ele>316.970031738</ele>
        <time>2016-01-14T14:36:20.457Z</time>
      </trkpt>
      <trkpt lat="46.00174" lon="4.64679">
        <ele>317.037475586</ele>
        <time>2016-01-14T14:36:21.42Z</time>
      </trkpt>
      <trkpt lat="46.00175" lon="4.64667">
        <ele>316.980377197</ele>
        <time>2016-01-14T14:36:28.464Z</time>
      </trkpt>
      <trkpt lat="46.00175" lon="4.64665">
        <ele>317.054626465</ele>
        <time>2016-01-14T14:36:29.436Z</time>
      </trkpt>
      <trkpt lat="46.00173" lon="4.64653">
        <ele>317.778167725</ele>
        <time>2016-01-14T14:36:36.452Z</time>
      </trkpt>
      <trkpt lat="46.00173" lon="4.64652">
        <ele>317.909942627</ele>
        <time>2016-01-14T14:36:37.409Z</time>
      </trkpt>
      <trkpt lat="46.00171" lon="4.6464">
        <ele>320.736450195</ele>
        <time>2016-01-14T14:36:49.462Z</time>
      </trkpt>
      <trkpt lat="46.0017" lon="4.64639">
        <ele>320.963348389</ele>
        <time>2016-01-14T14:36:50.412Z</time>
      </trkpt>
      <trkpt lat="46.00169" lon="4.64626">
        <ele>322.215423584</ele>
        <time>2016-01-14T14:36:56.43Z</time>
      </trkpt>
      <trkpt lat="46.00169" lon="4.64623">
        <ele>322.464324951</ele>
        <time>2016-01-14T14:36:57.39Z</time>
      </trkpt>
      <trkpt lat="46.00165" lon="4.64613">
        <ele>322.882141113</ele>
        <time>2016-01-14T14:37:00.444Z</time>
      </trkpt>
      <trkpt lat="46.00164" lon="4.64611">
        <ele>322.989105225</ele>
        <time>2016-01-14T14:37:01.393Z</time>
      </trkpt>
      <trkpt lat="46.00166" lon="4.64599">
        <ele>323.377593994</ele>
        <time>2016-01-14T14:37:11.439Z</time>
      </trkpt>
      <trkpt lat="46.00168" lon="4.64599">
        <ele>323.424438477</ele>
        <time>2016-01-14T14:37:12.4Z</time>
      </trkpt>
      <trkpt lat="46.00176" lon="4.64594">
        <ele>323.7371521</ele>
        <time>2016-01-14T14:37:17.452Z</time>
      </trkpt>
      <trkpt lat="46.00178" lon="4.64593">
        <ele>323.806030273</ele>
        <time>2016-01-14T14:37:18.409Z</time>
      </trkpt>
      <trkpt lat="46.00186" lon="4.64592">
        <ele>324.45135498</ele>
        <time>2016-01-14T14:37:26.434Z</time>
      </trkpt>
      <trkpt lat="46.00188" lon="4.64591">
        <ele>324.664703369</ele>
        <time>2016-01-14T14:37:27.41Z</time>
      </trkpt>
      <trkpt lat="46.00196" lon="4.64587">
        <ele>327.65914917</ele>
        <time>2016-01-14T14:37:38.477Z</time>
      </trkpt>
      <trkpt lat="46.00197" lon="4.64586">
        <ele>327.841461182</ele>
        <time>2016-01-14T14:37:39.413Z</time>
      </trkpt>
      <trkpt lat="46.00205" lon="4.64581">
        <ele>328.516876221</ele>
        <time>2016-01-14T14:37:46.444Z</time>
      </trkpt>
      <trkpt lat="46.00206" lon="4.64581">
        <ele>328.690338135</ele>
        <time>2016-01-14T14:37:47.412Z</time>
      </trkpt>
      <trkpt lat="46.00213" lon="4.64583">
        <ele>329.449157715</ele>
        <time>2016-01-14T14:37:51.43Z</time>
      </trkpt>
      <trkpt lat="46.00215" lon="4.64583">
        <ele>329.607330322</ele>
        <time>2016-01-14T14:37:52.408Z</time>
      </trkpt>
      <trkpt lat="46.00224" lon="4.6458">
        <ele>329.977539062</ele>
        <time>2016-01-14T14:38:14.451Z</time>
      </trkpt>
      <trkpt lat="46.00224" lon="4.64581">
        <ele>329.976593018</ele>
        <time>2016-01-14T14:38:15.418Z</time>
      </trkpt>
      <trkpt lat="46.00233" lon="4.64576">
        <ele>331.618835449</ele>
        <time>2016-01-14T14:39:36.456Z</time>
      </trkpt>
      <trkpt lat="46.00233" lon="4.64576">
        <ele>331.646728516</ele>
        <time>2016-01-14T14:39:37.423Z</time>
      </trkpt>
      <trkpt lat="46.00234" lon="4.64588">
        <ele>331.106048584</ele>
        <time>2016-01-14T14:40:04.571Z</time>
      </trkpt>
      <trkpt lat="46.00234" lon="4.64589">
        <ele>331.097747803</ele>
        <time>2016-01-14T14:40:05.421Z</time>
      </trkpt>
      <trkpt lat="46.00242" lon="4.64588">
        <ele>330.057098389</ele>
        <time>2016-01-14T14:40:43.452Z</time>
      </trkpt>
      <trkpt lat="46.00243" lon="4.64588">
        <ele>329.98449707</ele>
        <time>2016-01-14T14:40:44.425Z</time>
      </trkpt>
      <trkpt lat="46.00252" lon="4.64586">
        <ele>328.459594727</ele>
        <time>2016-01-14T14:41:05.45Z</time>
      </trkpt>
      <trkpt lat="46.00252" lon="4.64586">
        <ele>328.366241455</ele>
        <time>2016-01-14T14:41:06.426Z</time>
      </trkpt>
      <trkpt lat="46.00258" lon="4.64589">
        <ele>327.423126221</ele>
        <time>2016-01-14T14:41:17.454Z</time>
      </trkpt>
      <trkpt lat="46.0026" lon="4.6459">
        <ele>327.279144287</ele>
        <time>2016-01-14T14:41:18.459Z</time>
      </trkpt>
      <trkpt lat="46.00268" lon="4.6459">
        <ele>326.292480469</ele>
        <time>2016-01-14T14:41:23.572Z</time>
      </trkpt>
      <trkpt lat="46.00269" lon="4.6459">
        <ele>326.009185791</ele>
        <time>2016-01-14T14:41:24.426Z</time>
      </trkpt>
      <trkpt lat="46.00278" lon="4.64585">
        <ele>323.933502197</ele>
        <time>2016-01-14T14:41:37.464Z</time>
      </trkpt>
      <trkpt lat="46.00278" lon="4.64585">
        <ele>323.82434082</ele>
        <time>2016-01-14T14:41:38.431Z</time>
      </trkpt>
      <trkpt lat="46.00284" lon="4.64579">
        <ele>322.38079834</ele>
        <time>2016-01-14T14:41:46.478Z</time>
      </trkpt>
      <trkpt lat="46.00285" lon="4.64577">
        <ele>322.131469727</ele>
        <time>2016-01-14T14:41:47.429Z</time>
      </trkpt>
      <trkpt lat="46.00292" lon="4.64571">
        <ele>320.369476318</ele>
        <time>2016-01-14T14:41:59.458Z</time>
      </trkpt>
      <trkpt lat="46.00293" lon="4.6457">
        <ele>320.233734131</ele>
        <time>2016-01-14T14:42:00.428Z</time>
      </trkpt>
      <trkpt lat="46.003" lon="4.64563">
        <ele>319.553100586</ele>
        <time>2016-01-14T14:42:06.436Z</time>
      </trkpt>
      <trkpt lat="46.00301" lon="4.64562">
        <ele>319.467987061</ele>
        <time>2016-01-14T14:42:07.401Z</time>
      </trkpt>
      <trkpt lat="46.00307" lon="4.64553">
        <ele>318.561920166</ele>
        <time>2016-01-14T14:42:15.452Z</time>
      </trkpt>
      <trkpt lat="46.00308" lon="4.64552">
        <ele>318.453979492</ele>
        <time>2016-01-14T14:42:16.41Z</time>
      </trkpt>
      <trkpt lat="46.00314" lon="4.64544">
        <ele>317.680908203</ele>
        <time>2016-01-14T14:42:26.452Z</time>
      </trkpt>
      <trkpt lat="46.00315" lon="4.64543">
        <ele>317.596343994</ele>
        <time>2016-01-14T14:42:27.409Z</time>
      </trkpt>
      <trkpt lat="46.00321" lon="4.64535">
        <ele>317.196411133</ele>
        <time>2016-01-14T14:42:34.453Z</time>
      </trkpt>
      <trkpt lat="46.00322" lon="4.64535">
        <ele>317.101348877</ele>
        <time>2016-01-14T14:42:35.413Z</time>
      </trkpt>
      <trkpt lat="46.00329" lon="4.64526">
        <ele>316.805480957</ele>
        <time>2016-01-14T14:42:42.434Z</time>
      </trkpt>
      <trkpt lat="46.00329" lon="4.64525">
        <ele>316.763397217</ele>
        <time>2016-01-14T14:42:43.416Z</time>
      </trkpt>
      <trkpt lat="46.00337" lon="4.6452">
        <ele>316.360626221</ele>
        <time>2016-01-14T14:42:50.443Z</time>
      </trkpt>
      <trkpt lat="46.00338" lon="4.64519">
        <ele>316.301696777</ele>
        <time>2016-01-14T14:42:51.423Z</time>
      </trkpt>
      <trkpt lat="46.00344" lon="4.64511">
        <ele>315.603912354</ele>
        <time>2016-01-14T14:42:59.443Z</time>
      </trkpt>
      <trkpt lat="46.00345" lon="4.6451">
        <ele>315.546661377</ele>
        <time>2016-01-14T14:43:00.413Z</time>
      </trkpt>
      <trkpt lat="46.00351" lon="4.64502">
        <ele>314.852905273</ele>
        <time>2016-01-14T14:43:09.452Z</time>
      </trkpt>
      <trkpt lat="46.00353" lon="4.64501">
        <ele>314.756774902</ele>
        <time>2016-01-14T14:43:10.413Z</time>
      </trkpt>
      <trkpt lat="46.00359" lon="4.64493">
        <ele>314.419403076</ele>
        <time>2016-01-14T14:43:18.463Z</time>
      </trkpt>
      <trkpt lat="46.0036" lon="4.64492">
        <ele>314.356292725</ele>
        <time>2016-01-14T14:43:19.409Z</time>
      </trkpt>
      <trkpt lat="46.00365" lon="4.64483">
        <ele>313.692199707</ele>
        <time>2016-01-14T14:43:28.44Z</time>
      </trkpt>
      <trkpt lat="46.00366" lon="4.64482">
        <ele>313.649291992</ele>
        <time>2016-01-14T14:43:29.403Z</time>
      </trkpt>
      <trkpt lat="46.00369" lon="4.64472">
        <ele>313.030914307</ele>
        <time>2016-01-14T14:43:35.417Z</time>
      </trkpt>
      <trkpt lat="46.0037" lon="4.64471">
        <ele>312.945251465</ele>
        <time>2016-01-14T14:43:36.41Z</time>
      </trkpt>
      <trkpt lat="46.00373" lon="4.6446">
        <ele>312.154998779</ele>
        <time>2016-01-14T14:43:43.429Z</time>
      </trkpt>
      <trkpt lat="46.00374" lon="4.64459">
        <ele>312.009338379</ele>
        <time>2016-01-14T14:43:44.416Z</time>
      </trkpt>
      <trkpt lat="46.0038" lon="4.64451">
        <ele>311.589385986</ele>
        <time>2016-01-14T14:43:53.443Z</time>
      </trkpt>
      <trkpt lat="46.00381" lon="4.6445">
        <ele>311.616424561</ele>
        <time>2016-01-14T14:43:54.425Z</time>
      </trkpt>
      <trkpt lat="46.00388" lon="4.64441">
        <ele>312.096160889</ele>
        <time>2016-01-14T14:44:06.442Z</time>
      </trkpt>
      <trkpt lat="46.00388" lon="4.64441">
        <ele>312.17401123</ele>
        <time>2016-01-14T14:44:07.419Z</time>
      </trkpt>
      <trkpt lat="46.0039" lon="4.64428">
        <ele>312.116271973</ele>
        <time>2016-01-14T14:44:19.443Z</time>
      </trkpt>
      <trkpt lat="46.0039" lon="4.64428">
        <ele>312.11126709</ele>
        <time>2016-01-14T14:44:20.422Z</time>
      </trkpt>
      <trkpt lat="46.00389" lon="4.64426">
        <ele>311.966766357</ele>
        <time>2016-01-14T14:44:50.159Z</time>
      </trkpt>
    </trkseg>
  </trk>
</gpx>